<?xml version="1.0" encoding="UTF-8" standalone="no" ?>
<gpx xmlns="http://www.topografix.com/GPX/1/1" xmlns:xsi="http://www.w3.org/2001/XMLSchema-instance" xsi:schemaLocation="http://www.topografix.com/GPX/1/1 http://www.topografix.com/GPX/1/1/gpx.xsd" version="1.1" creator="VisuGPX - https://www.visugpx.com">
  <metadata>
    <name>94L32/26 Boucle autour de Sucy en Brie par Brigitte M IBP 49</name>
    <desc><![CDATA[[img]https://blogger.googleusercontent.com/img/b/R29vZ2xl/AVvXsEgtxJOGU48crAHxM9XYTfJGVDofllJPoKWzKNFy1wpVypHy4YmHDpPH9xwotriO_Hys3IbzmX5bRrEhK_soXYVgpCI1b1FTXKfj24mCXbUaW4NFqiP5foC7Yv_Er2OgPF222X9Ku5GiqWFoGHTkfXRj5NjHgajEKI-QnEJXNqXH2Pkuc1XIg3_MG2NiRhjG/w400-h266/Blanc%20avec%20Pastel%20Rayures%20Bordure%20Badge%20(4).jpg[/img] 


[img]https://blogger.googleusercontent.com/img/b/R29vZ2xl/AVvXsEhyvuHuSjCnJfzIoSGZR2uCGIVkETMBEY4tFocprqxvjqS91HNZcaXlRpQzvJTLXcG69GcyqERVukDYAYUlZ4i4PZMq9Nrf_b5owv9W_8xhBuQOUsL64U_sh9zV80VVq4ZDnpcr5oWwLTn4oQbyd4nNY26KvX4TT9epzNKumAL2kIdi3BiTugT3H0aE-aLv/s100/Sans%20titre%20(100%20x%20100%20px).jpg[/img]   [b]Rando Club Yerrois[/b]

[img]https://blogger.googleusercontent.com/img/b/R29vZ2xl/AVvXsEisi-VCznprvDLvJTlGk5ZHUUj5yKrsElOgMzt8ZYerzNaNt4s6I63SEOjiyhOhZ79ZCPxjkCWOeBZVT0IfKD9x5cefBKGtWs0HffsRVNBZ_GzPYFVErrhJ-zni0IwzT6lZB9LelozK_h3Vxf6ZGan-fO04zJXTJPzvOFFMGQuZ7ozZxAYlTT7U7G062SCB/s320/Animateur%20%282%29.jpg[/img] [b]Mercredi 20 mai 2026 2026 [/b]
[img]https://blogger.googleusercontent.com/img/b/R29vZ2xl/AVvXsEgLiyi8DByeS3i7Ou4F9krchrsaam-BzjGlHuK7eNSe_7AJuLd5jUWTQdCggn9odJ9fmjqMOcucBLci-qUgj1g1NM2wK2aLvYXOnm5phdzMlYBBt9xKSrCUORYm5b1pQyRO8GdcDjNbzq7w_zn3stIXah3Zbr1uuDsp1qCuGszvlALy0GSl-R6VNyb297QF/s320/Animateur%20%285%29.jpg[/img] Brigitte M
[img]https://blogger.googleusercontent.com/img/b/R29vZ2xl/AVvXsEgFqA__k0dEq3JY-oznl3CprwE9o8zv7MAf5L8hc080yDG3kiv1D5FW-w06fRognG7kP0fdaGHobn_7-vKxwfvoxhwcqfGchPXaAEWfgWBcDKe6xRMWTNRkL596gfBSxFIJO-7t1BSkByGALZv5QZsPR94pLR2Gixc-2pFqXQeknAzgonGgv-FUlZC1J3PM/s320/Animateur%20%284%29.jpg[/img] NP
[img]https://blogger.googleusercontent.com/img/b/R29vZ2xl/AVvXsEiXyNFSKONmIWva9q1OH5UrSlMDxrajCo4dLvQm5jbx-Wk-TheBAsAlZzBIggtXvQD4URVcl_BcGknoH3rsQ1es5f4PGTS0SH_1J2X9smZxjZVQ2JF4I1HHYQOKhcYGEgPUjnAJ55BKZqaTvPA7QJWC_lBmyjkZlIZOUuWkK-LFZ3bbYrc7ENwf-G9FSZjz/s320/Animateur%20%283%29.jpg[/img]  Ras 




[b]Avertissement[/b] Toutes les randonnées répertoriées dans la randothèque du [b]R[/b]ando [b]C[/b]lub [b]Y[/b]errois ont été tracées par l'un de nos animateurs, puis reconnues et enfin effectuées avec un groupe. Pour votre sécurité, regardez toujours la date à laquelle la sortie a été effectuée - Nous tachons de mentionner des conditions météos particulières ou les difficultés éventuelles. N'oubliez jamais les consignes supplémentaires de sécurité]]></desc>
  </metadata>
  <trk>
    <name><![CDATA[SityTrail - BM Rando Sucy du 20052026]]></name>
    <trkseg>
      <trkpt lat="48.74906" lon="2.5396">
        <ele>98</ele>
        <time>2026-05-20T07:24:12.999Z</time>
      </trkpt>
      <trkpt lat="48.74909" lon="2.53952">
        <ele>98</ele>
        <time>2026-05-20T07:29:33.999Z</time>
      </trkpt>
      <trkpt lat="48.74909" lon="2.53952">
        <ele>98</ele>
        <time>2026-05-20T07:29:38.999Z</time>
      </trkpt>
      <trkpt lat="48.74909" lon="2.53948">
        <ele>98</ele>
        <time>2026-05-20T07:29:43.999Z</time>
      </trkpt>
      <trkpt lat="48.7491" lon="2.53948">
        <ele>98</ele>
        <time>2026-05-20T07:29:48.999Z</time>
      </trkpt>
      <trkpt lat="48.74911" lon="2.53948">
        <ele>98</ele>
        <time>2026-05-20T07:29:53.998Z</time>
      </trkpt>
      <trkpt lat="48.74909" lon="2.53951">
        <ele>98</ele>
        <time>2026-05-20T07:30:58.999Z</time>
      </trkpt>
      <trkpt lat="48.74909" lon="2.53946">
        <ele>98</ele>
        <time>2026-05-20T07:31:02.999Z</time>
      </trkpt>
      <trkpt lat="48.74911" lon="2.53942">
        <ele>98</ele>
        <time>2026-05-20T07:31:07.999Z</time>
      </trkpt>
      <trkpt lat="48.7491" lon="2.53933">
        <ele>98</ele>
        <time>2026-05-20T07:31:12.999Z</time>
      </trkpt>
      <trkpt lat="48.74911" lon="2.53925">
        <ele>97</ele>
        <time>2026-05-20T07:31:17.999Z</time>
      </trkpt>
      <trkpt lat="48.74911" lon="2.53914">
        <ele>97</ele>
        <time>2026-05-20T07:31:22.999Z</time>
      </trkpt>
      <trkpt lat="48.7491" lon="2.53907">
        <ele>97</ele>
        <time>2026-05-20T07:31:27.999Z</time>
      </trkpt>
      <trkpt lat="48.74906" lon="2.53902">
        <ele>98</ele>
        <time>2026-05-20T07:31:32.999Z</time>
      </trkpt>
      <trkpt lat="48.74905" lon="2.53895">
        <ele>98</ele>
        <time>2026-05-20T07:31:37.999Z</time>
      </trkpt>
      <trkpt lat="48.74903" lon="2.53889">
        <ele>100</ele>
        <time>2026-05-20T07:31:41.999Z</time>
      </trkpt>
      <trkpt lat="48.74898" lon="2.53881">
        <ele>100</ele>
        <time>2026-05-20T07:31:46.999Z</time>
      </trkpt>
      <trkpt lat="48.74894" lon="2.53873">
        <ele>100</ele>
        <time>2026-05-20T07:31:51.999Z</time>
      </trkpt>
      <trkpt lat="48.7489" lon="2.53864">
        <ele>100</ele>
        <time>2026-05-20T07:31:56.999Z</time>
      </trkpt>
      <trkpt lat="48.74888" lon="2.53856">
        <ele>100</ele>
        <time>2026-05-20T07:32:01.998Z</time>
      </trkpt>
      <trkpt lat="48.74889" lon="2.53847">
        <ele>100</ele>
        <time>2026-05-20T07:32:05.998Z</time>
      </trkpt>
      <trkpt lat="48.74891" lon="2.53838">
        <ele>100</ele>
        <time>2026-05-20T07:32:10.998Z</time>
      </trkpt>
      <trkpt lat="48.74893" lon="2.53832">
        <ele>100</ele>
        <time>2026-05-20T07:32:14.998Z</time>
      </trkpt>
      <trkpt lat="48.74895" lon="2.53824">
        <ele>100</ele>
        <time>2026-05-20T07:32:19.998Z</time>
      </trkpt>
      <trkpt lat="48.74898" lon="2.53813">
        <ele>100</ele>
        <time>2026-05-20T07:32:24.999Z</time>
      </trkpt>
      <trkpt lat="48.74899" lon="2.53805">
        <ele>100</ele>
        <time>2026-05-20T07:32:29.999Z</time>
      </trkpt>
      <trkpt lat="48.74901" lon="2.53796">
        <ele>100</ele>
        <time>2026-05-20T07:32:34.999Z</time>
      </trkpt>
      <trkpt lat="48.74902" lon="2.53788">
        <ele>100</ele>
        <time>2026-05-20T07:32:39.999Z</time>
      </trkpt>
      <trkpt lat="48.74905" lon="2.53779">
        <ele>100</ele>
        <time>2026-05-20T07:32:44.999Z</time>
      </trkpt>
      <trkpt lat="48.74904" lon="2.53766">
        <ele>100</ele>
        <time>2026-05-20T07:32:49.999Z</time>
      </trkpt>
      <trkpt lat="48.74905" lon="2.5376">
        <ele>100</ele>
        <time>2026-05-20T07:32:53.999Z</time>
      </trkpt>
      <trkpt lat="48.74906" lon="2.53751">
        <ele>100</ele>
        <time>2026-05-20T07:32:58.999Z</time>
      </trkpt>
      <trkpt lat="48.74908" lon="2.53741">
        <ele>100</ele>
        <time>2026-05-20T07:33:03.999Z</time>
      </trkpt>
      <trkpt lat="48.74911" lon="2.53734">
        <ele>101</ele>
        <time>2026-05-20T07:33:08.999Z</time>
      </trkpt>
      <trkpt lat="48.74917" lon="2.53725">
        <ele>101</ele>
        <time>2026-05-20T07:33:13.999Z</time>
      </trkpt>
      <trkpt lat="48.74918" lon="2.53719">
        <ele>101</ele>
        <time>2026-05-20T07:33:17.999Z</time>
      </trkpt>
      <trkpt lat="48.74921" lon="2.53714">
        <ele>101</ele>
        <time>2026-05-20T07:33:22.999Z</time>
      </trkpt>
      <trkpt lat="48.74922" lon="2.53707">
        <ele>101</ele>
        <time>2026-05-20T07:33:27.999Z</time>
      </trkpt>
      <trkpt lat="48.74924" lon="2.53704">
        <ele>101</ele>
        <time>2026-05-20T07:33:32.999Z</time>
      </trkpt>
      <trkpt lat="48.74928" lon="2.53699">
        <ele>101</ele>
        <time>2026-05-20T07:33:37.999Z</time>
      </trkpt>
      <trkpt lat="48.7493" lon="2.53692">
        <ele>101</ele>
        <time>2026-05-20T07:33:41.999Z</time>
      </trkpt>
      <trkpt lat="48.74932" lon="2.53686">
        <ele>100</ele>
        <time>2026-05-20T07:33:46.999Z</time>
      </trkpt>
      <trkpt lat="48.74934" lon="2.5368">
        <ele>100</ele>
        <time>2026-05-20T07:33:51.999Z</time>
      </trkpt>
      <trkpt lat="48.74937" lon="2.53672">
        <ele>100</ele>
        <time>2026-05-20T07:33:56.999Z</time>
      </trkpt>
      <trkpt lat="48.74938" lon="2.53665">
        <ele>100</ele>
        <time>2026-05-20T07:34:01.998Z</time>
      </trkpt>
      <trkpt lat="48.74941" lon="2.53657">
        <ele>100</ele>
        <time>2026-05-20T07:34:06.998Z</time>
      </trkpt>
      <trkpt lat="48.74944" lon="2.53649">
        <ele>99</ele>
        <time>2026-05-20T07:34:11.998Z</time>
      </trkpt>
      <trkpt lat="48.74947" lon="2.5364">
        <ele>99</ele>
        <time>2026-05-20T07:34:16.998Z</time>
      </trkpt>
      <trkpt lat="48.74948" lon="2.5363">
        <ele>99</ele>
        <time>2026-05-20T07:34:21.998Z</time>
      </trkpt>
      <trkpt lat="48.74952" lon="2.53621">
        <ele>99</ele>
        <time>2026-05-20T07:34:26.998Z</time>
      </trkpt>
      <trkpt lat="48.74956" lon="2.53614">
        <ele>99</ele>
        <time>2026-05-20T07:34:31.999Z</time>
      </trkpt>
      <trkpt lat="48.74955" lon="2.53604">
        <ele>99</ele>
        <time>2026-05-20T07:34:36.999Z</time>
      </trkpt>
      <trkpt lat="48.7496" lon="2.53597">
        <ele>99</ele>
        <time>2026-05-20T07:34:41.999Z</time>
      </trkpt>
      <trkpt lat="48.74962" lon="2.53591">
        <ele>99</ele>
        <time>2026-05-20T07:34:45.999Z</time>
      </trkpt>
      <trkpt lat="48.74963" lon="2.53582">
        <ele>99</ele>
        <time>2026-05-20T07:34:50.999Z</time>
      </trkpt>
      <trkpt lat="48.74965" lon="2.53575">
        <ele>99</ele>
        <time>2026-05-20T07:34:54.999Z</time>
      </trkpt>
      <trkpt lat="48.74966" lon="2.53567">
        <ele>99</ele>
        <time>2026-05-20T07:34:59.999Z</time>
      </trkpt>
      <trkpt lat="48.74967" lon="2.53557">
        <ele>99</ele>
        <time>2026-05-20T07:35:04.999Z</time>
      </trkpt>
      <trkpt lat="48.74966" lon="2.53548">
        <ele>99</ele>
        <time>2026-05-20T07:35:09.999Z</time>
      </trkpt>
      <trkpt lat="48.74965" lon="2.53538">
        <ele>100</ele>
        <time>2026-05-20T07:35:14.999Z</time>
      </trkpt>
      <trkpt lat="48.74965" lon="2.53529">
        <ele>100</ele>
        <time>2026-05-20T07:35:18.999Z</time>
      </trkpt>
      <trkpt lat="48.74964" lon="2.5352">
        <ele>100</ele>
        <time>2026-05-20T07:35:23.999Z</time>
      </trkpt>
      <trkpt lat="48.74963" lon="2.53516">
        <ele>100</ele>
        <time>2026-05-20T07:35:27.999Z</time>
      </trkpt>
      <trkpt lat="48.7496" lon="2.53508">
        <ele>100</ele>
        <time>2026-05-20T07:35:31.999Z</time>
      </trkpt>
      <trkpt lat="48.74957" lon="2.53497">
        <ele>101</ele>
        <time>2026-05-20T07:35:36.999Z</time>
      </trkpt>
      <trkpt lat="48.74956" lon="2.53487">
        <ele>101</ele>
        <time>2026-05-20T07:35:41.999Z</time>
      </trkpt>
      <trkpt lat="48.74956" lon="2.5348">
        <ele>101</ele>
        <time>2026-05-20T07:35:45.999Z</time>
      </trkpt>
      <trkpt lat="48.74957" lon="2.53476">
        <ele>101</ele>
        <time>2026-05-20T07:35:49.999Z</time>
      </trkpt>
      <trkpt lat="48.74957" lon="2.53464">
        <ele>101</ele>
        <time>2026-05-20T07:35:54.999Z</time>
      </trkpt>
      <trkpt lat="48.74954" lon="2.53456">
        <ele>100</ele>
        <time>2026-05-20T07:35:59.999Z</time>
      </trkpt>
      <trkpt lat="48.74952" lon="2.53447">
        <ele>100</ele>
        <time>2026-05-20T07:36:04.999Z</time>
      </trkpt>
      <trkpt lat="48.74951" lon="2.53438">
        <ele>100</ele>
        <time>2026-05-20T07:36:09.999Z</time>
      </trkpt>
      <trkpt lat="48.74949" lon="2.53429">
        <ele>100</ele>
        <time>2026-05-20T07:36:14.998Z</time>
      </trkpt>
      <trkpt lat="48.74949" lon="2.53419">
        <ele>100</ele>
        <time>2026-05-20T07:36:19.998Z</time>
      </trkpt>
      <trkpt lat="48.74947" lon="2.5341">
        <ele>100</ele>
        <time>2026-05-20T07:36:24.998Z</time>
      </trkpt>
      <trkpt lat="48.74948" lon="2.53402">
        <ele>100</ele>
        <time>2026-05-20T07:36:29.998Z</time>
      </trkpt>
      <trkpt lat="48.74945" lon="2.5339">
        <ele>100</ele>
        <time>2026-05-20T07:36:34.999Z</time>
      </trkpt>
      <trkpt lat="48.74944" lon="2.53382">
        <ele>100</ele>
        <time>2026-05-20T07:36:39.999Z</time>
      </trkpt>
      <trkpt lat="48.74943" lon="2.53374">
        <ele>100</ele>
        <time>2026-05-20T07:36:44.999Z</time>
      </trkpt>
      <trkpt lat="48.74943" lon="2.53367">
        <ele>100</ele>
        <time>2026-05-20T07:36:48.999Z</time>
      </trkpt>
      <trkpt lat="48.74943" lon="2.53357">
        <ele>100</ele>
        <time>2026-05-20T07:36:53.999Z</time>
      </trkpt>
      <trkpt lat="48.74941" lon="2.53347">
        <ele>99</ele>
        <time>2026-05-20T07:36:58.999Z</time>
      </trkpt>
      <trkpt lat="48.7494" lon="2.53339">
        <ele>99</ele>
        <time>2026-05-20T07:37:03.999Z</time>
      </trkpt>
      <trkpt lat="48.74939" lon="2.53331">
        <ele>99</ele>
        <time>2026-05-20T07:37:08.999Z</time>
      </trkpt>
      <trkpt lat="48.74938" lon="2.53319">
        <ele>99</ele>
        <time>2026-05-20T07:37:13.999Z</time>
      </trkpt>
      <trkpt lat="48.74935" lon="2.53309">
        <ele>99</ele>
        <time>2026-05-20T07:37:18.999Z</time>
      </trkpt>
      <trkpt lat="48.74935" lon="2.53302">
        <ele>99</ele>
        <time>2026-05-20T07:37:22.999Z</time>
      </trkpt>
      <trkpt lat="48.74933" lon="2.53292">
        <ele>99</ele>
        <time>2026-05-20T07:37:27.999Z</time>
      </trkpt>
      <trkpt lat="48.74932" lon="2.53284">
        <ele>99</ele>
        <time>2026-05-20T07:37:32.999Z</time>
      </trkpt>
      <trkpt lat="48.74931" lon="2.53276">
        <ele>98</ele>
        <time>2026-05-20T07:37:37.999Z</time>
      </trkpt>
      <trkpt lat="48.7493" lon="2.53266">
        <ele>98</ele>
        <time>2026-05-20T07:37:42.999Z</time>
      </trkpt>
      <trkpt lat="48.74929" lon="2.53257">
        <ele>99</ele>
        <time>2026-05-20T07:37:47.999Z</time>
      </trkpt>
      <trkpt lat="48.7493" lon="2.5325">
        <ele>99</ele>
        <time>2026-05-20T07:37:51.999Z</time>
      </trkpt>
      <trkpt lat="48.74929" lon="2.53242">
        <ele>99</ele>
        <time>2026-05-20T07:37:56.999Z</time>
      </trkpt>
      <trkpt lat="48.74925" lon="2.53231">
        <ele>100</ele>
        <time>2026-05-20T07:38:01.999Z</time>
      </trkpt>
      <trkpt lat="48.74924" lon="2.53221">
        <ele>100</ele>
        <time>2026-05-20T07:38:06.999Z</time>
      </trkpt>
      <trkpt lat="48.74923" lon="2.53214">
        <ele>100</ele>
        <time>2026-05-20T07:38:10.999Z</time>
      </trkpt>
      <trkpt lat="48.74922" lon="2.53205">
        <ele>100</ele>
        <time>2026-05-20T07:38:15.999Z</time>
      </trkpt>
      <trkpt lat="48.74923" lon="2.53195">
        <ele>100</ele>
        <time>2026-05-20T07:38:20.998Z</time>
      </trkpt>
      <trkpt lat="48.74923" lon="2.53187">
        <ele>100</ele>
        <time>2026-05-20T07:38:25.998Z</time>
      </trkpt>
      <trkpt lat="48.74922" lon="2.53177">
        <ele>101</ele>
        <time>2026-05-20T07:38:30.998Z</time>
      </trkpt>
      <trkpt lat="48.7492" lon="2.53168">
        <ele>101</ele>
        <time>2026-05-20T07:38:35.998Z</time>
      </trkpt>
      <trkpt lat="48.74918" lon="2.53161">
        <ele>101</ele>
        <time>2026-05-20T07:38:40Z</time>
      </trkpt>
      <trkpt lat="48.74917" lon="2.53152">
        <ele>101</ele>
        <time>2026-05-20T07:38:45Z</time>
      </trkpt>
      <trkpt lat="48.74915" lon="2.53142">
        <ele>101</ele>
        <time>2026-05-20T07:38:50Z</time>
      </trkpt>
      <trkpt lat="48.74915" lon="2.53132">
        <ele>101</ele>
        <time>2026-05-20T07:38:55Z</time>
      </trkpt>
      <trkpt lat="48.74916" lon="2.53124">
        <ele>101</ele>
        <time>2026-05-20T07:38:59Z</time>
      </trkpt>
      <trkpt lat="48.74914" lon="2.53114">
        <ele>101</ele>
        <time>2026-05-20T07:39:03.999Z</time>
      </trkpt>
      <trkpt lat="48.74912" lon="2.53105">
        <ele>101</ele>
        <time>2026-05-20T07:39:08.999Z</time>
      </trkpt>
      <trkpt lat="48.7491" lon="2.53094">
        <ele>101</ele>
        <time>2026-05-20T07:39:13.999Z</time>
      </trkpt>
      <trkpt lat="48.7491" lon="2.53085">
        <ele>101</ele>
        <time>2026-05-20T07:39:17.999Z</time>
      </trkpt>
      <trkpt lat="48.7491" lon="2.53077">
        <ele>101</ele>
        <time>2026-05-20T07:39:22.999Z</time>
      </trkpt>
      <trkpt lat="48.74907" lon="2.53067">
        <ele>100</ele>
        <time>2026-05-20T07:39:27.999Z</time>
      </trkpt>
      <trkpt lat="48.74906" lon="2.53056">
        <ele>100</ele>
        <time>2026-05-20T07:39:32.999Z</time>
      </trkpt>
      <trkpt lat="48.74904" lon="2.53047">
        <ele>100</ele>
        <time>2026-05-20T07:39:37.999Z</time>
      </trkpt>
      <trkpt lat="48.74903" lon="2.53036">
        <ele>100</ele>
        <time>2026-05-20T07:39:42.999Z</time>
      </trkpt>
      <trkpt lat="48.74903" lon="2.53029">
        <ele>100</ele>
        <time>2026-05-20T07:39:46.999Z</time>
      </trkpt>
      <trkpt lat="48.74901" lon="2.5302">
        <ele>100</ele>
        <time>2026-05-20T07:39:51.999Z</time>
      </trkpt>
      <trkpt lat="48.749" lon="2.53013">
        <ele>100</ele>
        <time>2026-05-20T07:39:55.999Z</time>
      </trkpt>
      <trkpt lat="48.74897" lon="2.53004">
        <ele>100</ele>
        <time>2026-05-20T07:40:00.999Z</time>
      </trkpt>
      <trkpt lat="48.74898" lon="2.52997">
        <ele>100</ele>
        <time>2026-05-20T07:40:05.999Z</time>
      </trkpt>
      <trkpt lat="48.74897" lon="2.52991">
        <ele>100</ele>
        <time>2026-05-20T07:40:09.999Z</time>
      </trkpt>
      <trkpt lat="48.74895" lon="2.52979">
        <ele>100</ele>
        <time>2026-05-20T07:40:14.999Z</time>
      </trkpt>
      <trkpt lat="48.74893" lon="2.52969">
        <ele>100</ele>
        <time>2026-05-20T07:40:19.999Z</time>
      </trkpt>
      <trkpt lat="48.74893" lon="2.52961">
        <ele>100</ele>
        <time>2026-05-20T07:40:23.999Z</time>
      </trkpt>
      <trkpt lat="48.74891" lon="2.52952">
        <ele>99</ele>
        <time>2026-05-20T07:40:28.999Z</time>
      </trkpt>
      <trkpt lat="48.74891" lon="2.52944">
        <ele>99</ele>
        <time>2026-05-20T07:40:33.998Z</time>
      </trkpt>
      <trkpt lat="48.74893" lon="2.52935">
        <ele>99</ele>
        <time>2026-05-20T07:40:38.998Z</time>
      </trkpt>
      <trkpt lat="48.7489" lon="2.52924">
        <ele>98</ele>
        <time>2026-05-20T07:40:43.998Z</time>
      </trkpt>
      <trkpt lat="48.74889" lon="2.52916">
        <ele>98</ele>
        <time>2026-05-20T07:40:49Z</time>
      </trkpt>
      <trkpt lat="48.74888" lon="2.52904">
        <ele>98</ele>
        <time>2026-05-20T07:40:54Z</time>
      </trkpt>
      <trkpt lat="48.74887" lon="2.52893">
        <ele>97</ele>
        <time>2026-05-20T07:40:59Z</time>
      </trkpt>
      <trkpt lat="48.74885" lon="2.52885">
        <ele>97</ele>
        <time>2026-05-20T07:41:04Z</time>
      </trkpt>
      <trkpt lat="48.74883" lon="2.52874">
        <ele>97</ele>
        <time>2026-05-20T07:41:08.999Z</time>
      </trkpt>
      <trkpt lat="48.74882" lon="2.52865">
        <ele>97</ele>
        <time>2026-05-20T07:41:12.999Z</time>
      </trkpt>
      <trkpt lat="48.74881" lon="2.52856">
        <ele>97</ele>
        <time>2026-05-20T07:41:17.999Z</time>
      </trkpt>
      <trkpt lat="48.7488" lon="2.52845">
        <ele>98</ele>
        <time>2026-05-20T07:41:22.999Z</time>
      </trkpt>
      <trkpt lat="48.74879" lon="2.52835">
        <ele>98</ele>
        <time>2026-05-20T07:41:27.999Z</time>
      </trkpt>
      <trkpt lat="48.74878" lon="2.52827">
        <ele>98</ele>
        <time>2026-05-20T07:41:31.999Z</time>
      </trkpt>
      <trkpt lat="48.74877" lon="2.52816">
        <ele>98</ele>
        <time>2026-05-20T07:41:36.999Z</time>
      </trkpt>
      <trkpt lat="48.74875" lon="2.52808">
        <ele>99</ele>
        <time>2026-05-20T07:41:41.999Z</time>
      </trkpt>
      <trkpt lat="48.74873" lon="2.528">
        <ele>99</ele>
        <time>2026-05-20T07:41:45.999Z</time>
      </trkpt>
      <trkpt lat="48.74871" lon="2.5279">
        <ele>98</ele>
        <time>2026-05-20T07:41:50.999Z</time>
      </trkpt>
      <trkpt lat="48.74871" lon="2.52782">
        <ele>98</ele>
        <time>2026-05-20T07:41:54.999Z</time>
      </trkpt>
      <trkpt lat="48.7487" lon="2.52774">
        <ele>98</ele>
        <time>2026-05-20T07:41:59.999Z</time>
      </trkpt>
      <trkpt lat="48.7487" lon="2.52763">
        <ele>97</ele>
        <time>2026-05-20T07:42:04.999Z</time>
      </trkpt>
      <trkpt lat="48.74867" lon="2.52753">
        <ele>97</ele>
        <time>2026-05-20T07:42:09.999Z</time>
      </trkpt>
      <trkpt lat="48.74866" lon="2.52746">
        <ele>97</ele>
        <time>2026-05-20T07:42:13.999Z</time>
      </trkpt>
      <trkpt lat="48.74865" lon="2.52737">
        <ele>97</ele>
        <time>2026-05-20T07:42:18.999Z</time>
      </trkpt>
      <trkpt lat="48.74863" lon="2.52729">
        <ele>97</ele>
        <time>2026-05-20T07:42:22.999Z</time>
      </trkpt>
      <trkpt lat="48.74863" lon="2.52719">
        <ele>97</ele>
        <time>2026-05-20T07:42:27.999Z</time>
      </trkpt>
      <trkpt lat="48.74862" lon="2.52713">
        <ele>97</ele>
        <time>2026-05-20T07:42:31.998Z</time>
      </trkpt>
      <trkpt lat="48.74862" lon="2.52702">
        <ele>96</ele>
        <time>2026-05-20T07:42:36.998Z</time>
      </trkpt>
      <trkpt lat="48.7486" lon="2.52694">
        <ele>96</ele>
        <time>2026-05-20T07:42:41.998Z</time>
      </trkpt>
      <trkpt lat="48.7486" lon="2.52682">
        <ele>96</ele>
        <time>2026-05-20T07:42:46.998Z</time>
      </trkpt>
      <trkpt lat="48.74858" lon="2.52673">
        <ele>95</ele>
        <time>2026-05-20T07:42:52Z</time>
      </trkpt>
      <trkpt lat="48.74856" lon="2.52666">
        <ele>95</ele>
        <time>2026-05-20T07:42:56Z</time>
      </trkpt>
      <trkpt lat="48.74856" lon="2.52656">
        <ele>95</ele>
        <time>2026-05-20T07:43:01Z</time>
      </trkpt>
      <trkpt lat="48.74855" lon="2.52647">
        <ele>95</ele>
        <time>2026-05-20T07:43:06Z</time>
      </trkpt>
      <trkpt lat="48.74853" lon="2.52639">
        <ele>95</ele>
        <time>2026-05-20T07:43:10.999Z</time>
      </trkpt>
      <trkpt lat="48.74851" lon="2.52628">
        <ele>95</ele>
        <time>2026-05-20T07:43:15.999Z</time>
      </trkpt>
      <trkpt lat="48.74848" lon="2.5262">
        <ele>94</ele>
        <time>2026-05-20T07:43:20.999Z</time>
      </trkpt>
      <trkpt lat="48.74848" lon="2.52609">
        <ele>94</ele>
        <time>2026-05-20T07:43:24.999Z</time>
      </trkpt>
      <trkpt lat="48.74847" lon="2.52599">
        <ele>93</ele>
        <time>2026-05-20T07:43:29.999Z</time>
      </trkpt>
      <trkpt lat="48.74847" lon="2.52589">
        <ele>93</ele>
        <time>2026-05-20T07:43:34.999Z</time>
      </trkpt>
      <trkpt lat="48.74846" lon="2.52581">
        <ele>93</ele>
        <time>2026-05-20T07:43:39.999Z</time>
      </trkpt>
      <trkpt lat="48.74845" lon="2.52574">
        <ele>93</ele>
        <time>2026-05-20T07:43:43.999Z</time>
      </trkpt>
      <trkpt lat="48.74843" lon="2.52565">
        <ele>93</ele>
        <time>2026-05-20T07:43:48.999Z</time>
      </trkpt>
      <trkpt lat="48.74842" lon="2.52556">
        <ele>93</ele>
        <time>2026-05-20T07:43:53.999Z</time>
      </trkpt>
      <trkpt lat="48.74842" lon="2.52548">
        <ele>93</ele>
        <time>2026-05-20T07:43:57.999Z</time>
      </trkpt>
      <trkpt lat="48.74843" lon="2.5254">
        <ele>94</ele>
        <time>2026-05-20T07:44:02.999Z</time>
      </trkpt>
      <trkpt lat="48.7484" lon="2.52527">
        <ele>94</ele>
        <time>2026-05-20T07:48:35.999Z</time>
      </trkpt>
      <trkpt lat="48.7484" lon="2.52524">
        <ele>94</ele>
        <time>2026-05-20T07:48:40.998Z</time>
      </trkpt>
      <trkpt lat="48.74836" lon="2.52514">
        <ele>94</ele>
        <time>2026-05-20T07:48:45.998Z</time>
      </trkpt>
      <trkpt lat="48.74837" lon="2.52504">
        <ele>95</ele>
        <time>2026-05-20T07:48:50.998Z</time>
      </trkpt>
      <trkpt lat="48.74837" lon="2.52495">
        <ele>95</ele>
        <time>2026-05-20T07:48:55.998Z</time>
      </trkpt>
      <trkpt lat="48.74834" lon="2.52485">
        <ele>95</ele>
        <time>2026-05-20T07:49:00.998Z</time>
      </trkpt>
      <trkpt lat="48.74834" lon="2.52478">
        <ele>95</ele>
        <time>2026-05-20T07:49:05.998Z</time>
      </trkpt>
      <trkpt lat="48.7483" lon="2.52467">
        <ele>95</ele>
        <time>2026-05-20T07:49:10.999Z</time>
      </trkpt>
      <trkpt lat="48.7483" lon="2.52458">
        <ele>94</ele>
        <time>2026-05-20T07:49:15.999Z</time>
      </trkpt>
      <trkpt lat="48.7483" lon="2.52451">
        <ele>94</ele>
        <time>2026-05-20T07:49:20.999Z</time>
      </trkpt>
      <trkpt lat="48.74827" lon="2.52445">
        <ele>94</ele>
        <time>2026-05-20T07:49:25.999Z</time>
      </trkpt>
      <trkpt lat="48.74827" lon="2.52434">
        <ele>94</ele>
        <time>2026-05-20T07:49:30.999Z</time>
      </trkpt>
      <trkpt lat="48.74827" lon="2.52425">
        <ele>94</ele>
        <time>2026-05-20T07:49:35.999Z</time>
      </trkpt>
      <trkpt lat="48.74828" lon="2.52416">
        <ele>94</ele>
        <time>2026-05-20T07:49:40.999Z</time>
      </trkpt>
      <trkpt lat="48.74824" lon="2.52407">
        <ele>94</ele>
        <time>2026-05-20T07:49:45.999Z</time>
      </trkpt>
      <trkpt lat="48.74823" lon="2.52401">
        <ele>94</ele>
        <time>2026-05-20T07:49:50.999Z</time>
      </trkpt>
      <trkpt lat="48.74823" lon="2.52389">
        <ele>94</ele>
        <time>2026-05-20T07:49:55.999Z</time>
      </trkpt>
      <trkpt lat="48.74821" lon="2.52378">
        <ele>94</ele>
        <time>2026-05-20T07:50:00.999Z</time>
      </trkpt>
      <trkpt lat="48.7482" lon="2.52368">
        <ele>93</ele>
        <time>2026-05-20T07:50:05.999Z</time>
      </trkpt>
      <trkpt lat="48.74818" lon="2.5236">
        <ele>94</ele>
        <time>2026-05-20T07:50:10.999Z</time>
      </trkpt>
      <trkpt lat="48.74817" lon="2.52351">
        <ele>94</ele>
        <time>2026-05-20T07:50:15.999Z</time>
      </trkpt>
      <trkpt lat="48.74814" lon="2.52343">
        <ele>94</ele>
        <time>2026-05-20T07:50:20.999Z</time>
      </trkpt>
      <trkpt lat="48.74813" lon="2.52333">
        <ele>94</ele>
        <time>2026-05-20T07:50:25.999Z</time>
      </trkpt>
      <trkpt lat="48.74812" lon="2.52323">
        <ele>94</ele>
        <time>2026-05-20T07:50:30.999Z</time>
      </trkpt>
      <trkpt lat="48.74811" lon="2.52314">
        <ele>95</ele>
        <time>2026-05-20T07:50:35.999Z</time>
      </trkpt>
      <trkpt lat="48.74809" lon="2.52305">
        <ele>95</ele>
        <time>2026-05-20T07:50:40.999Z</time>
      </trkpt>
      <trkpt lat="48.74808" lon="2.52298">
        <ele>95</ele>
        <time>2026-05-20T07:50:45.999Z</time>
      </trkpt>
      <trkpt lat="48.74807" lon="2.52284">
        <ele>96</ele>
        <time>2026-05-20T07:50:50.999Z</time>
      </trkpt>
      <trkpt lat="48.74806" lon="2.5228">
        <ele>96</ele>
        <time>2026-05-20T07:50:55.998Z</time>
      </trkpt>
      <trkpt lat="48.74805" lon="2.52269">
        <ele>96</ele>
        <time>2026-05-20T07:51:00.998Z</time>
      </trkpt>
      <trkpt lat="48.74804" lon="2.52261">
        <ele>96</ele>
        <time>2026-05-20T07:51:05.998Z</time>
      </trkpt>
      <trkpt lat="48.74802" lon="2.52252">
        <ele>96</ele>
        <time>2026-05-20T07:51:10.998Z</time>
      </trkpt>
      <trkpt lat="48.74801" lon="2.52245">
        <ele>96</ele>
        <time>2026-05-20T07:51:15.999Z</time>
      </trkpt>
      <trkpt lat="48.74799" lon="2.52236">
        <ele>96</ele>
        <time>2026-05-20T07:51:20.999Z</time>
      </trkpt>
      <trkpt lat="48.74799" lon="2.52227">
        <ele>96</ele>
        <time>2026-05-20T07:51:25.999Z</time>
      </trkpt>
      <trkpt lat="48.74797" lon="2.52217">
        <ele>96</ele>
        <time>2026-05-20T07:51:30.999Z</time>
      </trkpt>
      <trkpt lat="48.74798" lon="2.52205">
        <ele>96</ele>
        <time>2026-05-20T07:51:35.999Z</time>
      </trkpt>
      <trkpt lat="48.74796" lon="2.52196">
        <ele>96</ele>
        <time>2026-05-20T07:51:40.999Z</time>
      </trkpt>
      <trkpt lat="48.74798" lon="2.52189">
        <ele>96</ele>
        <time>2026-05-20T07:51:45.999Z</time>
      </trkpt>
      <trkpt lat="48.74796" lon="2.52177">
        <ele>94</ele>
        <time>2026-05-20T07:51:50.999Z</time>
      </trkpt>
      <trkpt lat="48.74793" lon="2.52168">
        <ele>94</ele>
        <time>2026-05-20T07:51:55.999Z</time>
      </trkpt>
      <trkpt lat="48.74793" lon="2.52159">
        <ele>94</ele>
        <time>2026-05-20T07:52:00.999Z</time>
      </trkpt>
      <trkpt lat="48.74789" lon="2.52152">
        <ele>94</ele>
        <time>2026-05-20T07:52:05.999Z</time>
      </trkpt>
      <trkpt lat="48.74793" lon="2.52139">
        <ele>94</ele>
        <time>2026-05-20T07:52:10.999Z</time>
      </trkpt>
      <trkpt lat="48.74791" lon="2.52131">
        <ele>94</ele>
        <time>2026-05-20T07:52:15.999Z</time>
      </trkpt>
      <trkpt lat="48.74792" lon="2.52123">
        <ele>94</ele>
        <time>2026-05-20T07:52:20.999Z</time>
      </trkpt>
      <trkpt lat="48.74791" lon="2.52114">
        <ele>95</ele>
        <time>2026-05-20T07:52:25.999Z</time>
      </trkpt>
      <trkpt lat="48.74789" lon="2.52104">
        <ele>95</ele>
        <time>2026-05-20T07:52:30.999Z</time>
      </trkpt>
      <trkpt lat="48.74787" lon="2.52095">
        <ele>96</ele>
        <time>2026-05-20T07:52:35.999Z</time>
      </trkpt>
      <trkpt lat="48.74786" lon="2.52086">
        <ele>96</ele>
        <time>2026-05-20T07:52:40.999Z</time>
      </trkpt>
      <trkpt lat="48.74784" lon="2.52077">
        <ele>96</ele>
        <time>2026-05-20T07:52:45.999Z</time>
      </trkpt>
      <trkpt lat="48.74784" lon="2.5207">
        <ele>96</ele>
        <time>2026-05-20T07:52:50.999Z</time>
      </trkpt>
      <trkpt lat="48.74779" lon="2.5206">
        <ele>97</ele>
        <time>2026-05-20T07:52:55.999Z</time>
      </trkpt>
      <trkpt lat="48.74781" lon="2.52049">
        <ele>97</ele>
        <time>2026-05-20T07:53:00.999Z</time>
      </trkpt>
      <trkpt lat="48.74781" lon="2.52041">
        <ele>98</ele>
        <time>2026-05-20T07:53:05.998Z</time>
      </trkpt>
      <trkpt lat="48.74779" lon="2.52033">
        <ele>98</ele>
        <time>2026-05-20T07:53:10.998Z</time>
      </trkpt>
      <trkpt lat="48.74777" lon="2.52027">
        <ele>98</ele>
        <time>2026-05-20T07:53:14.998Z</time>
      </trkpt>
      <trkpt lat="48.74775" lon="2.52014">
        <ele>98</ele>
        <time>2026-05-20T07:53:19.998Z</time>
      </trkpt>
      <trkpt lat="48.74772" lon="2.52003">
        <ele>97</ele>
        <time>2026-05-20T07:53:25Z</time>
      </trkpt>
      <trkpt lat="48.74771" lon="2.5199">
        <ele>97</ele>
        <time>2026-05-20T07:53:30Z</time>
      </trkpt>
      <trkpt lat="48.74771" lon="2.51982">
        <ele>96</ele>
        <time>2026-05-20T07:53:35Z</time>
      </trkpt>
      <trkpt lat="48.74768" lon="2.51975">
        <ele>96</ele>
        <time>2026-05-20T07:53:40Z</time>
      </trkpt>
      <trkpt lat="48.74768" lon="2.51964">
        <ele>96</ele>
        <time>2026-05-20T07:53:44.999Z</time>
      </trkpt>
      <trkpt lat="48.74767" lon="2.51954">
        <ele>95</ele>
        <time>2026-05-20T07:53:49.999Z</time>
      </trkpt>
      <trkpt lat="48.74766" lon="2.51946">
        <ele>95</ele>
        <time>2026-05-20T07:53:54.999Z</time>
      </trkpt>
      <trkpt lat="48.74764" lon="2.51932">
        <ele>95</ele>
        <time>2026-05-20T07:53:59.999Z</time>
      </trkpt>
      <trkpt lat="48.74761" lon="2.51922">
        <ele>96</ele>
        <time>2026-05-20T07:54:04.999Z</time>
      </trkpt>
      <trkpt lat="48.7476" lon="2.51916">
        <ele>96</ele>
        <time>2026-05-20T07:54:09.999Z</time>
      </trkpt>
      <trkpt lat="48.74761" lon="2.51911">
        <ele>96</ele>
        <time>2026-05-20T07:54:14.999Z</time>
      </trkpt>
      <trkpt lat="48.74761" lon="2.51902">
        <ele>97</ele>
        <time>2026-05-20T07:54:19.999Z</time>
      </trkpt>
      <trkpt lat="48.74761" lon="2.51892">
        <ele>97</ele>
        <time>2026-05-20T07:54:24.999Z</time>
      </trkpt>
      <trkpt lat="48.7476" lon="2.51885">
        <ele>97</ele>
        <time>2026-05-20T07:54:29.999Z</time>
      </trkpt>
      <trkpt lat="48.74758" lon="2.51875">
        <ele>97</ele>
        <time>2026-05-20T07:54:34.999Z</time>
      </trkpt>
      <trkpt lat="48.74756" lon="2.51863">
        <ele>97</ele>
        <time>2026-05-20T07:54:39.999Z</time>
      </trkpt>
      <trkpt lat="48.74754" lon="2.51851">
        <ele>97</ele>
        <time>2026-05-20T07:54:44.999Z</time>
      </trkpt>
      <trkpt lat="48.74754" lon="2.51847">
        <ele>97</ele>
        <time>2026-05-20T07:54:49.999Z</time>
      </trkpt>
      <trkpt lat="48.74752" lon="2.51837">
        <ele>97</ele>
        <time>2026-05-20T07:54:54.999Z</time>
      </trkpt>
      <trkpt lat="48.74751" lon="2.51827">
        <ele>97</ele>
        <time>2026-05-20T07:54:59.999Z</time>
      </trkpt>
      <trkpt lat="48.74751" lon="2.51817">
        <ele>96</ele>
        <time>2026-05-20T07:55:04.999Z</time>
      </trkpt>
      <trkpt lat="48.7475" lon="2.51806">
        <ele>96</ele>
        <time>2026-05-20T07:55:09.999Z</time>
      </trkpt>
      <trkpt lat="48.7475" lon="2.51796">
        <ele>96</ele>
        <time>2026-05-20T07:55:14.998Z</time>
      </trkpt>
      <trkpt lat="48.7475" lon="2.51786">
        <ele>94</ele>
        <time>2026-05-20T07:55:19.998Z</time>
      </trkpt>
      <trkpt lat="48.74748" lon="2.51776">
        <ele>94</ele>
        <time>2026-05-20T07:55:24.998Z</time>
      </trkpt>
      <trkpt lat="48.74745" lon="2.51767">
        <ele>94</ele>
        <time>2026-05-20T07:55:30Z</time>
      </trkpt>
      <trkpt lat="48.74742" lon="2.51759">
        <ele>94</ele>
        <time>2026-05-20T07:55:35Z</time>
      </trkpt>
      <trkpt lat="48.7474" lon="2.5175">
        <ele>94</ele>
        <time>2026-05-20T07:55:40Z</time>
      </trkpt>
      <trkpt lat="48.74739" lon="2.5174">
        <ele>94</ele>
        <time>2026-05-20T07:55:45Z</time>
      </trkpt>
      <trkpt lat="48.74738" lon="2.51731">
        <ele>93</ele>
        <time>2026-05-20T07:55:49.999Z</time>
      </trkpt>
      <trkpt lat="48.7474" lon="2.51724">
        <ele>93</ele>
        <time>2026-05-20T07:55:54.999Z</time>
      </trkpt>
      <trkpt lat="48.74739" lon="2.51711">
        <ele>93</ele>
        <time>2026-05-20T07:55:59.999Z</time>
      </trkpt>
      <trkpt lat="48.7474" lon="2.51699">
        <ele>93</ele>
        <time>2026-05-20T07:56:04.999Z</time>
      </trkpt>
      <trkpt lat="48.74738" lon="2.5169">
        <ele>93</ele>
        <time>2026-05-20T07:56:09.999Z</time>
      </trkpt>
      <trkpt lat="48.74737" lon="2.51681">
        <ele>93</ele>
        <time>2026-05-20T07:56:13.999Z</time>
      </trkpt>
      <trkpt lat="48.74734" lon="2.51675">
        <ele>93</ele>
        <time>2026-05-20T07:56:18.999Z</time>
      </trkpt>
      <trkpt lat="48.74735" lon="2.51665">
        <ele>93</ele>
        <time>2026-05-20T07:56:23.999Z</time>
      </trkpt>
      <trkpt lat="48.74732" lon="2.51654">
        <ele>93</ele>
        <time>2026-05-20T07:56:28.999Z</time>
      </trkpt>
      <trkpt lat="48.74731" lon="2.51646">
        <ele>93</ele>
        <time>2026-05-20T07:56:33.999Z</time>
      </trkpt>
      <trkpt lat="48.74731" lon="2.51635">
        <ele>93</ele>
        <time>2026-05-20T07:56:38.999Z</time>
      </trkpt>
      <trkpt lat="48.74731" lon="2.51626">
        <ele>93</ele>
        <time>2026-05-20T07:56:43.999Z</time>
      </trkpt>
      <trkpt lat="48.74727" lon="2.51615">
        <ele>92</ele>
        <time>2026-05-20T07:56:48.999Z</time>
      </trkpt>
      <trkpt lat="48.74726" lon="2.51609">
        <ele>92</ele>
        <time>2026-05-20T07:56:53.999Z</time>
      </trkpt>
      <trkpt lat="48.74724" lon="2.51599">
        <ele>92</ele>
        <time>2026-05-20T07:56:58.999Z</time>
      </trkpt>
      <trkpt lat="48.74723" lon="2.5159">
        <ele>92</ele>
        <time>2026-05-20T07:57:03.999Z</time>
      </trkpt>
      <trkpt lat="48.74721" lon="2.5158">
        <ele>92</ele>
        <time>2026-05-20T07:57:08.999Z</time>
      </trkpt>
      <trkpt lat="48.74721" lon="2.5157">
        <ele>92</ele>
        <time>2026-05-20T07:57:13.999Z</time>
      </trkpt>
      <trkpt lat="48.74722" lon="2.51561">
        <ele>92</ele>
        <time>2026-05-20T07:57:18.999Z</time>
      </trkpt>
      <trkpt lat="48.74722" lon="2.51551">
        <ele>92</ele>
        <time>2026-05-20T07:57:23.998Z</time>
      </trkpt>
      <trkpt lat="48.74722" lon="2.51541">
        <ele>93</ele>
        <time>2026-05-20T07:57:28.998Z</time>
      </trkpt>
      <trkpt lat="48.74725" lon="2.51532">
        <ele>93</ele>
        <time>2026-05-20T07:57:34Z</time>
      </trkpt>
      <trkpt lat="48.74729" lon="2.51529">
        <ele>93</ele>
        <time>2026-05-20T07:57:39Z</time>
      </trkpt>
      <trkpt lat="48.74733" lon="2.51527">
        <ele>93</ele>
        <time>2026-05-20T07:57:44Z</time>
      </trkpt>
      <trkpt lat="48.74735" lon="2.51519">
        <ele>93</ele>
        <time>2026-05-20T07:57:49Z</time>
      </trkpt>
      <trkpt lat="48.74738" lon="2.51509">
        <ele>93</ele>
        <time>2026-05-20T07:57:53.999Z</time>
      </trkpt>
      <trkpt lat="48.74741" lon="2.515">
        <ele>93</ele>
        <time>2026-05-20T07:57:58.999Z</time>
      </trkpt>
      <trkpt lat="48.74745" lon="2.51492">
        <ele>93</ele>
        <time>2026-05-20T07:58:03.999Z</time>
      </trkpt>
      <trkpt lat="48.7475" lon="2.51486">
        <ele>93</ele>
        <time>2026-05-20T07:58:08.999Z</time>
      </trkpt>
      <trkpt lat="48.74754" lon="2.5148">
        <ele>93</ele>
        <time>2026-05-20T07:58:13.999Z</time>
      </trkpt>
      <trkpt lat="48.7476" lon="2.51474">
        <ele>93</ele>
        <time>2026-05-20T07:58:18.999Z</time>
      </trkpt>
      <trkpt lat="48.74763" lon="2.5147">
        <ele>93</ele>
        <time>2026-05-20T07:58:23.999Z</time>
      </trkpt>
      <trkpt lat="48.74768" lon="2.51462">
        <ele>93</ele>
        <time>2026-05-20T07:58:28.999Z</time>
      </trkpt>
      <trkpt lat="48.74772" lon="2.51456">
        <ele>92</ele>
        <time>2026-05-20T07:58:33.999Z</time>
      </trkpt>
      <trkpt lat="48.74773" lon="2.51451">
        <ele>92</ele>
        <time>2026-05-20T07:58:38.999Z</time>
      </trkpt>
      <trkpt lat="48.74779" lon="2.51448">
        <ele>92</ele>
        <time>2026-05-20T07:58:43.999Z</time>
      </trkpt>
      <trkpt lat="48.74783" lon="2.51441">
        <ele>92</ele>
        <time>2026-05-20T07:58:48.999Z</time>
      </trkpt>
      <trkpt lat="48.74788" lon="2.51431">
        <ele>91</ele>
        <time>2026-05-20T07:58:53.999Z</time>
      </trkpt>
      <trkpt lat="48.74791" lon="2.51425">
        <ele>91</ele>
        <time>2026-05-20T07:58:58.999Z</time>
      </trkpt>
      <trkpt lat="48.74796" lon="2.51417">
        <ele>91</ele>
        <time>2026-05-20T07:59:03.999Z</time>
      </trkpt>
      <trkpt lat="48.74802" lon="2.51409">
        <ele>91</ele>
        <time>2026-05-20T07:59:08.999Z</time>
      </trkpt>
      <trkpt lat="48.74806" lon="2.51405">
        <ele>91</ele>
        <time>2026-05-20T07:59:13.999Z</time>
      </trkpt>
      <trkpt lat="48.74811" lon="2.51398">
        <ele>90</ele>
        <time>2026-05-20T07:59:18.999Z</time>
      </trkpt>
      <trkpt lat="48.74813" lon="2.5139">
        <ele>90</ele>
        <time>2026-05-20T07:59:23.999Z</time>
      </trkpt>
      <trkpt lat="48.74814" lon="2.51381">
        <ele>90</ele>
        <time>2026-05-20T07:59:28.998Z</time>
      </trkpt>
      <trkpt lat="48.74819" lon="2.51377">
        <ele>90</ele>
        <time>2026-05-20T07:59:33.998Z</time>
      </trkpt>
      <trkpt lat="48.74824" lon="2.5137">
        <ele>91</ele>
        <time>2026-05-20T07:59:38.998Z</time>
      </trkpt>
      <trkpt lat="48.74829" lon="2.51364">
        <ele>91</ele>
        <time>2026-05-20T07:59:44Z</time>
      </trkpt>
      <trkpt lat="48.74833" lon="2.51358">
        <ele>91</ele>
        <time>2026-05-20T07:59:49Z</time>
      </trkpt>
      <trkpt lat="48.74838" lon="2.51352">
        <ele>91</ele>
        <time>2026-05-20T07:59:54Z</time>
      </trkpt>
      <trkpt lat="48.74841" lon="2.51344">
        <ele>92</ele>
        <time>2026-05-20T07:59:58.999Z</time>
      </trkpt>
      <trkpt lat="48.74844" lon="2.51336">
        <ele>92</ele>
        <time>2026-05-20T08:00:03.999Z</time>
      </trkpt>
      <trkpt lat="48.74848" lon="2.51329">
        <ele>93</ele>
        <time>2026-05-20T08:00:08.999Z</time>
      </trkpt>
      <trkpt lat="48.74852" lon="2.51322">
        <ele>93</ele>
        <time>2026-05-20T08:00:13.999Z</time>
      </trkpt>
      <trkpt lat="48.74855" lon="2.51314">
        <ele>93</ele>
        <time>2026-05-20T08:00:18.999Z</time>
      </trkpt>
      <trkpt lat="48.74861" lon="2.51313">
        <ele>93</ele>
        <time>2026-05-20T08:00:23.999Z</time>
      </trkpt>
      <trkpt lat="48.74867" lon="2.5131">
        <ele>93</ele>
        <time>2026-05-20T08:00:28.999Z</time>
      </trkpt>
      <trkpt lat="48.74873" lon="2.51306">
        <ele>93</ele>
        <time>2026-05-20T08:00:33.999Z</time>
      </trkpt>
      <trkpt lat="48.74877" lon="2.51299">
        <ele>92</ele>
        <time>2026-05-20T08:00:38.999Z</time>
      </trkpt>
      <trkpt lat="48.74881" lon="2.51301">
        <ele>92</ele>
        <time>2026-05-20T08:00:43.999Z</time>
      </trkpt>
      <trkpt lat="48.74884" lon="2.51306">
        <ele>92</ele>
        <time>2026-05-20T08:00:48.999Z</time>
      </trkpt>
      <trkpt lat="48.74888" lon="2.51311">
        <ele>92</ele>
        <time>2026-05-20T08:00:53.999Z</time>
      </trkpt>
      <trkpt lat="48.74893" lon="2.51317">
        <ele>92</ele>
        <time>2026-05-20T08:00:58.999Z</time>
      </trkpt>
      <trkpt lat="48.74899" lon="2.51323">
        <ele>93</ele>
        <time>2026-05-20T08:01:03.999Z</time>
      </trkpt>
      <trkpt lat="48.74904" lon="2.51327">
        <ele>93</ele>
        <time>2026-05-20T08:01:08.999Z</time>
      </trkpt>
      <trkpt lat="48.74909" lon="2.51333">
        <ele>93</ele>
        <time>2026-05-20T08:01:13.999Z</time>
      </trkpt>
      <trkpt lat="48.74908" lon="2.51345">
        <ele>93</ele>
        <time>2026-05-20T08:01:18.999Z</time>
      </trkpt>
      <trkpt lat="48.74911" lon="2.51351">
        <ele>93</ele>
        <time>2026-05-20T08:01:23.999Z</time>
      </trkpt>
      <trkpt lat="48.74914" lon="2.51355">
        <ele>93</ele>
        <time>2026-05-20T08:01:28.999Z</time>
      </trkpt>
      <trkpt lat="48.74918" lon="2.51362">
        <ele>93</ele>
        <time>2026-05-20T08:01:33.998Z</time>
      </trkpt>
      <trkpt lat="48.74921" lon="2.51367">
        <ele>93</ele>
        <time>2026-05-20T08:01:38.998Z</time>
      </trkpt>
      <trkpt lat="48.74925" lon="2.51375">
        <ele>93</ele>
        <time>2026-05-20T08:01:43.998Z</time>
      </trkpt>
      <trkpt lat="48.74932" lon="2.51376">
        <ele>94</ele>
        <time>2026-05-20T08:01:49Z</time>
      </trkpt>
      <trkpt lat="48.74934" lon="2.51384">
        <ele>94</ele>
        <time>2026-05-20T08:01:54Z</time>
      </trkpt>
      <trkpt lat="48.74939" lon="2.5139">
        <ele>94</ele>
        <time>2026-05-20T08:01:59Z</time>
      </trkpt>
      <trkpt lat="48.74943" lon="2.51395">
        <ele>94</ele>
        <time>2026-05-20T08:02:04Z</time>
      </trkpt>
      <trkpt lat="48.74949" lon="2.51399">
        <ele>94</ele>
        <time>2026-05-20T08:02:08.999Z</time>
      </trkpt>
      <trkpt lat="48.74953" lon="2.51404">
        <ele>94</ele>
        <time>2026-05-20T08:02:13.999Z</time>
      </trkpt>
      <trkpt lat="48.74957" lon="2.51409">
        <ele>94</ele>
        <time>2026-05-20T08:02:18.999Z</time>
      </trkpt>
      <trkpt lat="48.7496" lon="2.51413">
        <ele>95</ele>
        <time>2026-05-20T08:02:23.999Z</time>
      </trkpt>
      <trkpt lat="48.74965" lon="2.51419">
        <ele>95</ele>
        <time>2026-05-20T08:02:28.999Z</time>
      </trkpt>
      <trkpt lat="48.74968" lon="2.51427">
        <ele>95</ele>
        <time>2026-05-20T08:02:33.999Z</time>
      </trkpt>
      <trkpt lat="48.74972" lon="2.51434">
        <ele>95</ele>
        <time>2026-05-20T08:02:38.999Z</time>
      </trkpt>
      <trkpt lat="48.74975" lon="2.5144">
        <ele>95</ele>
        <time>2026-05-20T08:02:43.999Z</time>
      </trkpt>
      <trkpt lat="48.74979" lon="2.51447">
        <ele>95</ele>
        <time>2026-05-20T08:02:48.999Z</time>
      </trkpt>
      <trkpt lat="48.74982" lon="2.51454">
        <ele>95</ele>
        <time>2026-05-20T08:02:53.999Z</time>
      </trkpt>
      <trkpt lat="48.74986" lon="2.51466">
        <ele>96</ele>
        <time>2026-05-20T08:03:08.999Z</time>
      </trkpt>
      <trkpt lat="48.74987" lon="2.51465">
        <ele>96</ele>
        <time>2026-05-20T08:03:13.999Z</time>
      </trkpt>
      <trkpt lat="48.74993" lon="2.51465">
        <ele>96</ele>
        <time>2026-05-20T08:03:18.999Z</time>
      </trkpt>
      <trkpt lat="48.74999" lon="2.51469">
        <ele>96</ele>
        <time>2026-05-20T08:03:23.999Z</time>
      </trkpt>
      <trkpt lat="48.75001" lon="2.51468">
        <ele>96</ele>
        <time>2026-05-20T08:03:28.999Z</time>
      </trkpt>
      <trkpt lat="48.75008" lon="2.51465">
        <ele>96</ele>
        <time>2026-05-20T08:03:33.999Z</time>
      </trkpt>
      <trkpt lat="48.75012" lon="2.51461">
        <ele>96</ele>
        <time>2026-05-20T08:03:38.998Z</time>
      </trkpt>
      <trkpt lat="48.75018" lon="2.51454">
        <ele>97</ele>
        <time>2026-05-20T08:03:43.998Z</time>
      </trkpt>
      <trkpt lat="48.75022" lon="2.51453">
        <ele>97</ele>
        <time>2026-05-20T08:03:48.998Z</time>
      </trkpt>
      <trkpt lat="48.75027" lon="2.51448">
        <ele>97</ele>
        <time>2026-05-20T08:03:54Z</time>
      </trkpt>
      <trkpt lat="48.75031" lon="2.51446">
        <ele>97</ele>
        <time>2026-05-20T08:03:59Z</time>
      </trkpt>
      <trkpt lat="48.75036" lon="2.51444">
        <ele>97</ele>
        <time>2026-05-20T08:04:03.999Z</time>
      </trkpt>
      <trkpt lat="48.75041" lon="2.51443">
        <ele>97</ele>
        <time>2026-05-20T08:04:08.999Z</time>
      </trkpt>
      <trkpt lat="48.75045" lon="2.51439">
        <ele>95</ele>
        <time>2026-05-20T08:04:13.999Z</time>
      </trkpt>
      <trkpt lat="48.75051" lon="2.5143">
        <ele>96</ele>
        <time>2026-05-20T08:04:18.999Z</time>
      </trkpt>
      <trkpt lat="48.75055" lon="2.51427">
        <ele>96</ele>
        <time>2026-05-20T08:04:23.999Z</time>
      </trkpt>
      <trkpt lat="48.75059" lon="2.51424">
        <ele>96</ele>
        <time>2026-05-20T08:04:28.999Z</time>
      </trkpt>
      <trkpt lat="48.75067" lon="2.51415">
        <ele>96</ele>
        <time>2026-05-20T08:04:33.999Z</time>
      </trkpt>
      <trkpt lat="48.75072" lon="2.51411">
        <ele>95</ele>
        <time>2026-05-20T08:04:38.999Z</time>
      </trkpt>
      <trkpt lat="48.75079" lon="2.51406">
        <ele>95</ele>
        <time>2026-05-20T08:04:43.999Z</time>
      </trkpt>
      <trkpt lat="48.75083" lon="2.51401">
        <ele>95</ele>
        <time>2026-05-20T08:04:48.999Z</time>
      </trkpt>
      <trkpt lat="48.75087" lon="2.51396">
        <ele>95</ele>
        <time>2026-05-20T08:04:53.999Z</time>
      </trkpt>
      <trkpt lat="48.75093" lon="2.51392">
        <ele>95</ele>
        <time>2026-05-20T08:04:58.999Z</time>
      </trkpt>
      <trkpt lat="48.75098" lon="2.51389">
        <ele>94</ele>
        <time>2026-05-20T08:05:03.999Z</time>
      </trkpt>
      <trkpt lat="48.75102" lon="2.5138">
        <ele>94</ele>
        <time>2026-05-20T08:05:08.999Z</time>
      </trkpt>
      <trkpt lat="48.75107" lon="2.5137">
        <ele>93</ele>
        <time>2026-05-20T08:05:13.999Z</time>
      </trkpt>
      <trkpt lat="48.75112" lon="2.51363">
        <ele>93</ele>
        <time>2026-05-20T08:05:18.999Z</time>
      </trkpt>
      <trkpt lat="48.75115" lon="2.51355">
        <ele>93</ele>
        <time>2026-05-20T08:05:23.999Z</time>
      </trkpt>
      <trkpt lat="48.75121" lon="2.5134">
        <ele>93</ele>
        <time>2026-05-20T08:05:33.998Z</time>
      </trkpt>
      <trkpt lat="48.75124" lon="2.51333">
        <ele>93</ele>
        <time>2026-05-20T08:05:38.998Z</time>
      </trkpt>
      <trkpt lat="48.75131" lon="2.51329">
        <ele>92</ele>
        <time>2026-05-20T08:05:43.998Z</time>
      </trkpt>
      <trkpt lat="48.75135" lon="2.5132">
        <ele>92</ele>
        <time>2026-05-20T08:05:48.998Z</time>
      </trkpt>
      <trkpt lat="48.75138" lon="2.51312">
        <ele>92</ele>
        <time>2026-05-20T08:05:53.998Z</time>
      </trkpt>
      <trkpt lat="48.7514" lon="2.51305">
        <ele>92</ele>
        <time>2026-05-20T08:05:57.999Z</time>
      </trkpt>
      <trkpt lat="48.75143" lon="2.51299">
        <ele>92</ele>
        <time>2026-05-20T08:06:02.999Z</time>
      </trkpt>
      <trkpt lat="48.75145" lon="2.51292">
        <ele>92</ele>
        <time>2026-05-20T08:06:07.999Z</time>
      </trkpt>
      <trkpt lat="48.75148" lon="2.51282">
        <ele>92</ele>
        <time>2026-05-20T08:06:12.999Z</time>
      </trkpt>
      <trkpt lat="48.75152" lon="2.51275">
        <ele>92</ele>
        <time>2026-05-20T08:06:17.999Z</time>
      </trkpt>
      <trkpt lat="48.75156" lon="2.5127">
        <ele>91</ele>
        <time>2026-05-20T08:06:22.999Z</time>
      </trkpt>
      <trkpt lat="48.75159" lon="2.51258">
        <ele>91</ele>
        <time>2026-05-20T08:06:27.999Z</time>
      </trkpt>
      <trkpt lat="48.75162" lon="2.51248">
        <ele>91</ele>
        <time>2026-05-20T08:06:32.999Z</time>
      </trkpt>
      <trkpt lat="48.75166" lon="2.5124">
        <ele>91</ele>
        <time>2026-05-20T08:06:37.999Z</time>
      </trkpt>
      <trkpt lat="48.75169" lon="2.51234">
        <ele>91</ele>
        <time>2026-05-20T08:06:42.999Z</time>
      </trkpt>
      <trkpt lat="48.75171" lon="2.51225">
        <ele>91</ele>
        <time>2026-05-20T08:06:47.999Z</time>
      </trkpt>
      <trkpt lat="48.75174" lon="2.51219">
        <ele>91</ele>
        <time>2026-05-20T08:06:52.999Z</time>
      </trkpt>
      <trkpt lat="48.75177" lon="2.51212">
        <ele>91</ele>
        <time>2026-05-20T08:06:57.999Z</time>
      </trkpt>
      <trkpt lat="48.75179" lon="2.51205">
        <ele>90</ele>
        <time>2026-05-20T08:07:02.999Z</time>
      </trkpt>
      <trkpt lat="48.7518" lon="2.51196">
        <ele>90</ele>
        <time>2026-05-20T08:07:07.999Z</time>
      </trkpt>
      <trkpt lat="48.75179" lon="2.51192">
        <ele>90</ele>
        <time>2026-05-20T08:10:09.999Z</time>
      </trkpt>
      <trkpt lat="48.75181" lon="2.51191">
        <ele>89</ele>
        <time>2026-05-20T08:10:14.999Z</time>
      </trkpt>
      <trkpt lat="48.75186" lon="2.51188">
        <ele>89</ele>
        <time>2026-05-20T08:10:19.999Z</time>
      </trkpt>
      <trkpt lat="48.75189" lon="2.51193">
        <ele>89</ele>
        <time>2026-05-20T08:10:24.999Z</time>
      </trkpt>
      <trkpt lat="48.7519" lon="2.51193">
        <ele>89</ele>
        <time>2026-05-20T08:10:29.999Z</time>
      </trkpt>
      <trkpt lat="48.75189" lon="2.51194">
        <ele>89</ele>
        <time>2026-05-20T08:10:44.999Z</time>
      </trkpt>
      <trkpt lat="48.7519" lon="2.51194">
        <ele>89</ele>
        <time>2026-05-20T08:10:49.999Z</time>
      </trkpt>
      <trkpt lat="48.75196" lon="2.5119">
        <ele>89</ele>
        <time>2026-05-20T08:10:54.999Z</time>
      </trkpt>
      <trkpt lat="48.75204" lon="2.51186">
        <ele>89</ele>
        <time>2026-05-20T08:10:59.999Z</time>
      </trkpt>
      <trkpt lat="48.75211" lon="2.51187">
        <ele>87</ele>
        <time>2026-05-20T08:11:04.999Z</time>
      </trkpt>
      <trkpt lat="48.75216" lon="2.51194">
        <ele>87</ele>
        <time>2026-05-20T08:11:09.999Z</time>
      </trkpt>
      <trkpt lat="48.7522" lon="2.51201">
        <ele>87</ele>
        <time>2026-05-20T08:11:14.999Z</time>
      </trkpt>
      <trkpt lat="48.75227" lon="2.51206">
        <ele>87</ele>
        <time>2026-05-20T08:11:19.999Z</time>
      </trkpt>
      <trkpt lat="48.75233" lon="2.51211">
        <ele>88</ele>
        <time>2026-05-20T08:11:24.999Z</time>
      </trkpt>
      <trkpt lat="48.75237" lon="2.51217">
        <ele>87</ele>
        <time>2026-05-20T08:11:29.999Z</time>
      </trkpt>
      <trkpt lat="48.75236" lon="2.51224">
        <ele>88</ele>
        <time>2026-05-20T08:11:34.999Z</time>
      </trkpt>
      <trkpt lat="48.75239" lon="2.5123">
        <ele>87</ele>
        <time>2026-05-20T08:11:39.999Z</time>
      </trkpt>
      <trkpt lat="48.75243" lon="2.51236">
        <ele>87</ele>
        <time>2026-05-20T08:11:44.999Z</time>
      </trkpt>
      <trkpt lat="48.75246" lon="2.51243">
        <ele>89</ele>
        <time>2026-05-20T08:11:49.999Z</time>
      </trkpt>
      <trkpt lat="48.7525" lon="2.5125">
        <ele>89</ele>
        <time>2026-05-20T08:11:54.999Z</time>
      </trkpt>
      <trkpt lat="48.75253" lon="2.51256">
        <ele>89</ele>
        <time>2026-05-20T08:11:59.999Z</time>
      </trkpt>
      <trkpt lat="48.75255" lon="2.51263">
        <ele>89</ele>
        <time>2026-05-20T08:12:04.999Z</time>
      </trkpt>
      <trkpt lat="48.75258" lon="2.51272">
        <ele>91</ele>
        <time>2026-05-20T08:12:09.998Z</time>
      </trkpt>
      <trkpt lat="48.7526" lon="2.51282">
        <ele>91</ele>
        <time>2026-05-20T08:12:14.998Z</time>
      </trkpt>
      <trkpt lat="48.75262" lon="2.51291">
        <ele>91</ele>
        <time>2026-05-20T08:12:19.999Z</time>
      </trkpt>
      <trkpt lat="48.75263" lon="2.51298">
        <ele>92</ele>
        <time>2026-05-20T08:12:24.999Z</time>
      </trkpt>
      <trkpt lat="48.75264" lon="2.51304">
        <ele>92</ele>
        <time>2026-05-20T08:12:29.999Z</time>
      </trkpt>
      <trkpt lat="48.75264" lon="2.51313">
        <ele>92</ele>
        <time>2026-05-20T08:12:34.999Z</time>
      </trkpt>
      <trkpt lat="48.75264" lon="2.51322">
        <ele>93</ele>
        <time>2026-05-20T08:12:39.999Z</time>
      </trkpt>
      <trkpt lat="48.75262" lon="2.51333">
        <ele>93</ele>
        <time>2026-05-20T08:12:44.999Z</time>
      </trkpt>
      <trkpt lat="48.75265" lon="2.51334">
        <ele>93</ele>
        <time>2026-05-20T08:12:49.999Z</time>
      </trkpt>
      <trkpt lat="48.75267" lon="2.51334">
        <ele>93</ele>
        <time>2026-05-20T08:12:54.999Z</time>
      </trkpt>
      <trkpt lat="48.75271" lon="2.51338">
        <ele>93</ele>
        <time>2026-05-20T08:12:59.999Z</time>
      </trkpt>
      <trkpt lat="48.75275" lon="2.5134">
        <ele>93</ele>
        <time>2026-05-20T08:13:04.999Z</time>
      </trkpt>
      <trkpt lat="48.7528" lon="2.51345">
        <ele>93</ele>
        <time>2026-05-20T08:13:09.999Z</time>
      </trkpt>
      <trkpt lat="48.75283" lon="2.51351">
        <ele>93</ele>
        <time>2026-05-20T08:13:14.999Z</time>
      </trkpt>
      <trkpt lat="48.75287" lon="2.51357">
        <ele>93</ele>
        <time>2026-05-20T08:13:19.999Z</time>
      </trkpt>
      <trkpt lat="48.75292" lon="2.51362">
        <ele>93</ele>
        <time>2026-05-20T08:13:24.999Z</time>
      </trkpt>
      <trkpt lat="48.75296" lon="2.51367">
        <ele>91</ele>
        <time>2026-05-20T08:13:29.999Z</time>
      </trkpt>
      <trkpt lat="48.75301" lon="2.51371">
        <ele>91</ele>
        <time>2026-05-20T08:13:34.999Z</time>
      </trkpt>
      <trkpt lat="48.75306" lon="2.51375">
        <ele>90</ele>
        <time>2026-05-20T08:13:39.999Z</time>
      </trkpt>
      <trkpt lat="48.75311" lon="2.51383">
        <ele>90</ele>
        <time>2026-05-20T08:13:44.999Z</time>
      </trkpt>
      <trkpt lat="48.75316" lon="2.51389">
        <ele>90</ele>
        <time>2026-05-20T08:13:49.999Z</time>
      </trkpt>
      <trkpt lat="48.7532" lon="2.51395">
        <ele>89</ele>
        <time>2026-05-20T08:13:54.999Z</time>
      </trkpt>
      <trkpt lat="48.75324" lon="2.514">
        <ele>89</ele>
        <time>2026-05-20T08:13:59.999Z</time>
      </trkpt>
      <trkpt lat="48.75327" lon="2.51406">
        <ele>90</ele>
        <time>2026-05-20T08:14:04.999Z</time>
      </trkpt>
      <trkpt lat="48.75332" lon="2.51411">
        <ele>90</ele>
        <time>2026-05-20T08:14:09.999Z</time>
      </trkpt>
      <trkpt lat="48.75336" lon="2.51418">
        <ele>90</ele>
        <time>2026-05-20T08:14:14.999Z</time>
      </trkpt>
      <trkpt lat="48.75342" lon="2.51425">
        <ele>90</ele>
        <time>2026-05-20T08:14:19.999Z</time>
      </trkpt>
      <trkpt lat="48.75346" lon="2.51432">
        <ele>90</ele>
        <time>2026-05-20T08:14:24.999Z</time>
      </trkpt>
      <trkpt lat="48.75351" lon="2.51436">
        <ele>90</ele>
        <time>2026-05-20T08:14:29.999Z</time>
      </trkpt>
      <trkpt lat="48.75356" lon="2.51443">
        <ele>90</ele>
        <time>2026-05-20T08:14:34.999Z</time>
      </trkpt>
      <trkpt lat="48.75361" lon="2.51447">
        <ele>90</ele>
        <time>2026-05-20T08:14:39.999Z</time>
      </trkpt>
      <trkpt lat="48.75366" lon="2.51451">
        <ele>90</ele>
        <time>2026-05-20T08:14:44.999Z</time>
      </trkpt>
      <trkpt lat="48.7537" lon="2.51457">
        <ele>90</ele>
        <time>2026-05-20T08:14:49.999Z</time>
      </trkpt>
      <trkpt lat="48.75375" lon="2.51465">
        <ele>91</ele>
        <time>2026-05-20T08:14:54.999Z</time>
      </trkpt>
      <trkpt lat="48.75378" lon="2.51471">
        <ele>89</ele>
        <time>2026-05-20T08:14:59.999Z</time>
      </trkpt>
      <trkpt lat="48.75382" lon="2.51475">
        <ele>89</ele>
        <time>2026-05-20T08:15:04.999Z</time>
      </trkpt>
      <trkpt lat="48.75386" lon="2.51482">
        <ele>89</ele>
        <time>2026-05-20T08:15:09.999Z</time>
      </trkpt>
      <trkpt lat="48.75391" lon="2.51487">
        <ele>89</ele>
        <time>2026-05-20T08:15:14.999Z</time>
      </trkpt>
      <trkpt lat="48.75395" lon="2.51493">
        <ele>89</ele>
        <time>2026-05-20T08:15:19.999Z</time>
      </trkpt>
      <trkpt lat="48.754" lon="2.51498">
        <ele>89</ele>
        <time>2026-05-20T08:15:24.999Z</time>
      </trkpt>
      <trkpt lat="48.75406" lon="2.51504">
        <ele>87</ele>
        <time>2026-05-20T08:15:29.999Z</time>
      </trkpt>
      <trkpt lat="48.7541" lon="2.51509">
        <ele>87</ele>
        <time>2026-05-20T08:15:34.999Z</time>
      </trkpt>
      <trkpt lat="48.75414" lon="2.51515">
        <ele>88</ele>
        <time>2026-05-20T08:15:39.999Z</time>
      </trkpt>
      <trkpt lat="48.75419" lon="2.5152">
        <ele>88</ele>
        <time>2026-05-20T08:15:44.999Z</time>
      </trkpt>
      <trkpt lat="48.75423" lon="2.51523">
        <ele>88</ele>
        <time>2026-05-20T08:15:49.999Z</time>
      </trkpt>
      <trkpt lat="48.75428" lon="2.51529">
        <ele>88</ele>
        <time>2026-05-20T08:15:54.999Z</time>
      </trkpt>
      <trkpt lat="48.75433" lon="2.51533">
        <ele>87</ele>
        <time>2026-05-20T08:15:59.999Z</time>
      </trkpt>
      <trkpt lat="48.75437" lon="2.5154">
        <ele>87</ele>
        <time>2026-05-20T08:16:04.999Z</time>
      </trkpt>
      <trkpt lat="48.75441" lon="2.51545">
        <ele>87</ele>
        <time>2026-05-20T08:16:09.999Z</time>
      </trkpt>
      <trkpt lat="48.75447" lon="2.51551">
        <ele>87</ele>
        <time>2026-05-20T08:16:14.999Z</time>
      </trkpt>
      <trkpt lat="48.75451" lon="2.51557">
        <ele>87</ele>
        <time>2026-05-20T08:16:19.999Z</time>
      </trkpt>
      <trkpt lat="48.75456" lon="2.51562">
        <ele>87</ele>
        <time>2026-05-20T08:16:24.999Z</time>
      </trkpt>
      <trkpt lat="48.7546" lon="2.51568">
        <ele>86</ele>
        <time>2026-05-20T08:16:30Z</time>
      </trkpt>
      <trkpt lat="48.75465" lon="2.51575">
        <ele>86</ele>
        <time>2026-05-20T08:16:35Z</time>
      </trkpt>
      <trkpt lat="48.75469" lon="2.51581">
        <ele>86</ele>
        <time>2026-05-20T08:16:40Z</time>
      </trkpt>
      <trkpt lat="48.75473" lon="2.51585">
        <ele>86</ele>
        <time>2026-05-20T08:16:45Z</time>
      </trkpt>
      <trkpt lat="48.75477" lon="2.51593">
        <ele>86</ele>
        <time>2026-05-20T08:16:50Z</time>
      </trkpt>
      <trkpt lat="48.75483" lon="2.51603">
        <ele>87</ele>
        <time>2026-05-20T08:16:54.999Z</time>
      </trkpt>
      <trkpt lat="48.75489" lon="2.51605">
        <ele>86</ele>
        <time>2026-05-20T08:16:59.999Z</time>
      </trkpt>
      <trkpt lat="48.75492" lon="2.51611">
        <ele>86</ele>
        <time>2026-05-20T08:17:04.999Z</time>
      </trkpt>
      <trkpt lat="48.75498" lon="2.51619">
        <ele>86</ele>
        <time>2026-05-20T08:17:09.999Z</time>
      </trkpt>
      <trkpt lat="48.75503" lon="2.51627">
        <ele>88</ele>
        <time>2026-05-20T08:17:14.999Z</time>
      </trkpt>
      <trkpt lat="48.7551" lon="2.51629">
        <ele>88</ele>
        <time>2026-05-20T08:17:19.999Z</time>
      </trkpt>
      <trkpt lat="48.75515" lon="2.51626">
        <ele>85</ele>
        <time>2026-05-20T08:17:24.999Z</time>
      </trkpt>
      <trkpt lat="48.75516" lon="2.5162">
        <ele>83</ele>
        <time>2026-05-20T08:17:29.999Z</time>
      </trkpt>
      <trkpt lat="48.75517" lon="2.51613">
        <ele>83</ele>
        <time>2026-05-20T08:17:34.999Z</time>
      </trkpt>
      <trkpt lat="48.75519" lon="2.51606">
        <ele>83</ele>
        <time>2026-05-20T08:17:39.999Z</time>
      </trkpt>
      <trkpt lat="48.75521" lon="2.51599">
        <ele>83</ele>
        <time>2026-05-20T08:17:44.999Z</time>
      </trkpt>
      <trkpt lat="48.75525" lon="2.51593">
        <ele>82</ele>
        <time>2026-05-20T08:17:49.999Z</time>
      </trkpt>
      <trkpt lat="48.75531" lon="2.51589">
        <ele>82</ele>
        <time>2026-05-20T08:17:54.999Z</time>
      </trkpt>
      <trkpt lat="48.75533" lon="2.51584">
        <ele>82</ele>
        <time>2026-05-20T08:17:59.999Z</time>
      </trkpt>
      <trkpt lat="48.75534" lon="2.51573">
        <ele>82</ele>
        <time>2026-05-20T08:18:04.999Z</time>
      </trkpt>
      <trkpt lat="48.75535" lon="2.51562">
        <ele>81</ele>
        <time>2026-05-20T08:18:09.999Z</time>
      </trkpt>
      <trkpt lat="48.7554" lon="2.51556">
        <ele>81</ele>
        <time>2026-05-20T08:18:14.999Z</time>
      </trkpt>
      <trkpt lat="48.75543" lon="2.5155">
        <ele>79</ele>
        <time>2026-05-20T08:18:19.999Z</time>
      </trkpt>
      <trkpt lat="48.75546" lon="2.51545">
        <ele>79</ele>
        <time>2026-05-20T08:18:24.999Z</time>
      </trkpt>
      <trkpt lat="48.75549" lon="2.51538">
        <ele>78</ele>
        <time>2026-05-20T08:18:29.999Z</time>
      </trkpt>
      <trkpt lat="48.75551" lon="2.5153">
        <ele>78</ele>
        <time>2026-05-20T08:18:35Z</time>
      </trkpt>
      <trkpt lat="48.75554" lon="2.51524">
        <ele>78</ele>
        <time>2026-05-20T08:18:40Z</time>
      </trkpt>
      <trkpt lat="48.75559" lon="2.51519">
        <ele>78</ele>
        <time>2026-05-20T08:18:44.999Z</time>
      </trkpt>
      <trkpt lat="48.75563" lon="2.51512">
        <ele>77</ele>
        <time>2026-05-20T08:18:49.999Z</time>
      </trkpt>
      <trkpt lat="48.75565" lon="2.51506">
        <ele>77</ele>
        <time>2026-05-20T08:18:54.999Z</time>
      </trkpt>
      <trkpt lat="48.75567" lon="2.51498">
        <ele>77</ele>
        <time>2026-05-20T08:18:59.999Z</time>
      </trkpt>
      <trkpt lat="48.7557" lon="2.51491">
        <ele>76</ele>
        <time>2026-05-20T08:19:04.999Z</time>
      </trkpt>
      <trkpt lat="48.75574" lon="2.51485">
        <ele>73</ele>
        <time>2026-05-20T08:19:09.999Z</time>
      </trkpt>
      <trkpt lat="48.75578" lon="2.51478">
        <ele>73</ele>
        <time>2026-05-20T08:19:14.999Z</time>
      </trkpt>
      <trkpt lat="48.7558" lon="2.5147">
        <ele>73</ele>
        <time>2026-05-20T08:19:19.999Z</time>
      </trkpt>
      <trkpt lat="48.75583" lon="2.51462">
        <ele>73</ele>
        <time>2026-05-20T08:19:24.999Z</time>
      </trkpt>
      <trkpt lat="48.75586" lon="2.51455">
        <ele>71</ele>
        <time>2026-05-20T08:19:29.999Z</time>
      </trkpt>
      <trkpt lat="48.75589" lon="2.51447">
        <ele>71</ele>
        <time>2026-05-20T08:19:34.999Z</time>
      </trkpt>
      <trkpt lat="48.75592" lon="2.5144">
        <ele>71</ele>
        <time>2026-05-20T08:19:39.999Z</time>
      </trkpt>
      <trkpt lat="48.75595" lon="2.51431">
        <ele>71</ele>
        <time>2026-05-20T08:19:44.999Z</time>
      </trkpt>
      <trkpt lat="48.75598" lon="2.51424">
        <ele>71</ele>
        <time>2026-05-20T08:19:49.999Z</time>
      </trkpt>
      <trkpt lat="48.75602" lon="2.51418">
        <ele>71</ele>
        <time>2026-05-20T08:19:54.999Z</time>
      </trkpt>
      <trkpt lat="48.75605" lon="2.51412">
        <ele>71</ele>
        <time>2026-05-20T08:19:59.999Z</time>
      </trkpt>
      <trkpt lat="48.75611" lon="2.51407">
        <ele>71</ele>
        <time>2026-05-20T08:20:04.999Z</time>
      </trkpt>
      <trkpt lat="48.75613" lon="2.514">
        <ele>70</ele>
        <time>2026-05-20T08:20:09.999Z</time>
      </trkpt>
      <trkpt lat="48.75616" lon="2.51392">
        <ele>70</ele>
        <time>2026-05-20T08:20:14.999Z</time>
      </trkpt>
      <trkpt lat="48.75619" lon="2.51386">
        <ele>70</ele>
        <time>2026-05-20T08:20:19.999Z</time>
      </trkpt>
      <trkpt lat="48.75621" lon="2.51378">
        <ele>70</ele>
        <time>2026-05-20T08:20:24.999Z</time>
      </trkpt>
      <trkpt lat="48.75623" lon="2.5137">
        <ele>67</ele>
        <time>2026-05-20T08:20:29.999Z</time>
      </trkpt>
      <trkpt lat="48.75628" lon="2.51363">
        <ele>67</ele>
        <time>2026-05-20T08:20:34.999Z</time>
      </trkpt>
      <trkpt lat="48.75631" lon="2.51357">
        <ele>67</ele>
        <time>2026-05-20T08:20:39.999Z</time>
      </trkpt>
      <trkpt lat="48.75634" lon="2.5135">
        <ele>67</ele>
        <time>2026-05-20T08:20:44.999Z</time>
      </trkpt>
      <trkpt lat="48.75637" lon="2.51342">
        <ele>64</ele>
        <time>2026-05-20T08:20:49.999Z</time>
      </trkpt>
      <trkpt lat="48.7564" lon="2.51334">
        <ele>64</ele>
        <time>2026-05-20T08:20:54.999Z</time>
      </trkpt>
      <trkpt lat="48.75642" lon="2.51327">
        <ele>64</ele>
        <time>2026-05-20T08:20:59.999Z</time>
      </trkpt>
      <trkpt lat="48.75645" lon="2.51318">
        <ele>62</ele>
        <time>2026-05-20T08:21:04.999Z</time>
      </trkpt>
      <trkpt lat="48.75649" lon="2.51311">
        <ele>62</ele>
        <time>2026-05-20T08:21:09.999Z</time>
      </trkpt>
      <trkpt lat="48.75652" lon="2.51303">
        <ele>62</ele>
        <time>2026-05-20T08:21:14.999Z</time>
      </trkpt>
      <trkpt lat="48.75656" lon="2.51297">
        <ele>63</ele>
        <time>2026-05-20T08:21:19.999Z</time>
      </trkpt>
      <trkpt lat="48.7566" lon="2.51289">
        <ele>61</ele>
        <time>2026-05-20T08:21:24.999Z</time>
      </trkpt>
      <trkpt lat="48.7566" lon="2.51283">
        <ele>61</ele>
        <time>2026-05-20T08:21:29.999Z</time>
      </trkpt>
      <trkpt lat="48.75665" lon="2.51275">
        <ele>61</ele>
        <time>2026-05-20T08:21:34.999Z</time>
      </trkpt>
      <trkpt lat="48.75669" lon="2.51265">
        <ele>61</ele>
        <time>2026-05-20T08:21:39.999Z</time>
      </trkpt>
      <trkpt lat="48.7567" lon="2.51253">
        <ele>60</ele>
        <time>2026-05-20T08:21:44.999Z</time>
      </trkpt>
      <trkpt lat="48.75673" lon="2.51248">
        <ele>60</ele>
        <time>2026-05-20T08:21:49.999Z</time>
      </trkpt>
      <trkpt lat="48.75678" lon="2.51244">
        <ele>60</ele>
        <time>2026-05-20T08:21:54.999Z</time>
      </trkpt>
      <trkpt lat="48.75685" lon="2.5124">
        <ele>62</ele>
        <time>2026-05-20T08:21:59.999Z</time>
      </trkpt>
      <trkpt lat="48.75688" lon="2.51232">
        <ele>60</ele>
        <time>2026-05-20T08:22:04.999Z</time>
      </trkpt>
      <trkpt lat="48.7569" lon="2.51224">
        <ele>60</ele>
        <time>2026-05-20T08:22:09.999Z</time>
      </trkpt>
      <trkpt lat="48.75693" lon="2.51216">
        <ele>60</ele>
        <time>2026-05-20T08:22:14.999Z</time>
      </trkpt>
      <trkpt lat="48.75695" lon="2.51207">
        <ele>58</ele>
        <time>2026-05-20T08:22:19.999Z</time>
      </trkpt>
      <trkpt lat="48.75699" lon="2.51202">
        <ele>58</ele>
        <time>2026-05-20T08:22:24.999Z</time>
      </trkpt>
      <trkpt lat="48.75702" lon="2.51194">
        <ele>58</ele>
        <time>2026-05-20T08:22:29.999Z</time>
      </trkpt>
      <trkpt lat="48.75705" lon="2.51187">
        <ele>58</ele>
        <time>2026-05-20T08:22:34.999Z</time>
      </trkpt>
      <trkpt lat="48.7571" lon="2.5118">
        <ele>58</ele>
        <time>2026-05-20T08:22:39.999Z</time>
      </trkpt>
      <trkpt lat="48.75712" lon="2.51172">
        <ele>58</ele>
        <time>2026-05-20T08:22:44.999Z</time>
      </trkpt>
      <trkpt lat="48.75714" lon="2.51165">
        <ele>58</ele>
        <time>2026-05-20T08:22:49.999Z</time>
      </trkpt>
      <trkpt lat="48.75716" lon="2.51155">
        <ele>58</ele>
        <time>2026-05-20T08:22:54.999Z</time>
      </trkpt>
      <trkpt lat="48.75719" lon="2.51146">
        <ele>56</ele>
        <time>2026-05-20T08:22:59.999Z</time>
      </trkpt>
      <trkpt lat="48.75721" lon="2.51139">
        <ele>56</ele>
        <time>2026-05-20T08:23:04.999Z</time>
      </trkpt>
      <trkpt lat="48.75724" lon="2.51132">
        <ele>56</ele>
        <time>2026-05-20T08:23:09.999Z</time>
      </trkpt>
      <trkpt lat="48.75726" lon="2.51123">
        <ele>56</ele>
        <time>2026-05-20T08:23:14.999Z</time>
      </trkpt>
      <trkpt lat="48.75732" lon="2.51118">
        <ele>56</ele>
        <time>2026-05-20T08:23:19.999Z</time>
      </trkpt>
      <trkpt lat="48.75733" lon="2.51107">
        <ele>56</ele>
        <time>2026-05-20T08:23:24.999Z</time>
      </trkpt>
      <trkpt lat="48.75736" lon="2.511">
        <ele>58</ele>
        <time>2026-05-20T08:23:29.999Z</time>
      </trkpt>
      <trkpt lat="48.75741" lon="2.51094">
        <ele>57</ele>
        <time>2026-05-20T08:23:34.999Z</time>
      </trkpt>
      <trkpt lat="48.75746" lon="2.51089">
        <ele>57</ele>
        <time>2026-05-20T08:23:39.999Z</time>
      </trkpt>
      <trkpt lat="48.75749" lon="2.51081">
        <ele>57</ele>
        <time>2026-05-20T08:23:44.999Z</time>
      </trkpt>
      <trkpt lat="48.75753" lon="2.51074">
        <ele>57</ele>
        <time>2026-05-20T08:23:49.999Z</time>
      </trkpt>
      <trkpt lat="48.75754" lon="2.51064">
        <ele>57</ele>
        <time>2026-05-20T08:23:54.999Z</time>
      </trkpt>
      <trkpt lat="48.75756" lon="2.51056">
        <ele>57</ele>
        <time>2026-05-20T08:23:59.999Z</time>
      </trkpt>
      <trkpt lat="48.75756" lon="2.51045">
        <ele>57</ele>
        <time>2026-05-20T08:24:04.999Z</time>
      </trkpt>
      <trkpt lat="48.75761" lon="2.51041">
        <ele>56</ele>
        <time>2026-05-20T08:24:09.999Z</time>
      </trkpt>
      <trkpt lat="48.75766" lon="2.51036">
        <ele>58</ele>
        <time>2026-05-20T08:24:14.999Z</time>
      </trkpt>
      <trkpt lat="48.75769" lon="2.51027">
        <ele>58</ele>
        <time>2026-05-20T08:24:19.999Z</time>
      </trkpt>
      <trkpt lat="48.75772" lon="2.51019">
        <ele>58</ele>
        <time>2026-05-20T08:24:24.999Z</time>
      </trkpt>
      <trkpt lat="48.75776" lon="2.51012">
        <ele>57</ele>
        <time>2026-05-20T08:24:29.999Z</time>
      </trkpt>
      <trkpt lat="48.7578" lon="2.51006">
        <ele>57</ele>
        <time>2026-05-20T08:24:34.999Z</time>
      </trkpt>
      <trkpt lat="48.75783" lon="2.50997">
        <ele>57</ele>
        <time>2026-05-20T08:24:39.999Z</time>
      </trkpt>
      <trkpt lat="48.75785" lon="2.5099">
        <ele>57</ele>
        <time>2026-05-20T08:24:44.999Z</time>
      </trkpt>
      <trkpt lat="48.75788" lon="2.50981">
        <ele>55</ele>
        <time>2026-05-20T08:24:49.999Z</time>
      </trkpt>
      <trkpt lat="48.7579" lon="2.50973">
        <ele>55</ele>
        <time>2026-05-20T08:24:54.999Z</time>
      </trkpt>
      <trkpt lat="48.7579" lon="2.50969">
        <ele>55</ele>
        <time>2026-05-20T08:24:59.999Z</time>
      </trkpt>
      <trkpt lat="48.7579" lon="2.50969">
        <ele>55</ele>
        <time>2026-05-20T08:25:04.999Z</time>
      </trkpt>
      <trkpt lat="48.75795" lon="2.50969">
        <ele>54</ele>
        <time>2026-05-20T08:25:09.999Z</time>
      </trkpt>
      <trkpt lat="48.75798" lon="2.50963">
        <ele>54</ele>
        <time>2026-05-20T08:25:14.999Z</time>
      </trkpt>
      <trkpt lat="48.75803" lon="2.50959">
        <ele>54</ele>
        <time>2026-05-20T08:25:19.999Z</time>
      </trkpt>
      <trkpt lat="48.75806" lon="2.50951">
        <ele>53</ele>
        <time>2026-05-20T08:25:24.999Z</time>
      </trkpt>
      <trkpt lat="48.75809" lon="2.50943">
        <ele>53</ele>
        <time>2026-05-20T08:25:29.999Z</time>
      </trkpt>
      <trkpt lat="48.7581" lon="2.50937">
        <ele>53</ele>
        <time>2026-05-20T08:25:34.999Z</time>
      </trkpt>
      <trkpt lat="48.75812" lon="2.50928">
        <ele>53</ele>
        <time>2026-05-20T08:25:39.999Z</time>
      </trkpt>
      <trkpt lat="48.75817" lon="2.50921">
        <ele>53</ele>
        <time>2026-05-20T08:25:44.999Z</time>
      </trkpt>
      <trkpt lat="48.75821" lon="2.50914">
        <ele>52</ele>
        <time>2026-05-20T08:25:49.999Z</time>
      </trkpt>
      <trkpt lat="48.75824" lon="2.50907">
        <ele>52</ele>
        <time>2026-05-20T08:25:54.999Z</time>
      </trkpt>
      <trkpt lat="48.75828" lon="2.509">
        <ele>51</ele>
        <time>2026-05-20T08:25:59.999Z</time>
      </trkpt>
      <trkpt lat="48.75829" lon="2.5089">
        <ele>51</ele>
        <time>2026-05-20T08:26:04.999Z</time>
      </trkpt>
      <trkpt lat="48.75832" lon="2.50883">
        <ele>51</ele>
        <time>2026-05-20T08:26:09.999Z</time>
      </trkpt>
      <trkpt lat="48.75835" lon="2.50875">
        <ele>51</ele>
        <time>2026-05-20T08:26:14.999Z</time>
      </trkpt>
      <trkpt lat="48.75838" lon="2.50868">
        <ele>50</ele>
        <time>2026-05-20T08:26:19.999Z</time>
      </trkpt>
      <trkpt lat="48.75842" lon="2.50861">
        <ele>50</ele>
        <time>2026-05-20T08:26:24.999Z</time>
      </trkpt>
      <trkpt lat="48.75846" lon="2.50854">
        <ele>50</ele>
        <time>2026-05-20T08:26:29.999Z</time>
      </trkpt>
      <trkpt lat="48.75849" lon="2.50849">
        <ele>49</ele>
        <time>2026-05-20T08:26:34.999Z</time>
      </trkpt>
      <trkpt lat="48.75852" lon="2.50841">
        <ele>49</ele>
        <time>2026-05-20T08:26:39.999Z</time>
      </trkpt>
      <trkpt lat="48.75854" lon="2.50833">
        <ele>49</ele>
        <time>2026-05-20T08:26:44.999Z</time>
      </trkpt>
      <trkpt lat="48.75857" lon="2.50825">
        <ele>49</ele>
        <time>2026-05-20T08:26:49.999Z</time>
      </trkpt>
      <trkpt lat="48.75861" lon="2.50818">
        <ele>49</ele>
        <time>2026-05-20T08:26:54.999Z</time>
      </trkpt>
      <trkpt lat="48.75865" lon="2.50812">
        <ele>49</ele>
        <time>2026-05-20T08:26:59.999Z</time>
      </trkpt>
      <trkpt lat="48.75869" lon="2.50808">
        <ele>49</ele>
        <time>2026-05-20T08:27:04.999Z</time>
      </trkpt>
      <trkpt lat="48.75876" lon="2.50809">
        <ele>48</ele>
        <time>2026-05-20T08:27:09.999Z</time>
      </trkpt>
      <trkpt lat="48.75882" lon="2.50808">
        <ele>48</ele>
        <time>2026-05-20T08:27:14.999Z</time>
      </trkpt>
      <trkpt lat="48.75886" lon="2.50813">
        <ele>48</ele>
        <time>2026-05-20T08:27:19.999Z</time>
      </trkpt>
      <trkpt lat="48.75893" lon="2.50819">
        <ele>48</ele>
        <time>2026-05-20T08:27:24.999Z</time>
      </trkpt>
      <trkpt lat="48.75897" lon="2.50827">
        <ele>48</ele>
        <time>2026-05-20T08:27:29.999Z</time>
      </trkpt>
      <trkpt lat="48.75901" lon="2.50832">
        <ele>48</ele>
        <time>2026-05-20T08:27:34.999Z</time>
      </trkpt>
      <trkpt lat="48.75907" lon="2.50838">
        <ele>48</ele>
        <time>2026-05-20T08:27:39.999Z</time>
      </trkpt>
      <trkpt lat="48.75912" lon="2.50841">
        <ele>48</ele>
        <time>2026-05-20T08:27:44.999Z</time>
      </trkpt>
      <trkpt lat="48.75915" lon="2.50847">
        <ele>48</ele>
        <time>2026-05-20T08:27:49.999Z</time>
      </trkpt>
      <trkpt lat="48.7592" lon="2.50849">
        <ele>50</ele>
        <time>2026-05-20T08:27:54.999Z</time>
      </trkpt>
      <trkpt lat="48.75927" lon="2.50859">
        <ele>50</ele>
        <time>2026-05-20T08:27:59.999Z</time>
      </trkpt>
      <trkpt lat="48.75934" lon="2.50867">
        <ele>51</ele>
        <time>2026-05-20T08:28:04.999Z</time>
      </trkpt>
      <trkpt lat="48.75937" lon="2.50871">
        <ele>51</ele>
        <time>2026-05-20T08:28:09.999Z</time>
      </trkpt>
      <trkpt lat="48.75943" lon="2.50878">
        <ele>52</ele>
        <time>2026-05-20T08:28:14.999Z</time>
      </trkpt>
      <trkpt lat="48.75946" lon="2.50882">
        <ele>52</ele>
        <time>2026-05-20T08:28:19.999Z</time>
      </trkpt>
      <trkpt lat="48.75952" lon="2.50887">
        <ele>52</ele>
        <time>2026-05-20T08:28:24.999Z</time>
      </trkpt>
      <trkpt lat="48.75957" lon="2.50892">
        <ele>52</ele>
        <time>2026-05-20T08:28:29.999Z</time>
      </trkpt>
      <trkpt lat="48.75962" lon="2.50898">
        <ele>52</ele>
        <time>2026-05-20T08:28:34.999Z</time>
      </trkpt>
      <trkpt lat="48.75967" lon="2.50904">
        <ele>52</ele>
        <time>2026-05-20T08:28:39.999Z</time>
      </trkpt>
      <trkpt lat="48.75972" lon="2.50908">
        <ele>52</ele>
        <time>2026-05-20T08:28:44.999Z</time>
      </trkpt>
      <trkpt lat="48.75978" lon="2.50909">
        <ele>52</ele>
        <time>2026-05-20T08:28:49.999Z</time>
      </trkpt>
      <trkpt lat="48.75984" lon="2.50911">
        <ele>52</ele>
        <time>2026-05-20T08:28:54.999Z</time>
      </trkpt>
      <trkpt lat="48.75992" lon="2.50908">
        <ele>51</ele>
        <time>2026-05-20T08:28:59.999Z</time>
      </trkpt>
      <trkpt lat="48.75997" lon="2.50903">
        <ele>51</ele>
        <time>2026-05-20T08:29:05Z</time>
      </trkpt>
      <trkpt lat="48.76005" lon="2.509">
        <ele>51</ele>
        <time>2026-05-20T08:29:10Z</time>
      </trkpt>
      <trkpt lat="48.7602" lon="2.50899">
        <ele>50</ele>
        <time>2026-05-20T08:29:29.999Z</time>
      </trkpt>
      <trkpt lat="48.76029" lon="2.50898">
        <ele>50</ele>
        <time>2026-05-20T08:29:34.999Z</time>
      </trkpt>
      <trkpt lat="48.76036" lon="2.50891">
        <ele>50</ele>
        <time>2026-05-20T08:29:39.999Z</time>
      </trkpt>
      <trkpt lat="48.76039" lon="2.50894">
        <ele>50</ele>
        <time>2026-05-20T08:29:44.999Z</time>
      </trkpt>
      <trkpt lat="48.76045" lon="2.50895">
        <ele>50</ele>
        <time>2026-05-20T08:29:49.999Z</time>
      </trkpt>
      <trkpt lat="48.7605" lon="2.50896">
        <ele>50</ele>
        <time>2026-05-20T08:29:54.999Z</time>
      </trkpt>
      <trkpt lat="48.76053" lon="2.509">
        <ele>50</ele>
        <time>2026-05-20T08:29:59.999Z</time>
      </trkpt>
      <trkpt lat="48.76056" lon="2.50908">
        <ele>49</ele>
        <time>2026-05-20T08:30:04.999Z</time>
      </trkpt>
      <trkpt lat="48.76062" lon="2.50913">
        <ele>49</ele>
        <time>2026-05-20T08:30:09.999Z</time>
      </trkpt>
      <trkpt lat="48.76069" lon="2.50918">
        <ele>49</ele>
        <time>2026-05-20T08:30:14.999Z</time>
      </trkpt>
      <trkpt lat="48.76073" lon="2.50925">
        <ele>49</ele>
        <time>2026-05-20T08:30:19.999Z</time>
      </trkpt>
      <trkpt lat="48.76075" lon="2.50931">
        <ele>49</ele>
        <time>2026-05-20T08:30:24.999Z</time>
      </trkpt>
      <trkpt lat="48.76077" lon="2.50937">
        <ele>49</ele>
        <time>2026-05-20T08:30:29.999Z</time>
      </trkpt>
      <trkpt lat="48.76083" lon="2.50938">
        <ele>49</ele>
        <time>2026-05-20T08:30:34.999Z</time>
      </trkpt>
      <trkpt lat="48.76084" lon="2.50949">
        <ele>49</ele>
        <time>2026-05-20T08:30:39.999Z</time>
      </trkpt>
      <trkpt lat="48.76087" lon="2.50953">
        <ele>49</ele>
        <time>2026-05-20T08:30:44.999Z</time>
      </trkpt>
      <trkpt lat="48.76091" lon="2.50958">
        <ele>49</ele>
        <time>2026-05-20T08:30:49.999Z</time>
      </trkpt>
      <trkpt lat="48.76095" lon="2.50964">
        <ele>50</ele>
        <time>2026-05-20T08:30:54.999Z</time>
      </trkpt>
      <trkpt lat="48.76099" lon="2.5097">
        <ele>50</ele>
        <time>2026-05-20T08:30:59.999Z</time>
      </trkpt>
      <trkpt lat="48.76105" lon="2.50975">
        <ele>50</ele>
        <time>2026-05-20T08:31:04.999Z</time>
      </trkpt>
      <trkpt lat="48.7611" lon="2.50977">
        <ele>50</ele>
        <time>2026-05-20T08:31:10Z</time>
      </trkpt>
      <trkpt lat="48.76114" lon="2.50982">
        <ele>50</ele>
        <time>2026-05-20T08:31:15Z</time>
      </trkpt>
      <trkpt lat="48.76115" lon="2.50986">
        <ele>50</ele>
        <time>2026-05-20T08:31:20Z</time>
      </trkpt>
      <trkpt lat="48.76109" lon="2.5099">
        <ele>52</ele>
        <time>2026-05-20T08:31:25Z</time>
      </trkpt>
      <trkpt lat="48.76109" lon="2.50998">
        <ele>52</ele>
        <time>2026-05-20T08:31:30Z</time>
      </trkpt>
      <trkpt lat="48.7611" lon="2.51008">
        <ele>52</ele>
        <time>2026-05-20T08:31:35Z</time>
      </trkpt>
      <trkpt lat="48.76107" lon="2.51014">
        <ele>52</ele>
        <time>2026-05-20T08:31:39.999Z</time>
      </trkpt>
      <trkpt lat="48.76107" lon="2.51019">
        <ele>52</ele>
        <time>2026-05-20T08:31:44.999Z</time>
      </trkpt>
      <trkpt lat="48.76105" lon="2.51025">
        <ele>52</ele>
        <time>2026-05-20T08:31:49.999Z</time>
      </trkpt>
      <trkpt lat="48.76108" lon="2.51033">
        <ele>52</ele>
        <time>2026-05-20T08:31:54.999Z</time>
      </trkpt>
      <trkpt lat="48.76106" lon="2.5104">
        <ele>52</ele>
        <time>2026-05-20T08:31:59.999Z</time>
      </trkpt>
      <trkpt lat="48.7611" lon="2.51045">
        <ele>52</ele>
        <time>2026-05-20T08:32:04.999Z</time>
      </trkpt>
      <trkpt lat="48.76112" lon="2.51053">
        <ele>52</ele>
        <time>2026-05-20T08:32:09.999Z</time>
      </trkpt>
      <trkpt lat="48.76114" lon="2.51062">
        <ele>52</ele>
        <time>2026-05-20T08:32:14.999Z</time>
      </trkpt>
      <trkpt lat="48.76115" lon="2.51067">
        <ele>52</ele>
        <time>2026-05-20T08:32:19.999Z</time>
      </trkpt>
      <trkpt lat="48.76118" lon="2.51076">
        <ele>52</ele>
        <time>2026-05-20T08:32:24.999Z</time>
      </trkpt>
      <trkpt lat="48.7612" lon="2.51082">
        <ele>52</ele>
        <time>2026-05-20T08:32:29.999Z</time>
      </trkpt>
      <trkpt lat="48.7612" lon="2.5109">
        <ele>52</ele>
        <time>2026-05-20T08:32:34.999Z</time>
      </trkpt>
      <trkpt lat="48.7612" lon="2.51094">
        <ele>52</ele>
        <time>2026-05-20T08:32:39.999Z</time>
      </trkpt>
      <trkpt lat="48.76118" lon="2.51103">
        <ele>52</ele>
        <time>2026-05-20T08:32:44.999Z</time>
      </trkpt>
      <trkpt lat="48.76117" lon="2.51112">
        <ele>52</ele>
        <time>2026-05-20T08:32:49.999Z</time>
      </trkpt>
      <trkpt lat="48.76121" lon="2.51118">
        <ele>52</ele>
        <time>2026-05-20T08:32:54.999Z</time>
      </trkpt>
      <trkpt lat="48.76122" lon="2.51127">
        <ele>52</ele>
        <time>2026-05-20T08:32:59.999Z</time>
      </trkpt>
      <trkpt lat="48.76123" lon="2.51131">
        <ele>52</ele>
        <time>2026-05-20T08:33:04.999Z</time>
      </trkpt>
      <trkpt lat="48.76123" lon="2.5114">
        <ele>52</ele>
        <time>2026-05-20T08:33:09.999Z</time>
      </trkpt>
      <trkpt lat="48.76122" lon="2.51147">
        <ele>52</ele>
        <time>2026-05-20T08:33:14.999Z</time>
      </trkpt>
      <trkpt lat="48.76123" lon="2.51158">
        <ele>53</ele>
        <time>2026-05-20T08:33:20Z</time>
      </trkpt>
      <trkpt lat="48.76122" lon="2.51162">
        <ele>53</ele>
        <time>2026-05-20T08:33:25Z</time>
      </trkpt>
      <trkpt lat="48.76121" lon="2.51169">
        <ele>53</ele>
        <time>2026-05-20T08:33:30Z</time>
      </trkpt>
      <trkpt lat="48.7612" lon="2.51174">
        <ele>53</ele>
        <time>2026-05-20T08:33:35Z</time>
      </trkpt>
      <trkpt lat="48.76122" lon="2.51182">
        <ele>53</ele>
        <time>2026-05-20T08:33:40Z</time>
      </trkpt>
      <trkpt lat="48.76122" lon="2.51196">
        <ele>53</ele>
        <time>2026-05-20T08:33:44.999Z</time>
      </trkpt>
      <trkpt lat="48.76121" lon="2.51201">
        <ele>53</ele>
        <time>2026-05-20T08:33:49.999Z</time>
      </trkpt>
      <trkpt lat="48.7612" lon="2.51211">
        <ele>53</ele>
        <time>2026-05-20T08:33:54.999Z</time>
      </trkpt>
      <trkpt lat="48.76119" lon="2.51216">
        <ele>53</ele>
        <time>2026-05-20T08:33:59.999Z</time>
      </trkpt>
      <trkpt lat="48.76118" lon="2.51223">
        <ele>53</ele>
        <time>2026-05-20T08:34:04.999Z</time>
      </trkpt>
      <trkpt lat="48.76116" lon="2.51234">
        <ele>53</ele>
        <time>2026-05-20T08:34:09.999Z</time>
      </trkpt>
      <trkpt lat="48.76118" lon="2.51237">
        <ele>55</ele>
        <time>2026-05-20T08:34:14.999Z</time>
      </trkpt>
      <trkpt lat="48.76119" lon="2.51246">
        <ele>55</ele>
        <time>2026-05-20T08:34:19.999Z</time>
      </trkpt>
      <trkpt lat="48.76121" lon="2.51249">
        <ele>55</ele>
        <time>2026-05-20T08:34:24.999Z</time>
      </trkpt>
      <trkpt lat="48.76124" lon="2.51257">
        <ele>55</ele>
        <time>2026-05-20T08:34:29.999Z</time>
      </trkpt>
      <trkpt lat="48.76128" lon="2.51266">
        <ele>57</ele>
        <time>2026-05-20T08:34:34.999Z</time>
      </trkpt>
      <trkpt lat="48.76128" lon="2.51276">
        <ele>57</ele>
        <time>2026-05-20T08:34:39.999Z</time>
      </trkpt>
      <trkpt lat="48.76129" lon="2.51286">
        <ele>57</ele>
        <time>2026-05-20T08:34:44.999Z</time>
      </trkpt>
      <trkpt lat="48.76129" lon="2.51296">
        <ele>58</ele>
        <time>2026-05-20T08:34:49.999Z</time>
      </trkpt>
      <trkpt lat="48.76128" lon="2.51301">
        <ele>58</ele>
        <time>2026-05-20T08:34:54.999Z</time>
      </trkpt>
      <trkpt lat="48.7613" lon="2.51315">
        <ele>58</ele>
        <time>2026-05-20T08:34:59.999Z</time>
      </trkpt>
      <trkpt lat="48.7613" lon="2.51322">
        <ele>58</ele>
        <time>2026-05-20T08:35:04.999Z</time>
      </trkpt>
      <trkpt lat="48.76131" lon="2.51325">
        <ele>58</ele>
        <time>2026-05-20T08:35:09.999Z</time>
      </trkpt>
      <trkpt lat="48.76131" lon="2.51334">
        <ele>58</ele>
        <time>2026-05-20T08:35:14.999Z</time>
      </trkpt>
      <trkpt lat="48.76132" lon="2.51338">
        <ele>58</ele>
        <time>2026-05-20T08:35:19.999Z</time>
      </trkpt>
      <trkpt lat="48.76131" lon="2.51347">
        <ele>57</ele>
        <time>2026-05-20T08:35:25Z</time>
      </trkpt>
      <trkpt lat="48.76132" lon="2.51356">
        <ele>57</ele>
        <time>2026-05-20T08:35:30Z</time>
      </trkpt>
      <trkpt lat="48.76134" lon="2.51362">
        <ele>57</ele>
        <time>2026-05-20T08:35:35Z</time>
      </trkpt>
      <trkpt lat="48.76135" lon="2.51372">
        <ele>57</ele>
        <time>2026-05-20T08:35:39.999Z</time>
      </trkpt>
      <trkpt lat="48.76138" lon="2.51377">
        <ele>58</ele>
        <time>2026-05-20T08:35:44.999Z</time>
      </trkpt>
      <trkpt lat="48.76143" lon="2.51379">
        <ele>58</ele>
        <time>2026-05-20T08:35:49.999Z</time>
      </trkpt>
      <trkpt lat="48.76146" lon="2.51388">
        <ele>58</ele>
        <time>2026-05-20T08:36:09.999Z</time>
      </trkpt>
      <trkpt lat="48.76143" lon="2.51396">
        <ele>58</ele>
        <time>2026-05-20T08:36:14.999Z</time>
      </trkpt>
      <trkpt lat="48.76143" lon="2.51407">
        <ele>58</ele>
        <time>2026-05-20T08:36:19.999Z</time>
      </trkpt>
      <trkpt lat="48.76144" lon="2.51419">
        <ele>58</ele>
        <time>2026-05-20T08:36:24.999Z</time>
      </trkpt>
      <trkpt lat="48.76146" lon="2.51423">
        <ele>58</ele>
        <time>2026-05-20T08:36:29.999Z</time>
      </trkpt>
      <trkpt lat="48.76147" lon="2.5143">
        <ele>58</ele>
        <time>2026-05-20T08:36:34.999Z</time>
      </trkpt>
      <trkpt lat="48.76147" lon="2.51436">
        <ele>59</ele>
        <time>2026-05-20T08:36:39.999Z</time>
      </trkpt>
      <trkpt lat="48.76144" lon="2.51443">
        <ele>59</ele>
        <time>2026-05-20T08:36:44.999Z</time>
      </trkpt>
      <trkpt lat="48.76141" lon="2.51448">
        <ele>59</ele>
        <time>2026-05-20T08:36:49.999Z</time>
      </trkpt>
      <trkpt lat="48.76145" lon="2.5145">
        <ele>59</ele>
        <time>2026-05-20T08:36:54.999Z</time>
      </trkpt>
      <trkpt lat="48.76145" lon="2.51466">
        <ele>58</ele>
        <time>2026-05-20T08:36:59.999Z</time>
      </trkpt>
      <trkpt lat="48.76144" lon="2.51472">
        <ele>58</ele>
        <time>2026-05-20T08:37:04.999Z</time>
      </trkpt>
      <trkpt lat="48.76143" lon="2.51476">
        <ele>58</ele>
        <time>2026-05-20T08:37:09.999Z</time>
      </trkpt>
      <trkpt lat="48.76143" lon="2.51485">
        <ele>58</ele>
        <time>2026-05-20T08:37:14.999Z</time>
      </trkpt>
      <trkpt lat="48.7614" lon="2.51492">
        <ele>59</ele>
        <time>2026-05-20T08:37:19.999Z</time>
      </trkpt>
      <trkpt lat="48.76139" lon="2.51501">
        <ele>59</ele>
        <time>2026-05-20T08:37:24.999Z</time>
      </trkpt>
      <trkpt lat="48.76139" lon="2.51507">
        <ele>59</ele>
        <time>2026-05-20T08:37:29.999Z</time>
      </trkpt>
      <trkpt lat="48.76139" lon="2.51515">
        <ele>61</ele>
        <time>2026-05-20T08:37:34.999Z</time>
      </trkpt>
      <trkpt lat="48.76136" lon="2.51524">
        <ele>61</ele>
        <time>2026-05-20T08:37:39.999Z</time>
      </trkpt>
      <trkpt lat="48.76136" lon="2.5153">
        <ele>61</ele>
        <time>2026-05-20T08:37:44.999Z</time>
      </trkpt>
      <trkpt lat="48.76135" lon="2.51538">
        <ele>61</ele>
        <time>2026-05-20T08:37:49.999Z</time>
      </trkpt>
      <trkpt lat="48.76134" lon="2.51545">
        <ele>64</ele>
        <time>2026-05-20T08:37:54.999Z</time>
      </trkpt>
      <trkpt lat="48.76134" lon="2.5155">
        <ele>64</ele>
        <time>2026-05-20T08:37:59.999Z</time>
      </trkpt>
      <trkpt lat="48.76134" lon="2.51557">
        <ele>64</ele>
        <time>2026-05-20T08:38:04.999Z</time>
      </trkpt>
      <trkpt lat="48.76134" lon="2.51565">
        <ele>64</ele>
        <time>2026-05-20T08:38:09.999Z</time>
      </trkpt>
      <trkpt lat="48.76134" lon="2.51571">
        <ele>65</ele>
        <time>2026-05-20T08:38:14.999Z</time>
      </trkpt>
      <trkpt lat="48.76132" lon="2.51578">
        <ele>65</ele>
        <time>2026-05-20T08:38:19.999Z</time>
      </trkpt>
      <trkpt lat="48.76131" lon="2.51583">
        <ele>65</ele>
        <time>2026-05-20T08:38:24.999Z</time>
      </trkpt>
      <trkpt lat="48.7613" lon="2.5159">
        <ele>65</ele>
        <time>2026-05-20T08:38:29.999Z</time>
      </trkpt>
      <trkpt lat="48.76128" lon="2.51599">
        <ele>65</ele>
        <time>2026-05-20T08:38:34.999Z</time>
      </trkpt>
      <trkpt lat="48.76128" lon="2.51607">
        <ele>65</ele>
        <time>2026-05-20T08:38:39.999Z</time>
      </trkpt>
      <trkpt lat="48.7613" lon="2.5161">
        <ele>65</ele>
        <time>2026-05-20T08:38:44.999Z</time>
      </trkpt>
      <trkpt lat="48.76132" lon="2.51618">
        <ele>65</ele>
        <time>2026-05-20T08:38:49.999Z</time>
      </trkpt>
      <trkpt lat="48.76134" lon="2.51623">
        <ele>65</ele>
        <time>2026-05-20T08:38:54.999Z</time>
      </trkpt>
      <trkpt lat="48.76134" lon="2.51628">
        <ele>65</ele>
        <time>2026-05-20T08:38:59.999Z</time>
      </trkpt>
      <trkpt lat="48.76132" lon="2.51633">
        <ele>65</ele>
        <time>2026-05-20T08:39:04.999Z</time>
      </trkpt>
      <trkpt lat="48.76132" lon="2.51638">
        <ele>65</ele>
        <time>2026-05-20T08:39:09.999Z</time>
      </trkpt>
      <trkpt lat="48.76132" lon="2.51643">
        <ele>65</ele>
        <time>2026-05-20T08:39:14.999Z</time>
      </trkpt>
      <trkpt lat="48.76136" lon="2.51647">
        <ele>65</ele>
        <time>2026-05-20T08:39:19.999Z</time>
      </trkpt>
      <trkpt lat="48.76139" lon="2.51657">
        <ele>65</ele>
        <time>2026-05-20T08:39:24.999Z</time>
      </trkpt>
      <trkpt lat="48.76137" lon="2.51668">
        <ele>65</ele>
        <time>2026-05-20T08:39:29.999Z</time>
      </trkpt>
      <trkpt lat="48.76139" lon="2.51676">
        <ele>65</ele>
        <time>2026-05-20T08:39:35Z</time>
      </trkpt>
      <trkpt lat="48.76141" lon="2.51681">
        <ele>64</ele>
        <time>2026-05-20T08:39:40Z</time>
      </trkpt>
      <trkpt lat="48.76143" lon="2.5169">
        <ele>64</ele>
        <time>2026-05-20T08:39:45Z</time>
      </trkpt>
      <trkpt lat="48.76145" lon="2.51697">
        <ele>64</ele>
        <time>2026-05-20T08:39:50Z</time>
      </trkpt>
      <trkpt lat="48.76147" lon="2.51703">
        <ele>64</ele>
        <time>2026-05-20T08:39:55Z</time>
      </trkpt>
      <trkpt lat="48.76148" lon="2.51712">
        <ele>65</ele>
        <time>2026-05-20T08:40:00Z</time>
      </trkpt>
      <trkpt lat="48.76149" lon="2.51717">
        <ele>65</ele>
        <time>2026-05-20T08:40:04.999Z</time>
      </trkpt>
      <trkpt lat="48.76149" lon="2.51725">
        <ele>65</ele>
        <time>2026-05-20T08:40:09.999Z</time>
      </trkpt>
      <trkpt lat="48.76149" lon="2.51728">
        <ele>65</ele>
        <time>2026-05-20T08:40:14.999Z</time>
      </trkpt>
      <trkpt lat="48.76148" lon="2.51729">
        <ele>65</ele>
        <time>2026-05-20T08:40:19.999Z</time>
      </trkpt>
      <trkpt lat="48.76149" lon="2.51735">
        <ele>65</ele>
        <time>2026-05-20T08:40:24.999Z</time>
      </trkpt>
      <trkpt lat="48.76149" lon="2.51744">
        <ele>68</ele>
        <time>2026-05-20T08:40:29.999Z</time>
      </trkpt>
      <trkpt lat="48.7615" lon="2.51752">
        <ele>68</ele>
        <time>2026-05-20T08:40:34.999Z</time>
      </trkpt>
      <trkpt lat="48.76151" lon="2.51759">
        <ele>68</ele>
        <time>2026-05-20T08:40:39.999Z</time>
      </trkpt>
      <trkpt lat="48.76151" lon="2.51766">
        <ele>70</ele>
        <time>2026-05-20T08:40:44.999Z</time>
      </trkpt>
      <trkpt lat="48.76152" lon="2.51774">
        <ele>70</ele>
        <time>2026-05-20T08:40:49.999Z</time>
      </trkpt>
      <trkpt lat="48.76153" lon="2.51779">
        <ele>70</ele>
        <time>2026-05-20T08:40:54.999Z</time>
      </trkpt>
      <trkpt lat="48.76154" lon="2.51787">
        <ele>69</ele>
        <time>2026-05-20T08:40:59.999Z</time>
      </trkpt>
      <trkpt lat="48.76154" lon="2.51792">
        <ele>71</ele>
        <time>2026-05-20T08:41:04.999Z</time>
      </trkpt>
      <trkpt lat="48.76155" lon="2.518">
        <ele>71</ele>
        <time>2026-05-20T08:41:09.999Z</time>
      </trkpt>
      <trkpt lat="48.76156" lon="2.51809">
        <ele>71</ele>
        <time>2026-05-20T08:41:14.999Z</time>
      </trkpt>
      <trkpt lat="48.76158" lon="2.51812">
        <ele>71</ele>
        <time>2026-05-20T08:41:19.999Z</time>
      </trkpt>
      <trkpt lat="48.76159" lon="2.51819">
        <ele>71</ele>
        <time>2026-05-20T08:41:24.999Z</time>
      </trkpt>
      <trkpt lat="48.76159" lon="2.51829">
        <ele>72</ele>
        <time>2026-05-20T08:41:29.999Z</time>
      </trkpt>
      <trkpt lat="48.7616" lon="2.51831">
        <ele>72</ele>
        <time>2026-05-20T08:41:33.999Z</time>
      </trkpt>
      <trkpt lat="48.76161" lon="2.51834">
        <ele>72</ele>
        <time>2026-05-20T08:41:38.999Z</time>
      </trkpt>
      <trkpt lat="48.76164" lon="2.5184">
        <ele>72</ele>
        <time>2026-05-20T08:41:44Z</time>
      </trkpt>
      <trkpt lat="48.76165" lon="2.51848">
        <ele>71</ele>
        <time>2026-05-20T08:41:49Z</time>
      </trkpt>
      <trkpt lat="48.76166" lon="2.51855">
        <ele>71</ele>
        <time>2026-05-20T08:41:54Z</time>
      </trkpt>
      <trkpt lat="48.76167" lon="2.51862">
        <ele>71</ele>
        <time>2026-05-20T08:41:59Z</time>
      </trkpt>
      <trkpt lat="48.76169" lon="2.51872">
        <ele>71</ele>
        <time>2026-05-20T08:42:04Z</time>
      </trkpt>
      <trkpt lat="48.76169" lon="2.51885">
        <ele>70</ele>
        <time>2026-05-20T08:42:09Z</time>
      </trkpt>
      <trkpt lat="48.76169" lon="2.51888">
        <ele>70</ele>
        <time>2026-05-20T08:42:13.999Z</time>
      </trkpt>
      <trkpt lat="48.7617" lon="2.5189">
        <ele>70</ele>
        <time>2026-05-20T08:42:18.999Z</time>
      </trkpt>
      <trkpt lat="48.76172" lon="2.51899">
        <ele>70</ele>
        <time>2026-05-20T08:42:23.999Z</time>
      </trkpt>
      <trkpt lat="48.76175" lon="2.51908">
        <ele>71</ele>
        <time>2026-05-20T08:42:28.999Z</time>
      </trkpt>
      <trkpt lat="48.76174" lon="2.51909">
        <ele>71</ele>
        <time>2026-05-20T08:42:33.999Z</time>
      </trkpt>
      <trkpt lat="48.76168" lon="2.51913">
        <ele>71</ele>
        <time>2026-05-20T08:42:38.999Z</time>
      </trkpt>
      <trkpt lat="48.76165" lon="2.51913">
        <ele>71</ele>
        <time>2026-05-20T08:42:43.999Z</time>
      </trkpt>
      <trkpt lat="48.7616" lon="2.51913">
        <ele>71</ele>
        <time>2026-05-20T08:42:48.999Z</time>
      </trkpt>
      <trkpt lat="48.76155" lon="2.51918">
        <ele>71</ele>
        <time>2026-05-20T08:42:53.999Z</time>
      </trkpt>
      <trkpt lat="48.7615" lon="2.51921">
        <ele>71</ele>
        <time>2026-05-20T08:42:58.999Z</time>
      </trkpt>
      <trkpt lat="48.76147" lon="2.51921">
        <ele>71</ele>
        <time>2026-05-20T08:43:03.999Z</time>
      </trkpt>
      <trkpt lat="48.76145" lon="2.51924">
        <ele>71</ele>
        <time>2026-05-20T08:43:08.999Z</time>
      </trkpt>
      <trkpt lat="48.76139" lon="2.51926">
        <ele>71</ele>
        <time>2026-05-20T08:43:13.999Z</time>
      </trkpt>
      <trkpt lat="48.76134" lon="2.51929">
        <ele>71</ele>
        <time>2026-05-20T08:43:18.999Z</time>
      </trkpt>
      <trkpt lat="48.76131" lon="2.51931">
        <ele>71</ele>
        <time>2026-05-20T08:43:23.999Z</time>
      </trkpt>
      <trkpt lat="48.76127" lon="2.51933">
        <ele>72</ele>
        <time>2026-05-20T08:43:28.999Z</time>
      </trkpt>
      <trkpt lat="48.7612" lon="2.51937">
        <ele>72</ele>
        <time>2026-05-20T08:43:33.999Z</time>
      </trkpt>
      <trkpt lat="48.76115" lon="2.51941">
        <ele>72</ele>
        <time>2026-05-20T08:43:38.999Z</time>
      </trkpt>
      <trkpt lat="48.76109" lon="2.51947">
        <ele>72</ele>
        <time>2026-05-20T08:43:43.999Z</time>
      </trkpt>
      <trkpt lat="48.76105" lon="2.5195">
        <ele>72</ele>
        <time>2026-05-20T08:43:49Z</time>
      </trkpt>
      <trkpt lat="48.761" lon="2.51953">
        <ele>72</ele>
        <time>2026-05-20T08:43:54Z</time>
      </trkpt>
      <trkpt lat="48.76095" lon="2.51953">
        <ele>73</ele>
        <time>2026-05-20T08:43:59Z</time>
      </trkpt>
      <trkpt lat="48.76093" lon="2.51955">
        <ele>73</ele>
        <time>2026-05-20T08:44:03.999Z</time>
      </trkpt>
      <trkpt lat="48.76085" lon="2.51958">
        <ele>73</ele>
        <time>2026-05-20T08:44:08.999Z</time>
      </trkpt>
      <trkpt lat="48.76079" lon="2.51961">
        <ele>74</ele>
        <time>2026-05-20T08:44:13.999Z</time>
      </trkpt>
      <trkpt lat="48.76072" lon="2.51959">
        <ele>74</ele>
        <time>2026-05-20T08:44:18.999Z</time>
      </trkpt>
      <trkpt lat="48.76064" lon="2.51962">
        <ele>77</ele>
        <time>2026-05-20T08:44:23.999Z</time>
      </trkpt>
      <trkpt lat="48.7606" lon="2.51966">
        <ele>77</ele>
        <time>2026-05-20T08:44:27.999Z</time>
      </trkpt>
      <trkpt lat="48.76056" lon="2.51969">
        <ele>77</ele>
        <time>2026-05-20T08:44:32.999Z</time>
      </trkpt>
      <trkpt lat="48.76052" lon="2.51971">
        <ele>77</ele>
        <time>2026-05-20T08:44:37.999Z</time>
      </trkpt>
      <trkpt lat="48.76048" lon="2.51972">
        <ele>77</ele>
        <time>2026-05-20T08:44:42.999Z</time>
      </trkpt>
      <trkpt lat="48.76042" lon="2.51976">
        <ele>77</ele>
        <time>2026-05-20T08:44:47.999Z</time>
      </trkpt>
      <trkpt lat="48.76038" lon="2.51975">
        <ele>79</ele>
        <time>2026-05-20T08:44:52.999Z</time>
      </trkpt>
      <trkpt lat="48.76032" lon="2.51981">
        <ele>79</ele>
        <time>2026-05-20T08:44:57.999Z</time>
      </trkpt>
      <trkpt lat="48.76025" lon="2.51986">
        <ele>79</ele>
        <time>2026-05-20T08:45:02.999Z</time>
      </trkpt>
      <trkpt lat="48.76021" lon="2.5199">
        <ele>79</ele>
        <time>2026-05-20T08:45:07.999Z</time>
      </trkpt>
      <trkpt lat="48.76015" lon="2.51992">
        <ele>79</ele>
        <time>2026-05-20T08:45:12.999Z</time>
      </trkpt>
      <trkpt lat="48.7601" lon="2.51996">
        <ele>78</ele>
        <time>2026-05-20T08:45:17.999Z</time>
      </trkpt>
      <trkpt lat="48.76004" lon="2.52001">
        <ele>78</ele>
        <time>2026-05-20T08:45:22.999Z</time>
      </trkpt>
      <trkpt lat="48.75997" lon="2.52003">
        <ele>78</ele>
        <time>2026-05-20T08:45:27.999Z</time>
      </trkpt>
      <trkpt lat="48.75994" lon="2.52007">
        <ele>78</ele>
        <time>2026-05-20T08:45:32.999Z</time>
      </trkpt>
      <trkpt lat="48.75989" lon="2.52007">
        <ele>78</ele>
        <time>2026-05-20T08:45:37.999Z</time>
      </trkpt>
      <trkpt lat="48.75986" lon="2.52009">
        <ele>77</ele>
        <time>2026-05-20T08:45:42.999Z</time>
      </trkpt>
      <trkpt lat="48.75981" lon="2.52012">
        <ele>77</ele>
        <time>2026-05-20T08:45:47.999Z</time>
      </trkpt>
      <trkpt lat="48.75976" lon="2.52015">
        <ele>78</ele>
        <time>2026-05-20T08:45:53Z</time>
      </trkpt>
      <trkpt lat="48.75969" lon="2.52018">
        <ele>78</ele>
        <time>2026-05-20T08:45:58Z</time>
      </trkpt>
      <trkpt lat="48.75964" lon="2.52021">
        <ele>78</ele>
        <time>2026-05-20T08:46:03Z</time>
      </trkpt>
      <trkpt lat="48.75959" lon="2.52022">
        <ele>78</ele>
        <time>2026-05-20T08:46:08Z</time>
      </trkpt>
      <trkpt lat="48.75954" lon="2.52023">
        <ele>79</ele>
        <time>2026-05-20T08:46:13Z</time>
      </trkpt>
      <trkpt lat="48.75952" lon="2.52027">
        <ele>79</ele>
        <time>2026-05-20T08:46:17.999Z</time>
      </trkpt>
      <trkpt lat="48.75949" lon="2.52033">
        <ele>79</ele>
        <time>2026-05-20T08:46:22.999Z</time>
      </trkpt>
      <trkpt lat="48.75943" lon="2.52033">
        <ele>79</ele>
        <time>2026-05-20T08:46:27.999Z</time>
      </trkpt>
      <trkpt lat="48.7594" lon="2.52036">
        <ele>79</ele>
        <time>2026-05-20T08:46:32.999Z</time>
      </trkpt>
      <trkpt lat="48.75936" lon="2.52039">
        <ele>79</ele>
        <time>2026-05-20T08:46:37.999Z</time>
      </trkpt>
      <trkpt lat="48.75929" lon="2.52042">
        <ele>81</ele>
        <time>2026-05-20T08:46:42.999Z</time>
      </trkpt>
      <trkpt lat="48.75926" lon="2.52049">
        <ele>82</ele>
        <time>2026-05-20T08:46:47.999Z</time>
      </trkpt>
      <trkpt lat="48.75925" lon="2.52052">
        <ele>82</ele>
        <time>2026-05-20T08:46:51.999Z</time>
      </trkpt>
      <trkpt lat="48.75924" lon="2.52059">
        <ele>82</ele>
        <time>2026-05-20T08:46:56.999Z</time>
      </trkpt>
      <trkpt lat="48.75922" lon="2.52063">
        <ele>82</ele>
        <time>2026-05-20T08:47:01.999Z</time>
      </trkpt>
      <trkpt lat="48.7592" lon="2.52068">
        <ele>82</ele>
        <time>2026-05-20T08:47:06.999Z</time>
      </trkpt>
      <trkpt lat="48.75916" lon="2.52074">
        <ele>84</ele>
        <time>2026-05-20T08:47:11.999Z</time>
      </trkpt>
      <trkpt lat="48.75912" lon="2.52077">
        <ele>84</ele>
        <time>2026-05-20T08:47:16.999Z</time>
      </trkpt>
      <trkpt lat="48.75907" lon="2.52083">
        <ele>84</ele>
        <time>2026-05-20T08:47:21.999Z</time>
      </trkpt>
      <trkpt lat="48.75906" lon="2.52088">
        <ele>84</ele>
        <time>2026-05-20T08:47:26.999Z</time>
      </trkpt>
      <trkpt lat="48.75905" lon="2.52094">
        <ele>84</ele>
        <time>2026-05-20T08:47:31.999Z</time>
      </trkpt>
      <trkpt lat="48.75901" lon="2.52099">
        <ele>86</ele>
        <time>2026-05-20T08:47:36.999Z</time>
      </trkpt>
      <trkpt lat="48.759" lon="2.52109">
        <ele>86</ele>
        <time>2026-05-20T08:47:41.999Z</time>
      </trkpt>
      <trkpt lat="48.75898" lon="2.52114">
        <ele>86</ele>
        <time>2026-05-20T08:47:46.999Z</time>
      </trkpt>
      <trkpt lat="48.75895" lon="2.52121">
        <ele>86</ele>
        <time>2026-05-20T08:47:51.999Z</time>
      </trkpt>
      <trkpt lat="48.75892" lon="2.52125">
        <ele>89</ele>
        <time>2026-05-20T08:47:56.999Z</time>
      </trkpt>
      <trkpt lat="48.75887" lon="2.52138">
        <ele>89</ele>
        <time>2026-05-20T08:48:02Z</time>
      </trkpt>
      <trkpt lat="48.75886" lon="2.52138">
        <ele>89</ele>
        <time>2026-05-20T08:48:07Z</time>
      </trkpt>
      <trkpt lat="48.75881" lon="2.52147">
        <ele>89</ele>
        <time>2026-05-20T08:48:12Z</time>
      </trkpt>
      <trkpt lat="48.75879" lon="2.52152">
        <ele>89</ele>
        <time>2026-05-20T08:48:17Z</time>
      </trkpt>
      <trkpt lat="48.75878" lon="2.52157">
        <ele>91</ele>
        <time>2026-05-20T08:48:22Z</time>
      </trkpt>
      <trkpt lat="48.75874" lon="2.5216">
        <ele>90</ele>
        <time>2026-05-20T08:48:26.999Z</time>
      </trkpt>
      <trkpt lat="48.75869" lon="2.52161">
        <ele>90</ele>
        <time>2026-05-20T08:48:31.999Z</time>
      </trkpt>
      <trkpt lat="48.75864" lon="2.52166">
        <ele>90</ele>
        <time>2026-05-20T08:48:36.999Z</time>
      </trkpt>
      <trkpt lat="48.75861" lon="2.52168">
        <ele>90</ele>
        <time>2026-05-20T08:48:41.999Z</time>
      </trkpt>
      <trkpt lat="48.75857" lon="2.52173">
        <ele>90</ele>
        <time>2026-05-20T08:48:46.999Z</time>
      </trkpt>
      <trkpt lat="48.75856" lon="2.5218">
        <ele>90</ele>
        <time>2026-05-20T08:48:51.999Z</time>
      </trkpt>
      <trkpt lat="48.75854" lon="2.52188">
        <ele>92</ele>
        <time>2026-05-20T08:48:56.999Z</time>
      </trkpt>
      <trkpt lat="48.7585" lon="2.52193">
        <ele>92</ele>
        <time>2026-05-20T08:49:01.999Z</time>
      </trkpt>
      <trkpt lat="48.75852" lon="2.52203">
        <ele>92</ele>
        <time>2026-05-20T08:49:06.999Z</time>
      </trkpt>
      <trkpt lat="48.75851" lon="2.52215">
        <ele>95</ele>
        <time>2026-05-20T08:49:11.999Z</time>
      </trkpt>
      <trkpt lat="48.75851" lon="2.52223">
        <ele>95</ele>
        <time>2026-05-20T08:49:16.999Z</time>
      </trkpt>
      <trkpt lat="48.75847" lon="2.52234">
        <ele>95</ele>
        <time>2026-05-20T08:49:21.999Z</time>
      </trkpt>
      <trkpt lat="48.75846" lon="2.52236">
        <ele>95</ele>
        <time>2026-05-20T08:49:26.999Z</time>
      </trkpt>
      <trkpt lat="48.75844" lon="2.52244">
        <ele>95</ele>
        <time>2026-05-20T08:49:31.999Z</time>
      </trkpt>
      <trkpt lat="48.75842" lon="2.52248">
        <ele>95</ele>
        <time>2026-05-20T08:49:36.999Z</time>
      </trkpt>
      <trkpt lat="48.7584" lon="2.52255">
        <ele>95</ele>
        <time>2026-05-20T08:49:41.999Z</time>
      </trkpt>
      <trkpt lat="48.75838" lon="2.5226">
        <ele>95</ele>
        <time>2026-05-20T08:49:46.999Z</time>
      </trkpt>
      <trkpt lat="48.7584" lon="2.52269">
        <ele>96</ele>
        <time>2026-05-20T08:49:51.999Z</time>
      </trkpt>
      <trkpt lat="48.75843" lon="2.52276">
        <ele>96</ele>
        <time>2026-05-20T08:49:56.999Z</time>
      </trkpt>
      <trkpt lat="48.75844" lon="2.52282">
        <ele>96</ele>
        <time>2026-05-20T08:50:01.999Z</time>
      </trkpt>
      <trkpt lat="48.75844" lon="2.52285">
        <ele>96</ele>
        <time>2026-05-20T08:50:07Z</time>
      </trkpt>
      <trkpt lat="48.7584" lon="2.52288">
        <ele>96</ele>
        <time>2026-05-20T08:50:12Z</time>
      </trkpt>
      <trkpt lat="48.75833" lon="2.52292">
        <ele>97</ele>
        <time>2026-05-20T08:50:17Z</time>
      </trkpt>
      <trkpt lat="48.75828" lon="2.52295">
        <ele>97</ele>
        <time>2026-05-20T08:50:21.999Z</time>
      </trkpt>
      <trkpt lat="48.75824" lon="2.523">
        <ele>97</ele>
        <time>2026-05-20T08:50:26.999Z</time>
      </trkpt>
      <trkpt lat="48.75823" lon="2.52305">
        <ele>97</ele>
        <time>2026-05-20T08:50:30.999Z</time>
      </trkpt>
      <trkpt lat="48.75824" lon="2.52313">
        <ele>97</ele>
        <time>2026-05-20T08:50:35.999Z</time>
      </trkpt>
      <trkpt lat="48.75826" lon="2.52322">
        <ele>99</ele>
        <time>2026-05-20T08:50:39.999Z</time>
      </trkpt>
      <trkpt lat="48.75825" lon="2.52326">
        <ele>99</ele>
        <time>2026-05-20T08:50:44.999Z</time>
      </trkpt>
      <trkpt lat="48.75826" lon="2.5233">
        <ele>99</ele>
        <time>2026-05-20T08:50:49.999Z</time>
      </trkpt>
      <trkpt lat="48.75825" lon="2.52338">
        <ele>99</ele>
        <time>2026-05-20T08:50:54.999Z</time>
      </trkpt>
      <trkpt lat="48.75823" lon="2.52341">
        <ele>99</ele>
        <time>2026-05-20T08:50:59.999Z</time>
      </trkpt>
      <trkpt lat="48.75822" lon="2.52348">
        <ele>100</ele>
        <time>2026-05-20T08:51:04.999Z</time>
      </trkpt>
      <trkpt lat="48.75822" lon="2.52358">
        <ele>100</ele>
        <time>2026-05-20T08:51:09.999Z</time>
      </trkpt>
      <trkpt lat="48.75819" lon="2.52366">
        <ele>98</ele>
        <time>2026-05-20T08:51:14.999Z</time>
      </trkpt>
      <trkpt lat="48.75818" lon="2.52372">
        <ele>98</ele>
        <time>2026-05-20T08:51:19.999Z</time>
      </trkpt>
      <trkpt lat="48.75815" lon="2.52379">
        <ele>99</ele>
        <time>2026-05-20T08:51:24.999Z</time>
      </trkpt>
      <trkpt lat="48.75812" lon="2.52382">
        <ele>99</ele>
        <time>2026-05-20T08:51:29.999Z</time>
      </trkpt>
      <trkpt lat="48.75809" lon="2.52388">
        <ele>99</ele>
        <time>2026-05-20T08:51:34.999Z</time>
      </trkpt>
      <trkpt lat="48.7581" lon="2.52395">
        <ele>99</ele>
        <time>2026-05-20T08:51:39.999Z</time>
      </trkpt>
      <trkpt lat="48.7581" lon="2.52402">
        <ele>99</ele>
        <time>2026-05-20T08:51:44.999Z</time>
      </trkpt>
      <trkpt lat="48.75811" lon="2.52408">
        <ele>99</ele>
        <time>2026-05-20T08:51:49.999Z</time>
      </trkpt>
      <trkpt lat="48.75806" lon="2.52417">
        <ele>99</ele>
        <time>2026-05-20T08:51:54.999Z</time>
      </trkpt>
      <trkpt lat="48.75805" lon="2.52418">
        <ele>99</ele>
        <time>2026-05-20T08:51:59.998Z</time>
      </trkpt>
      <trkpt lat="48.75804" lon="2.52418">
        <ele>99</ele>
        <time>2026-05-20T08:52:04.998Z</time>
      </trkpt>
      <trkpt lat="48.75802" lon="2.52425">
        <ele>99</ele>
        <time>2026-05-20T08:52:09.999Z</time>
      </trkpt>
      <trkpt lat="48.75798" lon="2.52428">
        <ele>99</ele>
        <time>2026-05-20T08:52:14.999Z</time>
      </trkpt>
      <trkpt lat="48.75795" lon="2.52435">
        <ele>99</ele>
        <time>2026-05-20T08:52:19.999Z</time>
      </trkpt>
      <trkpt lat="48.75791" lon="2.52441">
        <ele>98</ele>
        <time>2026-05-20T08:52:24.999Z</time>
      </trkpt>
      <trkpt lat="48.75788" lon="2.52447">
        <ele>98</ele>
        <time>2026-05-20T08:52:29.999Z</time>
      </trkpt>
      <trkpt lat="48.75785" lon="2.52454">
        <ele>98</ele>
        <time>2026-05-20T08:52:34.999Z</time>
      </trkpt>
      <trkpt lat="48.75783" lon="2.52462">
        <ele>99</ele>
        <time>2026-05-20T08:52:39.999Z</time>
      </trkpt>
      <trkpt lat="48.75782" lon="2.5247">
        <ele>99</ele>
        <time>2026-05-20T08:52:44.999Z</time>
      </trkpt>
      <trkpt lat="48.75779" lon="2.52479">
        <ele>99</ele>
        <time>2026-05-20T08:52:49.999Z</time>
      </trkpt>
      <trkpt lat="48.75777" lon="2.52487">
        <ele>99</ele>
        <time>2026-05-20T08:52:54.999Z</time>
      </trkpt>
      <trkpt lat="48.75774" lon="2.52493">
        <ele>99</ele>
        <time>2026-05-20T08:52:59.999Z</time>
      </trkpt>
      <trkpt lat="48.75774" lon="2.52501">
        <ele>99</ele>
        <time>2026-05-20T08:53:04.999Z</time>
      </trkpt>
      <trkpt lat="48.75775" lon="2.52508">
        <ele>99</ele>
        <time>2026-05-20T08:53:09.999Z</time>
      </trkpt>
      <trkpt lat="48.75779" lon="2.52518">
        <ele>99</ele>
        <time>2026-05-20T08:53:14.999Z</time>
      </trkpt>
      <trkpt lat="48.75784" lon="2.52523">
        <ele>99</ele>
        <time>2026-05-20T08:53:19.999Z</time>
      </trkpt>
      <trkpt lat="48.75788" lon="2.52529">
        <ele>99</ele>
        <time>2026-05-20T08:53:24.999Z</time>
      </trkpt>
      <trkpt lat="48.75792" lon="2.52532">
        <ele>100</ele>
        <time>2026-05-20T08:53:29.999Z</time>
      </trkpt>
      <trkpt lat="48.75795" lon="2.52541">
        <ele>100</ele>
        <time>2026-05-20T08:53:34.999Z</time>
      </trkpt>
      <trkpt lat="48.75797" lon="2.52548">
        <ele>100</ele>
        <time>2026-05-20T08:53:39.999Z</time>
      </trkpt>
      <trkpt lat="48.75799" lon="2.52557">
        <ele>100</ele>
        <time>2026-05-20T08:53:44.999Z</time>
      </trkpt>
      <trkpt lat="48.75798" lon="2.52565">
        <ele>100</ele>
        <time>2026-05-20T08:53:49.999Z</time>
      </trkpt>
      <trkpt lat="48.75795" lon="2.52575">
        <ele>100</ele>
        <time>2026-05-20T08:53:54.999Z</time>
      </trkpt>
      <trkpt lat="48.75795" lon="2.52582">
        <ele>100</ele>
        <time>2026-05-20T08:53:59.999Z</time>
      </trkpt>
      <trkpt lat="48.75795" lon="2.52593">
        <ele>100</ele>
        <time>2026-05-20T08:54:04.999Z</time>
      </trkpt>
      <trkpt lat="48.75797" lon="2.52609">
        <ele>101</ele>
        <time>2026-05-20T08:54:44.999Z</time>
      </trkpt>
      <trkpt lat="48.75797" lon="2.52609">
        <ele>101</ele>
        <time>2026-05-20T08:54:49.999Z</time>
      </trkpt>
      <trkpt lat="48.75796" lon="2.52611">
        <ele>101</ele>
        <time>2026-05-20T08:54:54.999Z</time>
      </trkpt>
      <trkpt lat="48.75798" lon="2.52612">
        <ele>101</ele>
        <time>2026-05-20T08:54:59.999Z</time>
      </trkpt>
      <trkpt lat="48.75799" lon="2.52616">
        <ele>101</ele>
        <time>2026-05-20T08:55:14.999Z</time>
      </trkpt>
      <trkpt lat="48.75801" lon="2.52616">
        <ele>101</ele>
        <time>2026-05-20T08:55:19.999Z</time>
      </trkpt>
      <trkpt lat="48.75803" lon="2.52616">
        <ele>101</ele>
        <time>2026-05-20T08:55:24.999Z</time>
      </trkpt>
      <trkpt lat="48.75804" lon="2.52618">
        <ele>101</ele>
        <time>2026-05-20T08:55:29.999Z</time>
      </trkpt>
      <trkpt lat="48.75804" lon="2.52623">
        <ele>101</ele>
        <time>2026-05-20T08:55:34.999Z</time>
      </trkpt>
      <trkpt lat="48.75807" lon="2.52628">
        <ele>101</ele>
        <time>2026-05-20T08:55:39.999Z</time>
      </trkpt>
      <trkpt lat="48.7581" lon="2.52629">
        <ele>101</ele>
        <time>2026-05-20T08:55:59.999Z</time>
      </trkpt>
      <trkpt lat="48.75815" lon="2.52635">
        <ele>101</ele>
        <time>2026-05-20T08:56:04.999Z</time>
      </trkpt>
      <trkpt lat="48.75815" lon="2.52636">
        <ele>101</ele>
        <time>2026-05-20T08:56:09.999Z</time>
      </trkpt>
      <trkpt lat="48.75818" lon="2.5264">
        <ele>101</ele>
        <time>2026-05-20T08:56:14.999Z</time>
      </trkpt>
      <trkpt lat="48.75823" lon="2.52642">
        <ele>99</ele>
        <time>2026-05-20T08:56:19.999Z</time>
      </trkpt>
      <trkpt lat="48.75829" lon="2.52645">
        <ele>99</ele>
        <time>2026-05-20T08:56:24.999Z</time>
      </trkpt>
      <trkpt lat="48.75834" lon="2.52651">
        <ele>99</ele>
        <time>2026-05-20T08:56:29.999Z</time>
      </trkpt>
      <trkpt lat="48.75838" lon="2.52661">
        <ele>99</ele>
        <time>2026-05-20T08:56:34.999Z</time>
      </trkpt>
      <trkpt lat="48.75843" lon="2.52666">
        <ele>99</ele>
        <time>2026-05-20T08:56:39.999Z</time>
      </trkpt>
      <trkpt lat="48.75848" lon="2.52668">
        <ele>97</ele>
        <time>2026-05-20T08:56:44.999Z</time>
      </trkpt>
      <trkpt lat="48.75854" lon="2.52668">
        <ele>97</ele>
        <time>2026-05-20T08:56:49.999Z</time>
      </trkpt>
      <trkpt lat="48.7586" lon="2.52667">
        <ele>97</ele>
        <time>2026-05-20T08:56:54.999Z</time>
      </trkpt>
      <trkpt lat="48.75866" lon="2.52665">
        <ele>97</ele>
        <time>2026-05-20T08:56:59.999Z</time>
      </trkpt>
      <trkpt lat="48.75871" lon="2.52667">
        <ele>97</ele>
        <time>2026-05-20T08:57:04.999Z</time>
      </trkpt>
      <trkpt lat="48.75876" lon="2.52668">
        <ele>96</ele>
        <time>2026-05-20T08:57:09.999Z</time>
      </trkpt>
      <trkpt lat="48.75882" lon="2.52667">
        <ele>96</ele>
        <time>2026-05-20T08:57:14.999Z</time>
      </trkpt>
      <trkpt lat="48.75888" lon="2.52666">
        <ele>96</ele>
        <time>2026-05-20T08:57:19.999Z</time>
      </trkpt>
      <trkpt lat="48.75893" lon="2.52665">
        <ele>96</ele>
        <time>2026-05-20T08:57:24.999Z</time>
      </trkpt>
      <trkpt lat="48.75898" lon="2.52665">
        <ele>96</ele>
        <time>2026-05-20T08:57:29.999Z</time>
      </trkpt>
      <trkpt lat="48.75904" lon="2.52663">
        <ele>96</ele>
        <time>2026-05-20T08:57:34.999Z</time>
      </trkpt>
      <trkpt lat="48.75911" lon="2.52663">
        <ele>96</ele>
        <time>2026-05-20T08:57:39.999Z</time>
      </trkpt>
      <trkpt lat="48.75917" lon="2.52664">
        <ele>96</ele>
        <time>2026-05-20T08:57:44.999Z</time>
      </trkpt>
      <trkpt lat="48.75923" lon="2.52663">
        <ele>96</ele>
        <time>2026-05-20T08:57:49.999Z</time>
      </trkpt>
      <trkpt lat="48.75927" lon="2.52663">
        <ele>96</ele>
        <time>2026-05-20T08:57:54.999Z</time>
      </trkpt>
      <trkpt lat="48.75935" lon="2.52663">
        <ele>96</ele>
        <time>2026-05-20T08:57:59.999Z</time>
      </trkpt>
      <trkpt lat="48.75942" lon="2.52662">
        <ele>96</ele>
        <time>2026-05-20T08:58:04.999Z</time>
      </trkpt>
      <trkpt lat="48.75948" lon="2.52664">
        <ele>96</ele>
        <time>2026-05-20T08:58:09.999Z</time>
      </trkpt>
      <trkpt lat="48.75956" lon="2.52664">
        <ele>96</ele>
        <time>2026-05-20T08:58:14.999Z</time>
      </trkpt>
      <trkpt lat="48.75963" lon="2.52663">
        <ele>96</ele>
        <time>2026-05-20T08:58:19.999Z</time>
      </trkpt>
      <trkpt lat="48.75968" lon="2.52659">
        <ele>96</ele>
        <time>2026-05-20T08:58:24.998Z</time>
      </trkpt>
      <trkpt lat="48.75974" lon="2.52655">
        <ele>96</ele>
        <time>2026-05-20T08:58:29.999Z</time>
      </trkpt>
      <trkpt lat="48.75979" lon="2.52651">
        <ele>97</ele>
        <time>2026-05-20T08:58:34.999Z</time>
      </trkpt>
      <trkpt lat="48.75985" lon="2.5265">
        <ele>97</ele>
        <time>2026-05-20T08:58:39.999Z</time>
      </trkpt>
      <trkpt lat="48.75991" lon="2.52652">
        <ele>97</ele>
        <time>2026-05-20T08:58:44.999Z</time>
      </trkpt>
      <trkpt lat="48.75993" lon="2.52647">
        <ele>97</ele>
        <time>2026-05-20T08:58:49.999Z</time>
      </trkpt>
      <trkpt lat="48.75997" lon="2.52642">
        <ele>97</ele>
        <time>2026-05-20T08:58:54.999Z</time>
      </trkpt>
      <trkpt lat="48.75999" lon="2.52638">
        <ele>97</ele>
        <time>2026-05-20T08:58:59.999Z</time>
      </trkpt>
      <trkpt lat="48.76004" lon="2.5263">
        <ele>97</ele>
        <time>2026-05-20T08:59:04.999Z</time>
      </trkpt>
      <trkpt lat="48.76007" lon="2.52624">
        <ele>97</ele>
        <time>2026-05-20T08:59:09.999Z</time>
      </trkpt>
      <trkpt lat="48.76013" lon="2.52619">
        <ele>97</ele>
        <time>2026-05-20T08:59:14.999Z</time>
      </trkpt>
      <trkpt lat="48.7602" lon="2.52616">
        <ele>96</ele>
        <time>2026-05-20T08:59:19.999Z</time>
      </trkpt>
      <trkpt lat="48.76026" lon="2.52609">
        <ele>96</ele>
        <time>2026-05-20T08:59:24.999Z</time>
      </trkpt>
      <trkpt lat="48.76032" lon="2.52605">
        <ele>96</ele>
        <time>2026-05-20T08:59:29.999Z</time>
      </trkpt>
      <trkpt lat="48.76036" lon="2.52599">
        <ele>96</ele>
        <time>2026-05-20T08:59:34.999Z</time>
      </trkpt>
      <trkpt lat="48.76039" lon="2.52592">
        <ele>94</ele>
        <time>2026-05-20T08:59:39.999Z</time>
      </trkpt>
      <trkpt lat="48.76042" lon="2.52582">
        <ele>93</ele>
        <time>2026-05-20T08:59:44.999Z</time>
      </trkpt>
      <trkpt lat="48.76044" lon="2.52572">
        <ele>93</ele>
        <time>2026-05-20T08:59:49.999Z</time>
      </trkpt>
      <trkpt lat="48.76044" lon="2.52562">
        <ele>92</ele>
        <time>2026-05-20T08:59:54.999Z</time>
      </trkpt>
      <trkpt lat="48.76044" lon="2.52552">
        <ele>92</ele>
        <time>2026-05-20T08:59:59.999Z</time>
      </trkpt>
      <trkpt lat="48.76048" lon="2.52545">
        <ele>92</ele>
        <time>2026-05-20T09:00:04.999Z</time>
      </trkpt>
      <trkpt lat="48.76048" lon="2.52546">
        <ele>92</ele>
        <time>2026-05-20T09:00:09.999Z</time>
      </trkpt>
      <trkpt lat="48.76053" lon="2.52547">
        <ele>92</ele>
        <time>2026-05-20T09:00:14.999Z</time>
      </trkpt>
      <trkpt lat="48.76061" lon="2.52547">
        <ele>92</ele>
        <time>2026-05-20T09:00:19.999Z</time>
      </trkpt>
      <trkpt lat="48.76068" lon="2.52545">
        <ele>92</ele>
        <time>2026-05-20T09:00:24.999Z</time>
      </trkpt>
      <trkpt lat="48.76075" lon="2.52543">
        <ele>92</ele>
        <time>2026-05-20T09:00:29.999Z</time>
      </trkpt>
      <trkpt lat="48.76079" lon="2.52542">
        <ele>92</ele>
        <time>2026-05-20T09:00:34.999Z</time>
      </trkpt>
      <trkpt lat="48.76079" lon="2.52542">
        <ele>91</ele>
        <time>2026-05-20T09:00:39.999Z</time>
      </trkpt>
      <trkpt lat="48.76086" lon="2.5254">
        <ele>91</ele>
        <time>2026-05-20T09:00:44.999Z</time>
      </trkpt>
      <trkpt lat="48.76092" lon="2.52539">
        <ele>91</ele>
        <time>2026-05-20T09:00:49.999Z</time>
      </trkpt>
      <trkpt lat="48.76098" lon="2.52539">
        <ele>91</ele>
        <time>2026-05-20T09:00:54.999Z</time>
      </trkpt>
      <trkpt lat="48.76105" lon="2.52537">
        <ele>91</ele>
        <time>2026-05-20T09:00:59.999Z</time>
      </trkpt>
      <trkpt lat="48.7611" lon="2.52536">
        <ele>91</ele>
        <time>2026-05-20T09:01:04.999Z</time>
      </trkpt>
      <trkpt lat="48.76117" lon="2.52534">
        <ele>91</ele>
        <time>2026-05-20T09:01:09.999Z</time>
      </trkpt>
      <trkpt lat="48.76123" lon="2.52534">
        <ele>91</ele>
        <time>2026-05-20T09:01:14.999Z</time>
      </trkpt>
      <trkpt lat="48.7613" lon="2.52535">
        <ele>92</ele>
        <time>2026-05-20T09:01:19.999Z</time>
      </trkpt>
      <trkpt lat="48.76134" lon="2.52537">
        <ele>92</ele>
        <time>2026-05-20T09:01:24.999Z</time>
      </trkpt>
      <trkpt lat="48.76143" lon="2.52535">
        <ele>92</ele>
        <time>2026-05-20T09:01:29.999Z</time>
      </trkpt>
      <trkpt lat="48.76149" lon="2.52533">
        <ele>92</ele>
        <time>2026-05-20T09:01:34.999Z</time>
      </trkpt>
      <trkpt lat="48.76155" lon="2.5253">
        <ele>94</ele>
        <time>2026-05-20T09:01:39.999Z</time>
      </trkpt>
      <trkpt lat="48.76159" lon="2.52529">
        <ele>94</ele>
        <time>2026-05-20T09:01:44.999Z</time>
      </trkpt>
      <trkpt lat="48.76163" lon="2.52527">
        <ele>94</ele>
        <time>2026-05-20T09:01:49.999Z</time>
      </trkpt>
      <trkpt lat="48.76172" lon="2.52524">
        <ele>94</ele>
        <time>2026-05-20T09:01:54.999Z</time>
      </trkpt>
      <trkpt lat="48.76181" lon="2.5252">
        <ele>93</ele>
        <time>2026-05-20T09:01:59.999Z</time>
      </trkpt>
      <trkpt lat="48.76188" lon="2.52518">
        <ele>93</ele>
        <time>2026-05-20T09:02:04.999Z</time>
      </trkpt>
      <trkpt lat="48.76192" lon="2.52513">
        <ele>92</ele>
        <time>2026-05-20T09:02:09.999Z</time>
      </trkpt>
      <trkpt lat="48.76194" lon="2.52513">
        <ele>92</ele>
        <time>2026-05-20T09:02:14.999Z</time>
      </trkpt>
      <trkpt lat="48.76203" lon="2.52507">
        <ele>92</ele>
        <time>2026-05-20T09:02:19.999Z</time>
      </trkpt>
      <trkpt lat="48.76209" lon="2.52505">
        <ele>91</ele>
        <time>2026-05-20T09:02:24.999Z</time>
      </trkpt>
      <trkpt lat="48.76214" lon="2.52503">
        <ele>91</ele>
        <time>2026-05-20T09:02:29.999Z</time>
      </trkpt>
      <trkpt lat="48.76222" lon="2.52501">
        <ele>91</ele>
        <time>2026-05-20T09:02:34.999Z</time>
      </trkpt>
      <trkpt lat="48.76227" lon="2.52499">
        <ele>91</ele>
        <time>2026-05-20T09:02:39.999Z</time>
      </trkpt>
      <trkpt lat="48.76232" lon="2.52495">
        <ele>91</ele>
        <time>2026-05-20T09:02:44.999Z</time>
      </trkpt>
      <trkpt lat="48.76239" lon="2.52491">
        <ele>91</ele>
        <time>2026-05-20T09:02:49.999Z</time>
      </trkpt>
      <trkpt lat="48.76244" lon="2.52489">
        <ele>91</ele>
        <time>2026-05-20T09:02:54.999Z</time>
      </trkpt>
      <trkpt lat="48.76252" lon="2.52486">
        <ele>90</ele>
        <time>2026-05-20T09:02:59.999Z</time>
      </trkpt>
      <trkpt lat="48.76258" lon="2.52483">
        <ele>90</ele>
        <time>2026-05-20T09:03:04.999Z</time>
      </trkpt>
      <trkpt lat="48.76265" lon="2.52481">
        <ele>91</ele>
        <time>2026-05-20T09:03:09.999Z</time>
      </trkpt>
      <trkpt lat="48.76269" lon="2.52479">
        <ele>91</ele>
        <time>2026-05-20T09:03:14.999Z</time>
      </trkpt>
      <trkpt lat="48.76276" lon="2.52475">
        <ele>91</ele>
        <time>2026-05-20T09:03:19.999Z</time>
      </trkpt>
      <trkpt lat="48.76281" lon="2.52472">
        <ele>91</ele>
        <time>2026-05-20T09:03:24.999Z</time>
      </trkpt>
      <trkpt lat="48.76288" lon="2.52467">
        <ele>91</ele>
        <time>2026-05-20T09:03:29.999Z</time>
      </trkpt>
      <trkpt lat="48.76293" lon="2.52467">
        <ele>92</ele>
        <time>2026-05-20T09:03:34.999Z</time>
      </trkpt>
      <trkpt lat="48.763" lon="2.52463">
        <ele>92</ele>
        <time>2026-05-20T09:03:39.999Z</time>
      </trkpt>
      <trkpt lat="48.76304" lon="2.52462">
        <ele>92</ele>
        <time>2026-05-20T09:03:43.999Z</time>
      </trkpt>
      <trkpt lat="48.7631" lon="2.52459">
        <ele>92</ele>
        <time>2026-05-20T09:03:48.999Z</time>
      </trkpt>
      <trkpt lat="48.76312" lon="2.52462">
        <ele>92</ele>
        <time>2026-05-20T09:03:52.999Z</time>
      </trkpt>
      <trkpt lat="48.76319" lon="2.52469">
        <ele>92</ele>
        <time>2026-05-20T09:03:57.999Z</time>
      </trkpt>
      <trkpt lat="48.7632" lon="2.52479">
        <ele>93</ele>
        <time>2026-05-20T09:04:02.999Z</time>
      </trkpt>
      <trkpt lat="48.7632" lon="2.52482">
        <ele>93</ele>
        <time>2026-05-20T09:04:07.999Z</time>
      </trkpt>
      <trkpt lat="48.76322" lon="2.5249">
        <ele>94</ele>
        <time>2026-05-20T09:04:12.999Z</time>
      </trkpt>
      <trkpt lat="48.76325" lon="2.52496">
        <ele>94</ele>
        <time>2026-05-20T09:04:17.999Z</time>
      </trkpt>
      <trkpt lat="48.76323" lon="2.5249">
        <ele>94</ele>
        <time>2026-05-20T09:04:37.999Z</time>
      </trkpt>
      <trkpt lat="48.76323" lon="2.52489">
        <ele>94</ele>
        <time>2026-05-20T09:04:42.999Z</time>
      </trkpt>
      <trkpt lat="48.76322" lon="2.52489">
        <ele>94</ele>
        <time>2026-05-20T09:05:02.999Z</time>
      </trkpt>
      <trkpt lat="48.76326" lon="2.5249">
        <ele>94</ele>
        <time>2026-05-20T09:05:07.999Z</time>
      </trkpt>
      <trkpt lat="48.76334" lon="2.52486">
        <ele>94</ele>
        <time>2026-05-20T09:05:12.999Z</time>
      </trkpt>
      <trkpt lat="48.76339" lon="2.52482">
        <ele>93</ele>
        <time>2026-05-20T09:05:17.999Z</time>
      </trkpt>
      <trkpt lat="48.76344" lon="2.52478">
        <ele>93</ele>
        <time>2026-05-20T09:05:22.999Z</time>
      </trkpt>
      <trkpt lat="48.7635" lon="2.52474">
        <ele>94</ele>
        <time>2026-05-20T09:05:27.999Z</time>
      </trkpt>
      <trkpt lat="48.76353" lon="2.5247">
        <ele>94</ele>
        <time>2026-05-20T09:05:32.999Z</time>
      </trkpt>
      <trkpt lat="48.76361" lon="2.52464">
        <ele>94</ele>
        <time>2026-05-20T09:05:37.999Z</time>
      </trkpt>
      <trkpt lat="48.76366" lon="2.52461">
        <ele>94</ele>
        <time>2026-05-20T09:05:42.999Z</time>
      </trkpt>
      <trkpt lat="48.76372" lon="2.52458">
        <ele>92</ele>
        <time>2026-05-20T09:05:47.999Z</time>
      </trkpt>
      <trkpt lat="48.76376" lon="2.52458">
        <ele>93</ele>
        <time>2026-05-20T09:05:52.999Z</time>
      </trkpt>
      <trkpt lat="48.76377" lon="2.52467">
        <ele>94</ele>
        <time>2026-05-20T09:05:57.999Z</time>
      </trkpt>
      <trkpt lat="48.7638" lon="2.52475">
        <ele>94</ele>
        <time>2026-05-20T09:06:02.999Z</time>
      </trkpt>
      <trkpt lat="48.76383" lon="2.52483">
        <ele>94</ele>
        <time>2026-05-20T09:06:07.999Z</time>
      </trkpt>
      <trkpt lat="48.76386" lon="2.52491">
        <ele>95</ele>
        <time>2026-05-20T09:06:12.999Z</time>
      </trkpt>
      <trkpt lat="48.76389" lon="2.52497">
        <ele>95</ele>
        <time>2026-05-20T09:06:17.999Z</time>
      </trkpt>
      <trkpt lat="48.76393" lon="2.52507">
        <ele>95</ele>
        <time>2026-05-20T09:06:22.999Z</time>
      </trkpt>
      <trkpt lat="48.76395" lon="2.52515">
        <ele>95</ele>
        <time>2026-05-20T09:06:27.999Z</time>
      </trkpt>
      <trkpt lat="48.76399" lon="2.52523">
        <ele>95</ele>
        <time>2026-05-20T09:06:32.999Z</time>
      </trkpt>
      <trkpt lat="48.76404" lon="2.52543">
        <ele>95</ele>
        <time>2026-05-20T09:06:53Z</time>
      </trkpt>
      <trkpt lat="48.76406" lon="2.52543">
        <ele>95</ele>
        <time>2026-05-20T09:06:58Z</time>
      </trkpt>
      <trkpt lat="48.76411" lon="2.52542">
        <ele>95</ele>
        <time>2026-05-20T09:07:03Z</time>
      </trkpt>
      <trkpt lat="48.76417" lon="2.52543">
        <ele>95</ele>
        <time>2026-05-20T09:07:08Z</time>
      </trkpt>
      <trkpt lat="48.76422" lon="2.52542">
        <ele>95</ele>
        <time>2026-05-20T09:07:12.999Z</time>
      </trkpt>
      <trkpt lat="48.76425" lon="2.52539">
        <ele>95</ele>
        <time>2026-05-20T09:07:17.999Z</time>
      </trkpt>
      <trkpt lat="48.76433" lon="2.52534">
        <ele>95</ele>
        <time>2026-05-20T09:07:22.999Z</time>
      </trkpt>
      <trkpt lat="48.76437" lon="2.52529">
        <ele>95</ele>
        <time>2026-05-20T09:07:27.999Z</time>
      </trkpt>
      <trkpt lat="48.76441" lon="2.52526">
        <ele>95</ele>
        <time>2026-05-20T09:07:32.999Z</time>
      </trkpt>
      <trkpt lat="48.76444" lon="2.52529">
        <ele>95</ele>
        <time>2026-05-20T09:07:37.999Z</time>
      </trkpt>
      <trkpt lat="48.76449" lon="2.52537">
        <ele>95</ele>
        <time>2026-05-20T09:07:42.999Z</time>
      </trkpt>
      <trkpt lat="48.76454" lon="2.52541">
        <ele>95</ele>
        <time>2026-05-20T09:07:47.999Z</time>
      </trkpt>
      <trkpt lat="48.76461" lon="2.52537">
        <ele>95</ele>
        <time>2026-05-20T09:07:52.999Z</time>
      </trkpt>
      <trkpt lat="48.76467" lon="2.52532">
        <ele>95</ele>
        <time>2026-05-20T09:07:57.999Z</time>
      </trkpt>
      <trkpt lat="48.7647" lon="2.52528">
        <ele>95</ele>
        <time>2026-05-20T09:08:01.999Z</time>
      </trkpt>
      <trkpt lat="48.76477" lon="2.52526">
        <ele>95</ele>
        <time>2026-05-20T09:08:06.999Z</time>
      </trkpt>
      <trkpt lat="48.76483" lon="2.52528">
        <ele>95</ele>
        <time>2026-05-20T09:08:11.999Z</time>
      </trkpt>
      <trkpt lat="48.76489" lon="2.52531">
        <ele>96</ele>
        <time>2026-05-20T09:08:16.999Z</time>
      </trkpt>
      <trkpt lat="48.76492" lon="2.52537">
        <ele>96</ele>
        <time>2026-05-20T09:08:21.999Z</time>
      </trkpt>
      <trkpt lat="48.76498" lon="2.52543">
        <ele>96</ele>
        <time>2026-05-20T09:08:26.999Z</time>
      </trkpt>
      <trkpt lat="48.76503" lon="2.52549">
        <ele>96</ele>
        <time>2026-05-20T09:08:31.999Z</time>
      </trkpt>
      <trkpt lat="48.76508" lon="2.52556">
        <ele>96</ele>
        <time>2026-05-20T09:08:36.999Z</time>
      </trkpt>
      <trkpt lat="48.76512" lon="2.52562">
        <ele>96</ele>
        <time>2026-05-20T09:08:41.999Z</time>
      </trkpt>
      <trkpt lat="48.76519" lon="2.52568">
        <ele>96</ele>
        <time>2026-05-20T09:08:46.999Z</time>
      </trkpt>
      <trkpt lat="48.76523" lon="2.52573">
        <ele>96</ele>
        <time>2026-05-20T09:08:51.999Z</time>
      </trkpt>
      <trkpt lat="48.76528" lon="2.52579">
        <ele>96</ele>
        <time>2026-05-20T09:08:56.999Z</time>
      </trkpt>
      <trkpt lat="48.76533" lon="2.52583">
        <ele>96</ele>
        <time>2026-05-20T09:09:01.999Z</time>
      </trkpt>
      <trkpt lat="48.76537" lon="2.52588">
        <ele>96</ele>
        <time>2026-05-20T09:09:06.999Z</time>
      </trkpt>
      <trkpt lat="48.76542" lon="2.52593">
        <ele>96</ele>
        <time>2026-05-20T09:09:11.999Z</time>
      </trkpt>
      <trkpt lat="48.76548" lon="2.52597">
        <ele>96</ele>
        <time>2026-05-20T09:09:16.999Z</time>
      </trkpt>
      <trkpt lat="48.76554" lon="2.52601">
        <ele>96</ele>
        <time>2026-05-20T09:09:21.999Z</time>
      </trkpt>
      <trkpt lat="48.7656" lon="2.52607">
        <ele>96</ele>
        <time>2026-05-20T09:09:26.999Z</time>
      </trkpt>
      <trkpt lat="48.76565" lon="2.52613">
        <ele>96</ele>
        <time>2026-05-20T09:09:31.999Z</time>
      </trkpt>
      <trkpt lat="48.76571" lon="2.52618">
        <ele>96</ele>
        <time>2026-05-20T09:09:36.999Z</time>
      </trkpt>
      <trkpt lat="48.76576" lon="2.52622">
        <ele>96</ele>
        <time>2026-05-20T09:09:41.999Z</time>
      </trkpt>
      <trkpt lat="48.76582" lon="2.52628">
        <ele>97</ele>
        <time>2026-05-20T09:09:46.999Z</time>
      </trkpt>
      <trkpt lat="48.76587" lon="2.52634">
        <ele>97</ele>
        <time>2026-05-20T09:09:51.999Z</time>
      </trkpt>
      <trkpt lat="48.76591" lon="2.52641">
        <ele>97</ele>
        <time>2026-05-20T09:09:56.999Z</time>
      </trkpt>
      <trkpt lat="48.76597" lon="2.52646">
        <ele>97</ele>
        <time>2026-05-20T09:10:01.999Z</time>
      </trkpt>
      <trkpt lat="48.76602" lon="2.52651">
        <ele>97</ele>
        <time>2026-05-20T09:10:06.999Z</time>
      </trkpt>
      <trkpt lat="48.76606" lon="2.52656">
        <ele>98</ele>
        <time>2026-05-20T09:10:11.999Z</time>
      </trkpt>
      <trkpt lat="48.76613" lon="2.52661">
        <ele>98</ele>
        <time>2026-05-20T09:10:16.999Z</time>
      </trkpt>
      <trkpt lat="48.76617" lon="2.52668">
        <ele>98</ele>
        <time>2026-05-20T09:10:21.999Z</time>
      </trkpt>
      <trkpt lat="48.76621" lon="2.52673">
        <ele>98</ele>
        <time>2026-05-20T09:10:26.999Z</time>
      </trkpt>
      <trkpt lat="48.76627" lon="2.5268">
        <ele>98</ele>
        <time>2026-05-20T09:10:31.999Z</time>
      </trkpt>
      <trkpt lat="48.76633" lon="2.52685">
        <ele>98</ele>
        <time>2026-05-20T09:10:36.999Z</time>
      </trkpt>
      <trkpt lat="48.76637" lon="2.52689">
        <ele>98</ele>
        <time>2026-05-20T09:10:41.999Z</time>
      </trkpt>
      <trkpt lat="48.76641" lon="2.52695">
        <ele>98</ele>
        <time>2026-05-20T09:10:46.999Z</time>
      </trkpt>
      <trkpt lat="48.76638" lon="2.52703">
        <ele>98</ele>
        <time>2026-05-20T09:10:51.999Z</time>
      </trkpt>
      <trkpt lat="48.76636" lon="2.5271">
        <ele>98</ele>
        <time>2026-05-20T09:10:56.999Z</time>
      </trkpt>
      <trkpt lat="48.76633" lon="2.52715">
        <ele>98</ele>
        <time>2026-05-20T09:11:01.999Z</time>
      </trkpt>
      <trkpt lat="48.7663" lon="2.52725">
        <ele>98</ele>
        <time>2026-05-20T09:11:06.999Z</time>
      </trkpt>
      <trkpt lat="48.76627" lon="2.52733">
        <ele>98</ele>
        <time>2026-05-20T09:11:11.999Z</time>
      </trkpt>
      <trkpt lat="48.76624" lon="2.52743">
        <ele>98</ele>
        <time>2026-05-20T09:11:16.999Z</time>
      </trkpt>
      <trkpt lat="48.76622" lon="2.52746">
        <ele>98</ele>
        <time>2026-05-20T09:11:20.999Z</time>
      </trkpt>
      <trkpt lat="48.76618" lon="2.52755">
        <ele>98</ele>
        <time>2026-05-20T09:11:25.999Z</time>
      </trkpt>
      <trkpt lat="48.76615" lon="2.52764">
        <ele>98</ele>
        <time>2026-05-20T09:11:30.999Z</time>
      </trkpt>
      <trkpt lat="48.76612" lon="2.52769">
        <ele>98</ele>
        <time>2026-05-20T09:11:35.999Z</time>
      </trkpt>
      <trkpt lat="48.7661" lon="2.52779">
        <ele>98</ele>
        <time>2026-05-20T09:11:40.999Z</time>
      </trkpt>
      <trkpt lat="48.76607" lon="2.52786">
        <ele>98</ele>
        <time>2026-05-20T09:11:45.999Z</time>
      </trkpt>
      <trkpt lat="48.76605" lon="2.52794">
        <ele>99</ele>
        <time>2026-05-20T09:11:50.999Z</time>
      </trkpt>
      <trkpt lat="48.7661" lon="2.52796">
        <ele>99</ele>
        <time>2026-05-20T09:11:55.999Z</time>
      </trkpt>
      <trkpt lat="48.76613" lon="2.52798">
        <ele>99</ele>
        <time>2026-05-20T09:12:00.999Z</time>
      </trkpt>
      <trkpt lat="48.76618" lon="2.52798">
        <ele>99</ele>
        <time>2026-05-20T09:12:05.999Z</time>
      </trkpt>
      <trkpt lat="48.76624" lon="2.528">
        <ele>99</ele>
        <time>2026-05-20T09:12:10.999Z</time>
      </trkpt>
      <trkpt lat="48.7663" lon="2.52799">
        <ele>100</ele>
        <time>2026-05-20T09:12:15.999Z</time>
      </trkpt>
      <trkpt lat="48.76635" lon="2.52798">
        <ele>100</ele>
        <time>2026-05-20T09:12:20.999Z</time>
      </trkpt>
      <trkpt lat="48.7664" lon="2.52798">
        <ele>100</ele>
        <time>2026-05-20T09:12:25.999Z</time>
      </trkpt>
      <trkpt lat="48.76645" lon="2.52797">
        <ele>100</ele>
        <time>2026-05-20T09:12:29.999Z</time>
      </trkpt>
      <trkpt lat="48.76652" lon="2.52795">
        <ele>100</ele>
        <time>2026-05-20T09:12:34.999Z</time>
      </trkpt>
      <trkpt lat="48.76658" lon="2.52794">
        <ele>99</ele>
        <time>2026-05-20T09:12:39.999Z</time>
      </trkpt>
      <trkpt lat="48.76664" lon="2.52792">
        <ele>99</ele>
        <time>2026-05-20T09:12:44.999Z</time>
      </trkpt>
      <trkpt lat="48.76672" lon="2.52788">
        <ele>98</ele>
        <time>2026-05-20T09:12:49.999Z</time>
      </trkpt>
      <trkpt lat="48.76678" lon="2.52787">
        <ele>98</ele>
        <time>2026-05-20T09:12:54.999Z</time>
      </trkpt>
      <trkpt lat="48.76684" lon="2.52787">
        <ele>98</ele>
        <time>2026-05-20T09:12:59.999Z</time>
      </trkpt>
      <trkpt lat="48.7669" lon="2.52786">
        <ele>98</ele>
        <time>2026-05-20T09:13:04.999Z</time>
      </trkpt>
      <trkpt lat="48.76697" lon="2.52785">
        <ele>98</ele>
        <time>2026-05-20T09:13:09.999Z</time>
      </trkpt>
      <trkpt lat="48.76703" lon="2.52785">
        <ele>98</ele>
        <time>2026-05-20T09:13:14.999Z</time>
      </trkpt>
      <trkpt lat="48.7671" lon="2.52787">
        <ele>99</ele>
        <time>2026-05-20T09:13:19.999Z</time>
      </trkpt>
      <trkpt lat="48.76717" lon="2.52787">
        <ele>99</ele>
        <time>2026-05-20T09:13:24.999Z</time>
      </trkpt>
      <trkpt lat="48.76722" lon="2.52788">
        <ele>99</ele>
        <time>2026-05-20T09:13:29.999Z</time>
      </trkpt>
      <trkpt lat="48.76728" lon="2.52791">
        <ele>99</ele>
        <time>2026-05-20T09:13:34.999Z</time>
      </trkpt>
      <trkpt lat="48.76734" lon="2.52792">
        <ele>100</ele>
        <time>2026-05-20T09:13:39.999Z</time>
      </trkpt>
      <trkpt lat="48.7674" lon="2.52795">
        <ele>100</ele>
        <time>2026-05-20T09:13:44.999Z</time>
      </trkpt>
      <trkpt lat="48.76747" lon="2.528">
        <ele>100</ele>
        <time>2026-05-20T09:13:49.999Z</time>
      </trkpt>
      <trkpt lat="48.76753" lon="2.52804">
        <ele>100</ele>
        <time>2026-05-20T09:13:54.999Z</time>
      </trkpt>
      <trkpt lat="48.76759" lon="2.52805">
        <ele>100</ele>
        <time>2026-05-20T09:13:59.999Z</time>
      </trkpt>
      <trkpt lat="48.76765" lon="2.52808">
        <ele>99</ele>
        <time>2026-05-20T09:14:04.999Z</time>
      </trkpt>
      <trkpt lat="48.76771" lon="2.52811">
        <ele>99</ele>
        <time>2026-05-20T09:14:09.999Z</time>
      </trkpt>
      <trkpt lat="48.76777" lon="2.52814">
        <ele>99</ele>
        <time>2026-05-20T09:14:14.999Z</time>
      </trkpt>
      <trkpt lat="48.76783" lon="2.52817">
        <ele>99</ele>
        <time>2026-05-20T09:14:19.999Z</time>
      </trkpt>
      <trkpt lat="48.76789" lon="2.52821">
        <ele>99</ele>
        <time>2026-05-20T09:14:24.999Z</time>
      </trkpt>
      <trkpt lat="48.76794" lon="2.52824">
        <ele>99</ele>
        <time>2026-05-20T09:14:29.999Z</time>
      </trkpt>
      <trkpt lat="48.76801" lon="2.52829">
        <ele>99</ele>
        <time>2026-05-20T09:14:34.999Z</time>
      </trkpt>
      <trkpt lat="48.76807" lon="2.52832">
        <ele>99</ele>
        <time>2026-05-20T09:14:39.999Z</time>
      </trkpt>
      <trkpt lat="48.76813" lon="2.52835">
        <ele>99</ele>
        <time>2026-05-20T09:14:44.999Z</time>
      </trkpt>
      <trkpt lat="48.76818" lon="2.5284">
        <ele>99</ele>
        <time>2026-05-20T09:14:49.999Z</time>
      </trkpt>
      <trkpt lat="48.76829" lon="2.52845">
        <ele>99</ele>
        <time>2026-05-20T09:15:29.999Z</time>
      </trkpt>
      <trkpt lat="48.76831" lon="2.52846">
        <ele>99</ele>
        <time>2026-05-20T09:15:34.999Z</time>
      </trkpt>
      <trkpt lat="48.76834" lon="2.52856">
        <ele>99</ele>
        <time>2026-05-20T09:15:39.999Z</time>
      </trkpt>
      <trkpt lat="48.76839" lon="2.52859">
        <ele>99</ele>
        <time>2026-05-20T09:15:44.999Z</time>
      </trkpt>
      <trkpt lat="48.76846" lon="2.52858">
        <ele>99</ele>
        <time>2026-05-20T09:15:49.999Z</time>
      </trkpt>
      <trkpt lat="48.76852" lon="2.52857">
        <ele>99</ele>
        <time>2026-05-20T09:15:54.999Z</time>
      </trkpt>
      <trkpt lat="48.76858" lon="2.52859">
        <ele>99</ele>
        <time>2026-05-20T09:15:59.999Z</time>
      </trkpt>
      <trkpt lat="48.76861" lon="2.52867">
        <ele>99</ele>
        <time>2026-05-20T09:16:04.999Z</time>
      </trkpt>
      <trkpt lat="48.76866" lon="2.52867">
        <ele>99</ele>
        <time>2026-05-20T09:16:09.999Z</time>
      </trkpt>
      <trkpt lat="48.7687" lon="2.52875">
        <ele>99</ele>
        <time>2026-05-20T09:16:14.999Z</time>
      </trkpt>
      <trkpt lat="48.76872" lon="2.52882">
        <ele>100</ele>
        <time>2026-05-20T09:16:19.999Z</time>
      </trkpt>
      <trkpt lat="48.76875" lon="2.52891">
        <ele>100</ele>
        <time>2026-05-20T09:16:24.999Z</time>
      </trkpt>
      <trkpt lat="48.76877" lon="2.529">
        <ele>100</ele>
        <time>2026-05-20T09:16:29.999Z</time>
      </trkpt>
      <trkpt lat="48.76879" lon="2.52909">
        <ele>100</ele>
        <time>2026-05-20T09:16:34.999Z</time>
      </trkpt>
      <trkpt lat="48.76882" lon="2.52918">
        <ele>100</ele>
        <time>2026-05-20T09:16:39.999Z</time>
      </trkpt>
      <trkpt lat="48.76887" lon="2.52928">
        <ele>100</ele>
        <time>2026-05-20T09:16:44.999Z</time>
      </trkpt>
      <trkpt lat="48.76888" lon="2.52936">
        <ele>100</ele>
        <time>2026-05-20T09:16:49.999Z</time>
      </trkpt>
      <trkpt lat="48.76891" lon="2.52944">
        <ele>100</ele>
        <time>2026-05-20T09:16:54.999Z</time>
      </trkpt>
      <trkpt lat="48.76894" lon="2.52953">
        <ele>100</ele>
        <time>2026-05-20T09:16:59.999Z</time>
      </trkpt>
      <trkpt lat="48.76896" lon="2.52961">
        <ele>100</ele>
        <time>2026-05-20T09:17:04.999Z</time>
      </trkpt>
      <trkpt lat="48.76897" lon="2.52972">
        <ele>100</ele>
        <time>2026-05-20T09:17:09.999Z</time>
      </trkpt>
      <trkpt lat="48.769" lon="2.52981">
        <ele>100</ele>
        <time>2026-05-20T09:17:14.999Z</time>
      </trkpt>
      <trkpt lat="48.76902" lon="2.5299">
        <ele>101</ele>
        <time>2026-05-20T09:17:19.999Z</time>
      </trkpt>
      <trkpt lat="48.76904" lon="2.52998">
        <ele>101</ele>
        <time>2026-05-20T09:17:25Z</time>
      </trkpt>
      <trkpt lat="48.76907" lon="2.53007">
        <ele>101</ele>
        <time>2026-05-20T09:17:30Z</time>
      </trkpt>
      <trkpt lat="48.7691" lon="2.53014">
        <ele>101</ele>
        <time>2026-05-20T09:17:35Z</time>
      </trkpt>
      <trkpt lat="48.76912" lon="2.53022">
        <ele>101</ele>
        <time>2026-05-20T09:17:40Z</time>
      </trkpt>
      <trkpt lat="48.76911" lon="2.53024">
        <ele>101</ele>
        <time>2026-05-20T09:17:44.999Z</time>
      </trkpt>
      <trkpt lat="48.76908" lon="2.53029">
        <ele>101</ele>
        <time>2026-05-20T09:17:49.999Z</time>
      </trkpt>
      <trkpt lat="48.76904" lon="2.53034">
        <ele>101</ele>
        <time>2026-05-20T09:17:54.999Z</time>
      </trkpt>
      <trkpt lat="48.769" lon="2.53044">
        <ele>101</ele>
        <time>2026-05-20T09:17:59.999Z</time>
      </trkpt>
      <trkpt lat="48.76897" lon="2.53051">
        <ele>101</ele>
        <time>2026-05-20T09:18:04.999Z</time>
      </trkpt>
      <trkpt lat="48.76894" lon="2.53061">
        <ele>101</ele>
        <time>2026-05-20T09:18:09.999Z</time>
      </trkpt>
      <trkpt lat="48.7689" lon="2.53062">
        <ele>101</ele>
        <time>2026-05-20T09:19:09.999Z</time>
      </trkpt>
      <trkpt lat="48.76887" lon="2.5306">
        <ele>101</ele>
        <time>2026-05-20T09:19:14.999Z</time>
      </trkpt>
      <trkpt lat="48.76886" lon="2.53057">
        <ele>101</ele>
        <time>2026-05-20T09:19:19.999Z</time>
      </trkpt>
      <trkpt lat="48.76886" lon="2.53053">
        <ele>101</ele>
        <time>2026-05-20T09:19:24.999Z</time>
      </trkpt>
      <trkpt lat="48.76886" lon="2.53046">
        <ele>101</ele>
        <time>2026-05-20T09:19:30Z</time>
      </trkpt>
      <trkpt lat="48.76892" lon="2.53063">
        <ele>101</ele>
        <time>2026-05-20T09:21:24.999Z</time>
      </trkpt>
      <trkpt lat="48.7689" lon="2.53069">
        <ele>101</ele>
        <time>2026-05-20T09:21:29.999Z</time>
      </trkpt>
      <trkpt lat="48.76889" lon="2.53079">
        <ele>101</ele>
        <time>2026-05-20T09:21:35Z</time>
      </trkpt>
      <trkpt lat="48.76887" lon="2.53088">
        <ele>101</ele>
        <time>2026-05-20T09:21:40Z</time>
      </trkpt>
      <trkpt lat="48.76884" lon="2.53096">
        <ele>101</ele>
        <time>2026-05-20T09:21:45Z</time>
      </trkpt>
      <trkpt lat="48.76882" lon="2.53103">
        <ele>101</ele>
        <time>2026-05-20T09:21:50Z</time>
      </trkpt>
      <trkpt lat="48.7688" lon="2.5311">
        <ele>101</ele>
        <time>2026-05-20T09:21:54.999Z</time>
      </trkpt>
      <trkpt lat="48.76879" lon="2.53114">
        <ele>101</ele>
        <time>2026-05-20T09:21:59.999Z</time>
      </trkpt>
      <trkpt lat="48.76876" lon="2.53111">
        <ele>101</ele>
        <time>2026-05-20T09:22:04.999Z</time>
      </trkpt>
      <trkpt lat="48.76866" lon="2.5312">
        <ele>102</ele>
        <time>2026-05-20T09:22:09.999Z</time>
      </trkpt>
      <trkpt lat="48.76861" lon="2.53163">
        <ele>103</ele>
        <time>2026-05-20T09:22:14.999Z</time>
      </trkpt>
      <trkpt lat="48.76865" lon="2.5315">
        <ele>102</ele>
        <time>2026-05-20T09:22:19.999Z</time>
      </trkpt>
      <trkpt lat="48.76867" lon="2.53148">
        <ele>102</ele>
        <time>2026-05-20T09:22:24.999Z</time>
      </trkpt>
      <trkpt lat="48.7687" lon="2.53144">
        <ele>102</ele>
        <time>2026-05-20T09:22:29.999Z</time>
      </trkpt>
      <trkpt lat="48.76868" lon="2.53146">
        <ele>102</ele>
        <time>2026-05-20T09:25:14.999Z</time>
      </trkpt>
      <trkpt lat="48.76868" lon="2.53148">
        <ele>102</ele>
        <time>2026-05-20T09:25:19.999Z</time>
      </trkpt>
      <trkpt lat="48.76867" lon="2.53149">
        <ele>102</ele>
        <time>2026-05-20T09:25:24.999Z</time>
      </trkpt>
      <trkpt lat="48.76866" lon="2.53148">
        <ele>102</ele>
        <time>2026-05-20T09:25:29.999Z</time>
      </trkpt>
      <trkpt lat="48.76863" lon="2.53159">
        <ele>103</ele>
        <time>2026-05-20T09:25:34.999Z</time>
      </trkpt>
      <trkpt lat="48.76865" lon="2.53155">
        <ele>103</ele>
        <time>2026-05-20T09:25:39.999Z</time>
      </trkpt>
      <trkpt lat="48.76865" lon="2.53154">
        <ele>103</ele>
        <time>2026-05-20T09:25:44.999Z</time>
      </trkpt>
      <trkpt lat="48.76869" lon="2.53143">
        <ele>102</ele>
        <time>2026-05-20T09:26:18.999Z</time>
      </trkpt>
      <trkpt lat="48.76871" lon="2.53144">
        <ele>102</ele>
        <time>2026-05-20T09:26:23.999Z</time>
      </trkpt>
      <trkpt lat="48.76876" lon="2.53149">
        <ele>101</ele>
        <time>2026-05-20T09:27:07.999Z</time>
      </trkpt>
      <trkpt lat="48.76874" lon="2.53154">
        <ele>103</ele>
        <time>2026-05-20T09:27:12.999Z</time>
      </trkpt>
      <trkpt lat="48.76873" lon="2.53156">
        <ele>103</ele>
        <time>2026-05-20T09:27:17.999Z</time>
      </trkpt>
      <trkpt lat="48.76871" lon="2.53161">
        <ele>103</ele>
        <time>2026-05-20T09:27:22.999Z</time>
      </trkpt>
      <trkpt lat="48.76871" lon="2.53163">
        <ele>103</ele>
        <time>2026-05-20T09:27:27.999Z</time>
      </trkpt>
      <trkpt lat="48.7687" lon="2.53158">
        <ele>103</ele>
        <time>2026-05-20T09:29:07.999Z</time>
      </trkpt>
      <trkpt lat="48.76876" lon="2.5315">
        <ele>101</ele>
        <time>2026-05-20T09:29:12.999Z</time>
      </trkpt>
      <trkpt lat="48.76875" lon="2.53149">
        <ele>102</ele>
        <time>2026-05-20T09:29:17.999Z</time>
      </trkpt>
      <trkpt lat="48.76876" lon="2.53149">
        <ele>101</ele>
        <time>2026-05-20T09:29:22.999Z</time>
      </trkpt>
      <trkpt lat="48.76876" lon="2.53149">
        <ele>101</ele>
        <time>2026-05-20T09:29:27.999Z</time>
      </trkpt>
      <trkpt lat="48.76864" lon="2.53153">
        <ele>103</ele>
        <time>2026-05-20T09:31:49.999Z</time>
      </trkpt>
      <trkpt lat="48.76863" lon="2.53165">
        <ele>103</ele>
        <time>2026-05-20T09:31:54.999Z</time>
      </trkpt>
      <trkpt lat="48.76862" lon="2.53169">
        <ele>103</ele>
        <time>2026-05-20T09:31:59.999Z</time>
      </trkpt>
      <trkpt lat="48.76859" lon="2.53169">
        <ele>103</ele>
        <time>2026-05-20T09:32:04.999Z</time>
      </trkpt>
      <trkpt lat="48.76859" lon="2.53173">
        <ele>103</ele>
        <time>2026-05-20T09:32:09.999Z</time>
      </trkpt>
      <trkpt lat="48.76866" lon="2.53171">
        <ele>103</ele>
        <time>2026-05-20T09:32:24.999Z</time>
      </trkpt>
      <trkpt lat="48.76864" lon="2.53165">
        <ele>103</ele>
        <time>2026-05-20T09:32:29.999Z</time>
      </trkpt>
      <trkpt lat="48.76864" lon="2.5316">
        <ele>103</ele>
        <time>2026-05-20T09:32:34.999Z</time>
      </trkpt>
      <trkpt lat="48.76864" lon="2.53158">
        <ele>103</ele>
        <time>2026-05-20T09:32:39.999Z</time>
      </trkpt>
      <trkpt lat="48.76864" lon="2.53156">
        <ele>103</ele>
        <time>2026-05-20T09:32:44.999Z</time>
      </trkpt>
      <trkpt lat="48.76865" lon="2.53157">
        <ele>103</ele>
        <time>2026-05-20T09:33:24.999Z</time>
      </trkpt>
      <trkpt lat="48.76866" lon="2.53148">
        <ele>102</ele>
        <time>2026-05-20T09:33:29.999Z</time>
      </trkpt>
      <trkpt lat="48.76867" lon="2.53142">
        <ele>102</ele>
        <time>2026-05-20T09:33:34.999Z</time>
      </trkpt>
      <trkpt lat="48.76875" lon="2.53125">
        <ele>101</ele>
        <time>2026-05-20T09:33:39.999Z</time>
      </trkpt>
      <trkpt lat="48.76874" lon="2.53108">
        <ele>102</ele>
        <time>2026-05-20T09:33:44.999Z</time>
      </trkpt>
      <trkpt lat="48.76888" lon="2.53085">
        <ele>101</ele>
        <time>2026-05-20T09:35:53.999Z</time>
      </trkpt>
      <trkpt lat="48.76887" lon="2.53084">
        <ele>101</ele>
        <time>2026-05-20T09:35:58.999Z</time>
      </trkpt>
      <trkpt lat="48.76891" lon="2.53078">
        <ele>101</ele>
        <time>2026-05-20T09:36:03.999Z</time>
      </trkpt>
      <trkpt lat="48.76895" lon="2.53068">
        <ele>101</ele>
        <time>2026-05-20T09:36:08.999Z</time>
      </trkpt>
      <trkpt lat="48.76895" lon="2.53066">
        <ele>101</ele>
        <time>2026-05-20T09:36:13.999Z</time>
      </trkpt>
      <trkpt lat="48.76898" lon="2.53056">
        <ele>101</ele>
        <time>2026-05-20T09:36:18.999Z</time>
      </trkpt>
      <trkpt lat="48.76901" lon="2.53046">
        <ele>101</ele>
        <time>2026-05-20T09:36:23.999Z</time>
      </trkpt>
      <trkpt lat="48.76903" lon="2.53037">
        <ele>101</ele>
        <time>2026-05-20T09:36:28.999Z</time>
      </trkpt>
      <trkpt lat="48.76905" lon="2.53027">
        <ele>101</ele>
        <time>2026-05-20T09:36:33.999Z</time>
      </trkpt>
      <trkpt lat="48.76909" lon="2.5302">
        <ele>101</ele>
        <time>2026-05-20T09:36:38.999Z</time>
      </trkpt>
      <trkpt lat="48.76911" lon="2.53011">
        <ele>101</ele>
        <time>2026-05-20T09:36:43.999Z</time>
      </trkpt>
      <trkpt lat="48.7691" lon="2.53003">
        <ele>101</ele>
        <time>2026-05-20T09:36:48.999Z</time>
      </trkpt>
      <trkpt lat="48.76907" lon="2.52995">
        <ele>101</ele>
        <time>2026-05-20T09:36:53.999Z</time>
      </trkpt>
      <trkpt lat="48.76904" lon="2.52987">
        <ele>101</ele>
        <time>2026-05-20T09:36:58.999Z</time>
      </trkpt>
      <trkpt lat="48.76902" lon="2.52977">
        <ele>100</ele>
        <time>2026-05-20T09:37:03.999Z</time>
      </trkpt>
      <trkpt lat="48.76899" lon="2.52968">
        <ele>100</ele>
        <time>2026-05-20T09:37:08.999Z</time>
      </trkpt>
      <trkpt lat="48.76897" lon="2.52958">
        <ele>100</ele>
        <time>2026-05-20T09:37:13.999Z</time>
      </trkpt>
      <trkpt lat="48.76894" lon="2.5295">
        <ele>100</ele>
        <time>2026-05-20T09:37:18.999Z</time>
      </trkpt>
      <trkpt lat="48.76892" lon="2.52943">
        <ele>100</ele>
        <time>2026-05-20T09:37:22.999Z</time>
      </trkpt>
      <trkpt lat="48.76889" lon="2.52936">
        <ele>100</ele>
        <time>2026-05-20T09:37:27.999Z</time>
      </trkpt>
      <trkpt lat="48.76887" lon="2.52928">
        <ele>100</ele>
        <time>2026-05-20T09:37:32.999Z</time>
      </trkpt>
      <trkpt lat="48.76885" lon="2.52921">
        <ele>100</ele>
        <time>2026-05-20T09:37:38Z</time>
      </trkpt>
      <trkpt lat="48.76882" lon="2.52912">
        <ele>100</ele>
        <time>2026-05-20T09:37:43Z</time>
      </trkpt>
      <trkpt lat="48.7688" lon="2.52903">
        <ele>100</ele>
        <time>2026-05-20T09:37:48Z</time>
      </trkpt>
      <trkpt lat="48.76877" lon="2.52894">
        <ele>100</ele>
        <time>2026-05-20T09:37:53Z</time>
      </trkpt>
      <trkpt lat="48.76874" lon="2.52886">
        <ele>100</ele>
        <time>2026-05-20T09:37:58Z</time>
      </trkpt>
      <trkpt lat="48.76871" lon="2.52878">
        <ele>100</ele>
        <time>2026-05-20T09:38:03Z</time>
      </trkpt>
      <trkpt lat="48.7687" lon="2.5287">
        <ele>99</ele>
        <time>2026-05-20T09:38:08Z</time>
      </trkpt>
      <trkpt lat="48.76872" lon="2.52865">
        <ele>99</ele>
        <time>2026-05-20T09:38:12.999Z</time>
      </trkpt>
      <trkpt lat="48.76877" lon="2.52863">
        <ele>100</ele>
        <time>2026-05-20T09:38:17.999Z</time>
      </trkpt>
      <trkpt lat="48.7688" lon="2.52855">
        <ele>100</ele>
        <time>2026-05-20T09:38:22.999Z</time>
      </trkpt>
      <trkpt lat="48.76885" lon="2.52847">
        <ele>101</ele>
        <time>2026-05-20T09:38:27.999Z</time>
      </trkpt>
      <trkpt lat="48.76888" lon="2.52841">
        <ele>101</ele>
        <time>2026-05-20T09:38:32.999Z</time>
      </trkpt>
      <trkpt lat="48.76893" lon="2.52833">
        <ele>101</ele>
        <time>2026-05-20T09:38:37.999Z</time>
      </trkpt>
      <trkpt lat="48.76897" lon="2.52825">
        <ele>101</ele>
        <time>2026-05-20T09:38:42.999Z</time>
      </trkpt>
      <trkpt lat="48.769" lon="2.52818">
        <ele>100</ele>
        <time>2026-05-20T09:38:47.999Z</time>
      </trkpt>
      <trkpt lat="48.76903" lon="2.52811">
        <ele>102</ele>
        <time>2026-05-20T09:38:52.999Z</time>
      </trkpt>
      <trkpt lat="48.76905" lon="2.52807">
        <ele>102</ele>
        <time>2026-05-20T09:38:56.999Z</time>
      </trkpt>
      <trkpt lat="48.76909" lon="2.52799">
        <ele>102</ele>
        <time>2026-05-20T09:39:01.999Z</time>
      </trkpt>
      <trkpt lat="48.76913" lon="2.52791">
        <ele>101</ele>
        <time>2026-05-20T09:39:06.999Z</time>
      </trkpt>
      <trkpt lat="48.76917" lon="2.5278">
        <ele>101</ele>
        <time>2026-05-20T09:39:11.999Z</time>
      </trkpt>
      <trkpt lat="48.76921" lon="2.52769">
        <ele>101</ele>
        <time>2026-05-20T09:39:16.999Z</time>
      </trkpt>
      <trkpt lat="48.76925" lon="2.52762">
        <ele>101</ele>
        <time>2026-05-20T09:39:21.999Z</time>
      </trkpt>
      <trkpt lat="48.76929" lon="2.52751">
        <ele>101</ele>
        <time>2026-05-20T09:39:26.999Z</time>
      </trkpt>
      <trkpt lat="48.7693" lon="2.52747">
        <ele>101</ele>
        <time>2026-05-20T09:39:31.999Z</time>
      </trkpt>
      <trkpt lat="48.76937" lon="2.52737">
        <ele>101</ele>
        <time>2026-05-20T09:39:36.999Z</time>
      </trkpt>
      <trkpt lat="48.76943" lon="2.52732">
        <ele>100</ele>
        <time>2026-05-20T09:39:41.999Z</time>
      </trkpt>
      <trkpt lat="48.76947" lon="2.52725">
        <ele>100</ele>
        <time>2026-05-20T09:39:46.999Z</time>
      </trkpt>
      <trkpt lat="48.76952" lon="2.52717">
        <ele>100</ele>
        <time>2026-05-20T09:39:51.999Z</time>
      </trkpt>
      <trkpt lat="48.76955" lon="2.52711">
        <ele>100</ele>
        <time>2026-05-20T09:39:56.999Z</time>
      </trkpt>
      <trkpt lat="48.76956" lon="2.52702">
        <ele>100</ele>
        <time>2026-05-20T09:40:01.999Z</time>
      </trkpt>
      <trkpt lat="48.76959" lon="2.52696">
        <ele>100</ele>
        <time>2026-05-20T09:40:06.999Z</time>
      </trkpt>
      <trkpt lat="48.76961" lon="2.52688">
        <ele>100</ele>
        <time>2026-05-20T09:40:11.999Z</time>
      </trkpt>
      <trkpt lat="48.76966" lon="2.52682">
        <ele>100</ele>
        <time>2026-05-20T09:40:16.999Z</time>
      </trkpt>
      <trkpt lat="48.76971" lon="2.52676">
        <ele>100</ele>
        <time>2026-05-20T09:40:21.999Z</time>
      </trkpt>
      <trkpt lat="48.76975" lon="2.5267">
        <ele>100</ele>
        <time>2026-05-20T09:40:26.999Z</time>
      </trkpt>
      <trkpt lat="48.76979" lon="2.52661">
        <ele>100</ele>
        <time>2026-05-20T09:40:31.999Z</time>
      </trkpt>
      <trkpt lat="48.76983" lon="2.52655">
        <ele>100</ele>
        <time>2026-05-20T09:40:36.999Z</time>
      </trkpt>
      <trkpt lat="48.76984" lon="2.52649">
        <ele>100</ele>
        <time>2026-05-20T09:40:41.999Z</time>
      </trkpt>
      <trkpt lat="48.76988" lon="2.5264">
        <ele>100</ele>
        <time>2026-05-20T09:40:46.999Z</time>
      </trkpt>
      <trkpt lat="48.76991" lon="2.52631">
        <ele>100</ele>
        <time>2026-05-20T09:40:51.999Z</time>
      </trkpt>
      <trkpt lat="48.76994" lon="2.52622">
        <ele>100</ele>
        <time>2026-05-20T09:40:56.999Z</time>
      </trkpt>
      <trkpt lat="48.76996" lon="2.52614">
        <ele>100</ele>
        <time>2026-05-20T09:41:01.999Z</time>
      </trkpt>
      <trkpt lat="48.76998" lon="2.52606">
        <ele>100</ele>
        <time>2026-05-20T09:41:06.999Z</time>
      </trkpt>
      <trkpt lat="48.77003" lon="2.52599">
        <ele>100</ele>
        <time>2026-05-20T09:41:11.999Z</time>
      </trkpt>
      <trkpt lat="48.77006" lon="2.52592">
        <ele>98</ele>
        <time>2026-05-20T09:41:16.999Z</time>
      </trkpt>
      <trkpt lat="48.77009" lon="2.52585">
        <ele>98</ele>
        <time>2026-05-20T09:41:21.999Z</time>
      </trkpt>
      <trkpt lat="48.77011" lon="2.52577">
        <ele>98</ele>
        <time>2026-05-20T09:41:26.999Z</time>
      </trkpt>
      <trkpt lat="48.77013" lon="2.52567">
        <ele>98</ele>
        <time>2026-05-20T09:41:31.999Z</time>
      </trkpt>
      <trkpt lat="48.77014" lon="2.52558">
        <ele>98</ele>
        <time>2026-05-20T09:41:36.999Z</time>
      </trkpt>
      <trkpt lat="48.77018" lon="2.5255">
        <ele>98</ele>
        <time>2026-05-20T09:41:41.999Z</time>
      </trkpt>
      <trkpt lat="48.77019" lon="2.52543">
        <ele>98</ele>
        <time>2026-05-20T09:41:46.999Z</time>
      </trkpt>
      <trkpt lat="48.77021" lon="2.52535">
        <ele>98</ele>
        <time>2026-05-20T09:41:52Z</time>
      </trkpt>
      <trkpt lat="48.77027" lon="2.52526">
        <ele>98</ele>
        <time>2026-05-20T09:41:57Z</time>
      </trkpt>
      <trkpt lat="48.77029" lon="2.5252">
        <ele>98</ele>
        <time>2026-05-20T09:42:02Z</time>
      </trkpt>
      <trkpt lat="48.7703" lon="2.5251">
        <ele>98</ele>
        <time>2026-05-20T09:42:07Z</time>
      </trkpt>
      <trkpt lat="48.77029" lon="2.525">
        <ele>98</ele>
        <time>2026-05-20T09:42:12Z</time>
      </trkpt>
      <trkpt lat="48.77029" lon="2.52492">
        <ele>98</ele>
        <time>2026-05-20T09:42:17Z</time>
      </trkpt>
      <trkpt lat="48.77031" lon="2.52483">
        <ele>98</ele>
        <time>2026-05-20T09:42:22Z</time>
      </trkpt>
      <trkpt lat="48.77031" lon="2.52476">
        <ele>98</ele>
        <time>2026-05-20T09:42:27Z</time>
      </trkpt>
      <trkpt lat="48.77033" lon="2.52467">
        <ele>98</ele>
        <time>2026-05-20T09:42:31.999Z</time>
      </trkpt>
      <trkpt lat="48.77033" lon="2.52459">
        <ele>98</ele>
        <time>2026-05-20T09:42:36.999Z</time>
      </trkpt>
      <trkpt lat="48.77032" lon="2.5245">
        <ele>97</ele>
        <time>2026-05-20T09:42:41.999Z</time>
      </trkpt>
      <trkpt lat="48.77034" lon="2.52442">
        <ele>97</ele>
        <time>2026-05-20T09:42:46.999Z</time>
      </trkpt>
      <trkpt lat="48.77034" lon="2.52435">
        <ele>97</ele>
        <time>2026-05-20T09:42:51.999Z</time>
      </trkpt>
      <trkpt lat="48.77036" lon="2.52428">
        <ele>97</ele>
        <time>2026-05-20T09:42:56.999Z</time>
      </trkpt>
      <trkpt lat="48.77035" lon="2.52422">
        <ele>97</ele>
        <time>2026-05-20T09:43:00.999Z</time>
      </trkpt>
      <trkpt lat="48.77032" lon="2.52419">
        <ele>97</ele>
        <time>2026-05-20T09:43:05.999Z</time>
      </trkpt>
      <trkpt lat="48.77029" lon="2.52415">
        <ele>97</ele>
        <time>2026-05-20T09:43:10.999Z</time>
      </trkpt>
      <trkpt lat="48.7703" lon="2.52408">
        <ele>97</ele>
        <time>2026-05-20T09:43:15.999Z</time>
      </trkpt>
      <trkpt lat="48.77031" lon="2.52401">
        <ele>97</ele>
        <time>2026-05-20T09:43:20.999Z</time>
      </trkpt>
      <trkpt lat="48.77033" lon="2.52392">
        <ele>97</ele>
        <time>2026-05-20T09:43:25.999Z</time>
      </trkpt>
      <trkpt lat="48.77034" lon="2.52383">
        <ele>97</ele>
        <time>2026-05-20T09:43:30.999Z</time>
      </trkpt>
      <trkpt lat="48.77037" lon="2.52378">
        <ele>97</ele>
        <time>2026-05-20T09:43:35.999Z</time>
      </trkpt>
      <trkpt lat="48.77043" lon="2.5237">
        <ele>97</ele>
        <time>2026-05-20T09:43:40.999Z</time>
      </trkpt>
      <trkpt lat="48.77047" lon="2.52364">
        <ele>97</ele>
        <time>2026-05-20T09:43:45.999Z</time>
      </trkpt>
      <trkpt lat="48.77048" lon="2.52357">
        <ele>97</ele>
        <time>2026-05-20T09:43:50.999Z</time>
      </trkpt>
      <trkpt lat="48.7705" lon="2.52345">
        <ele>97</ele>
        <time>2026-05-20T09:43:56Z</time>
      </trkpt>
      <trkpt lat="48.7705" lon="2.52336">
        <ele>97</ele>
        <time>2026-05-20T09:44:01Z</time>
      </trkpt>
      <trkpt lat="48.77048" lon="2.52327">
        <ele>97</ele>
        <time>2026-05-20T09:44:06Z</time>
      </trkpt>
      <trkpt lat="48.77049" lon="2.52321">
        <ele>97</ele>
        <time>2026-05-20T09:44:11Z</time>
      </trkpt>
      <trkpt lat="48.77051" lon="2.52312">
        <ele>96</ele>
        <time>2026-05-20T09:44:16Z</time>
      </trkpt>
      <trkpt lat="48.77053" lon="2.52303">
        <ele>96</ele>
        <time>2026-05-20T09:44:21Z</time>
      </trkpt>
      <trkpt lat="48.77056" lon="2.52295">
        <ele>96</ele>
        <time>2026-05-20T09:44:25.999Z</time>
      </trkpt>
      <trkpt lat="48.77057" lon="2.52287">
        <ele>95</ele>
        <time>2026-05-20T09:44:30.999Z</time>
      </trkpt>
      <trkpt lat="48.77063" lon="2.52282">
        <ele>95</ele>
        <time>2026-05-20T09:44:35.999Z</time>
      </trkpt>
      <trkpt lat="48.77068" lon="2.52277">
        <ele>95</ele>
        <time>2026-05-20T09:44:40.999Z</time>
      </trkpt>
      <trkpt lat="48.77072" lon="2.52272">
        <ele>96</ele>
        <time>2026-05-20T09:44:45.999Z</time>
      </trkpt>
      <trkpt lat="48.77076" lon="2.52267">
        <ele>96</ele>
        <time>2026-05-20T09:44:50.999Z</time>
      </trkpt>
      <trkpt lat="48.77082" lon="2.52254">
        <ele>96</ele>
        <time>2026-05-20T09:45:10.999Z</time>
      </trkpt>
      <trkpt lat="48.77085" lon="2.52249">
        <ele>96</ele>
        <time>2026-05-20T09:45:15.999Z</time>
      </trkpt>
      <trkpt lat="48.77091" lon="2.52245">
        <ele>96</ele>
        <time>2026-05-20T09:45:20.999Z</time>
      </trkpt>
      <trkpt lat="48.77097" lon="2.52243">
        <ele>95</ele>
        <time>2026-05-20T09:45:25.999Z</time>
      </trkpt>
      <trkpt lat="48.77103" lon="2.5224">
        <ele>95</ele>
        <time>2026-05-20T09:45:30.999Z</time>
      </trkpt>
      <trkpt lat="48.77113" lon="2.5223">
        <ele>95</ele>
        <time>2026-05-20T09:46:01Z</time>
      </trkpt>
      <trkpt lat="48.77114" lon="2.52229">
        <ele>95</ele>
        <time>2026-05-20T09:46:06Z</time>
      </trkpt>
      <trkpt lat="48.77113" lon="2.52223">
        <ele>95</ele>
        <time>2026-05-20T09:46:11Z</time>
      </trkpt>
      <trkpt lat="48.77113" lon="2.52217">
        <ele>95</ele>
        <time>2026-05-20T09:46:16Z</time>
      </trkpt>
      <trkpt lat="48.77112" lon="2.52211">
        <ele>95</ele>
        <time>2026-05-20T09:46:21Z</time>
      </trkpt>
      <trkpt lat="48.77112" lon="2.52204">
        <ele>94</ele>
        <time>2026-05-20T09:46:26Z</time>
      </trkpt>
      <trkpt lat="48.77113" lon="2.52201">
        <ele>94</ele>
        <time>2026-05-20T09:46:31Z</time>
      </trkpt>
      <trkpt lat="48.77113" lon="2.52209">
        <ele>95</ele>
        <time>2026-05-20T09:46:36Z</time>
      </trkpt>
      <trkpt lat="48.77114" lon="2.52219">
        <ele>95</ele>
        <time>2026-05-20T09:46:40.999Z</time>
      </trkpt>
      <trkpt lat="48.77115" lon="2.52227">
        <ele>95</ele>
        <time>2026-05-20T09:47:10.999Z</time>
      </trkpt>
      <trkpt lat="48.77114" lon="2.52221">
        <ele>95</ele>
        <time>2026-05-20T09:47:15.999Z</time>
      </trkpt>
      <trkpt lat="48.77113" lon="2.52215">
        <ele>95</ele>
        <time>2026-05-20T09:47:20.999Z</time>
      </trkpt>
      <trkpt lat="48.77113" lon="2.52209">
        <ele>95</ele>
        <time>2026-05-20T09:47:25.999Z</time>
      </trkpt>
      <trkpt lat="48.77112" lon="2.52202">
        <ele>94</ele>
        <time>2026-05-20T09:47:30.999Z</time>
      </trkpt>
      <trkpt lat="48.77114" lon="2.52197">
        <ele>94</ele>
        <time>2026-05-20T09:47:50.999Z</time>
      </trkpt>
      <trkpt lat="48.77115" lon="2.52198">
        <ele>94</ele>
        <time>2026-05-20T09:47:55.999Z</time>
      </trkpt>
      <trkpt lat="48.77115" lon="2.52196">
        <ele>94</ele>
        <time>2026-05-20T09:48:00.999Z</time>
      </trkpt>
      <trkpt lat="48.77114" lon="2.5219">
        <ele>94</ele>
        <time>2026-05-20T09:48:05.999Z</time>
      </trkpt>
      <trkpt lat="48.77113" lon="2.52183">
        <ele>94</ele>
        <time>2026-05-20T09:48:10.999Z</time>
      </trkpt>
      <trkpt lat="48.77112" lon="2.52177">
        <ele>93</ele>
        <time>2026-05-20T09:48:15.999Z</time>
      </trkpt>
      <trkpt lat="48.77111" lon="2.52173">
        <ele>93</ele>
        <time>2026-05-20T09:48:20.999Z</time>
      </trkpt>
      <trkpt lat="48.7711" lon="2.52166">
        <ele>93</ele>
        <time>2026-05-20T09:48:25.999Z</time>
      </trkpt>
      <trkpt lat="48.7711" lon="2.52158">
        <ele>93</ele>
        <time>2026-05-20T09:48:30.999Z</time>
      </trkpt>
      <trkpt lat="48.7711" lon="2.52151">
        <ele>93</ele>
        <time>2026-05-20T09:48:35.999Z</time>
      </trkpt>
      <trkpt lat="48.77108" lon="2.52146">
        <ele>93</ele>
        <time>2026-05-20T09:48:40.999Z</time>
      </trkpt>
      <trkpt lat="48.77106" lon="2.52138">
        <ele>93</ele>
        <time>2026-05-20T09:48:45.999Z</time>
      </trkpt>
      <trkpt lat="48.77102" lon="2.52132">
        <ele>93</ele>
        <time>2026-05-20T09:48:50.999Z</time>
      </trkpt>
      <trkpt lat="48.77097" lon="2.5212">
        <ele>92</ele>
        <time>2026-05-20T09:49:19.999Z</time>
      </trkpt>
      <trkpt lat="48.77097" lon="2.52119">
        <ele>92</ele>
        <time>2026-05-20T09:49:24.999Z</time>
      </trkpt>
      <trkpt lat="48.77098" lon="2.52118">
        <ele>92</ele>
        <time>2026-05-20T09:49:29.999Z</time>
      </trkpt>
      <trkpt lat="48.77094" lon="2.52113">
        <ele>92</ele>
        <time>2026-05-20T09:49:34.999Z</time>
      </trkpt>
      <trkpt lat="48.77092" lon="2.52108">
        <ele>92</ele>
        <time>2026-05-20T09:49:39.999Z</time>
      </trkpt>
      <trkpt lat="48.7709" lon="2.52104">
        <ele>92</ele>
        <time>2026-05-20T09:49:44.999Z</time>
      </trkpt>
      <trkpt lat="48.77086" lon="2.52101">
        <ele>92</ele>
        <time>2026-05-20T09:49:49.999Z</time>
      </trkpt>
      <trkpt lat="48.77083" lon="2.52097">
        <ele>92</ele>
        <time>2026-05-20T09:49:54.999Z</time>
      </trkpt>
      <trkpt lat="48.77077" lon="2.52097">
        <ele>92</ele>
        <time>2026-05-20T09:49:59.999Z</time>
      </trkpt>
      <trkpt lat="48.77075" lon="2.52095">
        <ele>92</ele>
        <time>2026-05-20T09:50:04.999Z</time>
      </trkpt>
      <trkpt lat="48.77073" lon="2.52089">
        <ele>92</ele>
        <time>2026-05-20T09:50:09.999Z</time>
      </trkpt>
      <trkpt lat="48.77069" lon="2.52084">
        <ele>93</ele>
        <time>2026-05-20T09:50:14.999Z</time>
      </trkpt>
      <trkpt lat="48.77066" lon="2.52083">
        <ele>93</ele>
        <time>2026-05-20T09:50:19.999Z</time>
      </trkpt>
      <trkpt lat="48.77066" lon="2.52077">
        <ele>93</ele>
        <time>2026-05-20T09:50:24.999Z</time>
      </trkpt>
      <trkpt lat="48.77065" lon="2.52071">
        <ele>93</ele>
        <time>2026-05-20T09:50:28.999Z</time>
      </trkpt>
      <trkpt lat="48.77064" lon="2.52063">
        <ele>93</ele>
        <time>2026-05-20T09:50:33.999Z</time>
      </trkpt>
      <trkpt lat="48.77067" lon="2.52051">
        <ele>93</ele>
        <time>2026-05-20T09:50:38.999Z</time>
      </trkpt>
      <trkpt lat="48.77064" lon="2.52045">
        <ele>93</ele>
        <time>2026-05-20T09:50:43.999Z</time>
      </trkpt>
      <trkpt lat="48.77062" lon="2.52036">
        <ele>92</ele>
        <time>2026-05-20T09:50:48.999Z</time>
      </trkpt>
      <trkpt lat="48.77062" lon="2.52027">
        <ele>92</ele>
        <time>2026-05-20T09:50:53.999Z</time>
      </trkpt>
      <trkpt lat="48.77062" lon="2.5202">
        <ele>92</ele>
        <time>2026-05-20T09:50:58.999Z</time>
      </trkpt>
      <trkpt lat="48.77061" lon="2.52017">
        <ele>92</ele>
        <time>2026-05-20T09:51:03.999Z</time>
      </trkpt>
      <trkpt lat="48.77061" lon="2.52018">
        <ele>92</ele>
        <time>2026-05-20T09:51:08.999Z</time>
      </trkpt>
      <trkpt lat="48.7706" lon="2.52013">
        <ele>91</ele>
        <time>2026-05-20T09:51:13.999Z</time>
      </trkpt>
      <trkpt lat="48.77054" lon="2.52006">
        <ele>91</ele>
        <time>2026-05-20T09:51:18.999Z</time>
      </trkpt>
      <trkpt lat="48.77054" lon="2.51997">
        <ele>91</ele>
        <time>2026-05-20T09:51:23.999Z</time>
      </trkpt>
      <trkpt lat="48.77053" lon="2.5199">
        <ele>91</ele>
        <time>2026-05-20T09:51:28.999Z</time>
      </trkpt>
      <trkpt lat="48.77052" lon="2.51982">
        <ele>90</ele>
        <time>2026-05-20T09:51:33.999Z</time>
      </trkpt>
      <trkpt lat="48.77053" lon="2.51975">
        <ele>90</ele>
        <time>2026-05-20T09:51:38.999Z</time>
      </trkpt>
      <trkpt lat="48.77053" lon="2.51974">
        <ele>90</ele>
        <time>2026-05-20T09:51:48.999Z</time>
      </trkpt>
      <trkpt lat="48.77052" lon="2.51971">
        <ele>90</ele>
        <time>2026-05-20T09:51:53.999Z</time>
      </trkpt>
      <trkpt lat="48.77049" lon="2.51971">
        <ele>90</ele>
        <time>2026-05-20T09:51:58.999Z</time>
      </trkpt>
      <trkpt lat="48.77046" lon="2.5197">
        <ele>90</ele>
        <time>2026-05-20T09:52:03.999Z</time>
      </trkpt>
      <trkpt lat="48.77043" lon="2.51965">
        <ele>90</ele>
        <time>2026-05-20T09:52:08.999Z</time>
      </trkpt>
      <trkpt lat="48.77039" lon="2.51959">
        <ele>89</ele>
        <time>2026-05-20T09:52:13.999Z</time>
      </trkpt>
      <trkpt lat="48.77037" lon="2.51953">
        <ele>88</ele>
        <time>2026-05-20T09:52:18.999Z</time>
      </trkpt>
      <trkpt lat="48.77037" lon="2.51946">
        <ele>88</ele>
        <time>2026-05-20T09:52:24Z</time>
      </trkpt>
      <trkpt lat="48.77039" lon="2.51936">
        <ele>88</ele>
        <time>2026-05-20T09:52:29Z</time>
      </trkpt>
      <trkpt lat="48.77041" lon="2.51927">
        <ele>86</ele>
        <time>2026-05-20T09:52:33.999Z</time>
      </trkpt>
      <trkpt lat="48.7704" lon="2.51916">
        <ele>86</ele>
        <time>2026-05-20T09:52:38.999Z</time>
      </trkpt>
      <trkpt lat="48.77037" lon="2.51908">
        <ele>86</ele>
        <time>2026-05-20T09:52:43.999Z</time>
      </trkpt>
      <trkpt lat="48.77034" lon="2.519">
        <ele>85</ele>
        <time>2026-05-20T09:52:48.999Z</time>
      </trkpt>
      <trkpt lat="48.77029" lon="2.51895">
        <ele>85</ele>
        <time>2026-05-20T09:53:08.999Z</time>
      </trkpt>
      <trkpt lat="48.77032" lon="2.51892">
        <ele>85</ele>
        <time>2026-05-20T09:53:13.999Z</time>
      </trkpt>
      <trkpt lat="48.77037" lon="2.51887">
        <ele>85</ele>
        <time>2026-05-20T09:53:18.999Z</time>
      </trkpt>
      <trkpt lat="48.77043" lon="2.51884">
        <ele>86</ele>
        <time>2026-05-20T09:53:23.999Z</time>
      </trkpt>
      <trkpt lat="48.7705" lon="2.51882">
        <ele>86</ele>
        <time>2026-05-20T09:53:28.999Z</time>
      </trkpt>
      <trkpt lat="48.77056" lon="2.51881">
        <ele>86</ele>
        <time>2026-05-20T09:53:33.999Z</time>
      </trkpt>
      <trkpt lat="48.77063" lon="2.51879">
        <ele>86</ele>
        <time>2026-05-20T09:53:38.999Z</time>
      </trkpt>
      <trkpt lat="48.77068" lon="2.51876">
        <ele>86</ele>
        <time>2026-05-20T09:53:43.999Z</time>
      </trkpt>
      <trkpt lat="48.77074" lon="2.51872">
        <ele>86</ele>
        <time>2026-05-20T09:53:48.999Z</time>
      </trkpt>
      <trkpt lat="48.77078" lon="2.51865">
        <ele>86</ele>
        <time>2026-05-20T09:53:53.999Z</time>
      </trkpt>
      <trkpt lat="48.77078" lon="2.51857">
        <ele>86</ele>
        <time>2026-05-20T09:53:58.999Z</time>
      </trkpt>
      <trkpt lat="48.77077" lon="2.5185">
        <ele>86</ele>
        <time>2026-05-20T09:54:03.999Z</time>
      </trkpt>
      <trkpt lat="48.77077" lon="2.51841">
        <ele>84</ele>
        <time>2026-05-20T09:54:08.999Z</time>
      </trkpt>
      <trkpt lat="48.77075" lon="2.5183">
        <ele>84</ele>
        <time>2026-05-20T09:54:13.999Z</time>
      </trkpt>
      <trkpt lat="48.77073" lon="2.51821">
        <ele>84</ele>
        <time>2026-05-20T09:54:18.999Z</time>
      </trkpt>
      <trkpt lat="48.77073" lon="2.51812">
        <ele>82</ele>
        <time>2026-05-20T09:54:24Z</time>
      </trkpt>
      <trkpt lat="48.77072" lon="2.51805">
        <ele>82</ele>
        <time>2026-05-20T09:54:29Z</time>
      </trkpt>
      <trkpt lat="48.77072" lon="2.51802">
        <ele>82</ele>
        <time>2026-05-20T09:54:33Z</time>
      </trkpt>
      <trkpt lat="48.77072" lon="2.51795">
        <ele>82</ele>
        <time>2026-05-20T09:54:38Z</time>
      </trkpt>
      <trkpt lat="48.77075" lon="2.51791">
        <ele>81</ele>
        <time>2026-05-20T09:54:43Z</time>
      </trkpt>
      <trkpt lat="48.77081" lon="2.51786">
        <ele>81</ele>
        <time>2026-05-20T09:54:48Z</time>
      </trkpt>
      <trkpt lat="48.77086" lon="2.51784">
        <ele>81</ele>
        <time>2026-05-20T09:54:53Z</time>
      </trkpt>
      <trkpt lat="48.77091" lon="2.51785">
        <ele>81</ele>
        <time>2026-05-20T09:54:58Z</time>
      </trkpt>
      <trkpt lat="48.77097" lon="2.51785">
        <ele>81</ele>
        <time>2026-05-20T09:55:02.999Z</time>
      </trkpt>
      <trkpt lat="48.77103" lon="2.51785">
        <ele>80</ele>
        <time>2026-05-20T09:55:07.999Z</time>
      </trkpt>
      <trkpt lat="48.77109" lon="2.51784">
        <ele>80</ele>
        <time>2026-05-20T09:55:12.999Z</time>
      </trkpt>
      <trkpt lat="48.77115" lon="2.51782">
        <ele>80</ele>
        <time>2026-05-20T09:55:17.999Z</time>
      </trkpt>
      <trkpt lat="48.77114" lon="2.51773">
        <ele>80</ele>
        <time>2026-05-20T09:55:22.999Z</time>
      </trkpt>
      <trkpt lat="48.77111" lon="2.51764">
        <ele>77</ele>
        <time>2026-05-20T09:55:27.999Z</time>
      </trkpt>
      <trkpt lat="48.7711" lon="2.51755">
        <ele>77</ele>
        <time>2026-05-20T09:55:32.999Z</time>
      </trkpt>
      <trkpt lat="48.77108" lon="2.51745">
        <ele>77</ele>
        <time>2026-05-20T09:55:37.999Z</time>
      </trkpt>
      <trkpt lat="48.77106" lon="2.51738">
        <ele>77</ele>
        <time>2026-05-20T09:55:42.999Z</time>
      </trkpt>
      <trkpt lat="48.77107" lon="2.51729">
        <ele>75</ele>
        <time>2026-05-20T09:55:47.999Z</time>
      </trkpt>
      <trkpt lat="48.77109" lon="2.51724">
        <ele>75</ele>
        <time>2026-05-20T09:55:52.999Z</time>
      </trkpt>
      <trkpt lat="48.77112" lon="2.51718">
        <ele>75</ele>
        <time>2026-05-20T09:55:57.999Z</time>
      </trkpt>
      <trkpt lat="48.77117" lon="2.51712">
        <ele>75</ele>
        <time>2026-05-20T09:56:02.999Z</time>
      </trkpt>
      <trkpt lat="48.77122" lon="2.51705">
        <ele>74</ele>
        <time>2026-05-20T09:56:07.999Z</time>
      </trkpt>
      <trkpt lat="48.77125" lon="2.51699">
        <ele>76</ele>
        <time>2026-05-20T09:56:12.999Z</time>
      </trkpt>
      <trkpt lat="48.7713" lon="2.51693">
        <ele>76</ele>
        <time>2026-05-20T09:56:17.999Z</time>
      </trkpt>
      <trkpt lat="48.77134" lon="2.51687">
        <ele>76</ele>
        <time>2026-05-20T09:56:22.999Z</time>
      </trkpt>
      <trkpt lat="48.77138" lon="2.51682">
        <ele>76</ele>
        <time>2026-05-20T09:56:27.999Z</time>
      </trkpt>
      <trkpt lat="48.77139" lon="2.51682">
        <ele>76</ele>
        <time>2026-05-20T09:56:33Z</time>
      </trkpt>
      <trkpt lat="48.77143" lon="2.51686">
        <ele>76</ele>
        <time>2026-05-20T09:56:38Z</time>
      </trkpt>
      <trkpt lat="48.7715" lon="2.51691">
        <ele>76</ele>
        <time>2026-05-20T09:56:43Z</time>
      </trkpt>
      <trkpt lat="48.77154" lon="2.51686">
        <ele>78</ele>
        <time>2026-05-20T09:56:48Z</time>
      </trkpt>
      <trkpt lat="48.77158" lon="2.51682">
        <ele>78</ele>
        <time>2026-05-20T09:56:53Z</time>
      </trkpt>
      <trkpt lat="48.77162" lon="2.5168">
        <ele>74</ele>
        <time>2026-05-20T09:56:58Z</time>
      </trkpt>
      <trkpt lat="48.77168" lon="2.51675">
        <ele>74</ele>
        <time>2026-05-20T09:57:03Z</time>
      </trkpt>
      <trkpt lat="48.77172" lon="2.51668">
        <ele>74</ele>
        <time>2026-05-20T09:57:08Z</time>
      </trkpt>
      <trkpt lat="48.77172" lon="2.5166">
        <ele>74</ele>
        <time>2026-05-20T09:57:13Z</time>
      </trkpt>
      <trkpt lat="48.77174" lon="2.51651">
        <ele>70</ele>
        <time>2026-05-20T09:57:17.999Z</time>
      </trkpt>
      <trkpt lat="48.77176" lon="2.51641">
        <ele>70</ele>
        <time>2026-05-20T09:57:22.999Z</time>
      </trkpt>
      <trkpt lat="48.77177" lon="2.51632">
        <ele>70</ele>
        <time>2026-05-20T09:57:27.999Z</time>
      </trkpt>
      <trkpt lat="48.77179" lon="2.51625">
        <ele>67</ele>
        <time>2026-05-20T09:57:32.999Z</time>
      </trkpt>
      <trkpt lat="48.77183" lon="2.51618">
        <ele>67</ele>
        <time>2026-05-20T09:57:37.999Z</time>
      </trkpt>
      <trkpt lat="48.77187" lon="2.51613">
        <ele>67</ele>
        <time>2026-05-20T09:57:41.999Z</time>
      </trkpt>
      <trkpt lat="48.7719" lon="2.5161">
        <ele>67</ele>
        <time>2026-05-20T09:57:46.999Z</time>
      </trkpt>
      <trkpt lat="48.77194" lon="2.51601">
        <ele>67</ele>
        <time>2026-05-20T09:57:51.999Z</time>
      </trkpt>
      <trkpt lat="48.77195" lon="2.51591">
        <ele>65</ele>
        <time>2026-05-20T09:57:56.999Z</time>
      </trkpt>
      <trkpt lat="48.77196" lon="2.51583">
        <ele>65</ele>
        <time>2026-05-20T09:58:01.999Z</time>
      </trkpt>
      <trkpt lat="48.77195" lon="2.51574">
        <ele>65</ele>
        <time>2026-05-20T09:58:06.999Z</time>
      </trkpt>
      <trkpt lat="48.77195" lon="2.51568">
        <ele>64</ele>
        <time>2026-05-20T09:58:11.999Z</time>
      </trkpt>
      <trkpt lat="48.77198" lon="2.51563">
        <ele>64</ele>
        <time>2026-05-20T09:58:16.999Z</time>
      </trkpt>
      <trkpt lat="48.77199" lon="2.51557">
        <ele>64</ele>
        <time>2026-05-20T09:58:21.999Z</time>
      </trkpt>
      <trkpt lat="48.772" lon="2.51552">
        <ele>64</ele>
        <time>2026-05-20T09:58:26.999Z</time>
      </trkpt>
      <trkpt lat="48.77199" lon="2.51546">
        <ele>64</ele>
        <time>2026-05-20T09:58:31.999Z</time>
      </trkpt>
      <trkpt lat="48.77195" lon="2.51541">
        <ele>62</ele>
        <time>2026-05-20T09:58:37Z</time>
      </trkpt>
      <trkpt lat="48.77191" lon="2.51538">
        <ele>62</ele>
        <time>2026-05-20T09:58:42Z</time>
      </trkpt>
      <trkpt lat="48.77185" lon="2.51538">
        <ele>62</ele>
        <time>2026-05-20T09:58:47Z</time>
      </trkpt>
      <trkpt lat="48.77179" lon="2.51539">
        <ele>63</ele>
        <time>2026-05-20T09:58:52Z</time>
      </trkpt>
      <trkpt lat="48.77174" lon="2.51538">
        <ele>63</ele>
        <time>2026-05-20T09:58:57Z</time>
      </trkpt>
      <trkpt lat="48.77169" lon="2.51539">
        <ele>63</ele>
        <time>2026-05-20T09:59:02Z</time>
      </trkpt>
      <trkpt lat="48.77164" lon="2.51537">
        <ele>63</ele>
        <time>2026-05-20T09:59:07Z</time>
      </trkpt>
      <trkpt lat="48.77158" lon="2.51537">
        <ele>63</ele>
        <time>2026-05-20T09:59:11.999Z</time>
      </trkpt>
      <trkpt lat="48.77152" lon="2.51535">
        <ele>63</ele>
        <time>2026-05-20T09:59:16.999Z</time>
      </trkpt>
      <trkpt lat="48.77147" lon="2.51534">
        <ele>63</ele>
        <time>2026-05-20T09:59:21.999Z</time>
      </trkpt>
      <trkpt lat="48.77141" lon="2.51533">
        <ele>63</ele>
        <time>2026-05-20T09:59:26.999Z</time>
      </trkpt>
      <trkpt lat="48.77136" lon="2.51534">
        <ele>63</ele>
        <time>2026-05-20T09:59:31.999Z</time>
      </trkpt>
      <trkpt lat="48.77131" lon="2.51532">
        <ele>63</ele>
        <time>2026-05-20T09:59:36.999Z</time>
      </trkpt>
      <trkpt lat="48.77126" lon="2.51533">
        <ele>63</ele>
        <time>2026-05-20T09:59:41.999Z</time>
      </trkpt>
      <trkpt lat="48.77121" lon="2.51531">
        <ele>65</ele>
        <time>2026-05-20T09:59:45.999Z</time>
      </trkpt>
      <trkpt lat="48.77115" lon="2.5153">
        <ele>65</ele>
        <time>2026-05-20T09:59:50.999Z</time>
      </trkpt>
      <trkpt lat="48.7711" lon="2.5153">
        <ele>65</ele>
        <time>2026-05-20T09:59:55.999Z</time>
      </trkpt>
      <trkpt lat="48.77103" lon="2.51528">
        <ele>65</ele>
        <time>2026-05-20T10:00:00.999Z</time>
      </trkpt>
      <trkpt lat="48.77097" lon="2.51525">
        <ele>65</ele>
        <time>2026-05-20T10:00:05.999Z</time>
      </trkpt>
      <trkpt lat="48.77096" lon="2.51518">
        <ele>66</ele>
        <time>2026-05-20T10:00:09.999Z</time>
      </trkpt>
      <trkpt lat="48.77095" lon="2.51509">
        <ele>63</ele>
        <time>2026-05-20T10:00:14.999Z</time>
      </trkpt>
      <trkpt lat="48.77098" lon="2.51502">
        <ele>62</ele>
        <time>2026-05-20T10:00:19.999Z</time>
      </trkpt>
      <trkpt lat="48.77098" lon="2.51495">
        <ele>62</ele>
        <time>2026-05-20T10:00:24.999Z</time>
      </trkpt>
      <trkpt lat="48.77099" lon="2.51488">
        <ele>62</ele>
        <time>2026-05-20T10:00:29.999Z</time>
      </trkpt>
      <trkpt lat="48.771" lon="2.5148">
        <ele>59</ele>
        <time>2026-05-20T10:00:34.999Z</time>
      </trkpt>
      <trkpt lat="48.771" lon="2.51472">
        <ele>59</ele>
        <time>2026-05-20T10:00:39.999Z</time>
      </trkpt>
      <trkpt lat="48.77101" lon="2.51464">
        <ele>59</ele>
        <time>2026-05-20T10:00:44.999Z</time>
      </trkpt>
      <trkpt lat="48.77102" lon="2.51461">
        <ele>59</ele>
        <time>2026-05-20T10:00:49.999Z</time>
      </trkpt>
      <trkpt lat="48.77104" lon="2.51452">
        <ele>58</ele>
        <time>2026-05-20T10:00:54.999Z</time>
      </trkpt>
      <trkpt lat="48.77106" lon="2.51445">
        <ele>58</ele>
        <time>2026-05-20T10:00:59.999Z</time>
      </trkpt>
      <trkpt lat="48.77107" lon="2.51435">
        <ele>58</ele>
        <time>2026-05-20T10:01:04.999Z</time>
      </trkpt>
      <trkpt lat="48.77108" lon="2.51426">
        <ele>57</ele>
        <time>2026-05-20T10:01:09.999Z</time>
      </trkpt>
      <trkpt lat="48.77109" lon="2.5142">
        <ele>57</ele>
        <time>2026-05-20T10:01:14.999Z</time>
      </trkpt>
      <trkpt lat="48.77109" lon="2.51414">
        <ele>57</ele>
        <time>2026-05-20T10:01:18.999Z</time>
      </trkpt>
      <trkpt lat="48.77111" lon="2.51407">
        <ele>57</ele>
        <time>2026-05-20T10:01:23.999Z</time>
      </trkpt>
      <trkpt lat="48.77111" lon="2.51397">
        <ele>56</ele>
        <time>2026-05-20T10:01:28.999Z</time>
      </trkpt>
      <trkpt lat="48.77111" lon="2.51387">
        <ele>56</ele>
        <time>2026-05-20T10:01:33.999Z</time>
      </trkpt>
      <trkpt lat="48.77112" lon="2.51379">
        <ele>56</ele>
        <time>2026-05-20T10:01:38.999Z</time>
      </trkpt>
      <trkpt lat="48.77114" lon="2.5137">
        <ele>55</ele>
        <time>2026-05-20T10:01:43.999Z</time>
      </trkpt>
      <trkpt lat="48.77115" lon="2.51361">
        <ele>55</ele>
        <time>2026-05-20T10:01:48.999Z</time>
      </trkpt>
      <trkpt lat="48.77115" lon="2.51361">
        <ele>55</ele>
        <time>2026-05-20T10:01:53.999Z</time>
      </trkpt>
      <trkpt lat="48.77114" lon="2.5136">
        <ele>55</ele>
        <time>2026-05-20T10:01:58.999Z</time>
      </trkpt>
      <trkpt lat="48.77116" lon="2.5135">
        <ele>55</ele>
        <time>2026-05-20T10:02:03.999Z</time>
      </trkpt>
      <trkpt lat="48.77118" lon="2.51344">
        <ele>54</ele>
        <time>2026-05-20T10:02:08.999Z</time>
      </trkpt>
      <trkpt lat="48.77124" lon="2.51345">
        <ele>54</ele>
        <time>2026-05-20T10:02:13.999Z</time>
      </trkpt>
      <trkpt lat="48.7713" lon="2.5135">
        <ele>55</ele>
        <time>2026-05-20T10:02:18.999Z</time>
      </trkpt>
      <trkpt lat="48.77136" lon="2.51352">
        <ele>55</ele>
        <time>2026-05-20T10:02:23.999Z</time>
      </trkpt>
      <trkpt lat="48.77141" lon="2.51355">
        <ele>55</ele>
        <time>2026-05-20T10:02:28.999Z</time>
      </trkpt>
      <trkpt lat="48.77146" lon="2.51357">
        <ele>55</ele>
        <time>2026-05-20T10:02:33.999Z</time>
      </trkpt>
      <trkpt lat="48.77151" lon="2.51363">
        <ele>55</ele>
        <time>2026-05-20T10:02:38.999Z</time>
      </trkpt>
      <trkpt lat="48.77157" lon="2.51367">
        <ele>56</ele>
        <time>2026-05-20T10:02:43.999Z</time>
      </trkpt>
      <trkpt lat="48.77164" lon="2.51371">
        <ele>56</ele>
        <time>2026-05-20T10:02:48.999Z</time>
      </trkpt>
      <trkpt lat="48.77169" lon="2.51374">
        <ele>56</ele>
        <time>2026-05-20T10:02:53.999Z</time>
      </trkpt>
      <trkpt lat="48.77173" lon="2.51376">
        <ele>57</ele>
        <time>2026-05-20T10:02:58.999Z</time>
      </trkpt>
      <trkpt lat="48.77178" lon="2.51375">
        <ele>56</ele>
        <time>2026-05-20T10:03:03.999Z</time>
      </trkpt>
      <trkpt lat="48.77182" lon="2.51381">
        <ele>56</ele>
        <time>2026-05-20T10:03:08.999Z</time>
      </trkpt>
      <trkpt lat="48.77187" lon="2.51383">
        <ele>56</ele>
        <time>2026-05-20T10:03:13.999Z</time>
      </trkpt>
      <trkpt lat="48.77193" lon="2.51387">
        <ele>56</ele>
        <time>2026-05-20T10:03:18.999Z</time>
      </trkpt>
      <trkpt lat="48.772" lon="2.51389">
        <ele>56</ele>
        <time>2026-05-20T10:03:23.999Z</time>
      </trkpt>
      <trkpt lat="48.77205" lon="2.51388">
        <ele>56</ele>
        <time>2026-05-20T10:03:28.999Z</time>
      </trkpt>
      <trkpt lat="48.77212" lon="2.51389">
        <ele>55</ele>
        <time>2026-05-20T10:03:33.999Z</time>
      </trkpt>
      <trkpt lat="48.77218" lon="2.51389">
        <ele>55</ele>
        <time>2026-05-20T10:03:38.999Z</time>
      </trkpt>
      <trkpt lat="48.77223" lon="2.51388">
        <ele>55</ele>
        <time>2026-05-20T10:03:43.999Z</time>
      </trkpt>
      <trkpt lat="48.7723" lon="2.51388">
        <ele>55</ele>
        <time>2026-05-20T10:03:48.999Z</time>
      </trkpt>
      <trkpt lat="48.77236" lon="2.51386">
        <ele>55</ele>
        <time>2026-05-20T10:03:53.999Z</time>
      </trkpt>
      <trkpt lat="48.77242" lon="2.51386">
        <ele>55</ele>
        <time>2026-05-20T10:03:58.999Z</time>
      </trkpt>
      <trkpt lat="48.77248" lon="2.51385">
        <ele>55</ele>
        <time>2026-05-20T10:04:03.999Z</time>
      </trkpt>
      <trkpt lat="48.77252" lon="2.51384">
        <ele>55</ele>
        <time>2026-05-20T10:04:08.999Z</time>
      </trkpt>
      <trkpt lat="48.77259" lon="2.51384">
        <ele>55</ele>
        <time>2026-05-20T10:04:13.999Z</time>
      </trkpt>
      <trkpt lat="48.77264" lon="2.51384">
        <ele>56</ele>
        <time>2026-05-20T10:04:18.999Z</time>
      </trkpt>
      <trkpt lat="48.77271" lon="2.51383">
        <ele>56</ele>
        <time>2026-05-20T10:04:23.999Z</time>
      </trkpt>
      <trkpt lat="48.77276" lon="2.51388">
        <ele>56</ele>
        <time>2026-05-20T10:04:28.999Z</time>
      </trkpt>
      <trkpt lat="48.77277" lon="2.51396">
        <ele>56</ele>
        <time>2026-05-20T10:04:33.999Z</time>
      </trkpt>
      <trkpt lat="48.77276" lon="2.51407">
        <ele>56</ele>
        <time>2026-05-20T10:04:38.999Z</time>
      </trkpt>
      <trkpt lat="48.77276" lon="2.51416">
        <ele>56</ele>
        <time>2026-05-20T10:04:43.999Z</time>
      </trkpt>
      <trkpt lat="48.7728" lon="2.5142">
        <ele>56</ele>
        <time>2026-05-20T10:04:47.999Z</time>
      </trkpt>
      <trkpt lat="48.77283" lon="2.5142">
        <ele>56</ele>
        <time>2026-05-20T10:04:57.999Z</time>
      </trkpt>
      <trkpt lat="48.77282" lon="2.51418">
        <ele>56</ele>
        <time>2026-05-20T10:05:02.999Z</time>
      </trkpt>
      <trkpt lat="48.77286" lon="2.51415">
        <ele>56</ele>
        <time>2026-05-20T10:05:07.999Z</time>
      </trkpt>
      <trkpt lat="48.77288" lon="2.51414">
        <ele>56</ele>
        <time>2026-05-20T10:05:12.999Z</time>
      </trkpt>
      <trkpt lat="48.77296" lon="2.51411">
        <ele>57</ele>
        <time>2026-05-20T10:05:17.999Z</time>
      </trkpt>
      <trkpt lat="48.77304" lon="2.51407">
        <ele>57</ele>
        <time>2026-05-20T10:05:22.999Z</time>
      </trkpt>
      <trkpt lat="48.7731" lon="2.51404">
        <ele>57</ele>
        <time>2026-05-20T10:05:27.999Z</time>
      </trkpt>
      <trkpt lat="48.77316" lon="2.514">
        <ele>56</ele>
        <time>2026-05-20T10:05:32.999Z</time>
      </trkpt>
      <trkpt lat="48.77321" lon="2.51397">
        <ele>56</ele>
        <time>2026-05-20T10:05:37.999Z</time>
      </trkpt>
      <trkpt lat="48.77329" lon="2.51397">
        <ele>56</ele>
        <time>2026-05-20T10:05:42.999Z</time>
      </trkpt>
      <trkpt lat="48.77335" lon="2.514">
        <ele>56</ele>
        <time>2026-05-20T10:05:47.999Z</time>
      </trkpt>
      <trkpt lat="48.77341" lon="2.51403">
        <ele>57</ele>
        <time>2026-05-20T10:05:52.999Z</time>
      </trkpt>
      <trkpt lat="48.77347" lon="2.51399">
        <ele>56</ele>
        <time>2026-05-20T10:05:57.999Z</time>
      </trkpt>
      <trkpt lat="48.77351" lon="2.51394">
        <ele>54</ele>
        <time>2026-05-20T10:06:02.999Z</time>
      </trkpt>
      <trkpt lat="48.77354" lon="2.51392">
        <ele>54</ele>
        <time>2026-05-20T10:06:07.999Z</time>
      </trkpt>
      <trkpt lat="48.77361" lon="2.51395">
        <ele>54</ele>
        <time>2026-05-20T10:06:12.999Z</time>
      </trkpt>
      <trkpt lat="48.77368" lon="2.51397">
        <ele>54</ele>
        <time>2026-05-20T10:06:17.999Z</time>
      </trkpt>
      <trkpt lat="48.77373" lon="2.51403">
        <ele>55</ele>
        <time>2026-05-20T10:06:22.999Z</time>
      </trkpt>
      <trkpt lat="48.77379" lon="2.51408">
        <ele>53</ele>
        <time>2026-05-20T10:06:27.999Z</time>
      </trkpt>
      <trkpt lat="48.77384" lon="2.51412">
        <ele>53</ele>
        <time>2026-05-20T10:06:32.999Z</time>
      </trkpt>
      <trkpt lat="48.77389" lon="2.51416">
        <ele>53</ele>
        <time>2026-05-20T10:06:37.999Z</time>
      </trkpt>
      <trkpt lat="48.77395" lon="2.51423">
        <ele>53</ele>
        <time>2026-05-20T10:06:42.999Z</time>
      </trkpt>
      <trkpt lat="48.77399" lon="2.5143">
        <ele>53</ele>
        <time>2026-05-20T10:06:47.999Z</time>
      </trkpt>
      <trkpt lat="48.774" lon="2.51435">
        <ele>54</ele>
        <time>2026-05-20T10:06:52.999Z</time>
      </trkpt>
      <trkpt lat="48.77397" lon="2.51444">
        <ele>54</ele>
        <time>2026-05-20T10:06:57.999Z</time>
      </trkpt>
      <trkpt lat="48.77394" lon="2.51449">
        <ele>54</ele>
        <time>2026-05-20T10:07:02.999Z</time>
      </trkpt>
      <trkpt lat="48.77399" lon="2.51456">
        <ele>54</ele>
        <time>2026-05-20T10:07:07.999Z</time>
      </trkpt>
      <trkpt lat="48.77404" lon="2.51463">
        <ele>54</ele>
        <time>2026-05-20T10:07:12.999Z</time>
      </trkpt>
      <trkpt lat="48.77409" lon="2.51467">
        <ele>54</ele>
        <time>2026-05-20T10:07:17.999Z</time>
      </trkpt>
      <trkpt lat="48.77413" lon="2.51475">
        <ele>54</ele>
        <time>2026-05-20T10:07:22.999Z</time>
      </trkpt>
      <trkpt lat="48.77419" lon="2.51479">
        <ele>54</ele>
        <time>2026-05-20T10:07:27.999Z</time>
      </trkpt>
      <trkpt lat="48.77423" lon="2.51485">
        <ele>54</ele>
        <time>2026-05-20T10:07:32.999Z</time>
      </trkpt>
      <trkpt lat="48.77428" lon="2.51492">
        <ele>56</ele>
        <time>2026-05-20T10:07:37.999Z</time>
      </trkpt>
      <trkpt lat="48.77432" lon="2.51501">
        <ele>54</ele>
        <time>2026-05-20T10:07:42.999Z</time>
      </trkpt>
      <trkpt lat="48.77437" lon="2.51506">
        <ele>54</ele>
        <time>2026-05-20T10:07:47.999Z</time>
      </trkpt>
      <trkpt lat="48.77441" lon="2.51511">
        <ele>54</ele>
        <time>2026-05-20T10:07:52.999Z</time>
      </trkpt>
      <trkpt lat="48.77445" lon="2.51518">
        <ele>55</ele>
        <time>2026-05-20T10:07:57.999Z</time>
      </trkpt>
      <trkpt lat="48.77449" lon="2.51524">
        <ele>55</ele>
        <time>2026-05-20T10:08:02.999Z</time>
      </trkpt>
      <trkpt lat="48.77447" lon="2.5153">
        <ele>55</ele>
        <time>2026-05-20T10:08:07.999Z</time>
      </trkpt>
      <trkpt lat="48.77443" lon="2.51534">
        <ele>55</ele>
        <time>2026-05-20T10:08:12.999Z</time>
      </trkpt>
      <trkpt lat="48.77438" lon="2.51539">
        <ele>55</ele>
        <time>2026-05-20T10:08:17.999Z</time>
      </trkpt>
      <trkpt lat="48.77433" lon="2.51544">
        <ele>56</ele>
        <time>2026-05-20T10:08:22.999Z</time>
      </trkpt>
      <trkpt lat="48.7743" lon="2.51546">
        <ele>57</ele>
        <time>2026-05-20T10:08:27.999Z</time>
      </trkpt>
      <trkpt lat="48.77425" lon="2.51552">
        <ele>57</ele>
        <time>2026-05-20T10:08:32.999Z</time>
      </trkpt>
      <trkpt lat="48.77422" lon="2.51558">
        <ele>57</ele>
        <time>2026-05-20T10:08:37.999Z</time>
      </trkpt>
      <trkpt lat="48.77426" lon="2.51567">
        <ele>57</ele>
        <time>2026-05-20T10:08:42.999Z</time>
      </trkpt>
      <trkpt lat="48.77431" lon="2.51572">
        <ele>57</ele>
        <time>2026-05-20T10:08:47.999Z</time>
      </trkpt>
      <trkpt lat="48.77435" lon="2.51579">
        <ele>57</ele>
        <time>2026-05-20T10:08:52.999Z</time>
      </trkpt>
      <trkpt lat="48.77439" lon="2.51585">
        <ele>57</ele>
        <time>2026-05-20T10:08:57.999Z</time>
      </trkpt>
      <trkpt lat="48.77442" lon="2.51589">
        <ele>57</ele>
        <time>2026-05-20T10:09:02.999Z</time>
      </trkpt>
      <trkpt lat="48.77446" lon="2.51596">
        <ele>57</ele>
        <time>2026-05-20T10:09:07.999Z</time>
      </trkpt>
      <trkpt lat="48.7745" lon="2.51602">
        <ele>57</ele>
        <time>2026-05-20T10:09:12.999Z</time>
      </trkpt>
      <trkpt lat="48.77454" lon="2.51607">
        <ele>57</ele>
        <time>2026-05-20T10:09:17.999Z</time>
      </trkpt>
      <trkpt lat="48.77456" lon="2.51614">
        <ele>57</ele>
        <time>2026-05-20T10:09:37.999Z</time>
      </trkpt>
      <trkpt lat="48.77457" lon="2.51615">
        <ele>57</ele>
        <time>2026-05-20T10:09:42.999Z</time>
      </trkpt>
      <trkpt lat="48.77456" lon="2.51617">
        <ele>57</ele>
        <time>2026-05-20T10:09:47.999Z</time>
      </trkpt>
      <trkpt lat="48.77452" lon="2.51624">
        <ele>57</ele>
        <time>2026-05-20T10:09:52.999Z</time>
      </trkpt>
      <trkpt lat="48.77447" lon="2.51629">
        <ele>58</ele>
        <time>2026-05-20T10:09:57.999Z</time>
      </trkpt>
      <trkpt lat="48.77444" lon="2.51638">
        <ele>58</ele>
        <time>2026-05-20T10:10:02.999Z</time>
      </trkpt>
      <trkpt lat="48.77439" lon="2.51642">
        <ele>58</ele>
        <time>2026-05-20T10:10:07.999Z</time>
      </trkpt>
      <trkpt lat="48.77435" lon="2.51647">
        <ele>58</ele>
        <time>2026-05-20T10:10:12.999Z</time>
      </trkpt>
      <trkpt lat="48.77431" lon="2.51653">
        <ele>58</ele>
        <time>2026-05-20T10:10:17.999Z</time>
      </trkpt>
      <trkpt lat="48.77427" lon="2.51657">
        <ele>61</ele>
        <time>2026-05-20T10:10:22.999Z</time>
      </trkpt>
      <trkpt lat="48.77424" lon="2.51661">
        <ele>61</ele>
        <time>2026-05-20T10:10:27.999Z</time>
      </trkpt>
      <trkpt lat="48.77421" lon="2.51666">
        <ele>61</ele>
        <time>2026-05-20T10:10:32.999Z</time>
      </trkpt>
      <trkpt lat="48.77417" lon="2.51676">
        <ele>61</ele>
        <time>2026-05-20T10:10:36.999Z</time>
      </trkpt>
      <trkpt lat="48.77412" lon="2.51688">
        <ele>61</ele>
        <time>2026-05-20T10:11:11.999Z</time>
      </trkpt>
      <trkpt lat="48.77413" lon="2.51689">
        <ele>61</ele>
        <time>2026-05-20T10:11:16.999Z</time>
      </trkpt>
      <trkpt lat="48.77413" lon="2.51696">
        <ele>61</ele>
        <time>2026-05-20T10:11:21.999Z</time>
      </trkpt>
      <trkpt lat="48.77409" lon="2.51699">
        <ele>61</ele>
        <time>2026-05-20T10:11:26.999Z</time>
      </trkpt>
      <trkpt lat="48.77411" lon="2.51706">
        <ele>61</ele>
        <time>2026-05-20T10:11:31.999Z</time>
      </trkpt>
      <trkpt lat="48.77416" lon="2.5171">
        <ele>61</ele>
        <time>2026-05-20T10:11:36.999Z</time>
      </trkpt>
      <trkpt lat="48.7742" lon="2.51714">
        <ele>61</ele>
        <time>2026-05-20T10:11:41.999Z</time>
      </trkpt>
      <trkpt lat="48.77425" lon="2.51715">
        <ele>61</ele>
        <time>2026-05-20T10:11:46.999Z</time>
      </trkpt>
      <trkpt lat="48.77431" lon="2.51717">
        <ele>58</ele>
        <time>2026-05-20T10:11:51.999Z</time>
      </trkpt>
      <trkpt lat="48.77437" lon="2.51719">
        <ele>58</ele>
        <time>2026-05-20T10:11:56.999Z</time>
      </trkpt>
      <trkpt lat="48.77443" lon="2.51721">
        <ele>58</ele>
        <time>2026-05-20T10:12:01.999Z</time>
      </trkpt>
      <trkpt lat="48.77449" lon="2.51723">
        <ele>58</ele>
        <time>2026-05-20T10:12:06.999Z</time>
      </trkpt>
      <trkpt lat="48.77455" lon="2.51724">
        <ele>58</ele>
        <time>2026-05-20T10:12:11.999Z</time>
      </trkpt>
      <trkpt lat="48.77462" lon="2.51742">
        <ele>52</ele>
        <time>2026-05-20T10:12:31.999Z</time>
      </trkpt>
      <trkpt lat="48.77465" lon="2.51743">
        <ele>52</ele>
        <time>2026-05-20T10:12:36.999Z</time>
      </trkpt>
      <trkpt lat="48.77468" lon="2.51743">
        <ele>52</ele>
        <time>2026-05-20T10:12:41.999Z</time>
      </trkpt>
      <trkpt lat="48.77472" lon="2.51744">
        <ele>52</ele>
        <time>2026-05-20T10:12:46.999Z</time>
      </trkpt>
      <trkpt lat="48.77477" lon="2.51746">
        <ele>52</ele>
        <time>2026-05-20T10:12:51.999Z</time>
      </trkpt>
      <trkpt lat="48.77481" lon="2.5175">
        <ele>52</ele>
        <time>2026-05-20T10:12:56.999Z</time>
      </trkpt>
      <trkpt lat="48.77487" lon="2.51753">
        <ele>49</ele>
        <time>2026-05-20T10:13:01.999Z</time>
      </trkpt>
      <trkpt lat="48.77492" lon="2.51755">
        <ele>49</ele>
        <time>2026-05-20T10:13:06.999Z</time>
      </trkpt>
      <trkpt lat="48.77498" lon="2.51759">
        <ele>49</ele>
        <time>2026-05-20T10:13:11.999Z</time>
      </trkpt>
      <trkpt lat="48.77503" lon="2.51763">
        <ele>49</ele>
        <time>2026-05-20T10:13:16.999Z</time>
      </trkpt>
      <trkpt lat="48.77508" lon="2.51766">
        <ele>48</ele>
        <time>2026-05-20T10:13:21.999Z</time>
      </trkpt>
      <trkpt lat="48.77514" lon="2.51769">
        <ele>48</ele>
        <time>2026-05-20T10:13:26.999Z</time>
      </trkpt>
      <trkpt lat="48.77518" lon="2.51771">
        <ele>46</ele>
        <time>2026-05-20T10:13:30.999Z</time>
      </trkpt>
      <trkpt lat="48.77521" lon="2.51777">
        <ele>46</ele>
        <time>2026-05-20T10:13:35.999Z</time>
      </trkpt>
      <trkpt lat="48.77525" lon="2.5178">
        <ele>46</ele>
        <time>2026-05-20T10:13:40.999Z</time>
      </trkpt>
      <trkpt lat="48.77531" lon="2.51784">
        <ele>46</ele>
        <time>2026-05-20T10:13:45.999Z</time>
      </trkpt>
      <trkpt lat="48.77536" lon="2.51784">
        <ele>46</ele>
        <time>2026-05-20T10:13:50.999Z</time>
      </trkpt>
      <trkpt lat="48.7754" lon="2.51776">
        <ele>46</ele>
        <time>2026-05-20T10:13:55.999Z</time>
      </trkpt>
      <trkpt lat="48.77543" lon="2.5177">
        <ele>44</ele>
        <time>2026-05-20T10:14:00.999Z</time>
      </trkpt>
      <trkpt lat="48.77547" lon="2.51762">
        <ele>44</ele>
        <time>2026-05-20T10:14:05.999Z</time>
      </trkpt>
      <trkpt lat="48.77551" lon="2.51756">
        <ele>44</ele>
        <time>2026-05-20T10:14:10.999Z</time>
      </trkpt>
      <trkpt lat="48.77554" lon="2.5175">
        <ele>44</ele>
        <time>2026-05-20T10:14:15.999Z</time>
      </trkpt>
      <trkpt lat="48.7756" lon="2.51757">
        <ele>44</ele>
        <time>2026-05-20T10:14:20.999Z</time>
      </trkpt>
      <trkpt lat="48.77564" lon="2.51761">
        <ele>44</ele>
        <time>2026-05-20T10:14:25.999Z</time>
      </trkpt>
      <trkpt lat="48.77569" lon="2.51764">
        <ele>44</ele>
        <time>2026-05-20T10:14:30.999Z</time>
      </trkpt>
      <trkpt lat="48.77573" lon="2.51769">
        <ele>43</ele>
        <time>2026-05-20T10:14:35.999Z</time>
      </trkpt>
      <trkpt lat="48.77577" lon="2.51773">
        <ele>43</ele>
        <time>2026-05-20T10:14:40.999Z</time>
      </trkpt>
      <trkpt lat="48.7758" lon="2.51777">
        <ele>43</ele>
        <time>2026-05-20T10:14:45.999Z</time>
      </trkpt>
      <trkpt lat="48.77585" lon="2.51782">
        <ele>43</ele>
        <time>2026-05-20T10:14:50.999Z</time>
      </trkpt>
      <trkpt lat="48.77589" lon="2.51786">
        <ele>43</ele>
        <time>2026-05-20T10:14:55.999Z</time>
      </trkpt>
      <trkpt lat="48.77593" lon="2.51791">
        <ele>43</ele>
        <time>2026-05-20T10:15:00.999Z</time>
      </trkpt>
      <trkpt lat="48.77598" lon="2.51796">
        <ele>42</ele>
        <time>2026-05-20T10:15:05.999Z</time>
      </trkpt>
      <trkpt lat="48.77603" lon="2.51801">
        <ele>42</ele>
        <time>2026-05-20T10:15:10.999Z</time>
      </trkpt>
      <trkpt lat="48.77608" lon="2.51806">
        <ele>42</ele>
        <time>2026-05-20T10:15:15.999Z</time>
      </trkpt>
      <trkpt lat="48.77613" lon="2.5181">
        <ele>42</ele>
        <time>2026-05-20T10:15:20.999Z</time>
      </trkpt>
      <trkpt lat="48.77618" lon="2.51813">
        <ele>42</ele>
        <time>2026-05-20T10:15:25.999Z</time>
      </trkpt>
      <trkpt lat="48.77625" lon="2.51813">
        <ele>42</ele>
        <time>2026-05-20T10:15:30.999Z</time>
      </trkpt>
      <trkpt lat="48.7763" lon="2.51812">
        <ele>42</ele>
        <time>2026-05-20T10:15:35.999Z</time>
      </trkpt>
      <trkpt lat="48.77636" lon="2.5181">
        <ele>42</ele>
        <time>2026-05-20T10:15:40.999Z</time>
      </trkpt>
      <trkpt lat="48.7764" lon="2.51808">
        <ele>42</ele>
        <time>2026-05-20T10:15:45.999Z</time>
      </trkpt>
      <trkpt lat="48.77645" lon="2.51806">
        <ele>42</ele>
        <time>2026-05-20T10:15:50.999Z</time>
      </trkpt>
      <trkpt lat="48.77651" lon="2.51806">
        <ele>42</ele>
        <time>2026-05-20T10:15:55.999Z</time>
      </trkpt>
      <trkpt lat="48.77657" lon="2.51803">
        <ele>41</ele>
        <time>2026-05-20T10:16:00.999Z</time>
      </trkpt>
      <trkpt lat="48.77661" lon="2.51797">
        <ele>41</ele>
        <time>2026-05-20T10:16:05.999Z</time>
      </trkpt>
      <trkpt lat="48.77666" lon="2.51792">
        <ele>41</ele>
        <time>2026-05-20T10:16:10.999Z</time>
      </trkpt>
      <trkpt lat="48.77671" lon="2.51792">
        <ele>41</ele>
        <time>2026-05-20T10:16:15.999Z</time>
      </trkpt>
      <trkpt lat="48.77677" lon="2.5179">
        <ele>41</ele>
        <time>2026-05-20T10:16:20.999Z</time>
      </trkpt>
      <trkpt lat="48.77682" lon="2.5179">
        <ele>39</ele>
        <time>2026-05-20T10:16:25.999Z</time>
      </trkpt>
      <trkpt lat="48.77683" lon="2.51791">
        <ele>39</ele>
        <time>2026-05-20T10:16:30.999Z</time>
      </trkpt>
      <trkpt lat="48.7769" lon="2.51792">
        <ele>40</ele>
        <time>2026-05-20T10:16:50.999Z</time>
      </trkpt>
      <trkpt lat="48.77691" lon="2.5179">
        <ele>39</ele>
        <time>2026-05-20T10:16:55.999Z</time>
      </trkpt>
      <trkpt lat="48.77691" lon="2.51788">
        <ele>39</ele>
        <time>2026-05-20T10:17:00.999Z</time>
      </trkpt>
      <trkpt lat="48.77693" lon="2.51785">
        <ele>39</ele>
        <time>2026-05-20T10:17:05.999Z</time>
      </trkpt>
      <trkpt lat="48.77698" lon="2.51781">
        <ele>39</ele>
        <time>2026-05-20T10:17:10.999Z</time>
      </trkpt>
      <trkpt lat="48.77703" lon="2.51779">
        <ele>39</ele>
        <time>2026-05-20T10:17:15.999Z</time>
      </trkpt>
      <trkpt lat="48.77709" lon="2.51778">
        <ele>39</ele>
        <time>2026-05-20T10:17:20.999Z</time>
      </trkpt>
      <trkpt lat="48.77713" lon="2.51777">
        <ele>39</ele>
        <time>2026-05-20T10:17:25.999Z</time>
      </trkpt>
      <trkpt lat="48.77719" lon="2.51774">
        <ele>39</ele>
        <time>2026-05-20T10:17:30.999Z</time>
      </trkpt>
      <trkpt lat="48.77725" lon="2.51771">
        <ele>39</ele>
        <time>2026-05-20T10:17:35.999Z</time>
      </trkpt>
      <trkpt lat="48.77729" lon="2.51768">
        <ele>39</ele>
        <time>2026-05-20T10:17:40.999Z</time>
      </trkpt>
      <trkpt lat="48.77736" lon="2.51765">
        <ele>39</ele>
        <time>2026-05-20T10:17:45.999Z</time>
      </trkpt>
      <trkpt lat="48.7774" lon="2.51762">
        <ele>39</ele>
        <time>2026-05-20T10:17:50.999Z</time>
      </trkpt>
      <trkpt lat="48.77744" lon="2.5176">
        <ele>39</ele>
        <time>2026-05-20T10:17:55.999Z</time>
      </trkpt>
      <trkpt lat="48.77751" lon="2.51765">
        <ele>39</ele>
        <time>2026-05-20T10:18:00.999Z</time>
      </trkpt>
      <trkpt lat="48.77749" lon="2.51773">
        <ele>39</ele>
        <time>2026-05-20T10:18:05.999Z</time>
      </trkpt>
      <trkpt lat="48.77745" lon="2.51777">
        <ele>39</ele>
        <time>2026-05-20T10:18:10.999Z</time>
      </trkpt>
      <trkpt lat="48.77742" lon="2.51786">
        <ele>39</ele>
        <time>2026-05-20T10:18:15.999Z</time>
      </trkpt>
      <trkpt lat="48.77739" lon="2.51794">
        <ele>40</ele>
        <time>2026-05-20T10:18:20.999Z</time>
      </trkpt>
      <trkpt lat="48.77734" lon="2.51802">
        <ele>39</ele>
        <time>2026-05-20T10:18:25.999Z</time>
      </trkpt>
      <trkpt lat="48.77734" lon="2.51809">
        <ele>39</ele>
        <time>2026-05-20T10:18:30.999Z</time>
      </trkpt>
      <trkpt lat="48.77731" lon="2.51817">
        <ele>39</ele>
        <time>2026-05-20T10:18:35.999Z</time>
      </trkpt>
      <trkpt lat="48.77728" lon="2.51819">
        <ele>39</ele>
        <time>2026-05-20T10:18:40.999Z</time>
      </trkpt>
      <trkpt lat="48.77725" lon="2.51819">
        <ele>39</ele>
        <time>2026-05-20T10:18:45.999Z</time>
      </trkpt>
      <trkpt lat="48.77721" lon="2.51826">
        <ele>40</ele>
        <time>2026-05-20T10:18:50.999Z</time>
      </trkpt>
      <trkpt lat="48.77718" lon="2.51832">
        <ele>40</ele>
        <time>2026-05-20T10:18:55.999Z</time>
      </trkpt>
      <trkpt lat="48.77714" lon="2.51837">
        <ele>40</ele>
        <time>2026-05-20T10:19:00.999Z</time>
      </trkpt>
      <trkpt lat="48.77709" lon="2.51841">
        <ele>40</ele>
        <time>2026-05-20T10:19:05.999Z</time>
      </trkpt>
      <trkpt lat="48.77704" lon="2.51845">
        <ele>40</ele>
        <time>2026-05-20T10:19:10.999Z</time>
      </trkpt>
      <trkpt lat="48.77701" lon="2.5185">
        <ele>40</ele>
        <time>2026-05-20T10:19:15.999Z</time>
      </trkpt>
      <trkpt lat="48.77697" lon="2.51854">
        <ele>40</ele>
        <time>2026-05-20T10:19:20.999Z</time>
      </trkpt>
      <trkpt lat="48.77693" lon="2.51861">
        <ele>40</ele>
        <time>2026-05-20T10:19:25.999Z</time>
      </trkpt>
      <trkpt lat="48.77689" lon="2.51866">
        <ele>40</ele>
        <time>2026-05-20T10:19:30.999Z</time>
      </trkpt>
      <trkpt lat="48.77684" lon="2.51871">
        <ele>40</ele>
        <time>2026-05-20T10:19:36Z</time>
      </trkpt>
      <trkpt lat="48.77682" lon="2.51877">
        <ele>41</ele>
        <time>2026-05-20T10:19:40.999Z</time>
      </trkpt>
      <trkpt lat="48.77678" lon="2.51883">
        <ele>41</ele>
        <time>2026-05-20T10:19:46Z</time>
      </trkpt>
      <trkpt lat="48.77676" lon="2.51889">
        <ele>41</ele>
        <time>2026-05-20T10:19:51Z</time>
      </trkpt>
      <trkpt lat="48.77672" lon="2.51895">
        <ele>41</ele>
        <time>2026-05-20T10:19:56Z</time>
      </trkpt>
      <trkpt lat="48.77669" lon="2.51903">
        <ele>41</ele>
        <time>2026-05-20T10:20:01Z</time>
      </trkpt>
      <trkpt lat="48.77667" lon="2.5191">
        <ele>41</ele>
        <time>2026-05-20T10:20:06Z</time>
      </trkpt>
      <trkpt lat="48.77663" lon="2.51918">
        <ele>41</ele>
        <time>2026-05-20T10:20:10.999Z</time>
      </trkpt>
      <trkpt lat="48.77662" lon="2.51923">
        <ele>41</ele>
        <time>2026-05-20T10:20:15.999Z</time>
      </trkpt>
      <trkpt lat="48.77659" lon="2.51934">
        <ele>42</ele>
        <time>2026-05-20T10:20:20.999Z</time>
      </trkpt>
      <trkpt lat="48.77657" lon="2.51942">
        <ele>42</ele>
        <time>2026-05-20T10:20:25.999Z</time>
      </trkpt>
      <trkpt lat="48.77653" lon="2.51954">
        <ele>42</ele>
        <time>2026-05-20T10:20:30.999Z</time>
      </trkpt>
      <trkpt lat="48.77651" lon="2.5196">
        <ele>42</ele>
        <time>2026-05-20T10:20:35.999Z</time>
      </trkpt>
      <trkpt lat="48.7765" lon="2.51965">
        <ele>42</ele>
        <time>2026-05-20T10:20:40.999Z</time>
      </trkpt>
      <trkpt lat="48.77646" lon="2.51971">
        <ele>42</ele>
        <time>2026-05-20T10:20:45.999Z</time>
      </trkpt>
      <trkpt lat="48.77643" lon="2.51976">
        <ele>42</ele>
        <time>2026-05-20T10:20:50.999Z</time>
      </trkpt>
      <trkpt lat="48.77639" lon="2.51985">
        <ele>42</ele>
        <time>2026-05-20T10:21:30.999Z</time>
      </trkpt>
      <trkpt lat="48.77639" lon="2.51988">
        <ele>42</ele>
        <time>2026-05-20T10:21:35.999Z</time>
      </trkpt>
      <trkpt lat="48.77638" lon="2.5199">
        <ele>42</ele>
        <time>2026-05-20T10:21:40.999Z</time>
      </trkpt>
      <trkpt lat="48.77636" lon="2.51999">
        <ele>42</ele>
        <time>2026-05-20T10:21:46Z</time>
      </trkpt>
      <trkpt lat="48.77638" lon="2.52006">
        <ele>42</ele>
        <time>2026-05-20T10:21:51Z</time>
      </trkpt>
      <trkpt lat="48.77639" lon="2.52012">
        <ele>42</ele>
        <time>2026-05-20T10:21:56Z</time>
      </trkpt>
      <trkpt lat="48.77636" lon="2.52016">
        <ele>42</ele>
        <time>2026-05-20T10:22:01Z</time>
      </trkpt>
      <trkpt lat="48.77637" lon="2.52021">
        <ele>42</ele>
        <time>2026-05-20T10:22:06Z</time>
      </trkpt>
      <trkpt lat="48.77638" lon="2.52025">
        <ele>42</ele>
        <time>2026-05-20T10:22:11Z</time>
      </trkpt>
      <trkpt lat="48.7764" lon="2.52028">
        <ele>42</ele>
        <time>2026-05-20T10:22:16Z</time>
      </trkpt>
      <trkpt lat="48.77642" lon="2.52033">
        <ele>42</ele>
        <time>2026-05-20T10:22:21Z</time>
      </trkpt>
      <trkpt lat="48.77645" lon="2.52031">
        <ele>42</ele>
        <time>2026-05-20T10:22:26Z</time>
      </trkpt>
      <trkpt lat="48.7765" lon="2.5203">
        <ele>42</ele>
        <time>2026-05-20T10:22:31Z</time>
      </trkpt>
      <trkpt lat="48.77653" lon="2.52028">
        <ele>44</ele>
        <time>2026-05-20T10:22:35.999Z</time>
      </trkpt>
      <trkpt lat="48.7766" lon="2.52027">
        <ele>44</ele>
        <time>2026-05-20T10:22:40.999Z</time>
      </trkpt>
      <trkpt lat="48.77667" lon="2.52028">
        <ele>44</ele>
        <time>2026-05-20T10:22:45.999Z</time>
      </trkpt>
      <trkpt lat="48.77672" lon="2.52027">
        <ele>44</ele>
        <time>2026-05-20T10:22:50.999Z</time>
      </trkpt>
      <trkpt lat="48.77676" lon="2.52028">
        <ele>44</ele>
        <time>2026-05-20T10:22:55.999Z</time>
      </trkpt>
      <trkpt lat="48.77677" lon="2.52034">
        <ele>44</ele>
        <time>2026-05-20T10:23:50.999Z</time>
      </trkpt>
      <trkpt lat="48.7768" lon="2.52032">
        <ele>44</ele>
        <time>2026-05-20T10:23:55.999Z</time>
      </trkpt>
      <trkpt lat="48.77683" lon="2.52039">
        <ele>46</ele>
        <time>2026-05-20T10:24:00.999Z</time>
      </trkpt>
      <trkpt lat="48.77687" lon="2.52041">
        <ele>46</ele>
        <time>2026-05-20T10:24:05.999Z</time>
      </trkpt>
      <trkpt lat="48.77692" lon="2.52045">
        <ele>48</ele>
        <time>2026-05-20T10:24:10.999Z</time>
      </trkpt>
      <trkpt lat="48.77695" lon="2.52048">
        <ele>48</ele>
        <time>2026-05-20T10:24:15.999Z</time>
      </trkpt>
      <trkpt lat="48.77702" lon="2.52053">
        <ele>48</ele>
        <time>2026-05-20T10:24:20.999Z</time>
      </trkpt>
      <trkpt lat="48.77706" lon="2.52061">
        <ele>48</ele>
        <time>2026-05-20T10:24:25.999Z</time>
      </trkpt>
      <trkpt lat="48.77708" lon="2.52063">
        <ele>48</ele>
        <time>2026-05-20T10:24:30.999Z</time>
      </trkpt>
      <trkpt lat="48.77711" lon="2.52066">
        <ele>51</ele>
        <time>2026-05-20T10:24:35.999Z</time>
      </trkpt>
      <trkpt lat="48.77716" lon="2.52067">
        <ele>51</ele>
        <time>2026-05-20T10:24:40.999Z</time>
      </trkpt>
      <trkpt lat="48.77718" lon="2.52069">
        <ele>51</ele>
        <time>2026-05-20T10:24:45.999Z</time>
      </trkpt>
      <trkpt lat="48.77718" lon="2.52072">
        <ele>53</ele>
        <time>2026-05-20T10:24:50.999Z</time>
      </trkpt>
      <trkpt lat="48.77725" lon="2.52072">
        <ele>53</ele>
        <time>2026-05-20T10:24:54.999Z</time>
      </trkpt>
      <trkpt lat="48.77727" lon="2.52073">
        <ele>53</ele>
        <time>2026-05-20T10:24:59.999Z</time>
      </trkpt>
      <trkpt lat="48.77729" lon="2.52073">
        <ele>53</ele>
        <time>2026-05-20T10:25:04.999Z</time>
      </trkpt>
      <trkpt lat="48.77732" lon="2.52075">
        <ele>53</ele>
        <time>2026-05-20T10:25:09.999Z</time>
      </trkpt>
      <trkpt lat="48.77736" lon="2.52077">
        <ele>53</ele>
        <time>2026-05-20T10:25:14.999Z</time>
      </trkpt>
      <trkpt lat="48.7774" lon="2.52084">
        <ele>56</ele>
        <time>2026-05-20T10:25:19.999Z</time>
      </trkpt>
      <trkpt lat="48.77744" lon="2.52086">
        <ele>56</ele>
        <time>2026-05-20T10:25:24.999Z</time>
      </trkpt>
      <trkpt lat="48.77749" lon="2.52087">
        <ele>56</ele>
        <time>2026-05-20T10:25:29.999Z</time>
      </trkpt>
      <trkpt lat="48.77754" lon="2.52089">
        <ele>56</ele>
        <time>2026-05-20T10:25:34.999Z</time>
      </trkpt>
      <trkpt lat="48.77758" lon="2.52091">
        <ele>56</ele>
        <time>2026-05-20T10:25:39.999Z</time>
      </trkpt>
      <trkpt lat="48.77763" lon="2.52094">
        <ele>56</ele>
        <time>2026-05-20T10:25:44.999Z</time>
      </trkpt>
      <trkpt lat="48.77769" lon="2.52098">
        <ele>59</ele>
        <time>2026-05-20T10:25:49.999Z</time>
      </trkpt>
      <trkpt lat="48.77773" lon="2.52103">
        <ele>59</ele>
        <time>2026-05-20T10:25:54.999Z</time>
      </trkpt>
      <trkpt lat="48.77774" lon="2.52106">
        <ele>59</ele>
        <time>2026-05-20T10:25:59.999Z</time>
      </trkpt>
      <trkpt lat="48.77775" lon="2.52115">
        <ele>59</ele>
        <time>2026-05-20T10:26:04.999Z</time>
      </trkpt>
      <trkpt lat="48.77775" lon="2.5212">
        <ele>59</ele>
        <time>2026-05-20T10:26:09.999Z</time>
      </trkpt>
      <trkpt lat="48.77778" lon="2.52125">
        <ele>59</ele>
        <time>2026-05-20T10:26:14.999Z</time>
      </trkpt>
      <trkpt lat="48.7778" lon="2.52137">
        <ele>61</ele>
        <time>2026-05-20T10:26:19.999Z</time>
      </trkpt>
      <trkpt lat="48.77781" lon="2.52145">
        <ele>61</ele>
        <time>2026-05-20T10:26:24.999Z</time>
      </trkpt>
      <trkpt lat="48.7778" lon="2.52154">
        <ele>62</ele>
        <time>2026-05-20T10:26:29.999Z</time>
      </trkpt>
      <trkpt lat="48.77778" lon="2.52158">
        <ele>62</ele>
        <time>2026-05-20T10:26:34.999Z</time>
      </trkpt>
      <trkpt lat="48.77777" lon="2.52159">
        <ele>62</ele>
        <time>2026-05-20T10:26:39.999Z</time>
      </trkpt>
      <trkpt lat="48.77777" lon="2.52166">
        <ele>62</ele>
        <time>2026-05-20T10:26:44.999Z</time>
      </trkpt>
      <trkpt lat="48.77779" lon="2.52174">
        <ele>62</ele>
        <time>2026-05-20T10:26:49.999Z</time>
      </trkpt>
      <trkpt lat="48.77781" lon="2.52178">
        <ele>62</ele>
        <time>2026-05-20T10:26:55Z</time>
      </trkpt>
      <trkpt lat="48.77782" lon="2.52185">
        <ele>63</ele>
        <time>2026-05-20T10:27:00Z</time>
      </trkpt>
      <trkpt lat="48.77783" lon="2.52192">
        <ele>63</ele>
        <time>2026-05-20T10:27:05Z</time>
      </trkpt>
      <trkpt lat="48.77784" lon="2.52201">
        <ele>63</ele>
        <time>2026-05-20T10:27:10Z</time>
      </trkpt>
      <trkpt lat="48.77787" lon="2.52209">
        <ele>63</ele>
        <time>2026-05-20T10:27:15Z</time>
      </trkpt>
      <trkpt lat="48.77788" lon="2.52213">
        <ele>63</ele>
        <time>2026-05-20T10:27:20Z</time>
      </trkpt>
      <trkpt lat="48.77789" lon="2.5222">
        <ele>63</ele>
        <time>2026-05-20T10:27:24Z</time>
      </trkpt>
      <trkpt lat="48.77791" lon="2.52224">
        <ele>63</ele>
        <time>2026-05-20T10:27:29Z</time>
      </trkpt>
      <trkpt lat="48.77793" lon="2.52229">
        <ele>68</ele>
        <time>2026-05-20T10:27:34Z</time>
      </trkpt>
      <trkpt lat="48.77794" lon="2.52232">
        <ele>68</ele>
        <time>2026-05-20T10:27:38Z</time>
      </trkpt>
      <trkpt lat="48.77796" lon="2.52237">
        <ele>68</ele>
        <time>2026-05-20T10:27:43Z</time>
      </trkpt>
      <trkpt lat="48.77796" lon="2.52245">
        <ele>68</ele>
        <time>2026-05-20T10:27:48Z</time>
      </trkpt>
      <trkpt lat="48.77796" lon="2.52257">
        <ele>68</ele>
        <time>2026-05-20T10:27:53Z</time>
      </trkpt>
      <trkpt lat="48.77796" lon="2.52264">
        <ele>68</ele>
        <time>2026-05-20T10:27:57Z</time>
      </trkpt>
      <trkpt lat="48.77797" lon="2.52274">
        <ele>69</ele>
        <time>2026-05-20T10:28:01.999Z</time>
      </trkpt>
      <trkpt lat="48.77797" lon="2.52278">
        <ele>69</ele>
        <time>2026-05-20T10:28:05.999Z</time>
      </trkpt>
      <trkpt lat="48.77797" lon="2.52285">
        <ele>69</ele>
        <time>2026-05-20T10:28:10.999Z</time>
      </trkpt>
      <trkpt lat="48.77797" lon="2.52294">
        <ele>69</ele>
        <time>2026-05-20T10:28:15.999Z</time>
      </trkpt>
      <trkpt lat="48.77796" lon="2.52306">
        <ele>69</ele>
        <time>2026-05-20T10:28:20.999Z</time>
      </trkpt>
      <trkpt lat="48.77796" lon="2.52317">
        <ele>69</ele>
        <time>2026-05-20T10:28:25.999Z</time>
      </trkpt>
      <trkpt lat="48.77794" lon="2.52325">
        <ele>70</ele>
        <time>2026-05-20T10:28:30.999Z</time>
      </trkpt>
      <trkpt lat="48.77794" lon="2.52333">
        <ele>70</ele>
        <time>2026-05-20T10:28:35.999Z</time>
      </trkpt>
      <trkpt lat="48.77792" lon="2.52342">
        <ele>70</ele>
        <time>2026-05-20T10:28:40.999Z</time>
      </trkpt>
      <trkpt lat="48.77791" lon="2.52354">
        <ele>64</ele>
        <time>2026-05-20T10:28:45.999Z</time>
      </trkpt>
      <trkpt lat="48.77792" lon="2.52357">
        <ele>64</ele>
        <time>2026-05-20T10:28:50.999Z</time>
      </trkpt>
      <trkpt lat="48.7779" lon="2.52361">
        <ele>64</ele>
        <time>2026-05-20T10:28:55.999Z</time>
      </trkpt>
      <trkpt lat="48.77791" lon="2.52372">
        <ele>64</ele>
        <time>2026-05-20T10:29:00.999Z</time>
      </trkpt>
      <trkpt lat="48.7779" lon="2.52381">
        <ele>65</ele>
        <time>2026-05-20T10:29:05.999Z</time>
      </trkpt>
      <trkpt lat="48.77791" lon="2.52387">
        <ele>65</ele>
        <time>2026-05-20T10:29:10.999Z</time>
      </trkpt>
      <trkpt lat="48.77792" lon="2.52393">
        <ele>70</ele>
        <time>2026-05-20T10:29:15.999Z</time>
      </trkpt>
      <trkpt lat="48.77793" lon="2.52404">
        <ele>70</ele>
        <time>2026-05-20T10:29:20.999Z</time>
      </trkpt>
      <trkpt lat="48.77794" lon="2.52414">
        <ele>70</ele>
        <time>2026-05-20T10:29:26Z</time>
      </trkpt>
      <trkpt lat="48.77793" lon="2.52425">
        <ele>70</ele>
        <time>2026-05-20T10:29:31Z</time>
      </trkpt>
      <trkpt lat="48.77793" lon="2.52433">
        <ele>71</ele>
        <time>2026-05-20T10:29:36Z</time>
      </trkpt>
      <trkpt lat="48.77794" lon="2.52441">
        <ele>71</ele>
        <time>2026-05-20T10:29:41Z</time>
      </trkpt>
      <trkpt lat="48.77797" lon="2.52455">
        <ele>71</ele>
        <time>2026-05-20T10:29:46Z</time>
      </trkpt>
      <trkpt lat="48.77797" lon="2.52464">
        <ele>70</ele>
        <time>2026-05-20T10:29:51Z</time>
      </trkpt>
      <trkpt lat="48.778" lon="2.52471">
        <ele>70</ele>
        <time>2026-05-20T10:29:55Z</time>
      </trkpt>
      <trkpt lat="48.77801" lon="2.52479">
        <ele>70</ele>
        <time>2026-05-20T10:30:00Z</time>
      </trkpt>
      <trkpt lat="48.77803" lon="2.52488">
        <ele>68</ele>
        <time>2026-05-20T10:30:05Z</time>
      </trkpt>
      <trkpt lat="48.77806" lon="2.52497">
        <ele>68</ele>
        <time>2026-05-20T10:30:09.999Z</time>
      </trkpt>
      <trkpt lat="48.77807" lon="2.52501">
        <ele>68</ele>
        <time>2026-05-20T10:30:14.999Z</time>
      </trkpt>
      <trkpt lat="48.77809" lon="2.52508">
        <ele>68</ele>
        <time>2026-05-20T10:30:19.999Z</time>
      </trkpt>
      <trkpt lat="48.77812" lon="2.52515">
        <ele>65</ele>
        <time>2026-05-20T10:30:24.999Z</time>
      </trkpt>
      <trkpt lat="48.77814" lon="2.52525">
        <ele>65</ele>
        <time>2026-05-20T10:30:29.999Z</time>
      </trkpt>
      <trkpt lat="48.77817" lon="2.52529">
        <ele>65</ele>
        <time>2026-05-20T10:30:34.999Z</time>
      </trkpt>
      <trkpt lat="48.77818" lon="2.52538">
        <ele>65</ele>
        <time>2026-05-20T10:31:45Z</time>
      </trkpt>
      <trkpt lat="48.77824" lon="2.52544">
        <ele>66</ele>
        <time>2026-05-20T10:31:50Z</time>
      </trkpt>
      <trkpt lat="48.77829" lon="2.52548">
        <ele>66</ele>
        <time>2026-05-20T10:31:55Z</time>
      </trkpt>
      <trkpt lat="48.77833" lon="2.52551">
        <ele>66</ele>
        <time>2026-05-20T10:32:00Z</time>
      </trkpt>
      <trkpt lat="48.77837" lon="2.52553">
        <ele>66</ele>
        <time>2026-05-20T10:32:05Z</time>
      </trkpt>
      <trkpt lat="48.77842" lon="2.52559">
        <ele>66</ele>
        <time>2026-05-20T10:32:10Z</time>
      </trkpt>
      <trkpt lat="48.77849" lon="2.5256">
        <ele>70</ele>
        <time>2026-05-20T10:32:14.999Z</time>
      </trkpt>
      <trkpt lat="48.77855" lon="2.5256">
        <ele>70</ele>
        <time>2026-05-20T10:32:18.999Z</time>
      </trkpt>
      <trkpt lat="48.7786" lon="2.52565">
        <ele>70</ele>
        <time>2026-05-20T10:32:23.999Z</time>
      </trkpt>
      <trkpt lat="48.77865" lon="2.52575">
        <ele>68</ele>
        <time>2026-05-20T10:32:43.999Z</time>
      </trkpt>
      <trkpt lat="48.77857" lon="2.52572">
        <ele>68</ele>
        <time>2026-05-20T10:32:48.999Z</time>
      </trkpt>
      <trkpt lat="48.77852" lon="2.52566">
        <ele>70</ele>
        <time>2026-05-20T10:32:53.999Z</time>
      </trkpt>
      <trkpt lat="48.77847" lon="2.5256">
        <ele>66</ele>
        <time>2026-05-20T10:32:58.999Z</time>
      </trkpt>
      <trkpt lat="48.77843" lon="2.52557">
        <ele>66</ele>
        <time>2026-05-20T10:33:04Z</time>
      </trkpt>
      <trkpt lat="48.77836" lon="2.52554">
        <ele>66</ele>
        <time>2026-05-20T10:33:09Z</time>
      </trkpt>
      <trkpt lat="48.7783" lon="2.52557">
        <ele>66</ele>
        <time>2026-05-20T10:33:13Z</time>
      </trkpt>
      <trkpt lat="48.77824" lon="2.52562">
        <ele>66</ele>
        <time>2026-05-20T10:33:18Z</time>
      </trkpt>
      <trkpt lat="48.77819" lon="2.52568">
        <ele>63</ele>
        <time>2026-05-20T10:33:23Z</time>
      </trkpt>
      <trkpt lat="48.77816" lon="2.52575">
        <ele>61</ele>
        <time>2026-05-20T10:33:28Z</time>
      </trkpt>
      <trkpt lat="48.7781" lon="2.52582">
        <ele>61</ele>
        <time>2026-05-20T10:33:33Z</time>
      </trkpt>
      <trkpt lat="48.77805" lon="2.5259">
        <ele>61</ele>
        <time>2026-05-20T10:33:38Z</time>
      </trkpt>
      <trkpt lat="48.77805" lon="2.52599">
        <ele>59</ele>
        <time>2026-05-20T10:33:43Z</time>
      </trkpt>
      <trkpt lat="48.77804" lon="2.52607">
        <ele>59</ele>
        <time>2026-05-20T10:33:48Z</time>
      </trkpt>
      <trkpt lat="48.77807" lon="2.52614">
        <ele>59</ele>
        <time>2026-05-20T10:33:53Z</time>
      </trkpt>
      <trkpt lat="48.77809" lon="2.52619">
        <ele>59</ele>
        <time>2026-05-20T10:33:58Z</time>
      </trkpt>
      <trkpt lat="48.77813" lon="2.52619">
        <ele>59</ele>
        <time>2026-05-20T10:34:03Z</time>
      </trkpt>
      <trkpt lat="48.77811" lon="2.52615">
        <ele>59</ele>
        <time>2026-05-20T10:34:58Z</time>
      </trkpt>
      <trkpt lat="48.77809" lon="2.52612">
        <ele>59</ele>
        <time>2026-05-20T10:35:03Z</time>
      </trkpt>
      <trkpt lat="48.77802" lon="2.52611">
        <ele>59</ele>
        <time>2026-05-20T10:35:08Z</time>
      </trkpt>
      <trkpt lat="48.77796" lon="2.52606">
        <ele>59</ele>
        <time>2026-05-20T10:35:13Z</time>
      </trkpt>
      <trkpt lat="48.77794" lon="2.52603">
        <ele>59</ele>
        <time>2026-05-20T10:35:18Z</time>
      </trkpt>
      <trkpt lat="48.77799" lon="2.526">
        <ele>59</ele>
        <time>2026-05-20T10:49:17.999Z</time>
      </trkpt>
      <trkpt lat="48.77797" lon="2.52606">
        <ele>59</ele>
        <time>2026-05-20T10:49:22.999Z</time>
      </trkpt>
      <trkpt lat="48.77802" lon="2.52609">
        <ele>59</ele>
        <time>2026-05-20T10:49:28Z</time>
      </trkpt>
      <trkpt lat="48.77805" lon="2.52609">
        <ele>59</ele>
        <time>2026-05-20T10:49:33Z</time>
      </trkpt>
      <trkpt lat="48.7781" lon="2.52613">
        <ele>59</ele>
        <time>2026-05-20T10:49:38Z</time>
      </trkpt>
      <trkpt lat="48.77812" lon="2.52612">
        <ele>59</ele>
        <time>2026-05-20T11:24:00Z</time>
      </trkpt>
      <trkpt lat="48.77808" lon="2.52608">
        <ele>59</ele>
        <time>2026-05-20T11:24:05Z</time>
      </trkpt>
      <trkpt lat="48.77809" lon="2.526">
        <ele>59</ele>
        <time>2026-05-20T11:24:10Z</time>
      </trkpt>
      <trkpt lat="48.77806" lon="2.52593">
        <ele>61</ele>
        <time>2026-05-20T11:24:15Z</time>
      </trkpt>
      <trkpt lat="48.77803" lon="2.52593">
        <ele>61</ele>
        <time>2026-05-20T11:24:20Z</time>
      </trkpt>
      <trkpt lat="48.77804" lon="2.52585">
        <ele>61</ele>
        <time>2026-05-20T11:24:25Z</time>
      </trkpt>
      <trkpt lat="48.77804" lon="2.52576">
        <ele>61</ele>
        <time>2026-05-20T11:24:30Z</time>
      </trkpt>
      <trkpt lat="48.778" lon="2.52572">
        <ele>61</ele>
        <time>2026-05-20T11:24:35Z</time>
      </trkpt>
      <trkpt lat="48.77796" lon="2.52573">
        <ele>61</ele>
        <time>2026-05-20T11:24:40Z</time>
      </trkpt>
      <trkpt lat="48.77796" lon="2.5258">
        <ele>61</ele>
        <time>2026-05-20T11:24:43.999Z</time>
      </trkpt>
      <trkpt lat="48.77796" lon="2.52594">
        <ele>61</ele>
        <time>2026-05-20T11:24:48.999Z</time>
      </trkpt>
      <trkpt lat="48.77798" lon="2.52606">
        <ele>59</ele>
        <time>2026-05-20T11:24:53.999Z</time>
      </trkpt>
      <trkpt lat="48.77798" lon="2.52611">
        <ele>59</ele>
        <time>2026-05-20T11:24:58.999Z</time>
      </trkpt>
      <trkpt lat="48.77796" lon="2.52611">
        <ele>59</ele>
        <time>2026-05-20T11:25:34Z</time>
      </trkpt>
      <trkpt lat="48.77795" lon="2.52607">
        <ele>59</ele>
        <time>2026-05-20T11:25:39Z</time>
      </trkpt>
      <trkpt lat="48.77795" lon="2.52602">
        <ele>59</ele>
        <time>2026-05-20T11:25:44Z</time>
      </trkpt>
      <trkpt lat="48.77794" lon="2.52602">
        <ele>59</ele>
        <time>2026-05-20T11:25:49Z</time>
      </trkpt>
      <trkpt lat="48.77792" lon="2.52599">
        <ele>59</ele>
        <time>2026-05-20T11:25:54Z</time>
      </trkpt>
      <trkpt lat="48.77798" lon="2.52602">
        <ele>59</ele>
        <time>2026-05-20T11:25:59Z</time>
      </trkpt>
      <trkpt lat="48.77805" lon="2.52605">
        <ele>59</ele>
        <time>2026-05-20T11:26:04Z</time>
      </trkpt>
      <trkpt lat="48.77811" lon="2.52609">
        <ele>59</ele>
        <time>2026-05-20T11:26:09Z</time>
      </trkpt>
      <trkpt lat="48.77814" lon="2.52614">
        <ele>59</ele>
        <time>2026-05-20T11:26:14Z</time>
      </trkpt>
      <trkpt lat="48.77813" lon="2.5261">
        <ele>59</ele>
        <time>2026-05-20T11:27:59Z</time>
      </trkpt>
      <trkpt lat="48.77817" lon="2.52611">
        <ele>59</ele>
        <time>2026-05-20T11:28:04Z</time>
      </trkpt>
      <trkpt lat="48.77821" lon="2.52611">
        <ele>63</ele>
        <time>2026-05-20T11:28:09Z</time>
      </trkpt>
      <trkpt lat="48.77822" lon="2.52611">
        <ele>63</ele>
        <time>2026-05-20T11:28:14Z</time>
      </trkpt>
      <trkpt lat="48.77825" lon="2.5261">
        <ele>63</ele>
        <time>2026-05-20T11:28:19Z</time>
      </trkpt>
      <trkpt lat="48.77829" lon="2.52604">
        <ele>63</ele>
        <time>2026-05-20T11:28:49.001Z</time>
      </trkpt>
      <trkpt lat="48.77828" lon="2.52595">
        <ele>65</ele>
        <time>2026-05-20T11:28:53.999Z</time>
      </trkpt>
      <trkpt lat="48.77825" lon="2.52587">
        <ele>65</ele>
        <time>2026-05-20T11:28:58.999Z</time>
      </trkpt>
      <trkpt lat="48.77826" lon="2.52578">
        <ele>65</ele>
        <time>2026-05-20T11:29:03.999Z</time>
      </trkpt>
      <trkpt lat="48.77824" lon="2.52571">
        <ele>65</ele>
        <time>2026-05-20T11:29:08.999Z</time>
      </trkpt>
      <trkpt lat="48.77822" lon="2.52562">
        <ele>66</ele>
        <time>2026-05-20T11:29:13.999Z</time>
      </trkpt>
      <trkpt lat="48.77822" lon="2.52552">
        <ele>66</ele>
        <time>2026-05-20T11:29:18.999Z</time>
      </trkpt>
      <trkpt lat="48.77826" lon="2.52547">
        <ele>66</ele>
        <time>2026-05-20T11:29:24Z</time>
      </trkpt>
      <trkpt lat="48.77827" lon="2.52542">
        <ele>66</ele>
        <time>2026-05-20T11:29:29Z</time>
      </trkpt>
      <trkpt lat="48.77831" lon="2.52548">
        <ele>66</ele>
        <time>2026-05-20T11:29:34Z</time>
      </trkpt>
      <trkpt lat="48.77837" lon="2.52555">
        <ele>66</ele>
        <time>2026-05-20T11:29:39Z</time>
      </trkpt>
      <trkpt lat="48.7784" lon="2.52557">
        <ele>66</ele>
        <time>2026-05-20T11:29:43Z</time>
      </trkpt>
      <trkpt lat="48.77845" lon="2.52559">
        <ele>66</ele>
        <time>2026-05-20T11:29:48Z</time>
      </trkpt>
      <trkpt lat="48.7785" lon="2.52562">
        <ele>70</ele>
        <time>2026-05-20T11:29:53Z</time>
      </trkpt>
      <trkpt lat="48.77855" lon="2.52564">
        <ele>70</ele>
        <time>2026-05-20T11:29:58Z</time>
      </trkpt>
      <trkpt lat="48.77861" lon="2.5257">
        <ele>68</ele>
        <time>2026-05-20T11:30:03Z</time>
      </trkpt>
      <trkpt lat="48.77867" lon="2.52575">
        <ele>68</ele>
        <time>2026-05-20T11:30:08Z</time>
      </trkpt>
      <trkpt lat="48.7787" lon="2.52577">
        <ele>68</ele>
        <time>2026-05-20T11:30:13Z</time>
      </trkpt>
      <trkpt lat="48.77875" lon="2.5258">
        <ele>72</ele>
        <time>2026-05-20T11:30:18Z</time>
      </trkpt>
      <trkpt lat="48.77881" lon="2.52583">
        <ele>72</ele>
        <time>2026-05-20T11:30:23Z</time>
      </trkpt>
      <trkpt lat="48.77886" lon="2.52586">
        <ele>72</ele>
        <time>2026-05-20T11:30:28Z</time>
      </trkpt>
      <trkpt lat="48.77891" lon="2.52591">
        <ele>72</ele>
        <time>2026-05-20T11:30:33Z</time>
      </trkpt>
      <trkpt lat="48.77894" lon="2.52596">
        <ele>72</ele>
        <time>2026-05-20T11:30:38.001Z</time>
      </trkpt>
      <trkpt lat="48.77898" lon="2.526">
        <ele>70</ele>
        <time>2026-05-20T11:30:43.001Z</time>
      </trkpt>
      <trkpt lat="48.77903" lon="2.52605">
        <ele>75</ele>
        <time>2026-05-20T11:30:48.001Z</time>
      </trkpt>
      <trkpt lat="48.77906" lon="2.52611">
        <ele>75</ele>
        <time>2026-05-20T11:30:53.001Z</time>
      </trkpt>
      <trkpt lat="48.77909" lon="2.52616">
        <ele>75</ele>
        <time>2026-05-20T11:30:58.001Z</time>
      </trkpt>
      <trkpt lat="48.77913" lon="2.52622">
        <ele>75</ele>
        <time>2026-05-20T11:31:02.999Z</time>
      </trkpt>
      <trkpt lat="48.77917" lon="2.52628">
        <ele>72</ele>
        <time>2026-05-20T11:31:07.999Z</time>
      </trkpt>
      <trkpt lat="48.77921" lon="2.52635">
        <ele>72</ele>
        <time>2026-05-20T11:31:12.999Z</time>
      </trkpt>
      <trkpt lat="48.77923" lon="2.52643">
        <ele>72</ele>
        <time>2026-05-20T11:31:17.999Z</time>
      </trkpt>
      <trkpt lat="48.77924" lon="2.52651">
        <ele>72</ele>
        <time>2026-05-20T11:31:22.999Z</time>
      </trkpt>
      <trkpt lat="48.77924" lon="2.5266">
        <ele>70</ele>
        <time>2026-05-20T11:31:28Z</time>
      </trkpt>
      <trkpt lat="48.77925" lon="2.52668">
        <ele>70</ele>
        <time>2026-05-20T11:31:33Z</time>
      </trkpt>
      <trkpt lat="48.77925" lon="2.52679">
        <ele>70</ele>
        <time>2026-05-20T11:31:38Z</time>
      </trkpt>
      <trkpt lat="48.77924" lon="2.52688">
        <ele>69</ele>
        <time>2026-05-20T11:31:43Z</time>
      </trkpt>
      <trkpt lat="48.77923" lon="2.52696">
        <ele>69</ele>
        <time>2026-05-20T11:31:48Z</time>
      </trkpt>
      <trkpt lat="48.77922" lon="2.52703">
        <ele>69</ele>
        <time>2026-05-20T11:31:53Z</time>
      </trkpt>
      <trkpt lat="48.77924" lon="2.52708">
        <ele>69</ele>
        <time>2026-05-20T11:31:58Z</time>
      </trkpt>
      <trkpt lat="48.77926" lon="2.52717">
        <ele>66</ele>
        <time>2026-05-20T11:32:03Z</time>
      </trkpt>
      <trkpt lat="48.77927" lon="2.52726">
        <ele>66</ele>
        <time>2026-05-20T11:32:08Z</time>
      </trkpt>
      <trkpt lat="48.77927" lon="2.52732">
        <ele>66</ele>
        <time>2026-05-20T11:32:13Z</time>
      </trkpt>
      <trkpt lat="48.77929" lon="2.5274">
        <ele>63</ele>
        <time>2026-05-20T11:32:18Z</time>
      </trkpt>
      <trkpt lat="48.77931" lon="2.52745">
        <ele>70</ele>
        <time>2026-05-20T11:32:23Z</time>
      </trkpt>
      <trkpt lat="48.77932" lon="2.52747">
        <ele>70</ele>
        <time>2026-05-20T11:32:28Z</time>
      </trkpt>
      <trkpt lat="48.77934" lon="2.52752">
        <ele>70</ele>
        <time>2026-05-20T11:32:33Z</time>
      </trkpt>
      <trkpt lat="48.77936" lon="2.52757">
        <ele>70</ele>
        <time>2026-05-20T11:32:38.001Z</time>
      </trkpt>
      <trkpt lat="48.77939" lon="2.52763">
        <ele>70</ele>
        <time>2026-05-20T11:32:43.001Z</time>
      </trkpt>
      <trkpt lat="48.77941" lon="2.52771">
        <ele>66</ele>
        <time>2026-05-20T11:32:48.001Z</time>
      </trkpt>
      <trkpt lat="48.77943" lon="2.52778">
        <ele>66</ele>
        <time>2026-05-20T11:32:53.001Z</time>
      </trkpt>
      <trkpt lat="48.77945" lon="2.52786">
        <ele>66</ele>
        <time>2026-05-20T11:32:58.001Z</time>
      </trkpt>
      <trkpt lat="48.77947" lon="2.52796">
        <ele>64</ele>
        <time>2026-05-20T11:33:03.001Z</time>
      </trkpt>
      <trkpt lat="48.77946" lon="2.52803">
        <ele>64</ele>
        <time>2026-05-20T11:33:08Z</time>
      </trkpt>
      <trkpt lat="48.77945" lon="2.52808">
        <ele>64</ele>
        <time>2026-05-20T11:33:13Z</time>
      </trkpt>
      <trkpt lat="48.77946" lon="2.52812">
        <ele>64</ele>
        <time>2026-05-20T11:33:18Z</time>
      </trkpt>
      <trkpt lat="48.77947" lon="2.5282">
        <ele>64</ele>
        <time>2026-05-20T11:33:23Z</time>
      </trkpt>
      <trkpt lat="48.77947" lon="2.5283">
        <ele>64</ele>
        <time>2026-05-20T11:33:28Z</time>
      </trkpt>
      <trkpt lat="48.77947" lon="2.52838">
        <ele>64</ele>
        <time>2026-05-20T11:33:33Z</time>
      </trkpt>
      <trkpt lat="48.77946" lon="2.52845">
        <ele>64</ele>
        <time>2026-05-20T11:33:38Z</time>
      </trkpt>
      <trkpt lat="48.77947" lon="2.52854">
        <ele>65</ele>
        <time>2026-05-20T11:33:43Z</time>
      </trkpt>
      <trkpt lat="48.77946" lon="2.52862">
        <ele>65</ele>
        <time>2026-05-20T11:33:48Z</time>
      </trkpt>
      <trkpt lat="48.77947" lon="2.52871">
        <ele>65</ele>
        <time>2026-05-20T11:33:53Z</time>
      </trkpt>
      <trkpt lat="48.77947" lon="2.52878">
        <ele>66</ele>
        <time>2026-05-20T11:33:58Z</time>
      </trkpt>
      <trkpt lat="48.77945" lon="2.52886">
        <ele>66</ele>
        <time>2026-05-20T11:34:03Z</time>
      </trkpt>
      <trkpt lat="48.77945" lon="2.52892">
        <ele>66</ele>
        <time>2026-05-20T11:34:08Z</time>
      </trkpt>
      <trkpt lat="48.77944" lon="2.52899">
        <ele>66</ele>
        <time>2026-05-20T11:34:13Z</time>
      </trkpt>
      <trkpt lat="48.77942" lon="2.52906">
        <ele>68</ele>
        <time>2026-05-20T11:34:18Z</time>
      </trkpt>
      <trkpt lat="48.77942" lon="2.52916">
        <ele>68</ele>
        <time>2026-05-20T11:34:23Z</time>
      </trkpt>
      <trkpt lat="48.7794" lon="2.52925">
        <ele>68</ele>
        <time>2026-05-20T11:34:28Z</time>
      </trkpt>
      <trkpt lat="48.77938" lon="2.52934">
        <ele>68</ele>
        <time>2026-05-20T11:34:33.001Z</time>
      </trkpt>
      <trkpt lat="48.77938" lon="2.52941">
        <ele>68</ele>
        <time>2026-05-20T11:34:38.001Z</time>
      </trkpt>
      <trkpt lat="48.77936" lon="2.52948">
        <ele>68</ele>
        <time>2026-05-20T11:34:43.001Z</time>
      </trkpt>
      <trkpt lat="48.77934" lon="2.52958">
        <ele>68</ele>
        <time>2026-05-20T11:34:48.001Z</time>
      </trkpt>
      <trkpt lat="48.77934" lon="2.52966">
        <ele>68</ele>
        <time>2026-05-20T11:34:53.001Z</time>
      </trkpt>
      <trkpt lat="48.77931" lon="2.52974">
        <ele>68</ele>
        <time>2026-05-20T11:34:58.001Z</time>
      </trkpt>
      <trkpt lat="48.77929" lon="2.52983">
        <ele>63</ele>
        <time>2026-05-20T11:35:03.001Z</time>
      </trkpt>
      <trkpt lat="48.77926" lon="2.5299">
        <ele>63</ele>
        <time>2026-05-20T11:35:08.001Z</time>
      </trkpt>
      <trkpt lat="48.77923" lon="2.52996">
        <ele>63</ele>
        <time>2026-05-20T11:35:13Z</time>
      </trkpt>
      <trkpt lat="48.7792" lon="2.53003">
        <ele>63</ele>
        <time>2026-05-20T11:35:18Z</time>
      </trkpt>
      <trkpt lat="48.77917" lon="2.5301">
        <ele>63</ele>
        <time>2026-05-20T11:35:23Z</time>
      </trkpt>
      <trkpt lat="48.77912" lon="2.53018">
        <ele>64</ele>
        <time>2026-05-20T11:35:28Z</time>
      </trkpt>
      <trkpt lat="48.77909" lon="2.53024">
        <ele>64</ele>
        <time>2026-05-20T11:35:33Z</time>
      </trkpt>
      <trkpt lat="48.77906" lon="2.53031">
        <ele>64</ele>
        <time>2026-05-20T11:35:38Z</time>
      </trkpt>
      <trkpt lat="48.77903" lon="2.53037">
        <ele>64</ele>
        <time>2026-05-20T11:35:43Z</time>
      </trkpt>
      <trkpt lat="48.77899" lon="2.53046">
        <ele>64</ele>
        <time>2026-05-20T11:35:48Z</time>
      </trkpt>
      <trkpt lat="48.77896" lon="2.53053">
        <ele>64</ele>
        <time>2026-05-20T11:35:53Z</time>
      </trkpt>
      <trkpt lat="48.77893" lon="2.5306">
        <ele>64</ele>
        <time>2026-05-20T11:35:58Z</time>
      </trkpt>
      <trkpt lat="48.77889" lon="2.53066">
        <ele>64</ele>
        <time>2026-05-20T11:36:03Z</time>
      </trkpt>
      <trkpt lat="48.77885" lon="2.53072">
        <ele>67</ele>
        <time>2026-05-20T11:36:08Z</time>
      </trkpt>
      <trkpt lat="48.7788" lon="2.53076">
        <ele>67</ele>
        <time>2026-05-20T11:36:13Z</time>
      </trkpt>
      <trkpt lat="48.77875" lon="2.53082">
        <ele>65</ele>
        <time>2026-05-20T11:36:18Z</time>
      </trkpt>
      <trkpt lat="48.77871" lon="2.53085">
        <ele>65</ele>
        <time>2026-05-20T11:36:23Z</time>
      </trkpt>
      <trkpt lat="48.77865" lon="2.53093">
        <ele>65</ele>
        <time>2026-05-20T11:36:28Z</time>
      </trkpt>
      <trkpt lat="48.77862" lon="2.53099">
        <ele>66</ele>
        <time>2026-05-20T11:36:33.001Z</time>
      </trkpt>
      <trkpt lat="48.77858" lon="2.53107">
        <ele>66</ele>
        <time>2026-05-20T11:36:38.001Z</time>
      </trkpt>
      <trkpt lat="48.77854" lon="2.53114">
        <ele>66</ele>
        <time>2026-05-20T11:36:43.001Z</time>
      </trkpt>
      <trkpt lat="48.77851" lon="2.5312">
        <ele>66</ele>
        <time>2026-05-20T11:36:48.001Z</time>
      </trkpt>
      <trkpt lat="48.77845" lon="2.53124">
        <ele>64</ele>
        <time>2026-05-20T11:36:53.001Z</time>
      </trkpt>
      <trkpt lat="48.77842" lon="2.53126">
        <ele>65</ele>
        <time>2026-05-20T11:36:58.001Z</time>
      </trkpt>
      <trkpt lat="48.77836" lon="2.53129">
        <ele>65</ele>
        <time>2026-05-20T11:37:03.001Z</time>
      </trkpt>
      <trkpt lat="48.77831" lon="2.53131">
        <ele>65</ele>
        <time>2026-05-20T11:37:08.001Z</time>
      </trkpt>
      <trkpt lat="48.77828" lon="2.53136">
        <ele>65</ele>
        <time>2026-05-20T11:37:12.001Z</time>
      </trkpt>
      <trkpt lat="48.77825" lon="2.53142">
        <ele>65</ele>
        <time>2026-05-20T11:37:17.001Z</time>
      </trkpt>
      <trkpt lat="48.77823" lon="2.53146">
        <ele>65</ele>
        <time>2026-05-20T11:37:22Z</time>
      </trkpt>
      <trkpt lat="48.77821" lon="2.53149">
        <ele>65</ele>
        <time>2026-05-20T11:37:27Z</time>
      </trkpt>
      <trkpt lat="48.77819" lon="2.53142">
        <ele>63</ele>
        <time>2026-05-20T11:40:50Z</time>
      </trkpt>
      <trkpt lat="48.77815" lon="2.53145">
        <ele>63</ele>
        <time>2026-05-20T11:40:55Z</time>
      </trkpt>
      <trkpt lat="48.7781" lon="2.53144">
        <ele>63</ele>
        <time>2026-05-20T11:41:00Z</time>
      </trkpt>
      <trkpt lat="48.77808" lon="2.53142">
        <ele>63</ele>
        <time>2026-05-20T11:41:05Z</time>
      </trkpt>
      <trkpt lat="48.77808" lon="2.53142">
        <ele>63</ele>
        <time>2026-05-20T11:41:10.001Z</time>
      </trkpt>
      <trkpt lat="48.77805" lon="2.5314">
        <ele>63</ele>
        <time>2026-05-20T11:41:15.001Z</time>
      </trkpt>
      <trkpt lat="48.778" lon="2.53144">
        <ele>63</ele>
        <time>2026-05-20T11:41:20.001Z</time>
      </trkpt>
      <trkpt lat="48.77796" lon="2.53148">
        <ele>63</ele>
        <time>2026-05-20T11:41:25.001Z</time>
      </trkpt>
      <trkpt lat="48.77792" lon="2.5315">
        <ele>63</ele>
        <time>2026-05-20T11:41:30Z</time>
      </trkpt>
      <trkpt lat="48.77786" lon="2.53155">
        <ele>62</ele>
        <time>2026-05-20T11:41:35Z</time>
      </trkpt>
      <trkpt lat="48.77783" lon="2.53157">
        <ele>62</ele>
        <time>2026-05-20T11:41:40Z</time>
      </trkpt>
      <trkpt lat="48.77779" lon="2.53162">
        <ele>62</ele>
        <time>2026-05-20T11:41:45Z</time>
      </trkpt>
      <trkpt lat="48.77776" lon="2.53168">
        <ele>62</ele>
        <time>2026-05-20T11:41:50Z</time>
      </trkpt>
      <trkpt lat="48.77775" lon="2.53174">
        <ele>62</ele>
        <time>2026-05-20T11:41:55Z</time>
      </trkpt>
      <trkpt lat="48.77776" lon="2.53177">
        <ele>62</ele>
        <time>2026-05-20T11:42:00Z</time>
      </trkpt>
      <trkpt lat="48.77776" lon="2.53177">
        <ele>62</ele>
        <time>2026-05-20T11:42:05Z</time>
      </trkpt>
      <trkpt lat="48.77776" lon="2.53186">
        <ele>61</ele>
        <time>2026-05-20T11:42:10Z</time>
      </trkpt>
      <trkpt lat="48.77777" lon="2.53196">
        <ele>61</ele>
        <time>2026-05-20T11:42:15Z</time>
      </trkpt>
      <trkpt lat="48.77778" lon="2.53205">
        <ele>61</ele>
        <time>2026-05-20T11:42:20Z</time>
      </trkpt>
      <trkpt lat="48.77781" lon="2.53213">
        <ele>58</ele>
        <time>2026-05-20T11:42:25Z</time>
      </trkpt>
      <trkpt lat="48.77785" lon="2.53221">
        <ele>58</ele>
        <time>2026-05-20T11:42:30Z</time>
      </trkpt>
      <trkpt lat="48.77789" lon="2.53228">
        <ele>58</ele>
        <time>2026-05-20T11:42:35Z</time>
      </trkpt>
      <trkpt lat="48.77793" lon="2.53236">
        <ele>58</ele>
        <time>2026-05-20T11:42:40Z</time>
      </trkpt>
      <trkpt lat="48.77796" lon="2.53243">
        <ele>58</ele>
        <time>2026-05-20T11:42:45Z</time>
      </trkpt>
      <trkpt lat="48.77798" lon="2.53248">
        <ele>58</ele>
        <time>2026-05-20T11:42:50Z</time>
      </trkpt>
      <trkpt lat="48.77801" lon="2.53257">
        <ele>58</ele>
        <time>2026-05-20T11:42:55Z</time>
      </trkpt>
      <trkpt lat="48.77803" lon="2.53265">
        <ele>55</ele>
        <time>2026-05-20T11:43:00Z</time>
      </trkpt>
      <trkpt lat="48.77806" lon="2.53272">
        <ele>55</ele>
        <time>2026-05-20T11:43:05Z</time>
      </trkpt>
      <trkpt lat="48.77808" lon="2.53281">
        <ele>55</ele>
        <time>2026-05-20T11:43:10Z</time>
      </trkpt>
      <trkpt lat="48.7781" lon="2.5329">
        <ele>55</ele>
        <time>2026-05-20T11:43:15Z</time>
      </trkpt>
      <trkpt lat="48.77813" lon="2.53298">
        <ele>53</ele>
        <time>2026-05-20T11:43:20Z</time>
      </trkpt>
      <trkpt lat="48.77816" lon="2.53303">
        <ele>53</ele>
        <time>2026-05-20T11:43:25.001Z</time>
      </trkpt>
      <trkpt lat="48.77819" lon="2.53306">
        <ele>53</ele>
        <time>2026-05-20T11:43:30.001Z</time>
      </trkpt>
      <trkpt lat="48.77822" lon="2.53312">
        <ele>59</ele>
        <time>2026-05-20T11:43:35.001Z</time>
      </trkpt>
      <trkpt lat="48.77825" lon="2.53318">
        <ele>59</ele>
        <time>2026-05-20T11:43:40Z</time>
      </trkpt>
      <trkpt lat="48.77829" lon="2.53323">
        <ele>57</ele>
        <time>2026-05-20T11:43:45Z</time>
      </trkpt>
      <trkpt lat="48.77832" lon="2.53329">
        <ele>57</ele>
        <time>2026-05-20T11:43:50Z</time>
      </trkpt>
      <trkpt lat="48.77835" lon="2.53335">
        <ele>57</ele>
        <time>2026-05-20T11:43:55Z</time>
      </trkpt>
      <trkpt lat="48.77836" lon="2.53339">
        <ele>57</ele>
        <time>2026-05-20T11:44:00Z</time>
      </trkpt>
      <trkpt lat="48.77838" lon="2.53341">
        <ele>57</ele>
        <time>2026-05-20T11:44:05Z</time>
      </trkpt>
      <trkpt lat="48.77843" lon="2.53344">
        <ele>57</ele>
        <time>2026-05-20T11:44:10Z</time>
      </trkpt>
      <trkpt lat="48.77846" lon="2.53351">
        <ele>56</ele>
        <time>2026-05-20T11:44:15Z</time>
      </trkpt>
      <trkpt lat="48.77848" lon="2.53357">
        <ele>62</ele>
        <time>2026-05-20T11:44:20Z</time>
      </trkpt>
      <trkpt lat="48.77851" lon="2.53363">
        <ele>62</ele>
        <time>2026-05-20T11:44:25Z</time>
      </trkpt>
      <trkpt lat="48.77853" lon="2.53371">
        <ele>62</ele>
        <time>2026-05-20T11:44:30Z</time>
      </trkpt>
      <trkpt lat="48.77859" lon="2.53374">
        <ele>62</ele>
        <time>2026-05-20T11:44:35Z</time>
      </trkpt>
      <trkpt lat="48.77864" lon="2.53379">
        <ele>61</ele>
        <time>2026-05-20T11:44:40Z</time>
      </trkpt>
      <trkpt lat="48.77868" lon="2.53384">
        <ele>61</ele>
        <time>2026-05-20T11:44:45Z</time>
      </trkpt>
      <trkpt lat="48.77872" lon="2.53387">
        <ele>61</ele>
        <time>2026-05-20T11:44:50Z</time>
      </trkpt>
      <trkpt lat="48.77875" lon="2.53392">
        <ele>64</ele>
        <time>2026-05-20T11:44:55Z</time>
      </trkpt>
      <trkpt lat="48.7788" lon="2.53398">
        <ele>64</ele>
        <time>2026-05-20T11:45:00Z</time>
      </trkpt>
      <trkpt lat="48.77884" lon="2.53404">
        <ele>63</ele>
        <time>2026-05-20T11:45:05Z</time>
      </trkpt>
      <trkpt lat="48.77887" lon="2.5341">
        <ele>63</ele>
        <time>2026-05-20T11:45:10Z</time>
      </trkpt>
      <trkpt lat="48.77891" lon="2.53414">
        <ele>63</ele>
        <time>2026-05-20T11:45:15Z</time>
      </trkpt>
      <trkpt lat="48.77894" lon="2.5342">
        <ele>63</ele>
        <time>2026-05-20T11:45:20Z</time>
      </trkpt>
      <trkpt lat="48.77892" lon="2.53429">
        <ele>63</ele>
        <time>2026-05-20T11:45:25Z</time>
      </trkpt>
      <trkpt lat="48.7789" lon="2.53435">
        <ele>61</ele>
        <time>2026-05-20T11:45:30Z</time>
      </trkpt>
      <trkpt lat="48.77889" lon="2.53443">
        <ele>61</ele>
        <time>2026-05-20T11:45:35Z</time>
      </trkpt>
      <trkpt lat="48.77886" lon="2.53451">
        <ele>61</ele>
        <time>2026-05-20T11:45:40Z</time>
      </trkpt>
      <trkpt lat="48.77884" lon="2.53458">
        <ele>61</ele>
        <time>2026-05-20T11:45:44.999Z</time>
      </trkpt>
      <trkpt lat="48.7788" lon="2.53464">
        <ele>60</ele>
        <time>2026-05-20T11:45:49.999Z</time>
      </trkpt>
      <trkpt lat="48.77875" lon="2.53469">
        <ele>60</ele>
        <time>2026-05-20T11:45:54.999Z</time>
      </trkpt>
      <trkpt lat="48.77874" lon="2.53473">
        <ele>56</ele>
        <time>2026-05-20T11:46:09Z</time>
      </trkpt>
      <trkpt lat="48.77874" lon="2.53474">
        <ele>56</ele>
        <time>2026-05-20T11:46:14Z</time>
      </trkpt>
      <trkpt lat="48.77874" lon="2.53479">
        <ele>56</ele>
        <time>2026-05-20T11:46:19Z</time>
      </trkpt>
      <trkpt lat="48.77872" lon="2.53483">
        <ele>56</ele>
        <time>2026-05-20T11:46:23Z</time>
      </trkpt>
      <trkpt lat="48.77872" lon="2.53492">
        <ele>54</ele>
        <time>2026-05-20T11:46:28Z</time>
      </trkpt>
      <trkpt lat="48.77872" lon="2.53499">
        <ele>54</ele>
        <time>2026-05-20T11:46:53Z</time>
      </trkpt>
      <trkpt lat="48.77864" lon="2.53499">
        <ele>54</ele>
        <time>2026-05-20T11:46:58Z</time>
      </trkpt>
      <trkpt lat="48.77862" lon="2.5349">
        <ele>54</ele>
        <time>2026-05-20T11:47:03Z</time>
      </trkpt>
      <trkpt lat="48.77859" lon="2.53479">
        <ele>56</ele>
        <time>2026-05-20T11:47:08Z</time>
      </trkpt>
      <trkpt lat="48.77857" lon="2.53469">
        <ele>56</ele>
        <time>2026-05-20T11:47:13Z</time>
      </trkpt>
      <trkpt lat="48.77853" lon="2.5346">
        <ele>56</ele>
        <time>2026-05-20T11:47:18Z</time>
      </trkpt>
      <trkpt lat="48.77851" lon="2.53451">
        <ele>57</ele>
        <time>2026-05-20T11:47:23Z</time>
      </trkpt>
      <trkpt lat="48.77848" lon="2.53442">
        <ele>57</ele>
        <time>2026-05-20T11:47:28Z</time>
      </trkpt>
      <trkpt lat="48.77842" lon="2.53435">
        <ele>54</ele>
        <time>2026-05-20T11:47:33Z</time>
      </trkpt>
      <trkpt lat="48.77838" lon="2.53432">
        <ele>54</ele>
        <time>2026-05-20T11:47:38Z</time>
      </trkpt>
      <trkpt lat="48.77832" lon="2.53429">
        <ele>55</ele>
        <time>2026-05-20T11:47:43Z</time>
      </trkpt>
      <trkpt lat="48.77825" lon="2.5343">
        <ele>55</ele>
        <time>2026-05-20T11:47:47.999Z</time>
      </trkpt>
      <trkpt lat="48.7782" lon="2.5343">
        <ele>55</ele>
        <time>2026-05-20T11:47:52.999Z</time>
      </trkpt>
      <trkpt lat="48.77814" lon="2.53431">
        <ele>54</ele>
        <time>2026-05-20T11:47:57.999Z</time>
      </trkpt>
      <trkpt lat="48.77807" lon="2.53431">
        <ele>54</ele>
        <time>2026-05-20T11:48:02.999Z</time>
      </trkpt>
      <trkpt lat="48.77801" lon="2.53433">
        <ele>54</ele>
        <time>2026-05-20T11:48:07.999Z</time>
      </trkpt>
      <trkpt lat="48.77797" lon="2.53432">
        <ele>54</ele>
        <time>2026-05-20T11:48:13Z</time>
      </trkpt>
      <trkpt lat="48.7779" lon="2.53434">
        <ele>54</ele>
        <time>2026-05-20T11:48:18Z</time>
      </trkpt>
      <trkpt lat="48.77782" lon="2.53436">
        <ele>54</ele>
        <time>2026-05-20T11:48:23Z</time>
      </trkpt>
      <trkpt lat="48.77775" lon="2.53437">
        <ele>54</ele>
        <time>2026-05-20T11:48:28Z</time>
      </trkpt>
      <trkpt lat="48.77767" lon="2.53438">
        <ele>54</ele>
        <time>2026-05-20T11:48:33Z</time>
      </trkpt>
      <trkpt lat="48.77763" lon="2.53442">
        <ele>55</ele>
        <time>2026-05-20T11:48:38Z</time>
      </trkpt>
      <trkpt lat="48.77756" lon="2.53443">
        <ele>55</ele>
        <time>2026-05-20T11:48:43Z</time>
      </trkpt>
      <trkpt lat="48.77751" lon="2.53444">
        <ele>55</ele>
        <time>2026-05-20T11:48:48Z</time>
      </trkpt>
      <trkpt lat="48.77746" lon="2.53445">
        <ele>55</ele>
        <time>2026-05-20T11:48:53Z</time>
      </trkpt>
      <trkpt lat="48.7774" lon="2.53446">
        <ele>55</ele>
        <time>2026-05-20T11:48:58Z</time>
      </trkpt>
      <trkpt lat="48.77734" lon="2.53446">
        <ele>55</ele>
        <time>2026-05-20T11:49:03Z</time>
      </trkpt>
      <trkpt lat="48.77728" lon="2.53448">
        <ele>55</ele>
        <time>2026-05-20T11:49:08Z</time>
      </trkpt>
      <trkpt lat="48.77723" lon="2.53448">
        <ele>55</ele>
        <time>2026-05-20T11:49:13Z</time>
      </trkpt>
      <trkpt lat="48.77715" lon="2.53449">
        <ele>55</ele>
        <time>2026-05-20T11:49:18Z</time>
      </trkpt>
      <trkpt lat="48.77711" lon="2.53447">
        <ele>55</ele>
        <time>2026-05-20T11:49:23Z</time>
      </trkpt>
      <trkpt lat="48.77704" lon="2.5345">
        <ele>56</ele>
        <time>2026-05-20T11:49:28Z</time>
      </trkpt>
      <trkpt lat="48.77698" lon="2.53453">
        <ele>56</ele>
        <time>2026-05-20T11:49:33Z</time>
      </trkpt>
      <trkpt lat="48.77694" lon="2.53455">
        <ele>56</ele>
        <time>2026-05-20T11:49:38Z</time>
      </trkpt>
      <trkpt lat="48.77688" lon="2.53459">
        <ele>56</ele>
        <time>2026-05-20T11:49:43Z</time>
      </trkpt>
      <trkpt lat="48.77682" lon="2.53459">
        <ele>56</ele>
        <time>2026-05-20T11:49:48Z</time>
      </trkpt>
      <trkpt lat="48.77678" lon="2.5346">
        <ele>58</ele>
        <time>2026-05-20T11:49:53Z</time>
      </trkpt>
      <trkpt lat="48.77676" lon="2.53462">
        <ele>58</ele>
        <time>2026-05-20T11:49:58Z</time>
      </trkpt>
      <trkpt lat="48.77675" lon="2.5347">
        <ele>58</ele>
        <time>2026-05-20T11:50:03Z</time>
      </trkpt>
      <trkpt lat="48.77672" lon="2.53481">
        <ele>58</ele>
        <time>2026-05-20T11:50:08Z</time>
      </trkpt>
      <trkpt lat="48.77673" lon="2.53486">
        <ele>59</ele>
        <time>2026-05-20T11:50:12Z</time>
      </trkpt>
      <trkpt lat="48.77675" lon="2.53494">
        <ele>59</ele>
        <time>2026-05-20T11:50:17Z</time>
      </trkpt>
      <trkpt lat="48.77676" lon="2.53502">
        <ele>59</ele>
        <time>2026-05-20T11:50:22Z</time>
      </trkpt>
      <trkpt lat="48.77676" lon="2.53507">
        <ele>59</ele>
        <time>2026-05-20T11:50:26Z</time>
      </trkpt>
      <trkpt lat="48.77675" lon="2.53512">
        <ele>59</ele>
        <time>2026-05-20T11:50:31Z</time>
      </trkpt>
      <trkpt lat="48.77674" lon="2.53508">
        <ele>59</ele>
        <time>2026-05-20T11:50:46Z</time>
      </trkpt>
      <trkpt lat="48.77675" lon="2.53513">
        <ele>59</ele>
        <time>2026-05-20T11:50:51Z</time>
      </trkpt>
      <trkpt lat="48.77678" lon="2.53512">
        <ele>59</ele>
        <time>2026-05-20T11:50:56Z</time>
      </trkpt>
      <trkpt lat="48.7767" lon="2.53526">
        <ele>60</ele>
        <time>2026-05-20T11:51:01Z</time>
      </trkpt>
      <trkpt lat="48.77669" lon="2.53535">
        <ele>60</ele>
        <time>2026-05-20T11:51:06Z</time>
      </trkpt>
      <trkpt lat="48.77666" lon="2.53542">
        <ele>60</ele>
        <time>2026-05-20T11:51:11Z</time>
      </trkpt>
      <trkpt lat="48.77664" lon="2.53549">
        <ele>60</ele>
        <time>2026-05-20T11:51:16Z</time>
      </trkpt>
      <trkpt lat="48.77657" lon="2.53554">
        <ele>60</ele>
        <time>2026-05-20T11:51:21Z</time>
      </trkpt>
      <trkpt lat="48.7765" lon="2.5356">
        <ele>63</ele>
        <time>2026-05-20T11:51:26Z</time>
      </trkpt>
      <trkpt lat="48.77643" lon="2.53558">
        <ele>63</ele>
        <time>2026-05-20T11:51:31Z</time>
      </trkpt>
      <trkpt lat="48.77638" lon="2.53557">
        <ele>63</ele>
        <time>2026-05-20T11:51:36Z</time>
      </trkpt>
      <trkpt lat="48.77634" lon="2.53558">
        <ele>63</ele>
        <time>2026-05-20T11:51:41Z</time>
      </trkpt>
      <trkpt lat="48.77626" lon="2.53559">
        <ele>63</ele>
        <time>2026-05-20T11:51:46Z</time>
      </trkpt>
      <trkpt lat="48.7762" lon="2.53561">
        <ele>64</ele>
        <time>2026-05-20T11:51:51Z</time>
      </trkpt>
      <trkpt lat="48.77614" lon="2.53564">
        <ele>64</ele>
        <time>2026-05-20T11:51:56Z</time>
      </trkpt>
      <trkpt lat="48.77609" lon="2.53565">
        <ele>64</ele>
        <time>2026-05-20T11:52:01Z</time>
      </trkpt>
      <trkpt lat="48.77602" lon="2.53568">
        <ele>64</ele>
        <time>2026-05-20T11:52:06Z</time>
      </trkpt>
      <trkpt lat="48.77594" lon="2.53574">
        <ele>64</ele>
        <time>2026-05-20T11:52:11Z</time>
      </trkpt>
      <trkpt lat="48.77586" lon="2.53576">
        <ele>64</ele>
        <time>2026-05-20T11:52:16Z</time>
      </trkpt>
      <trkpt lat="48.77581" lon="2.53578">
        <ele>64</ele>
        <time>2026-05-20T11:52:21Z</time>
      </trkpt>
      <trkpt lat="48.7757" lon="2.53579">
        <ele>64</ele>
        <time>2026-05-20T11:52:26Z</time>
      </trkpt>
      <trkpt lat="48.77566" lon="2.53576">
        <ele>64</ele>
        <time>2026-05-20T11:52:31Z</time>
      </trkpt>
      <trkpt lat="48.7756" lon="2.5358">
        <ele>64</ele>
        <time>2026-05-20T11:52:36Z</time>
      </trkpt>
      <trkpt lat="48.77556" lon="2.53581">
        <ele>64</ele>
        <time>2026-05-20T11:52:41Z</time>
      </trkpt>
      <trkpt lat="48.77552" lon="2.53581">
        <ele>64</ele>
        <time>2026-05-20T11:52:46Z</time>
      </trkpt>
      <trkpt lat="48.77548" lon="2.53583">
        <ele>64</ele>
        <time>2026-05-20T11:52:51Z</time>
      </trkpt>
      <trkpt lat="48.77545" lon="2.53586">
        <ele>64</ele>
        <time>2026-05-20T11:52:56Z</time>
      </trkpt>
      <trkpt lat="48.7754" lon="2.5359">
        <ele>64</ele>
        <time>2026-05-20T11:53:01Z</time>
      </trkpt>
      <trkpt lat="48.77536" lon="2.5359">
        <ele>64</ele>
        <time>2026-05-20T11:53:06Z</time>
      </trkpt>
      <trkpt lat="48.7753" lon="2.5359">
        <ele>64</ele>
        <time>2026-05-20T11:53:11Z</time>
      </trkpt>
      <trkpt lat="48.77525" lon="2.53589">
        <ele>64</ele>
        <time>2026-05-20T11:53:16Z</time>
      </trkpt>
      <trkpt lat="48.77519" lon="2.53589">
        <ele>64</ele>
        <time>2026-05-20T11:53:21Z</time>
      </trkpt>
      <trkpt lat="48.77514" lon="2.53591">
        <ele>64</ele>
        <time>2026-05-20T11:53:26Z</time>
      </trkpt>
      <trkpt lat="48.77511" lon="2.53593">
        <ele>65</ele>
        <time>2026-05-20T11:53:31Z</time>
      </trkpt>
      <trkpt lat="48.77507" lon="2.53594">
        <ele>65</ele>
        <time>2026-05-20T11:53:36Z</time>
      </trkpt>
      <trkpt lat="48.77501" lon="2.53599">
        <ele>65</ele>
        <time>2026-05-20T11:53:41Z</time>
      </trkpt>
      <trkpt lat="48.77493" lon="2.53601">
        <ele>65</ele>
        <time>2026-05-20T11:53:46Z</time>
      </trkpt>
      <trkpt lat="48.77489" lon="2.53604">
        <ele>65</ele>
        <time>2026-05-20T11:53:51Z</time>
      </trkpt>
      <trkpt lat="48.77484" lon="2.53609">
        <ele>65</ele>
        <time>2026-05-20T11:53:56Z</time>
      </trkpt>
      <trkpt lat="48.77479" lon="2.5361">
        <ele>65</ele>
        <time>2026-05-20T11:54:01Z</time>
      </trkpt>
      <trkpt lat="48.77473" lon="2.53612">
        <ele>65</ele>
        <time>2026-05-20T11:54:06Z</time>
      </trkpt>
      <trkpt lat="48.77466" lon="2.53612">
        <ele>65</ele>
        <time>2026-05-20T11:54:11Z</time>
      </trkpt>
      <trkpt lat="48.77461" lon="2.53617">
        <ele>65</ele>
        <time>2026-05-20T11:54:16Z</time>
      </trkpt>
      <trkpt lat="48.77455" lon="2.53623">
        <ele>67</ele>
        <time>2026-05-20T11:54:21Z</time>
      </trkpt>
      <trkpt lat="48.77452" lon="2.53626">
        <ele>67</ele>
        <time>2026-05-20T11:54:26Z</time>
      </trkpt>
      <trkpt lat="48.77448" lon="2.5363">
        <ele>67</ele>
        <time>2026-05-20T11:54:31Z</time>
      </trkpt>
      <trkpt lat="48.77443" lon="2.53631">
        <ele>67</ele>
        <time>2026-05-20T11:54:36Z</time>
      </trkpt>
      <trkpt lat="48.77437" lon="2.5363">
        <ele>67</ele>
        <time>2026-05-20T11:54:41Z</time>
      </trkpt>
      <trkpt lat="48.77433" lon="2.53633">
        <ele>67</ele>
        <time>2026-05-20T11:54:45Z</time>
      </trkpt>
      <trkpt lat="48.77429" lon="2.53637">
        <ele>69</ele>
        <time>2026-05-20T11:54:50Z</time>
      </trkpt>
      <trkpt lat="48.77423" lon="2.53639">
        <ele>69</ele>
        <time>2026-05-20T11:54:55Z</time>
      </trkpt>
      <trkpt lat="48.77419" lon="2.53641">
        <ele>69</ele>
        <time>2026-05-20T11:55:00Z</time>
      </trkpt>
      <trkpt lat="48.77414" lon="2.53641">
        <ele>69</ele>
        <time>2026-05-20T11:55:05Z</time>
      </trkpt>
      <trkpt lat="48.77407" lon="2.53642">
        <ele>69</ele>
        <time>2026-05-20T11:55:10Z</time>
      </trkpt>
      <trkpt lat="48.77402" lon="2.53642">
        <ele>69</ele>
        <time>2026-05-20T11:55:15Z</time>
      </trkpt>
      <trkpt lat="48.77398" lon="2.53642">
        <ele>69</ele>
        <time>2026-05-20T11:55:20Z</time>
      </trkpt>
      <trkpt lat="48.77394" lon="2.53644">
        <ele>69</ele>
        <time>2026-05-20T11:55:24Z</time>
      </trkpt>
      <trkpt lat="48.77387" lon="2.53643">
        <ele>69</ele>
        <time>2026-05-20T11:55:29Z</time>
      </trkpt>
      <trkpt lat="48.7738" lon="2.53639">
        <ele>69</ele>
        <time>2026-05-20T11:55:34Z</time>
      </trkpt>
      <trkpt lat="48.77376" lon="2.53637">
        <ele>69</ele>
        <time>2026-05-20T11:55:39Z</time>
      </trkpt>
      <trkpt lat="48.77373" lon="2.53632">
        <ele>70</ele>
        <time>2026-05-20T11:55:44Z</time>
      </trkpt>
      <trkpt lat="48.77368" lon="2.53624">
        <ele>71</ele>
        <time>2026-05-20T11:55:49Z</time>
      </trkpt>
      <trkpt lat="48.77363" lon="2.53624">
        <ele>71</ele>
        <time>2026-05-20T11:55:54Z</time>
      </trkpt>
      <trkpt lat="48.77359" lon="2.53619">
        <ele>71</ele>
        <time>2026-05-20T11:55:59Z</time>
      </trkpt>
      <trkpt lat="48.77355" lon="2.53617">
        <ele>71</ele>
        <time>2026-05-20T11:56:04Z</time>
      </trkpt>
      <trkpt lat="48.77349" lon="2.53619">
        <ele>71</ele>
        <time>2026-05-20T11:56:09Z</time>
      </trkpt>
      <trkpt lat="48.77344" lon="2.53622">
        <ele>72</ele>
        <time>2026-05-20T11:56:14Z</time>
      </trkpt>
      <trkpt lat="48.77339" lon="2.53625">
        <ele>71</ele>
        <time>2026-05-20T11:56:19Z</time>
      </trkpt>
      <trkpt lat="48.77335" lon="2.53627">
        <ele>71</ele>
        <time>2026-05-20T11:56:24Z</time>
      </trkpt>
      <trkpt lat="48.77332" lon="2.5363">
        <ele>71</ele>
        <time>2026-05-20T11:56:29Z</time>
      </trkpt>
      <trkpt lat="48.77327" lon="2.53633">
        <ele>71</ele>
        <time>2026-05-20T11:56:34Z</time>
      </trkpt>
      <trkpt lat="48.77323" lon="2.53637">
        <ele>71</ele>
        <time>2026-05-20T11:56:39Z</time>
      </trkpt>
      <trkpt lat="48.77316" lon="2.5364">
        <ele>72</ele>
        <time>2026-05-20T11:56:44Z</time>
      </trkpt>
      <trkpt lat="48.77312" lon="2.53642">
        <ele>72</ele>
        <time>2026-05-20T11:56:49Z</time>
      </trkpt>
      <trkpt lat="48.77307" lon="2.53647">
        <ele>72</ele>
        <time>2026-05-20T11:56:54Z</time>
      </trkpt>
      <trkpt lat="48.77303" lon="2.53655">
        <ele>72</ele>
        <time>2026-05-20T11:56:59Z</time>
      </trkpt>
      <trkpt lat="48.77299" lon="2.53662">
        <ele>72</ele>
        <time>2026-05-20T11:57:04Z</time>
      </trkpt>
      <trkpt lat="48.77293" lon="2.53664">
        <ele>72</ele>
        <time>2026-05-20T11:57:09Z</time>
      </trkpt>
      <trkpt lat="48.77289" lon="2.53674">
        <ele>72</ele>
        <time>2026-05-20T11:57:14Z</time>
      </trkpt>
      <trkpt lat="48.77287" lon="2.53684">
        <ele>72</ele>
        <time>2026-05-20T11:57:19Z</time>
      </trkpt>
      <trkpt lat="48.77283" lon="2.53689">
        <ele>72</ele>
        <time>2026-05-20T11:57:24Z</time>
      </trkpt>
      <trkpt lat="48.77284" lon="2.53695">
        <ele>72</ele>
        <time>2026-05-20T11:57:29Z</time>
      </trkpt>
      <trkpt lat="48.77281" lon="2.53697">
        <ele>72</ele>
        <time>2026-05-20T11:57:34Z</time>
      </trkpt>
      <trkpt lat="48.77278" lon="2.53705">
        <ele>72</ele>
        <time>2026-05-20T11:57:39Z</time>
      </trkpt>
      <trkpt lat="48.77275" lon="2.53708">
        <ele>72</ele>
        <time>2026-05-20T11:57:44Z</time>
      </trkpt>
      <trkpt lat="48.77268" lon="2.53714">
        <ele>72</ele>
        <time>2026-05-20T11:57:49Z</time>
      </trkpt>
      <trkpt lat="48.77265" lon="2.53722">
        <ele>72</ele>
        <time>2026-05-20T11:57:54Z</time>
      </trkpt>
      <trkpt lat="48.77265" lon="2.53729">
        <ele>72</ele>
        <time>2026-05-20T11:57:59Z</time>
      </trkpt>
      <trkpt lat="48.77263" lon="2.53732">
        <ele>71</ele>
        <time>2026-05-20T11:58:04Z</time>
      </trkpt>
      <trkpt lat="48.77259" lon="2.53737">
        <ele>71</ele>
        <time>2026-05-20T11:58:09Z</time>
      </trkpt>
      <trkpt lat="48.77254" lon="2.53746">
        <ele>71</ele>
        <time>2026-05-20T11:58:14Z</time>
      </trkpt>
      <trkpt lat="48.77251" lon="2.53756">
        <ele>71</ele>
        <time>2026-05-20T11:58:19Z</time>
      </trkpt>
      <trkpt lat="48.77251" lon="2.53762">
        <ele>71</ele>
        <time>2026-05-20T11:58:24Z</time>
      </trkpt>
      <trkpt lat="48.77248" lon="2.53766">
        <ele>70</ele>
        <time>2026-05-20T11:58:29Z</time>
      </trkpt>
      <trkpt lat="48.77243" lon="2.53772">
        <ele>70</ele>
        <time>2026-05-20T11:58:34Z</time>
      </trkpt>
      <trkpt lat="48.7724" lon="2.53779">
        <ele>70</ele>
        <time>2026-05-20T11:58:39Z</time>
      </trkpt>
      <trkpt lat="48.77235" lon="2.53787">
        <ele>70</ele>
        <time>2026-05-20T11:58:44Z</time>
      </trkpt>
      <trkpt lat="48.77233" lon="2.53795">
        <ele>70</ele>
        <time>2026-05-20T11:58:49Z</time>
      </trkpt>
      <trkpt lat="48.7723" lon="2.538">
        <ele>70</ele>
        <time>2026-05-20T11:58:54Z</time>
      </trkpt>
      <trkpt lat="48.77227" lon="2.53805">
        <ele>70</ele>
        <time>2026-05-20T11:58:59Z</time>
      </trkpt>
      <trkpt lat="48.77225" lon="2.53808">
        <ele>70</ele>
        <time>2026-05-20T11:59:04Z</time>
      </trkpt>
      <trkpt lat="48.77223" lon="2.53819">
        <ele>70</ele>
        <time>2026-05-20T11:59:09Z</time>
      </trkpt>
      <trkpt lat="48.7722" lon="2.53825">
        <ele>70</ele>
        <time>2026-05-20T11:59:14Z</time>
      </trkpt>
      <trkpt lat="48.77216" lon="2.53834">
        <ele>70</ele>
        <time>2026-05-20T11:59:19Z</time>
      </trkpt>
      <trkpt lat="48.77214" lon="2.53839">
        <ele>70</ele>
        <time>2026-05-20T11:59:24Z</time>
      </trkpt>
      <trkpt lat="48.7721" lon="2.53845">
        <ele>70</ele>
        <time>2026-05-20T11:59:29Z</time>
      </trkpt>
      <trkpt lat="48.77208" lon="2.53852">
        <ele>72</ele>
        <time>2026-05-20T11:59:34Z</time>
      </trkpt>
      <trkpt lat="48.77203" lon="2.53857">
        <ele>72</ele>
        <time>2026-05-20T11:59:39Z</time>
      </trkpt>
      <trkpt lat="48.77199" lon="2.53867">
        <ele>72</ele>
        <time>2026-05-20T11:59:44Z</time>
      </trkpt>
      <trkpt lat="48.77193" lon="2.53877">
        <ele>72</ele>
        <time>2026-05-20T11:59:49Z</time>
      </trkpt>
      <trkpt lat="48.77192" lon="2.53876">
        <ele>72</ele>
        <time>2026-05-20T11:59:54Z</time>
      </trkpt>
      <trkpt lat="48.77191" lon="2.53877">
        <ele>72</ele>
        <time>2026-05-20T11:59:59Z</time>
      </trkpt>
      <trkpt lat="48.77185" lon="2.53883">
        <ele>72</ele>
        <time>2026-05-20T12:00:04Z</time>
      </trkpt>
      <trkpt lat="48.77181" lon="2.53889">
        <ele>72</ele>
        <time>2026-05-20T12:00:09Z</time>
      </trkpt>
      <trkpt lat="48.77176" lon="2.53893">
        <ele>73</ele>
        <time>2026-05-20T12:00:14Z</time>
      </trkpt>
      <trkpt lat="48.77172" lon="2.53895">
        <ele>73</ele>
        <time>2026-05-20T12:00:19Z</time>
      </trkpt>
      <trkpt lat="48.77168" lon="2.53895">
        <ele>73</ele>
        <time>2026-05-20T12:00:23.999Z</time>
      </trkpt>
      <trkpt lat="48.77164" lon="2.53897">
        <ele>73</ele>
        <time>2026-05-20T12:00:28.999Z</time>
      </trkpt>
      <trkpt lat="48.77156" lon="2.53907">
        <ele>74</ele>
        <time>2026-05-20T12:00:33.999Z</time>
      </trkpt>
      <trkpt lat="48.77152" lon="2.53909">
        <ele>75</ele>
        <time>2026-05-20T12:00:38.999Z</time>
      </trkpt>
      <trkpt lat="48.77147" lon="2.53912">
        <ele>75</ele>
        <time>2026-05-20T12:00:43.999Z</time>
      </trkpt>
      <trkpt lat="48.77141" lon="2.5392">
        <ele>75</ele>
        <time>2026-05-20T12:00:48.999Z</time>
      </trkpt>
      <trkpt lat="48.7714" lon="2.53927">
        <ele>75</ele>
        <time>2026-05-20T12:00:53.999Z</time>
      </trkpt>
      <trkpt lat="48.77134" lon="2.53929">
        <ele>75</ele>
        <time>2026-05-20T12:00:58.999Z</time>
      </trkpt>
      <trkpt lat="48.7713" lon="2.53934">
        <ele>75</ele>
        <time>2026-05-20T12:01:04Z</time>
      </trkpt>
      <trkpt lat="48.77127" lon="2.53941">
        <ele>75</ele>
        <time>2026-05-20T12:01:09Z</time>
      </trkpt>
      <trkpt lat="48.77125" lon="2.53945">
        <ele>77</ele>
        <time>2026-05-20T12:01:14Z</time>
      </trkpt>
      <trkpt lat="48.7712" lon="2.5395">
        <ele>77</ele>
        <time>2026-05-20T12:01:19Z</time>
      </trkpt>
      <trkpt lat="48.77116" lon="2.53955">
        <ele>77</ele>
        <time>2026-05-20T12:01:24Z</time>
      </trkpt>
      <trkpt lat="48.77112" lon="2.53958">
        <ele>77</ele>
        <time>2026-05-20T12:01:29Z</time>
      </trkpt>
      <trkpt lat="48.7711" lon="2.53961">
        <ele>76</ele>
        <time>2026-05-20T12:01:34Z</time>
      </trkpt>
      <trkpt lat="48.77103" lon="2.53969">
        <ele>76</ele>
        <time>2026-05-20T12:01:39Z</time>
      </trkpt>
      <trkpt lat="48.77098" lon="2.53973">
        <ele>76</ele>
        <time>2026-05-20T12:01:44Z</time>
      </trkpt>
      <trkpt lat="48.77095" lon="2.53976">
        <ele>77</ele>
        <time>2026-05-20T12:01:49Z</time>
      </trkpt>
      <trkpt lat="48.77088" lon="2.53981">
        <ele>77</ele>
        <time>2026-05-20T12:01:54Z</time>
      </trkpt>
      <trkpt lat="48.77083" lon="2.53987">
        <ele>78</ele>
        <time>2026-05-20T12:01:59Z</time>
      </trkpt>
      <trkpt lat="48.77081" lon="2.53991">
        <ele>78</ele>
        <time>2026-05-20T12:02:04Z</time>
      </trkpt>
      <trkpt lat="48.77074" lon="2.53998">
        <ele>78</ele>
        <time>2026-05-20T12:02:09Z</time>
      </trkpt>
      <trkpt lat="48.77069" lon="2.54003">
        <ele>81</ele>
        <time>2026-05-20T12:02:14Z</time>
      </trkpt>
      <trkpt lat="48.77067" lon="2.54002">
        <ele>81</ele>
        <time>2026-05-20T12:02:19Z</time>
      </trkpt>
      <trkpt lat="48.77064" lon="2.54005">
        <ele>81</ele>
        <time>2026-05-20T12:02:24Z</time>
      </trkpt>
      <trkpt lat="48.77058" lon="2.54008">
        <ele>81</ele>
        <time>2026-05-20T12:02:29Z</time>
      </trkpt>
      <trkpt lat="48.77054" lon="2.54009">
        <ele>81</ele>
        <time>2026-05-20T12:02:33.999Z</time>
      </trkpt>
      <trkpt lat="48.77047" lon="2.54012">
        <ele>81</ele>
        <time>2026-05-20T12:02:38.999Z</time>
      </trkpt>
      <trkpt lat="48.77042" lon="2.54011">
        <ele>81</ele>
        <time>2026-05-20T12:02:43.999Z</time>
      </trkpt>
      <trkpt lat="48.77036" lon="2.54013">
        <ele>84</ele>
        <time>2026-05-20T12:02:48.999Z</time>
      </trkpt>
      <trkpt lat="48.77032" lon="2.54013">
        <ele>84</ele>
        <time>2026-05-20T12:02:53.999Z</time>
      </trkpt>
      <trkpt lat="48.77028" lon="2.54018">
        <ele>84</ele>
        <time>2026-05-20T12:02:58.999Z</time>
      </trkpt>
      <trkpt lat="48.77023" lon="2.54019">
        <ele>84</ele>
        <time>2026-05-20T12:03:04Z</time>
      </trkpt>
      <trkpt lat="48.77018" lon="2.54021">
        <ele>84</ele>
        <time>2026-05-20T12:03:09Z</time>
      </trkpt>
      <trkpt lat="48.77012" lon="2.54025">
        <ele>84</ele>
        <time>2026-05-20T12:03:14Z</time>
      </trkpt>
      <trkpt lat="48.77007" lon="2.54028">
        <ele>84</ele>
        <time>2026-05-20T12:03:19Z</time>
      </trkpt>
      <trkpt lat="48.77001" lon="2.54029">
        <ele>84</ele>
        <time>2026-05-20T12:03:24Z</time>
      </trkpt>
      <trkpt lat="48.76995" lon="2.54033">
        <ele>84</ele>
        <time>2026-05-20T12:03:29Z</time>
      </trkpt>
      <trkpt lat="48.7699" lon="2.54033">
        <ele>84</ele>
        <time>2026-05-20T12:03:34Z</time>
      </trkpt>
      <trkpt lat="48.76983" lon="2.54033">
        <ele>84</ele>
        <time>2026-05-20T12:03:39Z</time>
      </trkpt>
      <trkpt lat="48.76979" lon="2.54031">
        <ele>84</ele>
        <time>2026-05-20T12:03:44Z</time>
      </trkpt>
      <trkpt lat="48.76973" lon="2.54031">
        <ele>84</ele>
        <time>2026-05-20T12:03:49Z</time>
      </trkpt>
      <trkpt lat="48.76968" lon="2.54029">
        <ele>84</ele>
        <time>2026-05-20T12:03:54Z</time>
      </trkpt>
      <trkpt lat="48.76962" lon="2.54028">
        <ele>84</ele>
        <time>2026-05-20T12:03:59Z</time>
      </trkpt>
      <trkpt lat="48.76955" lon="2.54028">
        <ele>83</ele>
        <time>2026-05-20T12:04:04Z</time>
      </trkpt>
      <trkpt lat="48.76952" lon="2.54026">
        <ele>83</ele>
        <time>2026-05-20T12:04:09Z</time>
      </trkpt>
      <trkpt lat="48.76949" lon="2.54019">
        <ele>83</ele>
        <time>2026-05-20T12:04:14Z</time>
      </trkpt>
      <trkpt lat="48.76945" lon="2.54016">
        <ele>83</ele>
        <time>2026-05-20T12:04:18Z</time>
      </trkpt>
      <trkpt lat="48.76938" lon="2.54015">
        <ele>83</ele>
        <time>2026-05-20T12:04:23Z</time>
      </trkpt>
      <trkpt lat="48.76931" lon="2.54008">
        <ele>83</ele>
        <time>2026-05-20T12:04:28Z</time>
      </trkpt>
      <trkpt lat="48.76927" lon="2.54005">
        <ele>85</ele>
        <time>2026-05-20T12:04:33Z</time>
      </trkpt>
      <trkpt lat="48.76923" lon="2.54">
        <ele>85</ele>
        <time>2026-05-20T12:04:38Z</time>
      </trkpt>
      <trkpt lat="48.76919" lon="2.54">
        <ele>85</ele>
        <time>2026-05-20T12:04:43Z</time>
      </trkpt>
      <trkpt lat="48.76914" lon="2.53998">
        <ele>85</ele>
        <time>2026-05-20T12:04:48Z</time>
      </trkpt>
      <trkpt lat="48.76911" lon="2.53993">
        <ele>85</ele>
        <time>2026-05-20T12:04:53Z</time>
      </trkpt>
      <trkpt lat="48.76905" lon="2.53988">
        <ele>85</ele>
        <time>2026-05-20T12:04:58Z</time>
      </trkpt>
      <trkpt lat="48.769" lon="2.53983">
        <ele>89</ele>
        <time>2026-05-20T12:05:03Z</time>
      </trkpt>
      <trkpt lat="48.76895" lon="2.53982">
        <ele>89</ele>
        <time>2026-05-20T12:05:08Z</time>
      </trkpt>
      <trkpt lat="48.76889" lon="2.53985">
        <ele>89</ele>
        <time>2026-05-20T12:05:13Z</time>
      </trkpt>
      <trkpt lat="48.76882" lon="2.53989">
        <ele>88</ele>
        <time>2026-05-20T12:05:18Z</time>
      </trkpt>
      <trkpt lat="48.76877" lon="2.53985">
        <ele>89</ele>
        <time>2026-05-20T12:05:23Z</time>
      </trkpt>
      <trkpt lat="48.76871" lon="2.5399">
        <ele>91</ele>
        <time>2026-05-20T12:05:28Z</time>
      </trkpt>
      <trkpt lat="48.76871" lon="2.53981">
        <ele>92</ele>
        <time>2026-05-20T12:05:33Z</time>
      </trkpt>
      <trkpt lat="48.76867" lon="2.5398">
        <ele>92</ele>
        <time>2026-05-20T12:05:38Z</time>
      </trkpt>
      <trkpt lat="48.76862" lon="2.53978">
        <ele>92</ele>
        <time>2026-05-20T12:05:43Z</time>
      </trkpt>
      <trkpt lat="48.76854" lon="2.53978">
        <ele>92</ele>
        <time>2026-05-20T12:05:48Z</time>
      </trkpt>
      <trkpt lat="48.76848" lon="2.53979">
        <ele>92</ele>
        <time>2026-05-20T12:05:53Z</time>
      </trkpt>
      <trkpt lat="48.76844" lon="2.5398">
        <ele>91</ele>
        <time>2026-05-20T12:05:58Z</time>
      </trkpt>
      <trkpt lat="48.76838" lon="2.53978">
        <ele>91</ele>
        <time>2026-05-20T12:06:03Z</time>
      </trkpt>
      <trkpt lat="48.76832" lon="2.53977">
        <ele>91</ele>
        <time>2026-05-20T12:06:08Z</time>
      </trkpt>
      <trkpt lat="48.76831" lon="2.5397">
        <ele>91</ele>
        <time>2026-05-20T12:06:13Z</time>
      </trkpt>
      <trkpt lat="48.76829" lon="2.53965">
        <ele>91</ele>
        <time>2026-05-20T12:06:18Z</time>
      </trkpt>
      <trkpt lat="48.76826" lon="2.53961">
        <ele>91</ele>
        <time>2026-05-20T12:06:23Z</time>
      </trkpt>
      <trkpt lat="48.76821" lon="2.53963">
        <ele>91</ele>
        <time>2026-05-20T12:06:28Z</time>
      </trkpt>
      <trkpt lat="48.76817" lon="2.53964">
        <ele>89</ele>
        <time>2026-05-20T12:06:33Z</time>
      </trkpt>
      <trkpt lat="48.76814" lon="2.53963">
        <ele>89</ele>
        <time>2026-05-20T12:06:38.001Z</time>
      </trkpt>
      <trkpt lat="48.76811" lon="2.53961">
        <ele>89</ele>
        <time>2026-05-20T12:06:43Z</time>
      </trkpt>
      <trkpt lat="48.76809" lon="2.53963">
        <ele>89</ele>
        <time>2026-05-20T12:07:32Z</time>
      </trkpt>
      <trkpt lat="48.76804" lon="2.53956">
        <ele>89</ele>
        <time>2026-05-20T12:07:37Z</time>
      </trkpt>
      <trkpt lat="48.76803" lon="2.53951">
        <ele>89</ele>
        <time>2026-05-20T12:07:42Z</time>
      </trkpt>
      <trkpt lat="48.76801" lon="2.53954">
        <ele>89</ele>
        <time>2026-05-20T12:07:47Z</time>
      </trkpt>
      <trkpt lat="48.76794" lon="2.53949">
        <ele>89</ele>
        <time>2026-05-20T12:07:52Z</time>
      </trkpt>
      <trkpt lat="48.76791" lon="2.53947">
        <ele>89</ele>
        <time>2026-05-20T12:07:57Z</time>
      </trkpt>
      <trkpt lat="48.76787" lon="2.53943">
        <ele>89</ele>
        <time>2026-05-20T12:08:02Z</time>
      </trkpt>
      <trkpt lat="48.76785" lon="2.5394">
        <ele>89</ele>
        <time>2026-05-20T12:08:06Z</time>
      </trkpt>
      <trkpt lat="48.76781" lon="2.5394">
        <ele>89</ele>
        <time>2026-05-20T12:08:11Z</time>
      </trkpt>
      <trkpt lat="48.76778" lon="2.53941">
        <ele>89</ele>
        <time>2026-05-20T12:08:16Z</time>
      </trkpt>
      <trkpt lat="48.76773" lon="2.53943">
        <ele>89</ele>
        <time>2026-05-20T12:08:21Z</time>
      </trkpt>
      <trkpt lat="48.76768" lon="2.53943">
        <ele>89</ele>
        <time>2026-05-20T12:08:26Z</time>
      </trkpt>
      <trkpt lat="48.76765" lon="2.53944">
        <ele>89</ele>
        <time>2026-05-20T12:08:31Z</time>
      </trkpt>
      <trkpt lat="48.76761" lon="2.53938">
        <ele>89</ele>
        <time>2026-05-20T12:08:36Z</time>
      </trkpt>
      <trkpt lat="48.76753" lon="2.53939">
        <ele>89</ele>
        <time>2026-05-20T12:08:41Z</time>
      </trkpt>
      <trkpt lat="48.76746" lon="2.5394">
        <ele>89</ele>
        <time>2026-05-20T12:08:46Z</time>
      </trkpt>
      <trkpt lat="48.76741" lon="2.53944">
        <ele>89</ele>
        <time>2026-05-20T12:08:50.999Z</time>
      </trkpt>
      <trkpt lat="48.76734" lon="2.53941">
        <ele>88</ele>
        <time>2026-05-20T12:08:55.999Z</time>
      </trkpt>
      <trkpt lat="48.76727" lon="2.53943">
        <ele>88</ele>
        <time>2026-05-20T12:09:00.999Z</time>
      </trkpt>
      <trkpt lat="48.76721" lon="2.53941">
        <ele>88</ele>
        <time>2026-05-20T12:09:05.999Z</time>
      </trkpt>
      <trkpt lat="48.76716" lon="2.53941">
        <ele>88</ele>
        <time>2026-05-20T12:09:10.999Z</time>
      </trkpt>
      <trkpt lat="48.76711" lon="2.53938">
        <ele>88</ele>
        <time>2026-05-20T12:09:15.999Z</time>
      </trkpt>
      <trkpt lat="48.76707" lon="2.53937">
        <ele>90</ele>
        <time>2026-05-20T12:09:21Z</time>
      </trkpt>
      <trkpt lat="48.76702" lon="2.53937">
        <ele>90</ele>
        <time>2026-05-20T12:09:26Z</time>
      </trkpt>
      <trkpt lat="48.76697" lon="2.53937">
        <ele>90</ele>
        <time>2026-05-20T12:09:31Z</time>
      </trkpt>
      <trkpt lat="48.76689" lon="2.53937">
        <ele>90</ele>
        <time>2026-05-20T12:09:36Z</time>
      </trkpt>
      <trkpt lat="48.7668" lon="2.53938">
        <ele>92</ele>
        <time>2026-05-20T12:09:41Z</time>
      </trkpt>
      <trkpt lat="48.76674" lon="2.5394">
        <ele>92</ele>
        <time>2026-05-20T12:09:46Z</time>
      </trkpt>
      <trkpt lat="48.76667" lon="2.53945">
        <ele>92</ele>
        <time>2026-05-20T12:09:51Z</time>
      </trkpt>
      <trkpt lat="48.7666" lon="2.53945">
        <ele>92</ele>
        <time>2026-05-20T12:09:56Z</time>
      </trkpt>
      <trkpt lat="48.76656" lon="2.53947">
        <ele>92</ele>
        <time>2026-05-20T12:10:01Z</time>
      </trkpt>
      <trkpt lat="48.76652" lon="2.53949">
        <ele>94</ele>
        <time>2026-05-20T12:10:05Z</time>
      </trkpt>
      <trkpt lat="48.76648" lon="2.5395">
        <ele>94</ele>
        <time>2026-05-20T12:10:10Z</time>
      </trkpt>
      <trkpt lat="48.76642" lon="2.53952">
        <ele>94</ele>
        <time>2026-05-20T12:10:15Z</time>
      </trkpt>
      <trkpt lat="48.76638" lon="2.53957">
        <ele>94</ele>
        <time>2026-05-20T12:10:20Z</time>
      </trkpt>
      <trkpt lat="48.76634" lon="2.53963">
        <ele>94</ele>
        <time>2026-05-20T12:10:25Z</time>
      </trkpt>
      <trkpt lat="48.7663" lon="2.53971">
        <ele>94</ele>
        <time>2026-05-20T12:10:30Z</time>
      </trkpt>
      <trkpt lat="48.76625" lon="2.53977">
        <ele>95</ele>
        <time>2026-05-20T12:10:35Z</time>
      </trkpt>
      <trkpt lat="48.76619" lon="2.53982">
        <ele>95</ele>
        <time>2026-05-20T12:10:40Z</time>
      </trkpt>
      <trkpt lat="48.76615" lon="2.53989">
        <ele>95</ele>
        <time>2026-05-20T12:10:45Z</time>
      </trkpt>
      <trkpt lat="48.7661" lon="2.53996">
        <ele>95</ele>
        <time>2026-05-20T12:10:50Z</time>
      </trkpt>
      <trkpt lat="48.76605" lon="2.54001">
        <ele>95</ele>
        <time>2026-05-20T12:10:55Z</time>
      </trkpt>
      <trkpt lat="48.76602" lon="2.54005">
        <ele>95</ele>
        <time>2026-05-20T12:11:00Z</time>
      </trkpt>
      <trkpt lat="48.76599" lon="2.5401">
        <ele>95</ele>
        <time>2026-05-20T12:11:05Z</time>
      </trkpt>
      <trkpt lat="48.76598" lon="2.5401">
        <ele>95</ele>
        <time>2026-05-20T12:11:10Z</time>
      </trkpt>
      <trkpt lat="48.76598" lon="2.54011">
        <ele>95</ele>
        <time>2026-05-20T12:11:15Z</time>
      </trkpt>
      <trkpt lat="48.76599" lon="2.54012">
        <ele>95</ele>
        <time>2026-05-20T12:12:10Z</time>
      </trkpt>
      <trkpt lat="48.76596" lon="2.5402">
        <ele>96</ele>
        <time>2026-05-20T12:12:15Z</time>
      </trkpt>
      <trkpt lat="48.76592" lon="2.54027">
        <ele>96</ele>
        <time>2026-05-20T12:12:20Z</time>
      </trkpt>
      <trkpt lat="48.76589" lon="2.54038">
        <ele>96</ele>
        <time>2026-05-20T12:12:25Z</time>
      </trkpt>
      <trkpt lat="48.76586" lon="2.54044">
        <ele>96</ele>
        <time>2026-05-20T12:12:30Z</time>
      </trkpt>
      <trkpt lat="48.76583" lon="2.5405">
        <ele>96</ele>
        <time>2026-05-20T12:12:35Z</time>
      </trkpt>
      <trkpt lat="48.76581" lon="2.54054">
        <ele>96</ele>
        <time>2026-05-20T12:12:40Z</time>
      </trkpt>
      <trkpt lat="48.76582" lon="2.5406">
        <ele>96</ele>
        <time>2026-05-20T12:12:45Z</time>
      </trkpt>
      <trkpt lat="48.76579" lon="2.54066">
        <ele>96</ele>
        <time>2026-05-20T12:12:50Z</time>
      </trkpt>
      <trkpt lat="48.76576" lon="2.54073">
        <ele>96</ele>
        <time>2026-05-20T12:12:55Z</time>
      </trkpt>
      <trkpt lat="48.76572" lon="2.54081">
        <ele>96</ele>
        <time>2026-05-20T12:13:00Z</time>
      </trkpt>
      <trkpt lat="48.76569" lon="2.5409">
        <ele>99</ele>
        <time>2026-05-20T12:13:05Z</time>
      </trkpt>
      <trkpt lat="48.76567" lon="2.54098">
        <ele>99</ele>
        <time>2026-05-20T12:13:10Z</time>
      </trkpt>
      <trkpt lat="48.76564" lon="2.54104">
        <ele>99</ele>
        <time>2026-05-20T12:13:15Z</time>
      </trkpt>
      <trkpt lat="48.76562" lon="2.54111">
        <ele>99</ele>
        <time>2026-05-20T12:13:20Z</time>
      </trkpt>
      <trkpt lat="48.76559" lon="2.5412">
        <ele>99</ele>
        <time>2026-05-20T12:13:25Z</time>
      </trkpt>
      <trkpt lat="48.76557" lon="2.54128">
        <ele>97</ele>
        <time>2026-05-20T12:13:30Z</time>
      </trkpt>
      <trkpt lat="48.76555" lon="2.54137">
        <ele>97</ele>
        <time>2026-05-20T12:13:35Z</time>
      </trkpt>
      <trkpt lat="48.76552" lon="2.54143">
        <ele>97</ele>
        <time>2026-05-20T12:13:40Z</time>
      </trkpt>
      <trkpt lat="48.76551" lon="2.54151">
        <ele>97</ele>
        <time>2026-05-20T12:13:45Z</time>
      </trkpt>
      <trkpt lat="48.76548" lon="2.5416">
        <ele>97</ele>
        <time>2026-05-20T12:13:50Z</time>
      </trkpt>
      <trkpt lat="48.76544" lon="2.54166">
        <ele>97</ele>
        <time>2026-05-20T12:13:55Z</time>
      </trkpt>
      <trkpt lat="48.76541" lon="2.54174">
        <ele>98</ele>
        <time>2026-05-20T12:14:00Z</time>
      </trkpt>
      <trkpt lat="48.76539" lon="2.54183">
        <ele>98</ele>
        <time>2026-05-20T12:14:05Z</time>
      </trkpt>
      <trkpt lat="48.76537" lon="2.54194">
        <ele>98</ele>
        <time>2026-05-20T12:14:10Z</time>
      </trkpt>
      <trkpt lat="48.76536" lon="2.54201">
        <ele>98</ele>
        <time>2026-05-20T12:14:15Z</time>
      </trkpt>
      <trkpt lat="48.76535" lon="2.54209">
        <ele>98</ele>
        <time>2026-05-20T12:14:20Z</time>
      </trkpt>
      <trkpt lat="48.76534" lon="2.54216">
        <ele>98</ele>
        <time>2026-05-20T12:14:24Z</time>
      </trkpt>
      <trkpt lat="48.76533" lon="2.54226">
        <ele>98</ele>
        <time>2026-05-20T12:14:29Z</time>
      </trkpt>
      <trkpt lat="48.76531" lon="2.54234">
        <ele>98</ele>
        <time>2026-05-20T12:14:34Z</time>
      </trkpt>
      <trkpt lat="48.76529" lon="2.54242">
        <ele>98</ele>
        <time>2026-05-20T12:14:39Z</time>
      </trkpt>
      <trkpt lat="48.76527" lon="2.5425">
        <ele>98</ele>
        <time>2026-05-20T12:14:44Z</time>
      </trkpt>
      <trkpt lat="48.76527" lon="2.54258">
        <ele>98</ele>
        <time>2026-05-20T12:14:49Z</time>
      </trkpt>
      <trkpt lat="48.76527" lon="2.54267">
        <ele>98</ele>
        <time>2026-05-20T12:14:54Z</time>
      </trkpt>
      <trkpt lat="48.76526" lon="2.54277">
        <ele>98</ele>
        <time>2026-05-20T12:14:59Z</time>
      </trkpt>
      <trkpt lat="48.76525" lon="2.54286">
        <ele>98</ele>
        <time>2026-05-20T12:15:04Z</time>
      </trkpt>
      <trkpt lat="48.76523" lon="2.54295">
        <ele>99</ele>
        <time>2026-05-20T12:15:09Z</time>
      </trkpt>
      <trkpt lat="48.76523" lon="2.54304">
        <ele>99</ele>
        <time>2026-05-20T12:15:14Z</time>
      </trkpt>
      <trkpt lat="48.76521" lon="2.54311">
        <ele>99</ele>
        <time>2026-05-20T12:15:19Z</time>
      </trkpt>
      <trkpt lat="48.7652" lon="2.5432">
        <ele>101</ele>
        <time>2026-05-20T12:15:24Z</time>
      </trkpt>
      <trkpt lat="48.7652" lon="2.54328">
        <ele>101</ele>
        <time>2026-05-20T12:15:29Z</time>
      </trkpt>
      <trkpt lat="48.7652" lon="2.54337">
        <ele>101</ele>
        <time>2026-05-20T12:15:34Z</time>
      </trkpt>
      <trkpt lat="48.76518" lon="2.54345">
        <ele>101</ele>
        <time>2026-05-20T12:15:39Z</time>
      </trkpt>
      <trkpt lat="48.76517" lon="2.54354">
        <ele>101</ele>
        <time>2026-05-20T12:15:44Z</time>
      </trkpt>
      <trkpt lat="48.76518" lon="2.54363">
        <ele>101</ele>
        <time>2026-05-20T12:15:49Z</time>
      </trkpt>
      <trkpt lat="48.76519" lon="2.54372">
        <ele>101</ele>
        <time>2026-05-20T12:15:54Z</time>
      </trkpt>
      <trkpt lat="48.76521" lon="2.54382">
        <ele>102</ele>
        <time>2026-05-20T12:15:59Z</time>
      </trkpt>
      <trkpt lat="48.76522" lon="2.54388">
        <ele>102</ele>
        <time>2026-05-20T12:16:04Z</time>
      </trkpt>
      <trkpt lat="48.76522" lon="2.54397">
        <ele>102</ele>
        <time>2026-05-20T12:16:09Z</time>
      </trkpt>
      <trkpt lat="48.76523" lon="2.54404">
        <ele>103</ele>
        <time>2026-05-20T12:16:14Z</time>
      </trkpt>
      <trkpt lat="48.76524" lon="2.54412">
        <ele>103</ele>
        <time>2026-05-20T12:16:19Z</time>
      </trkpt>
      <trkpt lat="48.76525" lon="2.54421">
        <ele>103</ele>
        <time>2026-05-20T12:16:24Z</time>
      </trkpt>
      <trkpt lat="48.76524" lon="2.54432">
        <ele>104</ele>
        <time>2026-05-20T12:16:29Z</time>
      </trkpt>
      <trkpt lat="48.76524" lon="2.5444">
        <ele>104</ele>
        <time>2026-05-20T12:16:34Z</time>
      </trkpt>
      <trkpt lat="48.76523" lon="2.5445">
        <ele>104</ele>
        <time>2026-05-20T12:16:39Z</time>
      </trkpt>
      <trkpt lat="48.76524" lon="2.54459">
        <ele>105</ele>
        <time>2026-05-20T12:16:44Z</time>
      </trkpt>
      <trkpt lat="48.76524" lon="2.54468">
        <ele>105</ele>
        <time>2026-05-20T12:16:49Z</time>
      </trkpt>
      <trkpt lat="48.76525" lon="2.54478">
        <ele>105</ele>
        <time>2026-05-20T12:16:54Z</time>
      </trkpt>
      <trkpt lat="48.76525" lon="2.54486">
        <ele>105</ele>
        <time>2026-05-20T12:16:59Z</time>
      </trkpt>
      <trkpt lat="48.76526" lon="2.54494">
        <ele>107</ele>
        <time>2026-05-20T12:17:04Z</time>
      </trkpt>
      <trkpt lat="48.76527" lon="2.54501">
        <ele>107</ele>
        <time>2026-05-20T12:17:09Z</time>
      </trkpt>
      <trkpt lat="48.76528" lon="2.5451">
        <ele>107</ele>
        <time>2026-05-20T12:17:14Z</time>
      </trkpt>
      <trkpt lat="48.76529" lon="2.54519">
        <ele>107</ele>
        <time>2026-05-20T12:17:19Z</time>
      </trkpt>
      <trkpt lat="48.7653" lon="2.54525">
        <ele>107</ele>
        <time>2026-05-20T12:17:24Z</time>
      </trkpt>
      <trkpt lat="48.76529" lon="2.54533">
        <ele>107</ele>
        <time>2026-05-20T12:17:29Z</time>
      </trkpt>
      <trkpt lat="48.76528" lon="2.54544">
        <ele>106</ele>
        <time>2026-05-20T12:17:34Z</time>
      </trkpt>
      <trkpt lat="48.76528" lon="2.54554">
        <ele>106</ele>
        <time>2026-05-20T12:17:39Z</time>
      </trkpt>
      <trkpt lat="48.76529" lon="2.54558">
        <ele>106</ele>
        <time>2026-05-20T12:17:44Z</time>
      </trkpt>
      <trkpt lat="48.76528" lon="2.5457">
        <ele>105</ele>
        <time>2026-05-20T12:17:49Z</time>
      </trkpt>
      <trkpt lat="48.7653" lon="2.54575">
        <ele>105</ele>
        <time>2026-05-20T12:17:54Z</time>
      </trkpt>
      <trkpt lat="48.76531" lon="2.5459">
        <ele>105</ele>
        <time>2026-05-20T12:17:59Z</time>
      </trkpt>
      <trkpt lat="48.76534" lon="2.54599">
        <ele>104</ele>
        <time>2026-05-20T12:18:04Z</time>
      </trkpt>
      <trkpt lat="48.76536" lon="2.54607">
        <ele>104</ele>
        <time>2026-05-20T12:18:09Z</time>
      </trkpt>
      <trkpt lat="48.76535" lon="2.54613">
        <ele>104</ele>
        <time>2026-05-20T12:18:14Z</time>
      </trkpt>
      <trkpt lat="48.76533" lon="2.54622">
        <ele>104</ele>
        <time>2026-05-20T12:18:19Z</time>
      </trkpt>
      <trkpt lat="48.76534" lon="2.54632">
        <ele>104</ele>
        <time>2026-05-20T12:18:24Z</time>
      </trkpt>
      <trkpt lat="48.76535" lon="2.54641">
        <ele>104</ele>
        <time>2026-05-20T12:18:29Z</time>
      </trkpt>
      <trkpt lat="48.76535" lon="2.54652">
        <ele>104</ele>
        <time>2026-05-20T12:18:34Z</time>
      </trkpt>
      <trkpt lat="48.76538" lon="2.54659">
        <ele>104</ele>
        <time>2026-05-20T12:18:39Z</time>
      </trkpt>
      <trkpt lat="48.76534" lon="2.54667">
        <ele>104</ele>
        <time>2026-05-20T12:18:44Z</time>
      </trkpt>
      <trkpt lat="48.76535" lon="2.54676">
        <ele>104</ele>
        <time>2026-05-20T12:18:49Z</time>
      </trkpt>
      <trkpt lat="48.76538" lon="2.54684">
        <ele>104</ele>
        <time>2026-05-20T12:18:54Z</time>
      </trkpt>
      <trkpt lat="48.76538" lon="2.54692">
        <ele>104</ele>
        <time>2026-05-20T12:18:59Z</time>
      </trkpt>
      <trkpt lat="48.76534" lon="2.54704">
        <ele>104</ele>
        <time>2026-05-20T12:19:04Z</time>
      </trkpt>
      <trkpt lat="48.76533" lon="2.5471">
        <ele>104</ele>
        <time>2026-05-20T12:19:09Z</time>
      </trkpt>
      <trkpt lat="48.76537" lon="2.54723">
        <ele>104</ele>
        <time>2026-05-20T12:19:14Z</time>
      </trkpt>
      <trkpt lat="48.76538" lon="2.54731">
        <ele>104</ele>
        <time>2026-05-20T12:19:19Z</time>
      </trkpt>
      <trkpt lat="48.76541" lon="2.54739">
        <ele>103</ele>
        <time>2026-05-20T12:19:24Z</time>
      </trkpt>
      <trkpt lat="48.76542" lon="2.54745">
        <ele>105</ele>
        <time>2026-05-20T12:19:29Z</time>
      </trkpt>
      <trkpt lat="48.76541" lon="2.54751">
        <ele>103</ele>
        <time>2026-05-20T12:19:34Z</time>
      </trkpt>
      <trkpt lat="48.7654" lon="2.54762">
        <ele>103</ele>
        <time>2026-05-20T12:19:38Z</time>
      </trkpt>
      <trkpt lat="48.76542" lon="2.54771">
        <ele>105</ele>
        <time>2026-05-20T12:19:43Z</time>
      </trkpt>
      <trkpt lat="48.76541" lon="2.54781">
        <ele>103</ele>
        <time>2026-05-20T12:19:48Z</time>
      </trkpt>
      <trkpt lat="48.76542" lon="2.54791">
        <ele>105</ele>
        <time>2026-05-20T12:19:53Z</time>
      </trkpt>
      <trkpt lat="48.76542" lon="2.548">
        <ele>103</ele>
        <time>2026-05-20T12:19:58Z</time>
      </trkpt>
      <trkpt lat="48.76541" lon="2.5481">
        <ele>103</ele>
        <time>2026-05-20T12:20:03Z</time>
      </trkpt>
      <trkpt lat="48.76542" lon="2.54818">
        <ele>105</ele>
        <time>2026-05-20T12:20:08Z</time>
      </trkpt>
      <trkpt lat="48.76545" lon="2.54826">
        <ele>105</ele>
        <time>2026-05-20T12:20:13Z</time>
      </trkpt>
      <trkpt lat="48.76547" lon="2.54837">
        <ele>105</ele>
        <time>2026-05-20T12:20:18Z</time>
      </trkpt>
      <trkpt lat="48.76548" lon="2.54844">
        <ele>105</ele>
        <time>2026-05-20T12:20:23Z</time>
      </trkpt>
      <trkpt lat="48.76552" lon="2.54853">
        <ele>105</ele>
        <time>2026-05-20T12:20:28Z</time>
      </trkpt>
      <trkpt lat="48.76551" lon="2.54861">
        <ele>105</ele>
        <time>2026-05-20T12:20:33Z</time>
      </trkpt>
      <trkpt lat="48.76549" lon="2.54869">
        <ele>105</ele>
        <time>2026-05-20T12:20:38Z</time>
      </trkpt>
      <trkpt lat="48.7655" lon="2.54877">
        <ele>106</ele>
        <time>2026-05-20T12:20:43Z</time>
      </trkpt>
      <trkpt lat="48.76546" lon="2.5489">
        <ele>106</ele>
        <time>2026-05-20T12:20:48Z</time>
      </trkpt>
      <trkpt lat="48.76546" lon="2.54898">
        <ele>106</ele>
        <time>2026-05-20T12:20:53Z</time>
      </trkpt>
      <trkpt lat="48.76546" lon="2.54905">
        <ele>106</ele>
        <time>2026-05-20T12:20:58Z</time>
      </trkpt>
      <trkpt lat="48.76548" lon="2.54912">
        <ele>106</ele>
        <time>2026-05-20T12:21:03Z</time>
      </trkpt>
      <trkpt lat="48.76547" lon="2.54926">
        <ele>106</ele>
        <time>2026-05-20T12:21:08Z</time>
      </trkpt>
      <trkpt lat="48.7655" lon="2.54936">
        <ele>105</ele>
        <time>2026-05-20T12:21:13Z</time>
      </trkpt>
      <trkpt lat="48.76548" lon="2.54943">
        <ele>105</ele>
        <time>2026-05-20T12:21:17Z</time>
      </trkpt>
      <trkpt lat="48.76548" lon="2.54954">
        <ele>105</ele>
        <time>2026-05-20T12:21:22Z</time>
      </trkpt>
      <trkpt lat="48.7655" lon="2.54961">
        <ele>105</ele>
        <time>2026-05-20T12:21:25.999Z</time>
      </trkpt>
      <trkpt lat="48.7655" lon="2.54969">
        <ele>105</ele>
        <time>2026-05-20T12:21:30.999Z</time>
      </trkpt>
      <trkpt lat="48.76552" lon="2.54976">
        <ele>105</ele>
        <time>2026-05-20T12:21:35.999Z</time>
      </trkpt>
      <trkpt lat="48.76548" lon="2.54981">
        <ele>105</ele>
        <time>2026-05-20T12:21:40.999Z</time>
      </trkpt>
      <trkpt lat="48.76543" lon="2.54978">
        <ele>105</ele>
        <time>2026-05-20T12:21:45.999Z</time>
      </trkpt>
      <trkpt lat="48.76539" lon="2.54973">
        <ele>106</ele>
        <time>2026-05-20T12:21:50.999Z</time>
      </trkpt>
      <trkpt lat="48.76532" lon="2.54976">
        <ele>106</ele>
        <time>2026-05-20T12:21:55.999Z</time>
      </trkpt>
      <trkpt lat="48.76526" lon="2.54976">
        <ele>106</ele>
        <time>2026-05-20T12:22:00.999Z</time>
      </trkpt>
      <trkpt lat="48.76521" lon="2.54974">
        <ele>106</ele>
        <time>2026-05-20T12:22:06Z</time>
      </trkpt>
      <trkpt lat="48.76516" lon="2.54975">
        <ele>106</ele>
        <time>2026-05-20T12:22:11Z</time>
      </trkpt>
      <trkpt lat="48.76511" lon="2.54976">
        <ele>107</ele>
        <time>2026-05-20T12:22:16Z</time>
      </trkpt>
      <trkpt lat="48.76506" lon="2.54975">
        <ele>107</ele>
        <time>2026-05-20T12:22:21Z</time>
      </trkpt>
      <trkpt lat="48.76499" lon="2.54972">
        <ele>107</ele>
        <time>2026-05-20T12:22:26Z</time>
      </trkpt>
      <trkpt lat="48.76495" lon="2.54974">
        <ele>107</ele>
        <time>2026-05-20T12:22:31Z</time>
      </trkpt>
      <trkpt lat="48.76489" lon="2.54974">
        <ele>107</ele>
        <time>2026-05-20T12:22:36Z</time>
      </trkpt>
      <trkpt lat="48.76483" lon="2.54976">
        <ele>107</ele>
        <time>2026-05-20T12:22:41Z</time>
      </trkpt>
      <trkpt lat="48.76478" lon="2.54976">
        <ele>107</ele>
        <time>2026-05-20T12:22:46Z</time>
      </trkpt>
      <trkpt lat="48.76472" lon="2.54979">
        <ele>107</ele>
        <time>2026-05-20T12:22:51Z</time>
      </trkpt>
      <trkpt lat="48.76468" lon="2.5498">
        <ele>107</ele>
        <time>2026-05-20T12:22:56Z</time>
      </trkpt>
      <trkpt lat="48.76464" lon="2.54979">
        <ele>107</ele>
        <time>2026-05-20T12:23:01Z</time>
      </trkpt>
      <trkpt lat="48.76458" lon="2.54978">
        <ele>107</ele>
        <time>2026-05-20T12:23:06Z</time>
      </trkpt>
      <trkpt lat="48.76453" lon="2.54976">
        <ele>107</ele>
        <time>2026-05-20T12:23:11Z</time>
      </trkpt>
      <trkpt lat="48.76448" lon="2.54978">
        <ele>107</ele>
        <time>2026-05-20T12:23:16Z</time>
      </trkpt>
      <trkpt lat="48.76443" lon="2.54977">
        <ele>107</ele>
        <time>2026-05-20T12:23:21Z</time>
      </trkpt>
      <trkpt lat="48.76439" lon="2.54978">
        <ele>107</ele>
        <time>2026-05-20T12:23:26Z</time>
      </trkpt>
      <trkpt lat="48.76432" lon="2.54978">
        <ele>107</ele>
        <time>2026-05-20T12:23:31Z</time>
      </trkpt>
      <trkpt lat="48.76428" lon="2.54977">
        <ele>107</ele>
        <time>2026-05-20T12:23:36Z</time>
      </trkpt>
      <trkpt lat="48.76423" lon="2.54975">
        <ele>107</ele>
        <time>2026-05-20T12:23:41Z</time>
      </trkpt>
      <trkpt lat="48.76418" lon="2.54976">
        <ele>107</ele>
        <time>2026-05-20T12:23:46Z</time>
      </trkpt>
      <trkpt lat="48.76413" lon="2.54976">
        <ele>107</ele>
        <time>2026-05-20T12:23:51Z</time>
      </trkpt>
      <trkpt lat="48.7641" lon="2.54977">
        <ele>107</ele>
        <time>2026-05-20T12:23:56Z</time>
      </trkpt>
      <trkpt lat="48.76404" lon="2.54978">
        <ele>107</ele>
        <time>2026-05-20T12:24:01Z</time>
      </trkpt>
      <trkpt lat="48.76398" lon="2.54977">
        <ele>106</ele>
        <time>2026-05-20T12:24:06Z</time>
      </trkpt>
      <trkpt lat="48.76393" lon="2.54976">
        <ele>106</ele>
        <time>2026-05-20T12:24:11Z</time>
      </trkpt>
      <trkpt lat="48.76388" lon="2.54978">
        <ele>106</ele>
        <time>2026-05-20T12:24:16Z</time>
      </trkpt>
      <trkpt lat="48.76382" lon="2.54978">
        <ele>106</ele>
        <time>2026-05-20T12:24:21Z</time>
      </trkpt>
      <trkpt lat="48.76377" lon="2.5498">
        <ele>106</ele>
        <time>2026-05-20T12:24:26Z</time>
      </trkpt>
      <trkpt lat="48.76371" lon="2.5498">
        <ele>105</ele>
        <time>2026-05-20T12:24:31Z</time>
      </trkpt>
      <trkpt lat="48.76365" lon="2.5498">
        <ele>105</ele>
        <time>2026-05-20T12:24:36Z</time>
      </trkpt>
      <trkpt lat="48.76361" lon="2.54978">
        <ele>105</ele>
        <time>2026-05-20T12:24:41Z</time>
      </trkpt>
      <trkpt lat="48.76356" lon="2.54977">
        <ele>105</ele>
        <time>2026-05-20T12:24:45Z</time>
      </trkpt>
      <trkpt lat="48.7635" lon="2.54979">
        <ele>105</ele>
        <time>2026-05-20T12:24:50Z</time>
      </trkpt>
      <trkpt lat="48.76346" lon="2.54978">
        <ele>104</ele>
        <time>2026-05-20T12:24:55Z</time>
      </trkpt>
      <trkpt lat="48.76341" lon="2.54979">
        <ele>104</ele>
        <time>2026-05-20T12:25:00Z</time>
      </trkpt>
      <trkpt lat="48.76335" lon="2.54978">
        <ele>104</ele>
        <time>2026-05-20T12:25:05Z</time>
      </trkpt>
      <trkpt lat="48.7633" lon="2.54977">
        <ele>104</ele>
        <time>2026-05-20T12:25:10Z</time>
      </trkpt>
      <trkpt lat="48.76326" lon="2.54979">
        <ele>104</ele>
        <time>2026-05-20T12:25:15Z</time>
      </trkpt>
      <trkpt lat="48.7632" lon="2.54979">
        <ele>104</ele>
        <time>2026-05-20T12:25:20Z</time>
      </trkpt>
      <trkpt lat="48.76315" lon="2.54983">
        <ele>106</ele>
        <time>2026-05-20T12:25:25Z</time>
      </trkpt>
      <trkpt lat="48.7631" lon="2.54981">
        <ele>106</ele>
        <time>2026-05-20T12:25:30Z</time>
      </trkpt>
      <trkpt lat="48.76304" lon="2.54982">
        <ele>106</ele>
        <time>2026-05-20T12:25:35Z</time>
      </trkpt>
      <trkpt lat="48.76299" lon="2.54981">
        <ele>106</ele>
        <time>2026-05-20T12:25:40Z</time>
      </trkpt>
      <trkpt lat="48.76295" lon="2.54978">
        <ele>106</ele>
        <time>2026-05-20T12:25:45Z</time>
      </trkpt>
      <trkpt lat="48.7629" lon="2.54979">
        <ele>108</ele>
        <time>2026-05-20T12:25:50Z</time>
      </trkpt>
      <trkpt lat="48.76283" lon="2.54978">
        <ele>108</ele>
        <time>2026-05-20T12:25:55Z</time>
      </trkpt>
      <trkpt lat="48.76278" lon="2.54979">
        <ele>108</ele>
        <time>2026-05-20T12:26:00Z</time>
      </trkpt>
      <trkpt lat="48.76274" lon="2.5498">
        <ele>108</ele>
        <time>2026-05-20T12:26:05Z</time>
      </trkpt>
      <trkpt lat="48.76268" lon="2.54981">
        <ele>108</ele>
        <time>2026-05-20T12:26:10Z</time>
      </trkpt>
      <trkpt lat="48.76262" lon="2.54978">
        <ele>107</ele>
        <time>2026-05-20T12:26:15Z</time>
      </trkpt>
      <trkpt lat="48.76257" lon="2.54982">
        <ele>107</ele>
        <time>2026-05-20T12:26:20Z</time>
      </trkpt>
      <trkpt lat="48.76252" lon="2.54982">
        <ele>107</ele>
        <time>2026-05-20T12:26:25Z</time>
      </trkpt>
      <trkpt lat="48.76245" lon="2.54982">
        <ele>107</ele>
        <time>2026-05-20T12:26:30Z</time>
      </trkpt>
      <trkpt lat="48.76239" lon="2.54983">
        <ele>107</ele>
        <time>2026-05-20T12:26:35Z</time>
      </trkpt>
      <trkpt lat="48.76234" lon="2.54984">
        <ele>106</ele>
        <time>2026-05-20T12:26:40Z</time>
      </trkpt>
      <trkpt lat="48.76229" lon="2.54985">
        <ele>106</ele>
        <time>2026-05-20T12:26:45Z</time>
      </trkpt>
      <trkpt lat="48.76224" lon="2.54983">
        <ele>106</ele>
        <time>2026-05-20T12:26:50Z</time>
      </trkpt>
      <trkpt lat="48.76219" lon="2.54984">
        <ele>106</ele>
        <time>2026-05-20T12:26:55Z</time>
      </trkpt>
      <trkpt lat="48.76213" lon="2.54985">
        <ele>106</ele>
        <time>2026-05-20T12:27:00Z</time>
      </trkpt>
      <trkpt lat="48.76208" lon="2.54988">
        <ele>105</ele>
        <time>2026-05-20T12:27:05Z</time>
      </trkpt>
      <trkpt lat="48.76202" lon="2.54989">
        <ele>105</ele>
        <time>2026-05-20T12:27:10Z</time>
      </trkpt>
      <trkpt lat="48.76196" lon="2.5499">
        <ele>105</ele>
        <time>2026-05-20T12:27:15Z</time>
      </trkpt>
      <trkpt lat="48.76192" lon="2.5499">
        <ele>105</ele>
        <time>2026-05-20T12:27:20Z</time>
      </trkpt>
      <trkpt lat="48.76185" lon="2.54991">
        <ele>105</ele>
        <time>2026-05-20T12:27:25Z</time>
      </trkpt>
      <trkpt lat="48.76179" lon="2.54991">
        <ele>103</ele>
        <time>2026-05-20T12:27:30Z</time>
      </trkpt>
      <trkpt lat="48.76173" lon="2.5499">
        <ele>103</ele>
        <time>2026-05-20T12:27:35Z</time>
      </trkpt>
      <trkpt lat="48.76168" lon="2.5499">
        <ele>103</ele>
        <time>2026-05-20T12:27:40Z</time>
      </trkpt>
      <trkpt lat="48.76162" lon="2.54992">
        <ele>103</ele>
        <time>2026-05-20T12:27:45Z</time>
      </trkpt>
      <trkpt lat="48.76156" lon="2.54993">
        <ele>103</ele>
        <time>2026-05-20T12:27:50Z</time>
      </trkpt>
      <trkpt lat="48.76151" lon="2.54991">
        <ele>101</ele>
        <time>2026-05-20T12:27:55Z</time>
      </trkpt>
      <trkpt lat="48.76149" lon="2.54986">
        <ele>103</ele>
        <time>2026-05-20T12:28:00Z</time>
      </trkpt>
      <trkpt lat="48.76146" lon="2.54981">
        <ele>103</ele>
        <time>2026-05-20T12:28:05Z</time>
      </trkpt>
      <trkpt lat="48.76143" lon="2.54972">
        <ele>103</ele>
        <time>2026-05-20T12:28:10Z</time>
      </trkpt>
      <trkpt lat="48.76139" lon="2.54965">
        <ele>103</ele>
        <time>2026-05-20T12:28:15Z</time>
      </trkpt>
      <trkpt lat="48.76137" lon="2.54957">
        <ele>103</ele>
        <time>2026-05-20T12:28:20Z</time>
      </trkpt>
      <trkpt lat="48.76135" lon="2.54951">
        <ele>103</ele>
        <time>2026-05-20T12:28:25Z</time>
      </trkpt>
      <trkpt lat="48.76132" lon="2.54942">
        <ele>103</ele>
        <time>2026-05-20T12:28:30Z</time>
      </trkpt>
      <trkpt lat="48.7613" lon="2.54935">
        <ele>103</ele>
        <time>2026-05-20T12:28:35Z</time>
      </trkpt>
      <trkpt lat="48.76126" lon="2.54927">
        <ele>103</ele>
        <time>2026-05-20T12:28:40Z</time>
      </trkpt>
      <trkpt lat="48.76122" lon="2.54923">
        <ele>100</ele>
        <time>2026-05-20T12:28:45Z</time>
      </trkpt>
      <trkpt lat="48.76125" lon="2.54914">
        <ele>100</ele>
        <time>2026-05-20T12:32:52.999Z</time>
      </trkpt>
      <trkpt lat="48.76125" lon="2.54914">
        <ele>100</ele>
        <time>2026-05-20T12:32:57.999Z</time>
      </trkpt>
      <trkpt lat="48.76125" lon="2.54913">
        <ele>100</ele>
        <time>2026-05-20T12:33:07.999Z</time>
      </trkpt>
      <trkpt lat="48.76128" lon="2.54911">
        <ele>103</ele>
        <time>2026-05-20T12:33:12.999Z</time>
      </trkpt>
      <trkpt lat="48.76128" lon="2.54899">
        <ele>103</ele>
        <time>2026-05-20T12:33:17.999Z</time>
      </trkpt>
      <trkpt lat="48.76127" lon="2.54892">
        <ele>103</ele>
        <time>2026-05-20T12:33:22.999Z</time>
      </trkpt>
      <trkpt lat="48.76125" lon="2.54887">
        <ele>103</ele>
        <time>2026-05-20T12:33:27.999Z</time>
      </trkpt>
      <trkpt lat="48.76122" lon="2.54883">
        <ele>100</ele>
        <time>2026-05-20T12:33:32.999Z</time>
      </trkpt>
      <trkpt lat="48.76124" lon="2.54876">
        <ele>100</ele>
        <time>2026-05-20T12:33:37.999Z</time>
      </trkpt>
      <trkpt lat="48.76112" lon="2.54853">
        <ele>101</ele>
        <time>2026-05-20T12:34:07.999Z</time>
      </trkpt>
      <trkpt lat="48.76109" lon="2.54863">
        <ele>101</ele>
        <time>2026-05-20T12:34:12.999Z</time>
      </trkpt>
      <trkpt lat="48.76105" lon="2.5486">
        <ele>101</ele>
        <time>2026-05-20T12:34:17.999Z</time>
      </trkpt>
      <trkpt lat="48.76102" lon="2.54852">
        <ele>101</ele>
        <time>2026-05-20T12:34:22.999Z</time>
      </trkpt>
      <trkpt lat="48.76099" lon="2.54846">
        <ele>102</ele>
        <time>2026-05-20T12:34:27.999Z</time>
      </trkpt>
      <trkpt lat="48.76096" lon="2.54837">
        <ele>101</ele>
        <time>2026-05-20T12:34:32.999Z</time>
      </trkpt>
      <trkpt lat="48.76094" lon="2.54832">
        <ele>101</ele>
        <time>2026-05-20T12:34:37.999Z</time>
      </trkpt>
      <trkpt lat="48.76092" lon="2.54824">
        <ele>101</ele>
        <time>2026-05-20T12:34:42.999Z</time>
      </trkpt>
      <trkpt lat="48.7609" lon="2.54819">
        <ele>102</ele>
        <time>2026-05-20T12:34:47.999Z</time>
      </trkpt>
      <trkpt lat="48.76086" lon="2.54809">
        <ele>102</ele>
        <time>2026-05-20T12:34:52.999Z</time>
      </trkpt>
      <trkpt lat="48.76083" lon="2.54801">
        <ele>102</ele>
        <time>2026-05-20T12:34:57.999Z</time>
      </trkpt>
      <trkpt lat="48.76078" lon="2.54793">
        <ele>102</ele>
        <time>2026-05-20T12:35:02.999Z</time>
      </trkpt>
      <trkpt lat="48.76077" lon="2.54787">
        <ele>104</ele>
        <time>2026-05-20T12:35:07.999Z</time>
      </trkpt>
      <trkpt lat="48.76073" lon="2.54778">
        <ele>104</ele>
        <time>2026-05-20T12:35:12.999Z</time>
      </trkpt>
      <trkpt lat="48.76071" lon="2.54772">
        <ele>104</ele>
        <time>2026-05-20T12:35:17.999Z</time>
      </trkpt>
      <trkpt lat="48.76067" lon="2.54765">
        <ele>102</ele>
        <time>2026-05-20T12:35:22.999Z</time>
      </trkpt>
      <trkpt lat="48.76063" lon="2.54757">
        <ele>102</ele>
        <time>2026-05-20T12:35:27.999Z</time>
      </trkpt>
      <trkpt lat="48.7606" lon="2.5475">
        <ele>102</ele>
        <time>2026-05-20T12:35:32.999Z</time>
      </trkpt>
      <trkpt lat="48.76061" lon="2.54746">
        <ele>102</ele>
        <time>2026-05-20T12:35:37.999Z</time>
      </trkpt>
      <trkpt lat="48.76059" lon="2.54741">
        <ele>102</ele>
        <time>2026-05-20T12:35:42.999Z</time>
      </trkpt>
      <trkpt lat="48.76055" lon="2.54732">
        <ele>102</ele>
        <time>2026-05-20T12:35:47.999Z</time>
      </trkpt>
      <trkpt lat="48.76051" lon="2.54725">
        <ele>102</ele>
        <time>2026-05-20T12:35:52.999Z</time>
      </trkpt>
      <trkpt lat="48.76049" lon="2.54718">
        <ele>102</ele>
        <time>2026-05-20T12:35:57.999Z</time>
      </trkpt>
      <trkpt lat="48.76046" lon="2.54713">
        <ele>102</ele>
        <time>2026-05-20T12:36:02.999Z</time>
      </trkpt>
      <trkpt lat="48.76044" lon="2.54706">
        <ele>102</ele>
        <time>2026-05-20T12:36:07.999Z</time>
      </trkpt>
      <trkpt lat="48.7604" lon="2.54699">
        <ele>100</ele>
        <time>2026-05-20T12:36:12.999Z</time>
      </trkpt>
      <trkpt lat="48.76039" lon="2.54692">
        <ele>100</ele>
        <time>2026-05-20T12:36:17.999Z</time>
      </trkpt>
      <trkpt lat="48.76036" lon="2.54686">
        <ele>100</ele>
        <time>2026-05-20T12:36:22.999Z</time>
      </trkpt>
      <trkpt lat="48.76033" lon="2.54679">
        <ele>101</ele>
        <time>2026-05-20T12:36:27.999Z</time>
      </trkpt>
      <trkpt lat="48.7603" lon="2.5467">
        <ele>101</ele>
        <time>2026-05-20T12:36:32.999Z</time>
      </trkpt>
      <trkpt lat="48.76027" lon="2.54662">
        <ele>101</ele>
        <time>2026-05-20T12:36:37.999Z</time>
      </trkpt>
      <trkpt lat="48.76023" lon="2.54654">
        <ele>101</ele>
        <time>2026-05-20T12:36:42.999Z</time>
      </trkpt>
      <trkpt lat="48.76022" lon="2.54649">
        <ele>102</ele>
        <time>2026-05-20T12:36:47.999Z</time>
      </trkpt>
      <trkpt lat="48.76018" lon="2.54641">
        <ele>102</ele>
        <time>2026-05-20T12:36:52.999Z</time>
      </trkpt>
      <trkpt lat="48.76016" lon="2.54634">
        <ele>102</ele>
        <time>2026-05-20T12:36:57.999Z</time>
      </trkpt>
      <trkpt lat="48.76012" lon="2.54626">
        <ele>100</ele>
        <time>2026-05-20T12:37:02.999Z</time>
      </trkpt>
      <trkpt lat="48.7601" lon="2.54619">
        <ele>101</ele>
        <time>2026-05-20T12:37:07.999Z</time>
      </trkpt>
      <trkpt lat="48.76006" lon="2.54613">
        <ele>101</ele>
        <time>2026-05-20T12:37:12.999Z</time>
      </trkpt>
      <trkpt lat="48.76002" lon="2.54607">
        <ele>101</ele>
        <time>2026-05-20T12:37:17.999Z</time>
      </trkpt>
      <trkpt lat="48.75999" lon="2.54599">
        <ele>101</ele>
        <time>2026-05-20T12:37:22.999Z</time>
      </trkpt>
      <trkpt lat="48.75997" lon="2.54592">
        <ele>102</ele>
        <time>2026-05-20T12:37:27.999Z</time>
      </trkpt>
      <trkpt lat="48.75994" lon="2.54584">
        <ele>102</ele>
        <time>2026-05-20T12:37:32.999Z</time>
      </trkpt>
      <trkpt lat="48.75992" lon="2.54577">
        <ele>102</ele>
        <time>2026-05-20T12:37:37.999Z</time>
      </trkpt>
      <trkpt lat="48.7599" lon="2.54569">
        <ele>104</ele>
        <time>2026-05-20T12:37:42.999Z</time>
      </trkpt>
      <trkpt lat="48.75987" lon="2.5456">
        <ele>104</ele>
        <time>2026-05-20T12:37:47.999Z</time>
      </trkpt>
      <trkpt lat="48.75984" lon="2.54553">
        <ele>103</ele>
        <time>2026-05-20T12:37:52.999Z</time>
      </trkpt>
      <trkpt lat="48.7598" lon="2.54546">
        <ele>103</ele>
        <time>2026-05-20T12:37:57.999Z</time>
      </trkpt>
      <trkpt lat="48.75978" lon="2.54538">
        <ele>105</ele>
        <time>2026-05-20T12:38:02.999Z</time>
      </trkpt>
      <trkpt lat="48.75973" lon="2.54528">
        <ele>105</ele>
        <time>2026-05-20T12:38:07.999Z</time>
      </trkpt>
      <trkpt lat="48.7597" lon="2.54521">
        <ele>105</ele>
        <time>2026-05-20T12:38:12.999Z</time>
      </trkpt>
      <trkpt lat="48.75969" lon="2.54515">
        <ele>105</ele>
        <time>2026-05-20T12:38:17.999Z</time>
      </trkpt>
      <trkpt lat="48.75968" lon="2.54507">
        <ele>105</ele>
        <time>2026-05-20T12:38:22.999Z</time>
      </trkpt>
      <trkpt lat="48.7597" lon="2.54499">
        <ele>105</ele>
        <time>2026-05-20T12:38:27.999Z</time>
      </trkpt>
      <trkpt lat="48.75971" lon="2.54498">
        <ele>105</ele>
        <time>2026-05-20T12:38:32.999Z</time>
      </trkpt>
      <trkpt lat="48.75973" lon="2.54496">
        <ele>105</ele>
        <time>2026-05-20T12:38:37.999Z</time>
      </trkpt>
      <trkpt lat="48.75977" lon="2.5449">
        <ele>105</ele>
        <time>2026-05-20T12:38:42.999Z</time>
      </trkpt>
      <trkpt lat="48.75979" lon="2.54486">
        <ele>106</ele>
        <time>2026-05-20T12:38:47.999Z</time>
      </trkpt>
      <trkpt lat="48.75982" lon="2.5448">
        <ele>106</ele>
        <time>2026-05-20T12:38:52.999Z</time>
      </trkpt>
      <trkpt lat="48.75985" lon="2.54476">
        <ele>106</ele>
        <time>2026-05-20T12:38:57.999Z</time>
      </trkpt>
      <trkpt lat="48.7599" lon="2.54475">
        <ele>107</ele>
        <time>2026-05-20T12:39:02.999Z</time>
      </trkpt>
      <trkpt lat="48.75991" lon="2.54474">
        <ele>107</ele>
        <time>2026-05-20T12:39:07.999Z</time>
      </trkpt>
      <trkpt lat="48.75992" lon="2.54475">
        <ele>107</ele>
        <time>2026-05-20T12:39:12.999Z</time>
      </trkpt>
      <trkpt lat="48.75998" lon="2.54473">
        <ele>107</ele>
        <time>2026-05-20T12:39:17.999Z</time>
      </trkpt>
      <trkpt lat="48.76005" lon="2.54473">
        <ele>107</ele>
        <time>2026-05-20T12:39:22.999Z</time>
      </trkpt>
      <trkpt lat="48.76009" lon="2.54474">
        <ele>107</ele>
        <time>2026-05-20T12:39:27.999Z</time>
      </trkpt>
      <trkpt lat="48.76013" lon="2.54467">
        <ele>107</ele>
        <time>2026-05-20T12:39:31.999Z</time>
      </trkpt>
      <trkpt lat="48.76015" lon="2.54459">
        <ele>109</ele>
        <time>2026-05-20T12:39:36.999Z</time>
      </trkpt>
      <trkpt lat="48.76014" lon="2.54452">
        <ele>108</ele>
        <time>2026-05-20T12:39:41.999Z</time>
      </trkpt>
      <trkpt lat="48.76013" lon="2.54443">
        <ele>107</ele>
        <time>2026-05-20T12:39:46.999Z</time>
      </trkpt>
      <trkpt lat="48.76013" lon="2.54429">
        <ele>106</ele>
        <time>2026-05-20T12:39:51.999Z</time>
      </trkpt>
      <trkpt lat="48.76013" lon="2.54419">
        <ele>106</ele>
        <time>2026-05-20T12:39:56.999Z</time>
      </trkpt>
      <trkpt lat="48.76015" lon="2.54414">
        <ele>107</ele>
        <time>2026-05-20T12:40:01.999Z</time>
      </trkpt>
      <trkpt lat="48.76018" lon="2.54412">
        <ele>107</ele>
        <time>2026-05-20T12:40:05.999Z</time>
      </trkpt>
      <trkpt lat="48.76023" lon="2.54413">
        <ele>107</ele>
        <time>2026-05-20T12:40:10.999Z</time>
      </trkpt>
      <trkpt lat="48.76028" lon="2.54413">
        <ele>107</ele>
        <time>2026-05-20T12:40:15.999Z</time>
      </trkpt>
      <trkpt lat="48.76034" lon="2.54415">
        <ele>107</ele>
        <time>2026-05-20T12:40:20.999Z</time>
      </trkpt>
      <trkpt lat="48.7604" lon="2.54422">
        <ele>107</ele>
        <time>2026-05-20T12:40:25.999Z</time>
      </trkpt>
      <trkpt lat="48.76045" lon="2.54426">
        <ele>109</ele>
        <time>2026-05-20T12:40:30.999Z</time>
      </trkpt>
      <trkpt lat="48.76051" lon="2.54437">
        <ele>110</ele>
        <time>2026-05-20T12:40:35.999Z</time>
      </trkpt>
      <trkpt lat="48.76058" lon="2.54444">
        <ele>110</ele>
        <time>2026-05-20T12:40:40.999Z</time>
      </trkpt>
      <trkpt lat="48.76063" lon="2.54445">
        <ele>110</ele>
        <time>2026-05-20T12:40:45.999Z</time>
      </trkpt>
      <trkpt lat="48.76071" lon="2.54447">
        <ele>109</ele>
        <time>2026-05-20T12:40:50.999Z</time>
      </trkpt>
      <trkpt lat="48.76076" lon="2.54449">
        <ele>109</ele>
        <time>2026-05-20T12:40:55.999Z</time>
      </trkpt>
      <trkpt lat="48.76079" lon="2.54453">
        <ele>109</ele>
        <time>2026-05-20T12:41:00.999Z</time>
      </trkpt>
      <trkpt lat="48.76083" lon="2.54454">
        <ele>109</ele>
        <time>2026-05-20T12:41:05.999Z</time>
      </trkpt>
      <trkpt lat="48.76092" lon="2.54452">
        <ele>109</ele>
        <time>2026-05-20T12:41:10.999Z</time>
      </trkpt>
      <trkpt lat="48.761" lon="2.5445">
        <ele>108</ele>
        <time>2026-05-20T12:41:15.999Z</time>
      </trkpt>
      <trkpt lat="48.76104" lon="2.54446">
        <ele>108</ele>
        <time>2026-05-20T12:41:20.999Z</time>
      </trkpt>
      <trkpt lat="48.76109" lon="2.54447">
        <ele>108</ele>
        <time>2026-05-20T12:41:25.999Z</time>
      </trkpt>
      <trkpt lat="48.76116" lon="2.54449">
        <ele>108</ele>
        <time>2026-05-20T12:41:30.999Z</time>
      </trkpt>
      <trkpt lat="48.76122" lon="2.54446">
        <ele>108</ele>
        <time>2026-05-20T12:41:35.999Z</time>
      </trkpt>
      <trkpt lat="48.76128" lon="2.54444">
        <ele>106</ele>
        <time>2026-05-20T12:41:40.999Z</time>
      </trkpt>
      <trkpt lat="48.76134" lon="2.54437">
        <ele>106</ele>
        <time>2026-05-20T12:41:45.999Z</time>
      </trkpt>
      <trkpt lat="48.76136" lon="2.54426">
        <ele>106</ele>
        <time>2026-05-20T12:41:50.999Z</time>
      </trkpt>
      <trkpt lat="48.76136" lon="2.54416">
        <ele>106</ele>
        <time>2026-05-20T12:41:55.999Z</time>
      </trkpt>
      <trkpt lat="48.76137" lon="2.54404">
        <ele>106</ele>
        <time>2026-05-20T12:42:00.999Z</time>
      </trkpt>
      <trkpt lat="48.76137" lon="2.54395">
        <ele>106</ele>
        <time>2026-05-20T12:42:05.999Z</time>
      </trkpt>
      <trkpt lat="48.76139" lon="2.54384">
        <ele>106</ele>
        <time>2026-05-20T12:42:10.999Z</time>
      </trkpt>
      <trkpt lat="48.7614" lon="2.54378">
        <ele>106</ele>
        <time>2026-05-20T12:42:15.999Z</time>
      </trkpt>
      <trkpt lat="48.76143" lon="2.54369">
        <ele>105</ele>
        <time>2026-05-20T12:42:20.999Z</time>
      </trkpt>
      <trkpt lat="48.76146" lon="2.54364">
        <ele>105</ele>
        <time>2026-05-20T12:42:25.999Z</time>
      </trkpt>
      <trkpt lat="48.76146" lon="2.54356">
        <ele>105</ele>
        <time>2026-05-20T12:42:30.999Z</time>
      </trkpt>
      <trkpt lat="48.76147" lon="2.54342">
        <ele>105</ele>
        <time>2026-05-20T12:42:35.999Z</time>
      </trkpt>
      <trkpt lat="48.76148" lon="2.54338">
        <ele>105</ele>
        <time>2026-05-20T12:42:39.999Z</time>
      </trkpt>
      <trkpt lat="48.76148" lon="2.5433">
        <ele>105</ele>
        <time>2026-05-20T12:42:44.999Z</time>
      </trkpt>
      <trkpt lat="48.76149" lon="2.54321">
        <ele>105</ele>
        <time>2026-05-20T12:42:49.999Z</time>
      </trkpt>
      <trkpt lat="48.7615" lon="2.54311">
        <ele>105</ele>
        <time>2026-05-20T12:42:54.999Z</time>
      </trkpt>
      <trkpt lat="48.76152" lon="2.54303">
        <ele>105</ele>
        <time>2026-05-20T12:42:59.999Z</time>
      </trkpt>
      <trkpt lat="48.76154" lon="2.54297">
        <ele>104</ele>
        <time>2026-05-20T12:43:04.999Z</time>
      </trkpt>
      <trkpt lat="48.76161" lon="2.54293">
        <ele>104</ele>
        <time>2026-05-20T12:43:09.999Z</time>
      </trkpt>
      <trkpt lat="48.76165" lon="2.54286">
        <ele>103</ele>
        <time>2026-05-20T12:43:14.999Z</time>
      </trkpt>
      <trkpt lat="48.76166" lon="2.54276">
        <ele>103</ele>
        <time>2026-05-20T12:43:19.999Z</time>
      </trkpt>
      <trkpt lat="48.76169" lon="2.54269">
        <ele>103</ele>
        <time>2026-05-20T12:43:24.999Z</time>
      </trkpt>
      <trkpt lat="48.76171" lon="2.54262">
        <ele>101</ele>
        <time>2026-05-20T12:43:29.999Z</time>
      </trkpt>
      <trkpt lat="48.76177" lon="2.54255">
        <ele>101</ele>
        <time>2026-05-20T12:43:34.999Z</time>
      </trkpt>
      <trkpt lat="48.76179" lon="2.54248">
        <ele>101</ele>
        <time>2026-05-20T12:43:39.999Z</time>
      </trkpt>
      <trkpt lat="48.7618" lon="2.54238">
        <ele>101</ele>
        <time>2026-05-20T12:43:44.999Z</time>
      </trkpt>
      <trkpt lat="48.7618" lon="2.54227">
        <ele>99</ele>
        <time>2026-05-20T12:43:49.999Z</time>
      </trkpt>
      <trkpt lat="48.7618" lon="2.54218">
        <ele>99</ele>
        <time>2026-05-20T12:43:54.999Z</time>
      </trkpt>
      <trkpt lat="48.76181" lon="2.54211">
        <ele>99</ele>
        <time>2026-05-20T12:43:59.999Z</time>
      </trkpt>
      <trkpt lat="48.76183" lon="2.54201">
        <ele>99</ele>
        <time>2026-05-20T12:44:04.999Z</time>
      </trkpt>
      <trkpt lat="48.76183" lon="2.54193">
        <ele>99</ele>
        <time>2026-05-20T12:44:09.999Z</time>
      </trkpt>
      <trkpt lat="48.76183" lon="2.54183">
        <ele>99</ele>
        <time>2026-05-20T12:44:14.999Z</time>
      </trkpt>
      <trkpt lat="48.76183" lon="2.54175">
        <ele>99</ele>
        <time>2026-05-20T12:44:19.999Z</time>
      </trkpt>
      <trkpt lat="48.76184" lon="2.54167">
        <ele>99</ele>
        <time>2026-05-20T12:44:24.999Z</time>
      </trkpt>
      <trkpt lat="48.76186" lon="2.54159">
        <ele>99</ele>
        <time>2026-05-20T12:44:29.999Z</time>
      </trkpt>
      <trkpt lat="48.76186" lon="2.54148">
        <ele>100</ele>
        <time>2026-05-20T12:44:34.999Z</time>
      </trkpt>
      <trkpt lat="48.76187" lon="2.54138">
        <ele>100</ele>
        <time>2026-05-20T12:44:39.999Z</time>
      </trkpt>
      <trkpt lat="48.76189" lon="2.54131">
        <ele>100</ele>
        <time>2026-05-20T12:44:44.999Z</time>
      </trkpt>
      <trkpt lat="48.76191" lon="2.54121">
        <ele>100</ele>
        <time>2026-05-20T12:44:49.999Z</time>
      </trkpt>
      <trkpt lat="48.76193" lon="2.54112">
        <ele>100</ele>
        <time>2026-05-20T12:44:54.999Z</time>
      </trkpt>
      <trkpt lat="48.76195" lon="2.54105">
        <ele>100</ele>
        <time>2026-05-20T12:44:59.999Z</time>
      </trkpt>
      <trkpt lat="48.76195" lon="2.54097">
        <ele>100</ele>
        <time>2026-05-20T12:45:04.999Z</time>
      </trkpt>
      <trkpt lat="48.76198" lon="2.54089">
        <ele>100</ele>
        <time>2026-05-20T12:45:09.999Z</time>
      </trkpt>
      <trkpt lat="48.76201" lon="2.5408">
        <ele>100</ele>
        <time>2026-05-20T12:45:14.999Z</time>
      </trkpt>
      <trkpt lat="48.76201" lon="2.5407">
        <ele>100</ele>
        <time>2026-05-20T12:45:19.999Z</time>
      </trkpt>
      <trkpt lat="48.76201" lon="2.5406">
        <ele>101</ele>
        <time>2026-05-20T12:45:24.999Z</time>
      </trkpt>
      <trkpt lat="48.76201" lon="2.54051">
        <ele>101</ele>
        <time>2026-05-20T12:45:29.999Z</time>
      </trkpt>
      <trkpt lat="48.76202" lon="2.54044">
        <ele>101</ele>
        <time>2026-05-20T12:45:34.999Z</time>
      </trkpt>
      <trkpt lat="48.76201" lon="2.54034">
        <ele>101</ele>
        <time>2026-05-20T12:45:39.999Z</time>
      </trkpt>
      <trkpt lat="48.762" lon="2.54027">
        <ele>101</ele>
        <time>2026-05-20T12:45:44.999Z</time>
      </trkpt>
      <trkpt lat="48.76196" lon="2.5402">
        <ele>101</ele>
        <time>2026-05-20T12:45:49.999Z</time>
      </trkpt>
      <trkpt lat="48.76193" lon="2.54014">
        <ele>101</ele>
        <time>2026-05-20T12:45:54.999Z</time>
      </trkpt>
      <trkpt lat="48.76189" lon="2.54007">
        <ele>101</ele>
        <time>2026-05-20T12:45:59.999Z</time>
      </trkpt>
      <trkpt lat="48.76186" lon="2.54003">
        <ele>101</ele>
        <time>2026-05-20T12:46:03.999Z</time>
      </trkpt>
      <trkpt lat="48.76182" lon="2.53998">
        <ele>101</ele>
        <time>2026-05-20T12:46:08.999Z</time>
      </trkpt>
      <trkpt lat="48.76179" lon="2.53991">
        <ele>99</ele>
        <time>2026-05-20T12:46:13.999Z</time>
      </trkpt>
      <trkpt lat="48.76175" lon="2.53985">
        <ele>100</ele>
        <time>2026-05-20T12:46:18.999Z</time>
      </trkpt>
      <trkpt lat="48.76172" lon="2.53976">
        <ele>100</ele>
        <time>2026-05-20T12:46:23.999Z</time>
      </trkpt>
      <trkpt lat="48.76166" lon="2.53973">
        <ele>100</ele>
        <time>2026-05-20T12:46:28.999Z</time>
      </trkpt>
      <trkpt lat="48.76161" lon="2.53978">
        <ele>100</ele>
        <time>2026-05-20T12:46:33.999Z</time>
      </trkpt>
      <trkpt lat="48.76157" lon="2.53984">
        <ele>100</ele>
        <time>2026-05-20T12:46:39Z</time>
      </trkpt>
      <trkpt lat="48.76153" lon="2.53988">
        <ele>97</ele>
        <time>2026-05-20T12:46:44Z</time>
      </trkpt>
      <trkpt lat="48.76147" lon="2.53988">
        <ele>97</ele>
        <time>2026-05-20T12:46:49Z</time>
      </trkpt>
      <trkpt lat="48.76144" lon="2.53981">
        <ele>99</ele>
        <time>2026-05-20T12:46:54Z</time>
      </trkpt>
      <trkpt lat="48.76139" lon="2.53976">
        <ele>99</ele>
        <time>2026-05-20T12:46:59Z</time>
      </trkpt>
      <trkpt lat="48.76134" lon="2.53972">
        <ele>99</ele>
        <time>2026-05-20T12:47:04Z</time>
      </trkpt>
      <trkpt lat="48.76129" lon="2.53969">
        <ele>99</ele>
        <time>2026-05-20T12:47:09Z</time>
      </trkpt>
      <trkpt lat="48.76124" lon="2.53968">
        <ele>99</ele>
        <time>2026-05-20T12:47:13Z</time>
      </trkpt>
      <trkpt lat="48.76118" lon="2.53968">
        <ele>99</ele>
        <time>2026-05-20T12:47:18Z</time>
      </trkpt>
      <trkpt lat="48.76112" lon="2.53968">
        <ele>99</ele>
        <time>2026-05-20T12:47:23Z</time>
      </trkpt>
      <trkpt lat="48.76106" lon="2.53968">
        <ele>99</ele>
        <time>2026-05-20T12:47:28Z</time>
      </trkpt>
      <trkpt lat="48.76101" lon="2.53966">
        <ele>99</ele>
        <time>2026-05-20T12:47:32.999Z</time>
      </trkpt>
      <trkpt lat="48.76094" lon="2.53968">
        <ele>99</ele>
        <time>2026-05-20T12:47:37.999Z</time>
      </trkpt>
      <trkpt lat="48.76089" lon="2.5397">
        <ele>99</ele>
        <time>2026-05-20T12:47:42.999Z</time>
      </trkpt>
      <trkpt lat="48.76084" lon="2.53973">
        <ele>99</ele>
        <time>2026-05-20T12:47:47.999Z</time>
      </trkpt>
      <trkpt lat="48.76078" lon="2.53977">
        <ele>99</ele>
        <time>2026-05-20T12:47:52.999Z</time>
      </trkpt>
      <trkpt lat="48.76072" lon="2.53981">
        <ele>99</ele>
        <time>2026-05-20T12:47:57.999Z</time>
      </trkpt>
      <trkpt lat="48.76069" lon="2.53988">
        <ele>100</ele>
        <time>2026-05-20T12:48:02.999Z</time>
      </trkpt>
      <trkpt lat="48.76062" lon="2.53992">
        <ele>100</ele>
        <time>2026-05-20T12:48:07.999Z</time>
      </trkpt>
      <trkpt lat="48.76057" lon="2.53995">
        <ele>100</ele>
        <time>2026-05-20T12:48:12.999Z</time>
      </trkpt>
      <trkpt lat="48.76051" lon="2.53999">
        <ele>100</ele>
        <time>2026-05-20T12:48:17.999Z</time>
      </trkpt>
      <trkpt lat="48.76046" lon="2.54003">
        <ele>100</ele>
        <time>2026-05-20T12:48:22.999Z</time>
      </trkpt>
      <trkpt lat="48.7604" lon="2.54004">
        <ele>98</ele>
        <time>2026-05-20T12:48:27.999Z</time>
      </trkpt>
      <trkpt lat="48.76034" lon="2.54006">
        <ele>98</ele>
        <time>2026-05-20T12:48:32.999Z</time>
      </trkpt>
      <trkpt lat="48.76028" lon="2.54007">
        <ele>98</ele>
        <time>2026-05-20T12:48:37.999Z</time>
      </trkpt>
      <trkpt lat="48.76022" lon="2.54006">
        <ele>98</ele>
        <time>2026-05-20T12:48:43Z</time>
      </trkpt>
      <trkpt lat="48.76017" lon="2.54004">
        <ele>98</ele>
        <time>2026-05-20T12:48:48Z</time>
      </trkpt>
      <trkpt lat="48.76011" lon="2.54001">
        <ele>98</ele>
        <time>2026-05-20T12:48:53Z</time>
      </trkpt>
      <trkpt lat="48.76007" lon="2.53997">
        <ele>98</ele>
        <time>2026-05-20T12:48:58Z</time>
      </trkpt>
      <trkpt lat="48.76003" lon="2.53993">
        <ele>98</ele>
        <time>2026-05-20T12:49:03Z</time>
      </trkpt>
      <trkpt lat="48.76" lon="2.53985">
        <ele>98</ele>
        <time>2026-05-20T12:49:37.999Z</time>
      </trkpt>
      <trkpt lat="48.76" lon="2.53985">
        <ele>98</ele>
        <time>2026-05-20T12:49:42.999Z</time>
      </trkpt>
      <trkpt lat="48.75998" lon="2.53984">
        <ele>98</ele>
        <time>2026-05-20T12:49:47.999Z</time>
      </trkpt>
      <trkpt lat="48.75995" lon="2.53982">
        <ele>98</ele>
        <time>2026-05-20T12:49:52.999Z</time>
      </trkpt>
      <trkpt lat="48.75992" lon="2.53977">
        <ele>98</ele>
        <time>2026-05-20T12:49:57.999Z</time>
      </trkpt>
      <trkpt lat="48.75989" lon="2.53974">
        <ele>98</ele>
        <time>2026-05-20T12:50:02.999Z</time>
      </trkpt>
      <trkpt lat="48.75987" lon="2.53972">
        <ele>98</ele>
        <time>2026-05-20T12:50:07.999Z</time>
      </trkpt>
      <trkpt lat="48.75982" lon="2.53968">
        <ele>97</ele>
        <time>2026-05-20T12:50:12.999Z</time>
      </trkpt>
      <trkpt lat="48.7598" lon="2.53964">
        <ele>97</ele>
        <time>2026-05-20T12:50:17.999Z</time>
      </trkpt>
      <trkpt lat="48.75976" lon="2.5396">
        <ele>97</ele>
        <time>2026-05-20T12:50:22.999Z</time>
      </trkpt>
      <trkpt lat="48.75972" lon="2.53956">
        <ele>98</ele>
        <time>2026-05-20T12:50:27.999Z</time>
      </trkpt>
      <trkpt lat="48.75969" lon="2.53951">
        <ele>98</ele>
        <time>2026-05-20T12:50:32.999Z</time>
      </trkpt>
      <trkpt lat="48.75965" lon="2.53946">
        <ele>98</ele>
        <time>2026-05-20T12:50:37.999Z</time>
      </trkpt>
      <trkpt lat="48.75962" lon="2.53941">
        <ele>98</ele>
        <time>2026-05-20T12:50:42.999Z</time>
      </trkpt>
      <trkpt lat="48.75958" lon="2.53935">
        <ele>98</ele>
        <time>2026-05-20T12:50:48Z</time>
      </trkpt>
      <trkpt lat="48.75955" lon="2.5393">
        <ele>99</ele>
        <time>2026-05-20T12:50:53Z</time>
      </trkpt>
      <trkpt lat="48.75951" lon="2.53925">
        <ele>99</ele>
        <time>2026-05-20T12:50:58Z</time>
      </trkpt>
      <trkpt lat="48.75949" lon="2.53919">
        <ele>99</ele>
        <time>2026-05-20T12:51:03Z</time>
      </trkpt>
      <trkpt lat="48.75947" lon="2.53916">
        <ele>99</ele>
        <time>2026-05-20T12:51:08Z</time>
      </trkpt>
      <trkpt lat="48.75943" lon="2.53912">
        <ele>99</ele>
        <time>2026-05-20T12:51:12Z</time>
      </trkpt>
      <trkpt lat="48.75941" lon="2.53906">
        <ele>99</ele>
        <time>2026-05-20T12:51:17Z</time>
      </trkpt>
      <trkpt lat="48.75936" lon="2.539">
        <ele>100</ele>
        <time>2026-05-20T12:51:22Z</time>
      </trkpt>
      <trkpt lat="48.75935" lon="2.53893">
        <ele>100</ele>
        <time>2026-05-20T12:51:27Z</time>
      </trkpt>
      <trkpt lat="48.7593" lon="2.53886">
        <ele>100</ele>
        <time>2026-05-20T12:51:31.999Z</time>
      </trkpt>
      <trkpt lat="48.75927" lon="2.53879">
        <ele>100</ele>
        <time>2026-05-20T12:51:36.999Z</time>
      </trkpt>
      <trkpt lat="48.75925" lon="2.53871">
        <ele>100</ele>
        <time>2026-05-20T12:51:41.999Z</time>
      </trkpt>
      <trkpt lat="48.75927" lon="2.53862">
        <ele>100</ele>
        <time>2026-05-20T12:51:46.999Z</time>
      </trkpt>
      <trkpt lat="48.75929" lon="2.53855">
        <ele>100</ele>
        <time>2026-05-20T12:51:51.999Z</time>
      </trkpt>
      <trkpt lat="48.75932" lon="2.53848">
        <ele>101</ele>
        <time>2026-05-20T12:51:56.999Z</time>
      </trkpt>
      <trkpt lat="48.75935" lon="2.53839">
        <ele>101</ele>
        <time>2026-05-20T12:52:01.999Z</time>
      </trkpt>
      <trkpt lat="48.75938" lon="2.53832">
        <ele>101</ele>
        <time>2026-05-20T12:52:06.999Z</time>
      </trkpt>
      <trkpt lat="48.75939" lon="2.53824">
        <ele>101</ele>
        <time>2026-05-20T12:52:11.999Z</time>
      </trkpt>
      <trkpt lat="48.75941" lon="2.53813">
        <ele>102</ele>
        <time>2026-05-20T12:52:16.999Z</time>
      </trkpt>
      <trkpt lat="48.75945" lon="2.53806">
        <ele>102</ele>
        <time>2026-05-20T12:52:21.999Z</time>
      </trkpt>
      <trkpt lat="48.75944" lon="2.53799">
        <ele>102</ele>
        <time>2026-05-20T12:52:26.999Z</time>
      </trkpt>
      <trkpt lat="48.75941" lon="2.53791">
        <ele>101</ele>
        <time>2026-05-20T12:52:31.999Z</time>
      </trkpt>
      <trkpt lat="48.75938" lon="2.53782">
        <ele>101</ele>
        <time>2026-05-20T12:52:36.999Z</time>
      </trkpt>
      <trkpt lat="48.75937" lon="2.53776">
        <ele>101</ele>
        <time>2026-05-20T12:52:41.999Z</time>
      </trkpt>
      <trkpt lat="48.75935" lon="2.53768">
        <ele>101</ele>
        <time>2026-05-20T12:52:46.999Z</time>
      </trkpt>
      <trkpt lat="48.75935" lon="2.5376">
        <ele>101</ele>
        <time>2026-05-20T12:52:51.999Z</time>
      </trkpt>
      <trkpt lat="48.75933" lon="2.53751">
        <ele>101</ele>
        <time>2026-05-20T12:52:57Z</time>
      </trkpt>
      <trkpt lat="48.75932" lon="2.53743">
        <ele>101</ele>
        <time>2026-05-20T12:53:02Z</time>
      </trkpt>
      <trkpt lat="48.7593" lon="2.53736">
        <ele>100</ele>
        <time>2026-05-20T12:53:07Z</time>
      </trkpt>
      <trkpt lat="48.75926" lon="2.53728">
        <ele>100</ele>
        <time>2026-05-20T12:53:12Z</time>
      </trkpt>
      <trkpt lat="48.75924" lon="2.5372">
        <ele>100</ele>
        <time>2026-05-20T12:53:17Z</time>
      </trkpt>
      <trkpt lat="48.75924" lon="2.53711">
        <ele>100</ele>
        <time>2026-05-20T12:53:22Z</time>
      </trkpt>
      <trkpt lat="48.75922" lon="2.53702">
        <ele>99</ele>
        <time>2026-05-20T12:53:27Z</time>
      </trkpt>
      <trkpt lat="48.75922" lon="2.53693">
        <ele>99</ele>
        <time>2026-05-20T12:53:32Z</time>
      </trkpt>
      <trkpt lat="48.7592" lon="2.53685">
        <ele>99</ele>
        <time>2026-05-20T12:53:37Z</time>
      </trkpt>
      <trkpt lat="48.75918" lon="2.53677">
        <ele>97</ele>
        <time>2026-05-20T12:53:41.999Z</time>
      </trkpt>
      <trkpt lat="48.75918" lon="2.53667">
        <ele>97</ele>
        <time>2026-05-20T12:53:46.999Z</time>
      </trkpt>
      <trkpt lat="48.75916" lon="2.53657">
        <ele>97</ele>
        <time>2026-05-20T12:53:51.999Z</time>
      </trkpt>
      <trkpt lat="48.75915" lon="2.5365">
        <ele>97</ele>
        <time>2026-05-20T12:53:56.999Z</time>
      </trkpt>
      <trkpt lat="48.75913" lon="2.53641">
        <ele>97</ele>
        <time>2026-05-20T12:54:01.999Z</time>
      </trkpt>
      <trkpt lat="48.75911" lon="2.53634">
        <ele>97</ele>
        <time>2026-05-20T12:54:06.999Z</time>
      </trkpt>
      <trkpt lat="48.75908" lon="2.53626">
        <ele>97</ele>
        <time>2026-05-20T12:54:11.999Z</time>
      </trkpt>
      <trkpt lat="48.75904" lon="2.53618">
        <ele>98</ele>
        <time>2026-05-20T12:54:16.999Z</time>
      </trkpt>
      <trkpt lat="48.75902" lon="2.5361">
        <ele>99</ele>
        <time>2026-05-20T12:54:21.999Z</time>
      </trkpt>
      <trkpt lat="48.75898" lon="2.53603">
        <ele>99</ele>
        <time>2026-05-20T12:54:26.999Z</time>
      </trkpt>
      <trkpt lat="48.75895" lon="2.53596">
        <ele>99</ele>
        <time>2026-05-20T12:54:31.999Z</time>
      </trkpt>
      <trkpt lat="48.75888" lon="2.53589">
        <ele>99</ele>
        <time>2026-05-20T12:54:36.999Z</time>
      </trkpt>
      <trkpt lat="48.7589" lon="2.53591">
        <ele>99</ele>
        <time>2026-05-20T12:54:41.999Z</time>
      </trkpt>
      <trkpt lat="48.75885" lon="2.53595">
        <ele>99</ele>
        <time>2026-05-20T12:54:46.999Z</time>
      </trkpt>
      <trkpt lat="48.7588" lon="2.53599">
        <ele>99</ele>
        <time>2026-05-20T12:54:51.999Z</time>
      </trkpt>
      <trkpt lat="48.75874" lon="2.536">
        <ele>100</ele>
        <time>2026-05-20T12:54:56.999Z</time>
      </trkpt>
      <trkpt lat="48.75867" lon="2.53595">
        <ele>100</ele>
        <time>2026-05-20T12:57:31Z</time>
      </trkpt>
      <trkpt lat="48.75865" lon="2.53595">
        <ele>100</ele>
        <time>2026-05-20T12:57:36Z</time>
      </trkpt>
      <trkpt lat="48.75865" lon="2.53595">
        <ele>100</ele>
        <time>2026-05-20T12:57:41Z</time>
      </trkpt>
      <trkpt lat="48.75865" lon="2.53594">
        <ele>100</ele>
        <time>2026-05-20T12:57:50.999Z</time>
      </trkpt>
      <trkpt lat="48.75863" lon="2.53595">
        <ele>100</ele>
        <time>2026-05-20T12:57:55.999Z</time>
      </trkpt>
      <trkpt lat="48.75864" lon="2.53595">
        <ele>100</ele>
        <time>2026-05-20T13:00:29.999Z</time>
      </trkpt>
      <trkpt lat="48.75866" lon="2.53603">
        <ele>100</ele>
        <time>2026-05-20T13:00:34.999Z</time>
      </trkpt>
      <trkpt lat="48.75866" lon="2.53606">
        <ele>100</ele>
        <time>2026-05-20T13:00:39.999Z</time>
      </trkpt>
      <trkpt lat="48.75868" lon="2.53606">
        <ele>100</ele>
        <time>2026-05-20T13:00:44.999Z</time>
      </trkpt>
      <trkpt lat="48.75863" lon="2.53612">
        <ele>100</ele>
        <time>2026-05-20T13:00:49.999Z</time>
      </trkpt>
      <trkpt lat="48.75863" lon="2.53609">
        <ele>100</ele>
        <time>2026-05-20T13:00:54.999Z</time>
      </trkpt>
      <trkpt lat="48.75863" lon="2.53609">
        <ele>100</ele>
        <time>2026-05-20T13:00:59.999Z</time>
      </trkpt>
      <trkpt lat="48.75858" lon="2.53611">
        <ele>100</ele>
        <time>2026-05-20T13:01:04.999Z</time>
      </trkpt>
      <trkpt lat="48.75854" lon="2.53614">
        <ele>100</ele>
        <time>2026-05-20T13:01:09.999Z</time>
      </trkpt>
      <trkpt lat="48.75849" lon="2.53615">
        <ele>100</ele>
        <time>2026-05-20T13:01:14.999Z</time>
      </trkpt>
      <trkpt lat="48.75844" lon="2.53616">
        <ele>100</ele>
        <time>2026-05-20T13:01:19.999Z</time>
      </trkpt>
      <trkpt lat="48.7584" lon="2.5362">
        <ele>100</ele>
        <time>2026-05-20T13:01:24.999Z</time>
      </trkpt>
      <trkpt lat="48.75839" lon="2.53626">
        <ele>100</ele>
        <time>2026-05-20T13:01:29.999Z</time>
      </trkpt>
      <trkpt lat="48.7584" lon="2.5363">
        <ele>100</ele>
        <time>2026-05-20T13:01:34.999Z</time>
      </trkpt>
      <trkpt lat="48.75841" lon="2.53634">
        <ele>100</ele>
        <time>2026-05-20T13:01:39.999Z</time>
      </trkpt>
      <trkpt lat="48.75843" lon="2.53641">
        <ele>100</ele>
        <time>2026-05-20T13:01:44.999Z</time>
      </trkpt>
      <trkpt lat="48.75844" lon="2.53648">
        <ele>100</ele>
        <time>2026-05-20T13:01:49.999Z</time>
      </trkpt>
      <trkpt lat="48.75846" lon="2.53656">
        <ele>100</ele>
        <time>2026-05-20T13:01:54.999Z</time>
      </trkpt>
      <trkpt lat="48.75848" lon="2.53663">
        <ele>100</ele>
        <time>2026-05-20T13:01:59.999Z</time>
      </trkpt>
      <trkpt lat="48.75848" lon="2.5367">
        <ele>100</ele>
        <time>2026-05-20T13:02:04.999Z</time>
      </trkpt>
      <trkpt lat="48.75851" lon="2.53677">
        <ele>100</ele>
        <time>2026-05-20T13:02:09.999Z</time>
      </trkpt>
      <trkpt lat="48.75853" lon="2.53684">
        <ele>100</ele>
        <time>2026-05-20T13:02:14.999Z</time>
      </trkpt>
      <trkpt lat="48.75855" lon="2.53691">
        <ele>100</ele>
        <time>2026-05-20T13:02:19.999Z</time>
      </trkpt>
      <trkpt lat="48.75858" lon="2.53698">
        <ele>100</ele>
        <time>2026-05-20T13:02:24.999Z</time>
      </trkpt>
      <trkpt lat="48.75859" lon="2.53706">
        <ele>100</ele>
        <time>2026-05-20T13:02:29.999Z</time>
      </trkpt>
      <trkpt lat="48.75861" lon="2.53714">
        <ele>101</ele>
        <time>2026-05-20T13:02:34.999Z</time>
      </trkpt>
      <trkpt lat="48.75863" lon="2.53722">
        <ele>101</ele>
        <time>2026-05-20T13:02:39.999Z</time>
      </trkpt>
      <trkpt lat="48.75864" lon="2.53729">
        <ele>101</ele>
        <time>2026-05-20T13:02:44.999Z</time>
      </trkpt>
      <trkpt lat="48.75866" lon="2.53738">
        <ele>100</ele>
        <time>2026-05-20T13:02:49.999Z</time>
      </trkpt>
      <trkpt lat="48.75867" lon="2.53745">
        <ele>100</ele>
        <time>2026-05-20T13:02:54.999Z</time>
      </trkpt>
      <trkpt lat="48.75869" lon="2.53754">
        <ele>100</ele>
        <time>2026-05-20T13:02:59.999Z</time>
      </trkpt>
      <trkpt lat="48.75872" lon="2.53761">
        <ele>100</ele>
        <time>2026-05-20T13:03:04.999Z</time>
      </trkpt>
      <trkpt lat="48.75875" lon="2.5377">
        <ele>100</ele>
        <time>2026-05-20T13:03:09.999Z</time>
      </trkpt>
      <trkpt lat="48.75878" lon="2.53777">
        <ele>100</ele>
        <time>2026-05-20T13:03:14.999Z</time>
      </trkpt>
      <trkpt lat="48.75881" lon="2.53784">
        <ele>100</ele>
        <time>2026-05-20T13:03:19.999Z</time>
      </trkpt>
      <trkpt lat="48.75883" lon="2.53792">
        <ele>100</ele>
        <time>2026-05-20T13:03:25Z</time>
      </trkpt>
      <trkpt lat="48.75886" lon="2.53799">
        <ele>100</ele>
        <time>2026-05-20T13:03:30Z</time>
      </trkpt>
      <trkpt lat="48.75888" lon="2.53807">
        <ele>100</ele>
        <time>2026-05-20T13:03:35Z</time>
      </trkpt>
      <trkpt lat="48.75892" lon="2.53812">
        <ele>100</ele>
        <time>2026-05-20T13:03:40Z</time>
      </trkpt>
      <trkpt lat="48.75894" lon="2.5382">
        <ele>100</ele>
        <time>2026-05-20T13:03:44.999Z</time>
      </trkpt>
      <trkpt lat="48.75896" lon="2.53829">
        <ele>100</ele>
        <time>2026-05-20T13:03:49.999Z</time>
      </trkpt>
      <trkpt lat="48.759" lon="2.53835">
        <ele>100</ele>
        <time>2026-05-20T13:03:54.999Z</time>
      </trkpt>
      <trkpt lat="48.75903" lon="2.5384">
        <ele>100</ele>
        <time>2026-05-20T13:03:59.999Z</time>
      </trkpt>
      <trkpt lat="48.75907" lon="2.53849">
        <ele>100</ele>
        <time>2026-05-20T13:04:04.999Z</time>
      </trkpt>
      <trkpt lat="48.75912" lon="2.53855">
        <ele>100</ele>
        <time>2026-05-20T13:04:09.999Z</time>
      </trkpt>
      <trkpt lat="48.75915" lon="2.53862">
        <ele>100</ele>
        <time>2026-05-20T13:04:14.999Z</time>
      </trkpt>
      <trkpt lat="48.75918" lon="2.53869">
        <ele>100</ele>
        <time>2026-05-20T13:04:19.999Z</time>
      </trkpt>
      <trkpt lat="48.75919" lon="2.53878">
        <ele>100</ele>
        <time>2026-05-20T13:04:24.999Z</time>
      </trkpt>
      <trkpt lat="48.75918" lon="2.53887">
        <ele>100</ele>
        <time>2026-05-20T13:04:29.999Z</time>
      </trkpt>
      <trkpt lat="48.75915" lon="2.53895">
        <ele>100</ele>
        <time>2026-05-20T13:04:34.999Z</time>
      </trkpt>
      <trkpt lat="48.7591" lon="2.539">
        <ele>100</ele>
        <time>2026-05-20T13:04:39.999Z</time>
      </trkpt>
      <trkpt lat="48.75904" lon="2.53906">
        <ele>100</ele>
        <time>2026-05-20T13:04:44.999Z</time>
      </trkpt>
      <trkpt lat="48.75899" lon="2.5391">
        <ele>100</ele>
        <time>2026-05-20T13:04:49.999Z</time>
      </trkpt>
      <trkpt lat="48.75896" lon="2.53916">
        <ele>100</ele>
        <time>2026-05-20T13:04:54.999Z</time>
      </trkpt>
      <trkpt lat="48.75891" lon="2.53922">
        <ele>100</ele>
        <time>2026-05-20T13:04:59.999Z</time>
      </trkpt>
      <trkpt lat="48.75887" lon="2.53929">
        <ele>100</ele>
        <time>2026-05-20T13:05:04.999Z</time>
      </trkpt>
      <trkpt lat="48.75882" lon="2.53937">
        <ele>100</ele>
        <time>2026-05-20T13:05:09.999Z</time>
      </trkpt>
      <trkpt lat="48.75879" lon="2.53946">
        <ele>100</ele>
        <time>2026-05-20T13:05:14.999Z</time>
      </trkpt>
      <trkpt lat="48.75876" lon="2.5395">
        <ele>100</ele>
        <time>2026-05-20T13:05:19.999Z</time>
      </trkpt>
      <trkpt lat="48.75871" lon="2.53957">
        <ele>102</ele>
        <time>2026-05-20T13:05:24.999Z</time>
      </trkpt>
      <trkpt lat="48.75868" lon="2.53963">
        <ele>101</ele>
        <time>2026-05-20T13:05:29.999Z</time>
      </trkpt>
      <trkpt lat="48.75863" lon="2.5397">
        <ele>101</ele>
        <time>2026-05-20T13:05:34.999Z</time>
      </trkpt>
      <trkpt lat="48.7586" lon="2.53977">
        <ele>101</ele>
        <time>2026-05-20T13:05:39.999Z</time>
      </trkpt>
      <trkpt lat="48.75856" lon="2.53984">
        <ele>101</ele>
        <time>2026-05-20T13:05:44.999Z</time>
      </trkpt>
      <trkpt lat="48.75853" lon="2.53993">
        <ele>99</ele>
        <time>2026-05-20T13:05:49.999Z</time>
      </trkpt>
      <trkpt lat="48.75849" lon="2.54001">
        <ele>99</ele>
        <time>2026-05-20T13:05:54.999Z</time>
      </trkpt>
      <trkpt lat="48.75845" lon="2.54004">
        <ele>100</ele>
        <time>2026-05-20T13:05:59.999Z</time>
      </trkpt>
      <trkpt lat="48.75841" lon="2.54013">
        <ele>100</ele>
        <time>2026-05-20T13:06:04.999Z</time>
      </trkpt>
      <trkpt lat="48.75838" lon="2.54021">
        <ele>98</ele>
        <time>2026-05-20T13:06:09.999Z</time>
      </trkpt>
      <trkpt lat="48.75834" lon="2.54028">
        <ele>98</ele>
        <time>2026-05-20T13:06:14.999Z</time>
      </trkpt>
      <trkpt lat="48.75831" lon="2.54034">
        <ele>98</ele>
        <time>2026-05-20T13:06:18.999Z</time>
      </trkpt>
      <trkpt lat="48.75829" lon="2.54041">
        <ele>98</ele>
        <time>2026-05-20T13:06:23.999Z</time>
      </trkpt>
      <trkpt lat="48.75826" lon="2.5405">
        <ele>97</ele>
        <time>2026-05-20T13:06:28.999Z</time>
      </trkpt>
      <trkpt lat="48.75822" lon="2.54057">
        <ele>97</ele>
        <time>2026-05-20T13:06:33.999Z</time>
      </trkpt>
      <trkpt lat="48.75818" lon="2.54064">
        <ele>97</ele>
        <time>2026-05-20T13:06:38.999Z</time>
      </trkpt>
      <trkpt lat="48.75815" lon="2.54073">
        <ele>97</ele>
        <time>2026-05-20T13:06:43.999Z</time>
      </trkpt>
      <trkpt lat="48.75813" lon="2.54082">
        <ele>97</ele>
        <time>2026-05-20T13:06:48.999Z</time>
      </trkpt>
      <trkpt lat="48.75812" lon="2.54086">
        <ele>97</ele>
        <time>2026-05-20T13:06:53.999Z</time>
      </trkpt>
      <trkpt lat="48.75807" lon="2.54092">
        <ele>97</ele>
        <time>2026-05-20T13:06:58.999Z</time>
      </trkpt>
      <trkpt lat="48.75804" lon="2.54099">
        <ele>98</ele>
        <time>2026-05-20T13:07:03.999Z</time>
      </trkpt>
      <trkpt lat="48.75803" lon="2.54099">
        <ele>98</ele>
        <time>2026-05-20T13:07:08.999Z</time>
      </trkpt>
      <trkpt lat="48.758" lon="2.5409">
        <ele>97</ele>
        <time>2026-05-20T13:07:18.999Z</time>
      </trkpt>
      <trkpt lat="48.75801" lon="2.5409">
        <ele>97</ele>
        <time>2026-05-20T13:07:23.999Z</time>
      </trkpt>
      <trkpt lat="48.75801" lon="2.54092">
        <ele>97</ele>
        <time>2026-05-20T13:07:28.999Z</time>
      </trkpt>
      <trkpt lat="48.75798" lon="2.54094">
        <ele>97</ele>
        <time>2026-05-20T13:07:33.999Z</time>
      </trkpt>
      <trkpt lat="48.75796" lon="2.54104">
        <ele>98</ele>
        <time>2026-05-20T13:07:38.999Z</time>
      </trkpt>
      <trkpt lat="48.75793" lon="2.54111">
        <ele>98</ele>
        <time>2026-05-20T13:07:43.999Z</time>
      </trkpt>
      <trkpt lat="48.7579" lon="2.54119">
        <ele>98</ele>
        <time>2026-05-20T13:07:48.999Z</time>
      </trkpt>
      <trkpt lat="48.75786" lon="2.54127">
        <ele>98</ele>
        <time>2026-05-20T13:07:53.999Z</time>
      </trkpt>
      <trkpt lat="48.75781" lon="2.54133">
        <ele>98</ele>
        <time>2026-05-20T13:07:58.999Z</time>
      </trkpt>
      <trkpt lat="48.75777" lon="2.54141">
        <ele>98</ele>
        <time>2026-05-20T13:08:03.999Z</time>
      </trkpt>
      <trkpt lat="48.75773" lon="2.54148">
        <ele>98</ele>
        <time>2026-05-20T13:08:08.999Z</time>
      </trkpt>
      <trkpt lat="48.75769" lon="2.54155">
        <ele>98</ele>
        <time>2026-05-20T13:08:13.999Z</time>
      </trkpt>
      <trkpt lat="48.75765" lon="2.54163">
        <ele>98</ele>
        <time>2026-05-20T13:08:18.999Z</time>
      </trkpt>
      <trkpt lat="48.75762" lon="2.54169">
        <ele>98</ele>
        <time>2026-05-20T13:08:23.999Z</time>
      </trkpt>
      <trkpt lat="48.75758" lon="2.54175">
        <ele>98</ele>
        <time>2026-05-20T13:08:28.999Z</time>
      </trkpt>
      <trkpt lat="48.75754" lon="2.54182">
        <ele>98</ele>
        <time>2026-05-20T13:08:33.999Z</time>
      </trkpt>
      <trkpt lat="48.7575" lon="2.54191">
        <ele>98</ele>
        <time>2026-05-20T13:08:38.999Z</time>
      </trkpt>
      <trkpt lat="48.75745" lon="2.54198">
        <ele>98</ele>
        <time>2026-05-20T13:08:43.999Z</time>
      </trkpt>
      <trkpt lat="48.75742" lon="2.54204">
        <ele>98</ele>
        <time>2026-05-20T13:08:48.999Z</time>
      </trkpt>
      <trkpt lat="48.75739" lon="2.54213">
        <ele>97</ele>
        <time>2026-05-20T13:08:53.999Z</time>
      </trkpt>
      <trkpt lat="48.75735" lon="2.5422">
        <ele>98</ele>
        <time>2026-05-20T13:08:58.999Z</time>
      </trkpt>
      <trkpt lat="48.7573" lon="2.54228">
        <ele>98</ele>
        <time>2026-05-20T13:09:03.999Z</time>
      </trkpt>
      <trkpt lat="48.75728" lon="2.54232">
        <ele>98</ele>
        <time>2026-05-20T13:09:08.999Z</time>
      </trkpt>
      <trkpt lat="48.75725" lon="2.5424">
        <ele>97</ele>
        <time>2026-05-20T13:09:13.999Z</time>
      </trkpt>
      <trkpt lat="48.75721" lon="2.54248">
        <ele>97</ele>
        <time>2026-05-20T13:09:18.999Z</time>
      </trkpt>
      <trkpt lat="48.75716" lon="2.54256">
        <ele>97</ele>
        <time>2026-05-20T13:09:23.999Z</time>
      </trkpt>
      <trkpt lat="48.75713" lon="2.54261">
        <ele>97</ele>
        <time>2026-05-20T13:09:28.999Z</time>
      </trkpt>
      <trkpt lat="48.75711" lon="2.54268">
        <ele>98</ele>
        <time>2026-05-20T13:09:33.999Z</time>
      </trkpt>
      <trkpt lat="48.75707" lon="2.54274">
        <ele>98</ele>
        <time>2026-05-20T13:09:38.999Z</time>
      </trkpt>
      <trkpt lat="48.75702" lon="2.54281">
        <ele>98</ele>
        <time>2026-05-20T13:09:44Z</time>
      </trkpt>
      <trkpt lat="48.75698" lon="2.54288">
        <ele>98</ele>
        <time>2026-05-20T13:09:49Z</time>
      </trkpt>
      <trkpt lat="48.75694" lon="2.54293">
        <ele>99</ele>
        <time>2026-05-20T13:09:54Z</time>
      </trkpt>
      <trkpt lat="48.7569" lon="2.543">
        <ele>99</ele>
        <time>2026-05-20T13:09:59Z</time>
      </trkpt>
      <trkpt lat="48.75688" lon="2.54304">
        <ele>99</ele>
        <time>2026-05-20T13:10:04Z</time>
      </trkpt>
      <trkpt lat="48.75686" lon="2.54308">
        <ele>99</ele>
        <time>2026-05-20T13:10:09Z</time>
      </trkpt>
      <trkpt lat="48.75683" lon="2.54316">
        <ele>99</ele>
        <time>2026-05-20T13:10:14Z</time>
      </trkpt>
      <trkpt lat="48.75682" lon="2.54324">
        <ele>99</ele>
        <time>2026-05-20T13:10:19Z</time>
      </trkpt>
      <trkpt lat="48.75677" lon="2.54334">
        <ele>99</ele>
        <time>2026-05-20T13:10:23.999Z</time>
      </trkpt>
      <trkpt lat="48.75673" lon="2.54341">
        <ele>99</ele>
        <time>2026-05-20T13:10:28.999Z</time>
      </trkpt>
      <trkpt lat="48.75669" lon="2.54347">
        <ele>99</ele>
        <time>2026-05-20T13:10:33.999Z</time>
      </trkpt>
      <trkpt lat="48.75664" lon="2.54353">
        <ele>99</ele>
        <time>2026-05-20T13:10:38.999Z</time>
      </trkpt>
      <trkpt lat="48.7566" lon="2.5436">
        <ele>99</ele>
        <time>2026-05-20T13:10:43.999Z</time>
      </trkpt>
      <trkpt lat="48.75657" lon="2.54367">
        <ele>99</ele>
        <time>2026-05-20T13:10:48.999Z</time>
      </trkpt>
      <trkpt lat="48.75653" lon="2.54377">
        <ele>98</ele>
        <time>2026-05-20T13:10:53.999Z</time>
      </trkpt>
      <trkpt lat="48.75649" lon="2.54385">
        <ele>98</ele>
        <time>2026-05-20T13:10:58.999Z</time>
      </trkpt>
      <trkpt lat="48.75645" lon="2.54391">
        <ele>98</ele>
        <time>2026-05-20T13:11:03.999Z</time>
      </trkpt>
      <trkpt lat="48.75641" lon="2.54397">
        <ele>98</ele>
        <time>2026-05-20T13:11:08.999Z</time>
      </trkpt>
      <trkpt lat="48.75638" lon="2.54402">
        <ele>98</ele>
        <time>2026-05-20T13:11:13.999Z</time>
      </trkpt>
      <trkpt lat="48.75634" lon="2.54408">
        <ele>97</ele>
        <time>2026-05-20T13:11:18.999Z</time>
      </trkpt>
      <trkpt lat="48.7563" lon="2.54416">
        <ele>97</ele>
        <time>2026-05-20T13:11:23.999Z</time>
      </trkpt>
      <trkpt lat="48.75627" lon="2.54423">
        <ele>97</ele>
        <time>2026-05-20T13:11:28.999Z</time>
      </trkpt>
      <trkpt lat="48.75626" lon="2.54431">
        <ele>98</ele>
        <time>2026-05-20T13:11:33.999Z</time>
      </trkpt>
      <trkpt lat="48.75626" lon="2.54437">
        <ele>98</ele>
        <time>2026-05-20T13:11:38.999Z</time>
      </trkpt>
      <trkpt lat="48.75622" lon="2.54439">
        <ele>97</ele>
        <time>2026-05-20T13:11:43.999Z</time>
      </trkpt>
      <trkpt lat="48.75619" lon="2.54445">
        <ele>97</ele>
        <time>2026-05-20T13:11:49Z</time>
      </trkpt>
      <trkpt lat="48.75615" lon="2.54451">
        <ele>97</ele>
        <time>2026-05-20T13:11:54Z</time>
      </trkpt>
      <trkpt lat="48.75611" lon="2.54457">
        <ele>97</ele>
        <time>2026-05-20T13:11:59Z</time>
      </trkpt>
      <trkpt lat="48.75608" lon="2.54465">
        <ele>98</ele>
        <time>2026-05-20T13:12:04Z</time>
      </trkpt>
      <trkpt lat="48.75603" lon="2.5447">
        <ele>98</ele>
        <time>2026-05-20T13:12:09Z</time>
      </trkpt>
      <trkpt lat="48.75598" lon="2.5448">
        <ele>98</ele>
        <time>2026-05-20T13:12:13.999Z</time>
      </trkpt>
      <trkpt lat="48.75593" lon="2.54488">
        <ele>99</ele>
        <time>2026-05-20T13:12:18.999Z</time>
      </trkpt>
      <trkpt lat="48.7559" lon="2.54494">
        <ele>99</ele>
        <time>2026-05-20T13:12:23.999Z</time>
      </trkpt>
      <trkpt lat="48.75586" lon="2.54501">
        <ele>99</ele>
        <time>2026-05-20T13:12:28.999Z</time>
      </trkpt>
      <trkpt lat="48.75583" lon="2.54506">
        <ele>99</ele>
        <time>2026-05-20T13:12:33.999Z</time>
      </trkpt>
      <trkpt lat="48.75579" lon="2.54511">
        <ele>99</ele>
        <time>2026-05-20T13:12:38.999Z</time>
      </trkpt>
      <trkpt lat="48.75574" lon="2.54515">
        <ele>100</ele>
        <time>2026-05-20T13:12:43.999Z</time>
      </trkpt>
      <trkpt lat="48.75569" lon="2.54523">
        <ele>100</ele>
        <time>2026-05-20T13:12:48.999Z</time>
      </trkpt>
      <trkpt lat="48.75564" lon="2.54528">
        <ele>100</ele>
        <time>2026-05-20T13:12:53.999Z</time>
      </trkpt>
      <trkpt lat="48.7556" lon="2.54536">
        <ele>100</ele>
        <time>2026-05-20T13:12:58.999Z</time>
      </trkpt>
      <trkpt lat="48.75555" lon="2.54541">
        <ele>100</ele>
        <time>2026-05-20T13:13:03.999Z</time>
      </trkpt>
      <trkpt lat="48.75549" lon="2.54546">
        <ele>100</ele>
        <time>2026-05-20T13:13:08.999Z</time>
      </trkpt>
      <trkpt lat="48.75544" lon="2.54551">
        <ele>100</ele>
        <time>2026-05-20T13:13:13.999Z</time>
      </trkpt>
      <trkpt lat="48.7554" lon="2.54557">
        <ele>102</ele>
        <time>2026-05-20T13:13:18.999Z</time>
      </trkpt>
      <trkpt lat="48.75534" lon="2.54561">
        <ele>102</ele>
        <time>2026-05-20T13:13:23.999Z</time>
      </trkpt>
      <trkpt lat="48.75529" lon="2.54563">
        <ele>102</ele>
        <time>2026-05-20T13:13:28.999Z</time>
      </trkpt>
      <trkpt lat="48.75524" lon="2.54565">
        <ele>102</ele>
        <time>2026-05-20T13:13:33.999Z</time>
      </trkpt>
      <trkpt lat="48.7552" lon="2.54572">
        <ele>103</ele>
        <time>2026-05-20T13:13:38.999Z</time>
      </trkpt>
      <trkpt lat="48.75513" lon="2.54587">
        <ele>106</ele>
        <time>2026-05-20T13:14:04Z</time>
      </trkpt>
      <trkpt lat="48.75513" lon="2.54587">
        <ele>106</ele>
        <time>2026-05-20T13:14:09Z</time>
      </trkpt>
      <trkpt lat="48.75513" lon="2.54594">
        <ele>106</ele>
        <time>2026-05-20T13:14:14Z</time>
      </trkpt>
      <trkpt lat="48.75513" lon="2.54601">
        <ele>106</ele>
        <time>2026-05-20T13:14:18.999Z</time>
      </trkpt>
      <trkpt lat="48.75514" lon="2.54609">
        <ele>106</ele>
        <time>2026-05-20T13:14:23.999Z</time>
      </trkpt>
      <trkpt lat="48.75513" lon="2.54618">
        <ele>106</ele>
        <time>2026-05-20T13:14:28.999Z</time>
      </trkpt>
      <trkpt lat="48.75511" lon="2.54627">
        <ele>105</ele>
        <time>2026-05-20T13:14:33.999Z</time>
      </trkpt>
      <trkpt lat="48.7551" lon="2.54633">
        <ele>105</ele>
        <time>2026-05-20T13:14:38.999Z</time>
      </trkpt>
      <trkpt lat="48.7551" lon="2.54642">
        <ele>105</ele>
        <time>2026-05-20T13:14:43.999Z</time>
      </trkpt>
      <trkpt lat="48.75509" lon="2.5465">
        <ele>105</ele>
        <time>2026-05-20T13:14:48.999Z</time>
      </trkpt>
      <trkpt lat="48.75508" lon="2.54658">
        <ele>104</ele>
        <time>2026-05-20T13:14:53.999Z</time>
      </trkpt>
      <trkpt lat="48.75509" lon="2.54667">
        <ele>104</ele>
        <time>2026-05-20T13:14:58.999Z</time>
      </trkpt>
      <trkpt lat="48.75507" lon="2.54674">
        <ele>104</ele>
        <time>2026-05-20T13:15:03.999Z</time>
      </trkpt>
      <trkpt lat="48.75508" lon="2.54685">
        <ele>103</ele>
        <time>2026-05-20T13:15:08.999Z</time>
      </trkpt>
      <trkpt lat="48.75507" lon="2.54694">
        <ele>103</ele>
        <time>2026-05-20T13:15:13.999Z</time>
      </trkpt>
      <trkpt lat="48.75506" lon="2.54704">
        <ele>103</ele>
        <time>2026-05-20T13:15:18.999Z</time>
      </trkpt>
      <trkpt lat="48.75506" lon="2.54714">
        <ele>103</ele>
        <time>2026-05-20T13:15:23.999Z</time>
      </trkpt>
      <trkpt lat="48.75506" lon="2.54722">
        <ele>103</ele>
        <time>2026-05-20T13:15:28.999Z</time>
      </trkpt>
      <trkpt lat="48.75506" lon="2.54731">
        <ele>103</ele>
        <time>2026-05-20T13:15:33.999Z</time>
      </trkpt>
      <trkpt lat="48.75505" lon="2.54739">
        <ele>103</ele>
        <time>2026-05-20T13:15:38.999Z</time>
      </trkpt>
      <trkpt lat="48.75505" lon="2.54746">
        <ele>103</ele>
        <time>2026-05-20T13:15:43.999Z</time>
      </trkpt>
      <trkpt lat="48.75505" lon="2.54756">
        <ele>103</ele>
        <time>2026-05-20T13:15:48.999Z</time>
      </trkpt>
      <trkpt lat="48.75504" lon="2.54764">
        <ele>103</ele>
        <time>2026-05-20T13:15:53.999Z</time>
      </trkpt>
      <trkpt lat="48.75503" lon="2.54774">
        <ele>104</ele>
        <time>2026-05-20T13:15:58.999Z</time>
      </trkpt>
      <trkpt lat="48.75503" lon="2.54783">
        <ele>104</ele>
        <time>2026-05-20T13:16:04Z</time>
      </trkpt>
      <trkpt lat="48.75503" lon="2.54791">
        <ele>104</ele>
        <time>2026-05-20T13:16:09Z</time>
      </trkpt>
      <trkpt lat="48.75503" lon="2.54799">
        <ele>104</ele>
        <time>2026-05-20T13:16:14Z</time>
      </trkpt>
      <trkpt lat="48.75503" lon="2.54808">
        <ele>104</ele>
        <time>2026-05-20T13:16:19Z</time>
      </trkpt>
      <trkpt lat="48.75502" lon="2.54816">
        <ele>104</ele>
        <time>2026-05-20T13:16:23Z</time>
      </trkpt>
      <trkpt lat="48.75501" lon="2.54824">
        <ele>103</ele>
        <time>2026-05-20T13:16:28Z</time>
      </trkpt>
      <trkpt lat="48.755" lon="2.54834">
        <ele>103</ele>
        <time>2026-05-20T13:16:32.999Z</time>
      </trkpt>
      <trkpt lat="48.755" lon="2.54844">
        <ele>103</ele>
        <time>2026-05-20T13:16:37.999Z</time>
      </trkpt>
      <trkpt lat="48.75499" lon="2.54852">
        <ele>102</ele>
        <time>2026-05-20T13:16:42.999Z</time>
      </trkpt>
      <trkpt lat="48.75499" lon="2.54862">
        <ele>102</ele>
        <time>2026-05-20T13:16:47.999Z</time>
      </trkpt>
      <trkpt lat="48.75499" lon="2.54871">
        <ele>102</ele>
        <time>2026-05-20T13:16:52.999Z</time>
      </trkpt>
      <trkpt lat="48.75499" lon="2.54882">
        <ele>100</ele>
        <time>2026-05-20T13:16:57.999Z</time>
      </trkpt>
      <trkpt lat="48.75498" lon="2.5489">
        <ele>100</ele>
        <time>2026-05-20T13:17:02.999Z</time>
      </trkpt>
      <trkpt lat="48.75493" lon="2.54895">
        <ele>100</ele>
        <time>2026-05-20T13:17:07.999Z</time>
      </trkpt>
      <trkpt lat="48.75488" lon="2.5489">
        <ele>100</ele>
        <time>2026-05-20T13:17:12.999Z</time>
      </trkpt>
      <trkpt lat="48.75483" lon="2.54886">
        <ele>103</ele>
        <time>2026-05-20T13:17:17.999Z</time>
      </trkpt>
      <trkpt lat="48.75478" lon="2.54882">
        <ele>103</ele>
        <time>2026-05-20T13:17:22.999Z</time>
      </trkpt>
      <trkpt lat="48.75473" lon="2.54876">
        <ele>103</ele>
        <time>2026-05-20T13:17:27.999Z</time>
      </trkpt>
      <trkpt lat="48.75468" lon="2.54873">
        <ele>104</ele>
        <time>2026-05-20T13:17:32.999Z</time>
      </trkpt>
      <trkpt lat="48.75463" lon="2.54869">
        <ele>104</ele>
        <time>2026-05-20T13:17:37.999Z</time>
      </trkpt>
      <trkpt lat="48.75458" lon="2.54867">
        <ele>106</ele>
        <time>2026-05-20T13:17:42.999Z</time>
      </trkpt>
      <trkpt lat="48.75453" lon="2.5486">
        <ele>106</ele>
        <time>2026-05-20T13:17:47.999Z</time>
      </trkpt>
      <trkpt lat="48.75447" lon="2.54856">
        <ele>106</ele>
        <time>2026-05-20T13:17:52.999Z</time>
      </trkpt>
      <trkpt lat="48.7544" lon="2.54852">
        <ele>106</ele>
        <time>2026-05-20T13:17:57.999Z</time>
      </trkpt>
      <trkpt lat="48.75435" lon="2.54847">
        <ele>106</ele>
        <time>2026-05-20T13:18:02.999Z</time>
      </trkpt>
      <trkpt lat="48.75429" lon="2.54843">
        <ele>106</ele>
        <time>2026-05-20T13:18:08Z</time>
      </trkpt>
      <trkpt lat="48.75424" lon="2.54839">
        <ele>106</ele>
        <time>2026-05-20T13:18:13Z</time>
      </trkpt>
      <trkpt lat="48.75419" lon="2.54835">
        <ele>106</ele>
        <time>2026-05-20T13:18:18Z</time>
      </trkpt>
      <trkpt lat="48.75413" lon="2.54831">
        <ele>106</ele>
        <time>2026-05-20T13:18:23Z</time>
      </trkpt>
      <trkpt lat="48.75408" lon="2.5483">
        <ele>106</ele>
        <time>2026-05-20T13:18:28Z</time>
      </trkpt>
      <trkpt lat="48.75402" lon="2.54824">
        <ele>105</ele>
        <time>2026-05-20T13:18:33Z</time>
      </trkpt>
      <trkpt lat="48.75398" lon="2.5482">
        <ele>105</ele>
        <time>2026-05-20T13:18:38Z</time>
      </trkpt>
      <trkpt lat="48.75392" lon="2.54815">
        <ele>106</ele>
        <time>2026-05-20T13:18:42.999Z</time>
      </trkpt>
      <trkpt lat="48.75387" lon="2.54811">
        <ele>106</ele>
        <time>2026-05-20T13:18:47.999Z</time>
      </trkpt>
      <trkpt lat="48.75381" lon="2.54808">
        <ele>106</ele>
        <time>2026-05-20T13:18:52.999Z</time>
      </trkpt>
      <trkpt lat="48.75375" lon="2.54804">
        <ele>106</ele>
        <time>2026-05-20T13:18:57.999Z</time>
      </trkpt>
      <trkpt lat="48.75369" lon="2.54801">
        <ele>105</ele>
        <time>2026-05-20T13:19:02.999Z</time>
      </trkpt>
      <trkpt lat="48.75364" lon="2.54797">
        <ele>105</ele>
        <time>2026-05-20T13:19:07.999Z</time>
      </trkpt>
      <trkpt lat="48.75359" lon="2.54793">
        <ele>105</ele>
        <time>2026-05-20T13:19:12.999Z</time>
      </trkpt>
      <trkpt lat="48.75354" lon="2.54789">
        <ele>105</ele>
        <time>2026-05-20T13:19:17.999Z</time>
      </trkpt>
      <trkpt lat="48.75349" lon="2.54785">
        <ele>105</ele>
        <time>2026-05-20T13:19:22.999Z</time>
      </trkpt>
      <trkpt lat="48.75344" lon="2.54781">
        <ele>104</ele>
        <time>2026-05-20T13:19:27.999Z</time>
      </trkpt>
      <trkpt lat="48.75339" lon="2.54778">
        <ele>104</ele>
        <time>2026-05-20T13:19:32.999Z</time>
      </trkpt>
      <trkpt lat="48.75332" lon="2.54773">
        <ele>104</ele>
        <time>2026-05-20T13:19:37.999Z</time>
      </trkpt>
      <trkpt lat="48.75327" lon="2.54768">
        <ele>104</ele>
        <time>2026-05-20T13:19:42.999Z</time>
      </trkpt>
      <trkpt lat="48.75321" lon="2.54764">
        <ele>104</ele>
        <time>2026-05-20T13:19:47.999Z</time>
      </trkpt>
      <trkpt lat="48.75316" lon="2.54759">
        <ele>102</ele>
        <time>2026-05-20T13:19:52.999Z</time>
      </trkpt>
      <trkpt lat="48.75311" lon="2.54754">
        <ele>102</ele>
        <time>2026-05-20T13:19:57.999Z</time>
      </trkpt>
      <trkpt lat="48.75305" lon="2.54751">
        <ele>102</ele>
        <time>2026-05-20T13:20:02.999Z</time>
      </trkpt>
      <trkpt lat="48.753" lon="2.54748">
        <ele>102</ele>
        <time>2026-05-20T13:20:07.999Z</time>
      </trkpt>
      <trkpt lat="48.75294" lon="2.54743">
        <ele>102</ele>
        <time>2026-05-20T13:20:13Z</time>
      </trkpt>
      <trkpt lat="48.75289" lon="2.5474">
        <ele>101</ele>
        <time>2026-05-20T13:20:18Z</time>
      </trkpt>
      <trkpt lat="48.75283" lon="2.54736">
        <ele>101</ele>
        <time>2026-05-20T13:20:23Z</time>
      </trkpt>
      <trkpt lat="48.75279" lon="2.54732">
        <ele>101</ele>
        <time>2026-05-20T13:20:28Z</time>
      </trkpt>
      <trkpt lat="48.75272" lon="2.54726">
        <ele>101</ele>
        <time>2026-05-20T13:20:33Z</time>
      </trkpt>
      <trkpt lat="48.75267" lon="2.54721">
        <ele>101</ele>
        <time>2026-05-20T13:20:38Z</time>
      </trkpt>
      <trkpt lat="48.75262" lon="2.54719">
        <ele>101</ele>
        <time>2026-05-20T13:20:42.999Z</time>
      </trkpt>
      <trkpt lat="48.75256" lon="2.54715">
        <ele>101</ele>
        <time>2026-05-20T13:20:47.999Z</time>
      </trkpt>
      <trkpt lat="48.75252" lon="2.54712">
        <ele>101</ele>
        <time>2026-05-20T13:20:52.999Z</time>
      </trkpt>
      <trkpt lat="48.75246" lon="2.54709">
        <ele>101</ele>
        <time>2026-05-20T13:20:57.999Z</time>
      </trkpt>
      <trkpt lat="48.75238" lon="2.54702">
        <ele>101</ele>
        <time>2026-05-20T13:21:02.999Z</time>
      </trkpt>
      <trkpt lat="48.75235" lon="2.54699">
        <ele>103</ele>
        <time>2026-05-20T13:21:07.999Z</time>
      </trkpt>
      <trkpt lat="48.7523" lon="2.54693">
        <ele>103</ele>
        <time>2026-05-20T13:21:12.999Z</time>
      </trkpt>
      <trkpt lat="48.75224" lon="2.54689">
        <ele>103</ele>
        <time>2026-05-20T13:21:17.999Z</time>
      </trkpt>
      <trkpt lat="48.75219" lon="2.54685">
        <ele>103</ele>
        <time>2026-05-20T13:21:22.999Z</time>
      </trkpt>
      <trkpt lat="48.75213" lon="2.5468">
        <ele>103</ele>
        <time>2026-05-20T13:21:27.999Z</time>
      </trkpt>
      <trkpt lat="48.75209" lon="2.54678">
        <ele>103</ele>
        <time>2026-05-20T13:21:32.999Z</time>
      </trkpt>
      <trkpt lat="48.75204" lon="2.54675">
        <ele>103</ele>
        <time>2026-05-20T13:21:37.999Z</time>
      </trkpt>
      <trkpt lat="48.75198" lon="2.54672">
        <ele>103</ele>
        <time>2026-05-20T13:21:42.999Z</time>
      </trkpt>
      <trkpt lat="48.75192" lon="2.54666">
        <ele>103</ele>
        <time>2026-05-20T13:21:47.999Z</time>
      </trkpt>
      <trkpt lat="48.75187" lon="2.54662">
        <ele>103</ele>
        <time>2026-05-20T13:21:52.999Z</time>
      </trkpt>
      <trkpt lat="48.75181" lon="2.54656">
        <ele>103</ele>
        <time>2026-05-20T13:21:57.999Z</time>
      </trkpt>
      <trkpt lat="48.75175" lon="2.54651">
        <ele>102</ele>
        <time>2026-05-20T13:22:02.999Z</time>
      </trkpt>
      <trkpt lat="48.75169" lon="2.54646">
        <ele>102</ele>
        <time>2026-05-20T13:22:07.999Z</time>
      </trkpt>
      <trkpt lat="48.75164" lon="2.54644">
        <ele>102</ele>
        <time>2026-05-20T13:22:12.999Z</time>
      </trkpt>
      <trkpt lat="48.75159" lon="2.54638">
        <ele>102</ele>
        <time>2026-05-20T13:22:18Z</time>
      </trkpt>
      <trkpt lat="48.75155" lon="2.54636">
        <ele>102</ele>
        <time>2026-05-20T13:22:23Z</time>
      </trkpt>
      <trkpt lat="48.75151" lon="2.54634">
        <ele>102</ele>
        <time>2026-05-20T13:22:28Z</time>
      </trkpt>
      <trkpt lat="48.75146" lon="2.5463">
        <ele>102</ele>
        <time>2026-05-20T13:22:33Z</time>
      </trkpt>
      <trkpt lat="48.75142" lon="2.54625">
        <ele>103</ele>
        <time>2026-05-20T13:22:38Z</time>
      </trkpt>
      <trkpt lat="48.75137" lon="2.54623">
        <ele>103</ele>
        <time>2026-05-20T13:22:43Z</time>
      </trkpt>
      <trkpt lat="48.75132" lon="2.5462">
        <ele>103</ele>
        <time>2026-05-20T13:22:47.999Z</time>
      </trkpt>
      <trkpt lat="48.75128" lon="2.54616">
        <ele>103</ele>
        <time>2026-05-20T13:22:52.999Z</time>
      </trkpt>
      <trkpt lat="48.75123" lon="2.54611">
        <ele>104</ele>
        <time>2026-05-20T13:22:57.999Z</time>
      </trkpt>
      <trkpt lat="48.75117" lon="2.54608">
        <ele>104</ele>
        <time>2026-05-20T13:23:02.999Z</time>
      </trkpt>
      <trkpt lat="48.75111" lon="2.54604">
        <ele>104</ele>
        <time>2026-05-20T13:23:07.999Z</time>
      </trkpt>
      <trkpt lat="48.75106" lon="2.54601">
        <ele>104</ele>
        <time>2026-05-20T13:23:12.999Z</time>
      </trkpt>
      <trkpt lat="48.75102" lon="2.54598">
        <ele>104</ele>
        <time>2026-05-20T13:23:17.999Z</time>
      </trkpt>
      <trkpt lat="48.75097" lon="2.54595">
        <ele>105</ele>
        <time>2026-05-20T13:23:22.999Z</time>
      </trkpt>
      <trkpt lat="48.75093" lon="2.54593">
        <ele>105</ele>
        <time>2026-05-20T13:23:27.999Z</time>
      </trkpt>
      <trkpt lat="48.7509" lon="2.54589">
        <ele>105</ele>
        <time>2026-05-20T13:23:32.999Z</time>
      </trkpt>
      <trkpt lat="48.75085" lon="2.54585">
        <ele>105</ele>
        <time>2026-05-20T13:23:37.999Z</time>
      </trkpt>
      <trkpt lat="48.75081" lon="2.5458">
        <ele>105</ele>
        <time>2026-05-20T13:23:42.999Z</time>
      </trkpt>
      <trkpt lat="48.75081" lon="2.5458">
        <ele>105</ele>
        <time>2026-05-20T13:23:47.999Z</time>
      </trkpt>
      <trkpt lat="48.75077" lon="2.54577">
        <ele>105</ele>
        <time>2026-05-20T13:23:52.999Z</time>
      </trkpt>
      <trkpt lat="48.75075" lon="2.54575">
        <ele>105</ele>
        <time>2026-05-20T13:23:56.999Z</time>
      </trkpt>
      <trkpt lat="48.75068" lon="2.5457">
        <ele>103</ele>
        <time>2026-05-20T13:24:01.999Z</time>
      </trkpt>
      <trkpt lat="48.75065" lon="2.54566">
        <ele>103</ele>
        <time>2026-05-20T13:24:06.999Z</time>
      </trkpt>
      <trkpt lat="48.75059" lon="2.54562">
        <ele>103</ele>
        <time>2026-05-20T13:24:11.999Z</time>
      </trkpt>
      <trkpt lat="48.75052" lon="2.54562">
        <ele>103</ele>
        <time>2026-05-20T13:24:16.999Z</time>
      </trkpt>
      <trkpt lat="48.75047" lon="2.54556">
        <ele>103</ele>
        <time>2026-05-20T13:24:21.999Z</time>
      </trkpt>
      <trkpt lat="48.75043" lon="2.54553">
        <ele>103</ele>
        <time>2026-05-20T13:24:27Z</time>
      </trkpt>
      <trkpt lat="48.75037" lon="2.54548">
        <ele>101</ele>
        <time>2026-05-20T13:24:32Z</time>
      </trkpt>
      <trkpt lat="48.75034" lon="2.54545">
        <ele>101</ele>
        <time>2026-05-20T13:24:37Z</time>
      </trkpt>
      <trkpt lat="48.75029" lon="2.54541">
        <ele>102</ele>
        <time>2026-05-20T13:24:42Z</time>
      </trkpt>
      <trkpt lat="48.75023" lon="2.54537">
        <ele>102</ele>
        <time>2026-05-20T13:24:47Z</time>
      </trkpt>
      <trkpt lat="48.75016" lon="2.54535">
        <ele>102</ele>
        <time>2026-05-20T13:24:51.999Z</time>
      </trkpt>
      <trkpt lat="48.7501" lon="2.5453">
        <ele>101</ele>
        <time>2026-05-20T13:24:56.999Z</time>
      </trkpt>
      <trkpt lat="48.75007" lon="2.54525">
        <ele>101</ele>
        <time>2026-05-20T13:25:01.999Z</time>
      </trkpt>
      <trkpt lat="48.75003" lon="2.54518">
        <ele>101</ele>
        <time>2026-05-20T13:25:06.999Z</time>
      </trkpt>
      <trkpt lat="48.74997" lon="2.54516">
        <ele>101</ele>
        <time>2026-05-20T13:25:11.999Z</time>
      </trkpt>
      <trkpt lat="48.74992" lon="2.54512">
        <ele>101</ele>
        <time>2026-05-20T13:25:16.999Z</time>
      </trkpt>
      <trkpt lat="48.74987" lon="2.54508">
        <ele>101</ele>
        <time>2026-05-20T13:25:21.999Z</time>
      </trkpt>
      <trkpt lat="48.74982" lon="2.54503">
        <ele>101</ele>
        <time>2026-05-20T13:25:26.999Z</time>
      </trkpt>
      <trkpt lat="48.74976" lon="2.54498">
        <ele>101</ele>
        <time>2026-05-20T13:25:31.999Z</time>
      </trkpt>
      <trkpt lat="48.74972" lon="2.54495">
        <ele>101</ele>
        <time>2026-05-20T13:25:36.999Z</time>
      </trkpt>
      <trkpt lat="48.74966" lon="2.5449">
        <ele>101</ele>
        <time>2026-05-20T13:25:41.999Z</time>
      </trkpt>
      <trkpt lat="48.74958" lon="2.54486">
        <ele>101</ele>
        <time>2026-05-20T13:25:46.999Z</time>
      </trkpt>
      <trkpt lat="48.74952" lon="2.54483">
        <ele>101</ele>
        <time>2026-05-20T13:25:51.999Z</time>
      </trkpt>
      <trkpt lat="48.74947" lon="2.54479">
        <ele>101</ele>
        <time>2026-05-20T13:25:56.999Z</time>
      </trkpt>
      <trkpt lat="48.74942" lon="2.54473">
        <ele>101</ele>
        <time>2026-05-20T13:26:01.999Z</time>
      </trkpt>
      <trkpt lat="48.74938" lon="2.54471">
        <ele>101</ele>
        <time>2026-05-20T13:26:06.999Z</time>
      </trkpt>
      <trkpt lat="48.74933" lon="2.54469">
        <ele>101</ele>
        <time>2026-05-20T13:26:11.999Z</time>
      </trkpt>
      <trkpt lat="48.74927" lon="2.54464">
        <ele>101</ele>
        <time>2026-05-20T13:26:16.999Z</time>
      </trkpt>
      <trkpt lat="48.74922" lon="2.54458">
        <ele>102</ele>
        <time>2026-05-20T13:26:21.999Z</time>
      </trkpt>
      <trkpt lat="48.74917" lon="2.54457">
        <ele>102</ele>
        <time>2026-05-20T13:26:26.999Z</time>
      </trkpt>
      <trkpt lat="48.74913" lon="2.54449">
        <ele>102</ele>
        <time>2026-05-20T13:26:31.999Z</time>
      </trkpt>
      <trkpt lat="48.74909" lon="2.54447">
        <ele>102</ele>
        <time>2026-05-20T13:26:37Z</time>
      </trkpt>
      <trkpt lat="48.74902" lon="2.54441">
        <ele>101</ele>
        <time>2026-05-20T13:26:41.999Z</time>
      </trkpt>
      <trkpt lat="48.74897" lon="2.54437">
        <ele>101</ele>
        <time>2026-05-20T13:26:46.999Z</time>
      </trkpt>
      <trkpt lat="48.74892" lon="2.54431">
        <ele>100</ele>
        <time>2026-05-20T13:26:51.999Z</time>
      </trkpt>
      <trkpt lat="48.74892" lon="2.54422">
        <ele>100</ele>
        <time>2026-05-20T13:26:56.999Z</time>
      </trkpt>
      <trkpt lat="48.74892" lon="2.54415">
        <ele>100</ele>
        <time>2026-05-20T13:27:01.999Z</time>
      </trkpt>
      <trkpt lat="48.74894" lon="2.54407">
        <ele>100</ele>
        <time>2026-05-20T13:27:06.999Z</time>
      </trkpt>
      <trkpt lat="48.74897" lon="2.54398">
        <ele>100</ele>
        <time>2026-05-20T13:27:11.999Z</time>
      </trkpt>
      <trkpt lat="48.74898" lon="2.54393">
        <ele>100</ele>
        <time>2026-05-20T13:27:16.999Z</time>
      </trkpt>
      <trkpt lat="48.74901" lon="2.54381">
        <ele>100</ele>
        <time>2026-05-20T13:27:21.999Z</time>
      </trkpt>
      <trkpt lat="48.74901" lon="2.54374">
        <ele>99</ele>
        <time>2026-05-20T13:27:26.999Z</time>
      </trkpt>
      <trkpt lat="48.74904" lon="2.54367">
        <ele>101</ele>
        <time>2026-05-20T13:27:31.999Z</time>
      </trkpt>
      <trkpt lat="48.74906" lon="2.5436">
        <ele>101</ele>
        <time>2026-05-20T13:27:36.999Z</time>
      </trkpt>
      <trkpt lat="48.74907" lon="2.54352">
        <ele>101</ele>
        <time>2026-05-20T13:27:41.999Z</time>
      </trkpt>
      <trkpt lat="48.74909" lon="2.54344">
        <ele>101</ele>
        <time>2026-05-20T13:27:46.999Z</time>
      </trkpt>
      <trkpt lat="48.74911" lon="2.5433">
        <ele>101</ele>
        <time>2026-05-20T13:27:51.999Z</time>
      </trkpt>
      <trkpt lat="48.74916" lon="2.54321">
        <ele>101</ele>
        <time>2026-05-20T13:27:56.999Z</time>
      </trkpt>
      <trkpt lat="48.74919" lon="2.54313">
        <ele>101</ele>
        <time>2026-05-20T13:28:01.999Z</time>
      </trkpt>
      <trkpt lat="48.7492" lon="2.54304">
        <ele>101</ele>
        <time>2026-05-20T13:28:06.999Z</time>
      </trkpt>
      <trkpt lat="48.74924" lon="2.54296">
        <ele>101</ele>
        <time>2026-05-20T13:28:11.999Z</time>
      </trkpt>
      <trkpt lat="48.74927" lon="2.54287">
        <ele>101</ele>
        <time>2026-05-20T13:28:16.999Z</time>
      </trkpt>
      <trkpt lat="48.7493" lon="2.54279">
        <ele>101</ele>
        <time>2026-05-20T13:28:21.999Z</time>
      </trkpt>
      <trkpt lat="48.74931" lon="2.54268">
        <ele>101</ele>
        <time>2026-05-20T13:28:26.999Z</time>
      </trkpt>
      <trkpt lat="48.74932" lon="2.54262">
        <ele>101</ele>
        <time>2026-05-20T13:28:31.999Z</time>
      </trkpt>
      <trkpt lat="48.74933" lon="2.54254">
        <ele>101</ele>
        <time>2026-05-20T13:28:36.999Z</time>
      </trkpt>
      <trkpt lat="48.74933" lon="2.54246">
        <ele>101</ele>
        <time>2026-05-20T13:28:41.999Z</time>
      </trkpt>
      <trkpt lat="48.74934" lon="2.54236">
        <ele>101</ele>
        <time>2026-05-20T13:28:46.999Z</time>
      </trkpt>
      <trkpt lat="48.74933" lon="2.54226">
        <ele>101</ele>
        <time>2026-05-20T13:28:51.999Z</time>
      </trkpt>
      <trkpt lat="48.74934" lon="2.54217">
        <ele>101</ele>
        <time>2026-05-20T13:28:56.999Z</time>
      </trkpt>
      <trkpt lat="48.74935" lon="2.54207">
        <ele>101</ele>
        <time>2026-05-20T13:29:01.999Z</time>
      </trkpt>
      <trkpt lat="48.74937" lon="2.542">
        <ele>101</ele>
        <time>2026-05-20T13:29:06.999Z</time>
      </trkpt>
      <trkpt lat="48.74938" lon="2.54188">
        <ele>101</ele>
        <time>2026-05-20T13:29:11.999Z</time>
      </trkpt>
      <trkpt lat="48.74944" lon="2.54178">
        <ele>100</ele>
        <time>2026-05-20T13:29:16.999Z</time>
      </trkpt>
      <trkpt lat="48.74948" lon="2.54169">
        <ele>100</ele>
        <time>2026-05-20T13:29:21.999Z</time>
      </trkpt>
      <trkpt lat="48.74949" lon="2.54161">
        <ele>100</ele>
        <time>2026-05-20T13:29:26.999Z</time>
      </trkpt>
      <trkpt lat="48.74948" lon="2.54151">
        <ele>100</ele>
        <time>2026-05-20T13:29:31.999Z</time>
      </trkpt>
      <trkpt lat="48.7495" lon="2.54142">
        <ele>100</ele>
        <time>2026-05-20T13:29:36.999Z</time>
      </trkpt>
      <trkpt lat="48.74951" lon="2.54133">
        <ele>100</ele>
        <time>2026-05-20T13:29:41.999Z</time>
      </trkpt>
      <trkpt lat="48.74953" lon="2.54124">
        <ele>100</ele>
        <time>2026-05-20T13:29:46.999Z</time>
      </trkpt>
      <trkpt lat="48.74954" lon="2.54115">
        <ele>100</ele>
        <time>2026-05-20T13:29:51.999Z</time>
      </trkpt>
      <trkpt lat="48.74955" lon="2.54107">
        <ele>100</ele>
        <time>2026-05-20T13:29:56.999Z</time>
      </trkpt>
      <trkpt lat="48.74957" lon="2.54101">
        <ele>100</ele>
        <time>2026-05-20T13:30:01.999Z</time>
      </trkpt>
      <trkpt lat="48.74958" lon="2.54091">
        <ele>99</ele>
        <time>2026-05-20T13:30:06.999Z</time>
      </trkpt>
      <trkpt lat="48.74961" lon="2.54079">
        <ele>99</ele>
        <time>2026-05-20T13:30:11.999Z</time>
      </trkpt>
      <trkpt lat="48.74964" lon="2.5407">
        <ele>99</ele>
        <time>2026-05-20T13:30:16.999Z</time>
      </trkpt>
      <trkpt lat="48.74966" lon="2.5406">
        <ele>99</ele>
        <time>2026-05-20T13:30:21.999Z</time>
      </trkpt>
      <trkpt lat="48.74968" lon="2.54051">
        <ele>99</ele>
        <time>2026-05-20T13:30:26.999Z</time>
      </trkpt>
      <trkpt lat="48.74969" lon="2.54043">
        <ele>99</ele>
        <time>2026-05-20T13:30:31.999Z</time>
      </trkpt>
      <trkpt lat="48.74972" lon="2.54034">
        <ele>99</ele>
        <time>2026-05-20T13:30:36.999Z</time>
      </trkpt>
      <trkpt lat="48.74972" lon="2.54027">
        <ele>99</ele>
        <time>2026-05-20T13:30:41.999Z</time>
      </trkpt>
      <trkpt lat="48.74968" lon="2.54024">
        <ele>99</ele>
        <time>2026-05-20T13:30:46.999Z</time>
      </trkpt>
      <trkpt lat="48.74963" lon="2.54023">
        <ele>99</ele>
        <time>2026-05-20T13:30:51.999Z</time>
      </trkpt>
      <trkpt lat="48.74958" lon="2.54019">
        <ele>99</ele>
        <time>2026-05-20T13:30:56.999Z</time>
      </trkpt>
      <trkpt lat="48.74952" lon="2.54014">
        <ele>99</ele>
        <time>2026-05-20T13:31:01.999Z</time>
      </trkpt>
      <trkpt lat="48.74947" lon="2.54008">
        <ele>99</ele>
        <time>2026-05-20T13:31:06.999Z</time>
      </trkpt>
      <trkpt lat="48.74941" lon="2.54004">
        <ele>99</ele>
        <time>2026-05-20T13:31:11.999Z</time>
      </trkpt>
      <trkpt lat="48.74935" lon="2.54">
        <ele>99</ele>
        <time>2026-05-20T13:31:16.999Z</time>
      </trkpt>
      <trkpt lat="48.7493" lon="2.53996">
        <ele>99</ele>
        <time>2026-05-20T13:31:21.999Z</time>
      </trkpt>
      <trkpt lat="48.74925" lon="2.5399">
        <ele>99</ele>
        <time>2026-05-20T13:31:26.999Z</time>
      </trkpt>
      <trkpt lat="48.74918" lon="2.53985">
        <ele>98</ele>
        <time>2026-05-20T13:31:31.999Z</time>
      </trkpt>
      <trkpt lat="48.74914" lon="2.5398">
        <ele>98</ele>
        <time>2026-05-20T13:31:36.999Z</time>
      </trkpt>
      <trkpt lat="48.7491" lon="2.53973">
        <ele>98</ele>
        <time>2026-05-20T13:31:40.999Z</time>
      </trkpt>
    </trkseg>
  </trk>
</gpx>